<?xml version="1.0" encoding="UTF-8" standalone="no" ?>
<gpx xmlns="http://www.topografix.com/GPX/1/1" xmlns:xsi="http://www.w3.org/2001/XMLSchema-instance" xsi:schemaLocation="http://www.topografix.com/GPX/1/1 http://www.topografix.com/GPX/1/1/gpx.xsd" version="1.1" creator="VisuGPX - https://www.visugpx.com">
  <metadata>
    <name>La Pastourelle Trail 32 km individuel</name>
    <desc><![CDATA[Le départ de Salers, un passage dans les rues pavées de la cité médiévale et une traversée du site de la Peyrade vous emmèneront au pied du suc Cobru (1211m) où vous attendra l?équipe à Jojo près du buron pour un premier ravitaillement musical et une dégustation de charcuterie.]]></desc>
  </metadata>
  <trk>
    <name><![CDATA[La Pastourelle Trail 32 km individuel_1]]></name>
    <trkseg>
      <trkpt lat="45.13799" lon="2.49384">
        <ele>967.6</ele>
        <time>2018-05-20T10:16:44.000Z</time>
      </trkpt>
      <trkpt lat="45.138" lon="2.49384">
        <ele>967</ele>
        <time>2018-05-20T10:16:45.000Z</time>
      </trkpt>
      <trkpt lat="45.138" lon="2.49383">
        <ele>966.8</ele>
        <time>2018-05-20T10:16:46.000Z</time>
      </trkpt>
      <trkpt lat="45.13801" lon="2.49383">
        <ele>966.4</ele>
        <time>2018-05-20T10:16:47.000Z</time>
      </trkpt>
      <trkpt lat="45.138" lon="2.49386">
        <ele>966.4</ele>
        <time>2018-05-20T10:16:55.000Z</time>
      </trkpt>
      <trkpt lat="45.13811" lon="2.49387">
        <ele>965.6</ele>
        <time>2018-05-20T10:17:07.000Z</time>
      </trkpt>
      <trkpt lat="45.13814" lon="2.49388">
        <ele>965.4</ele>
        <time>2018-05-20T10:17:09.000Z</time>
      </trkpt>
      <trkpt lat="45.13817" lon="2.49393">
        <ele>965.2</ele>
        <time>2018-05-20T10:17:13.000Z</time>
      </trkpt>
      <trkpt lat="45.13816" lon="2.49397">
        <ele>964.8</ele>
        <time>2018-05-20T10:17:16.000Z</time>
      </trkpt>
      <trkpt lat="45.13817" lon="2.49401">
        <ele>964.6</ele>
        <time>2018-05-20T10:17:18.000Z</time>
      </trkpt>
      <trkpt lat="45.13818" lon="2.49403">
        <ele>964.4</ele>
        <time>2018-05-20T10:17:19.000Z</time>
      </trkpt>
      <trkpt lat="45.13818" lon="2.49405">
        <ele>964.2</ele>
        <time>2018-05-20T10:17:20.000Z</time>
      </trkpt>
      <trkpt lat="45.13819" lon="2.49407">
        <ele>964</ele>
        <time>2018-05-20T10:17:22.000Z</time>
      </trkpt>
      <trkpt lat="45.13819" lon="2.49407">
        <ele>964</ele>
        <time>2018-05-20T10:17:23.000Z</time>
      </trkpt>
      <trkpt lat="45.13818" lon="2.49408">
        <ele>963.8</ele>
        <time>2018-05-20T10:17:24.000Z</time>
      </trkpt>
      <trkpt lat="45.13822" lon="2.49414">
        <ele>963.4</ele>
        <time>2018-05-20T10:17:27.000Z</time>
      </trkpt>
      <trkpt lat="45.13823" lon="2.49417">
        <ele>963.2</ele>
        <time>2018-05-20T10:17:29.000Z</time>
      </trkpt>
      <trkpt lat="45.13823" lon="2.49418">
        <ele>963</ele>
        <time>2018-05-20T10:17:30.000Z</time>
      </trkpt>
      <trkpt lat="45.13823" lon="2.49419">
        <ele>963</ele>
        <time>2018-05-20T10:17:31.000Z</time>
      </trkpt>
      <trkpt lat="45.13824" lon="2.49424">
        <ele>962.8</ele>
        <time>2018-05-20T10:17:35.000Z</time>
      </trkpt>
      <trkpt lat="45.13824" lon="2.49426">
        <ele>962.4</ele>
        <time>2018-05-20T10:17:37.000Z</time>
      </trkpt>
      <trkpt lat="45.13824" lon="2.49427">
        <ele>962.4</ele>
        <time>2018-05-20T10:17:38.000Z</time>
      </trkpt>
      <trkpt lat="45.13824" lon="2.49429">
        <ele>962.2</ele>
        <time>2018-05-20T10:17:39.000Z</time>
      </trkpt>
      <trkpt lat="45.13824" lon="2.4943">
        <ele>962.2</ele>
        <time>2018-05-20T10:17:40.000Z</time>
      </trkpt>
      <trkpt lat="45.13826" lon="2.49432">
        <ele>962.2</ele>
        <time>2018-05-20T10:17:42.000Z</time>
      </trkpt>
      <trkpt lat="45.13827" lon="2.49434">
        <ele>962</ele>
        <time>2018-05-20T10:17:44.000Z</time>
      </trkpt>
      <trkpt lat="45.13829" lon="2.49435">
        <ele>961.8</ele>
        <time>2018-05-20T10:17:47.000Z</time>
      </trkpt>
      <trkpt lat="45.13831" lon="2.4944">
        <ele>961.8</ele>
        <time>2018-05-20T10:17:54.000Z</time>
      </trkpt>
      <trkpt lat="45.13846" lon="2.49469">
        <ele>961.6</ele>
        <time>2018-05-20T10:18:07.000Z</time>
      </trkpt>
      <trkpt lat="45.13863" lon="2.49495">
        <ele>961.8</ele>
        <time>2018-05-20T10:18:17.000Z</time>
      </trkpt>
      <trkpt lat="45.13865" lon="2.49496">
        <ele>962</ele>
        <time>2018-05-20T10:18:18.000Z</time>
      </trkpt>
      <trkpt lat="45.13866" lon="2.49498">
        <ele>961.8</ele>
        <time>2018-05-20T10:18:20.000Z</time>
      </trkpt>
      <trkpt lat="45.13867" lon="2.49499">
        <ele>961.6</ele>
        <time>2018-05-20T10:18:21.000Z</time>
      </trkpt>
      <trkpt lat="45.13887" lon="2.49502">
        <ele>961</ele>
        <time>2018-05-20T10:18:27.000Z</time>
      </trkpt>
      <trkpt lat="45.13896" lon="2.49511">
        <ele>960.6</ele>
        <time>2018-05-20T10:18:31.000Z</time>
      </trkpt>
      <trkpt lat="45.13898" lon="2.49518">
        <ele>960.4</ele>
        <time>2018-05-20T10:18:33.000Z</time>
      </trkpt>
      <trkpt lat="45.13906" lon="2.49567">
        <ele>959.4</ele>
        <time>2018-05-20T10:18:46.000Z</time>
      </trkpt>
      <trkpt lat="45.1392" lon="2.49678">
        <ele>958.8</ele>
        <time>2018-05-20T10:19:17.000Z</time>
      </trkpt>
      <trkpt lat="45.13924" lon="2.49697">
        <ele>958.8</ele>
        <time>2018-05-20T10:19:24.000Z</time>
      </trkpt>
      <trkpt lat="45.13932" lon="2.49712">
        <ele>960</ele>
        <time>2018-05-20T10:19:30.000Z</time>
      </trkpt>
      <trkpt lat="45.13946" lon="2.49719">
        <ele>961</ele>
        <time>2018-05-20T10:19:38.000Z</time>
      </trkpt>
      <trkpt lat="45.1396" lon="2.49718">
        <ele>961.8</ele>
        <time>2018-05-20T10:19:45.000Z</time>
      </trkpt>
      <trkpt lat="45.13963" lon="2.49719">
        <ele>962.2</ele>
        <time>2018-05-20T10:19:47.000Z</time>
      </trkpt>
      <trkpt lat="45.13972" lon="2.49719">
        <ele>963.4</ele>
        <time>2018-05-20T10:19:52.000Z</time>
      </trkpt>
      <trkpt lat="45.1398" lon="2.4972">
        <ele>964.6</ele>
        <time>2018-05-20T10:19:57.000Z</time>
      </trkpt>
      <trkpt lat="45.13989" lon="2.49725">
        <ele>966</ele>
        <time>2018-05-20T10:20:02.000Z</time>
      </trkpt>
      <trkpt lat="45.13995" lon="2.49731">
        <ele>967.2</ele>
        <time>2018-05-20T10:20:07.000Z</time>
      </trkpt>
      <trkpt lat="45.13997" lon="2.49745">
        <ele>968.2</ele>
        <time>2018-05-20T10:20:13.000Z</time>
      </trkpt>
      <trkpt lat="45.13998" lon="2.49757">
        <ele>969.2</ele>
        <time>2018-05-20T10:20:18.000Z</time>
      </trkpt>
      <trkpt lat="45.13997" lon="2.49772">
        <ele>970.4</ele>
        <time>2018-05-20T10:20:23.000Z</time>
      </trkpt>
      <trkpt lat="45.13995" lon="2.49782">
        <ele>971</ele>
        <time>2018-05-20T10:20:27.000Z</time>
      </trkpt>
      <trkpt lat="45.13991" lon="2.49787">
        <ele>971.6</ele>
        <time>2018-05-20T10:20:30.000Z</time>
      </trkpt>
      <trkpt lat="45.13992" lon="2.49789">
        <ele>971.8</ele>
        <time>2018-05-20T10:20:32.000Z</time>
      </trkpt>
      <trkpt lat="45.1399" lon="2.49801">
        <ele>972.6</ele>
        <time>2018-05-20T10:20:37.000Z</time>
      </trkpt>
      <trkpt lat="45.1399" lon="2.49852">
        <ele>977.2</ele>
        <time>2018-05-20T10:20:57.000Z</time>
      </trkpt>
      <trkpt lat="45.13993" lon="2.4986">
        <ele>978.2</ele>
        <time>2018-05-20T10:21:02.000Z</time>
      </trkpt>
      <trkpt lat="45.13996" lon="2.49877">
        <ele>979.4</ele>
        <time>2018-05-20T10:21:08.000Z</time>
      </trkpt>
      <trkpt lat="45.13996" lon="2.49892">
        <ele>980.4</ele>
        <time>2018-05-20T10:21:14.000Z</time>
      </trkpt>
      <trkpt lat="45.13999" lon="2.49908">
        <ele>981.4</ele>
        <time>2018-05-20T10:21:20.000Z</time>
      </trkpt>
      <trkpt lat="45.13998" lon="2.49923">
        <ele>982.6</ele>
        <time>2018-05-20T10:21:27.000Z</time>
      </trkpt>
      <trkpt lat="45.13998" lon="2.49931">
        <ele>983.8</ele>
        <time>2018-05-20T10:21:33.000Z</time>
      </trkpt>
      <trkpt lat="45.13999" lon="2.49933">
        <ele>984</ele>
        <time>2018-05-20T10:21:35.000Z</time>
      </trkpt>
      <trkpt lat="45.14" lon="2.49949">
        <ele>984.6</ele>
        <time>2018-05-20T10:21:41.000Z</time>
      </trkpt>
      <trkpt lat="45.14004" lon="2.49974">
        <ele>984.8</ele>
        <time>2018-05-20T10:21:50.000Z</time>
      </trkpt>
      <trkpt lat="45.14006" lon="2.49979">
        <ele>985</ele>
        <time>2018-05-20T10:21:53.000Z</time>
      </trkpt>
      <trkpt lat="45.1401" lon="2.49986">
        <ele>985.6</ele>
        <time>2018-05-20T10:21:58.000Z</time>
      </trkpt>
      <trkpt lat="45.14036" lon="2.50007">
        <ele>986.6</ele>
        <time>2018-05-20T10:22:25.000Z</time>
      </trkpt>
      <trkpt lat="45.14038" lon="2.50011">
        <ele>987.4</ele>
        <time>2018-05-20T10:22:30.000Z</time>
      </trkpt>
      <trkpt lat="45.1404" lon="2.50015">
        <ele>987.4</ele>
        <time>2018-05-20T10:22:34.000Z</time>
      </trkpt>
      <trkpt lat="45.14041" lon="2.50016">
        <ele>987.6</ele>
        <time>2018-05-20T10:22:35.000Z</time>
      </trkpt>
      <trkpt lat="45.14045" lon="2.50018">
        <ele>987.8</ele>
        <time>2018-05-20T10:22:40.000Z</time>
      </trkpt>
      <trkpt lat="45.14054" lon="2.50023">
        <ele>987.8</ele>
        <time>2018-05-20T10:22:45.000Z</time>
      </trkpt>
      <trkpt lat="45.14062" lon="2.5003">
        <ele>988</ele>
        <time>2018-05-20T10:22:50.000Z</time>
      </trkpt>
      <trkpt lat="45.14066" lon="2.50038">
        <ele>988.6</ele>
        <time>2018-05-20T10:22:55.000Z</time>
      </trkpt>
      <trkpt lat="45.14069" lon="2.50042">
        <ele>988.8</ele>
        <time>2018-05-20T10:22:57.000Z</time>
      </trkpt>
      <trkpt lat="45.14072" lon="2.50046">
        <ele>988.6</ele>
        <time>2018-05-20T10:22:59.000Z</time>
      </trkpt>
      <trkpt lat="45.14073" lon="2.50048">
        <ele>988.6</ele>
        <time>2018-05-20T10:23:00.000Z</time>
      </trkpt>
      <trkpt lat="45.14085" lon="2.50064">
        <ele>990</ele>
        <time>2018-05-20T10:23:10.000Z</time>
      </trkpt>
      <trkpt lat="45.14091" lon="2.50069">
        <ele>990.2</ele>
        <time>2018-05-20T10:23:14.000Z</time>
      </trkpt>
      <trkpt lat="45.14093" lon="2.50073">
        <ele>990.2</ele>
        <time>2018-05-20T10:23:17.000Z</time>
      </trkpt>
      <trkpt lat="45.14094" lon="2.50076">
        <ele>990.4</ele>
        <time>2018-05-20T10:23:19.000Z</time>
      </trkpt>
      <trkpt lat="45.14093" lon="2.50078">
        <ele>990.6</ele>
        <time>2018-05-20T10:23:20.000Z</time>
      </trkpt>
      <trkpt lat="45.14093" lon="2.50081">
        <ele>990.6</ele>
        <time>2018-05-20T10:23:21.000Z</time>
      </trkpt>
      <trkpt lat="45.14096" lon="2.50095">
        <ele>990.8</ele>
        <time>2018-05-20T10:23:26.000Z</time>
      </trkpt>
      <trkpt lat="45.141" lon="2.50107">
        <ele>991</ele>
        <time>2018-05-20T10:23:31.000Z</time>
      </trkpt>
      <trkpt lat="45.14101" lon="2.50109">
        <ele>991.2</ele>
        <time>2018-05-20T10:23:32.000Z</time>
      </trkpt>
      <trkpt lat="45.14102" lon="2.5011">
        <ele>991.2</ele>
        <time>2018-05-20T10:23:33.000Z</time>
      </trkpt>
      <trkpt lat="45.14104" lon="2.50114">
        <ele>991.4</ele>
        <time>2018-05-20T10:23:35.000Z</time>
      </trkpt>
      <trkpt lat="45.14106" lon="2.50121">
        <ele>992.2</ele>
        <time>2018-05-20T10:23:40.000Z</time>
      </trkpt>
      <trkpt lat="45.14107" lon="2.50122">
        <ele>992.2</ele>
        <time>2018-05-20T10:23:42.000Z</time>
      </trkpt>
      <trkpt lat="45.14107" lon="2.50124">
        <ele>992.2</ele>
        <time>2018-05-20T10:23:45.000Z</time>
      </trkpt>
      <trkpt lat="45.14107" lon="2.50125">
        <ele>992.2</ele>
        <time>2018-05-20T10:23:47.000Z</time>
      </trkpt>
      <trkpt lat="45.14108" lon="2.50126">
        <ele>992.2</ele>
        <time>2018-05-20T10:23:48.000Z</time>
      </trkpt>
      <trkpt lat="45.14108" lon="2.50126">
        <ele>992.2</ele>
        <time>2018-05-20T10:23:49.000Z</time>
      </trkpt>
      <trkpt lat="45.14111" lon="2.50137">
        <ele>991.8</ele>
        <time>2018-05-20T10:23:55.000Z</time>
      </trkpt>
      <trkpt lat="45.14112" lon="2.50139">
        <ele>991.6</ele>
        <time>2018-05-20T10:23:57.000Z</time>
      </trkpt>
      <trkpt lat="45.14165" lon="2.50224">
        <ele>992.2</ele>
        <time>2018-05-20T10:24:34.000Z</time>
      </trkpt>
      <trkpt lat="45.14171" lon="2.50231">
        <ele>992.4</ele>
        <time>2018-05-20T10:24:37.000Z</time>
      </trkpt>
      <trkpt lat="45.14178" lon="2.50244">
        <ele>993.4</ele>
        <time>2018-05-20T10:24:42.000Z</time>
      </trkpt>
      <trkpt lat="45.14189" lon="2.50259">
        <ele>994.6</ele>
        <time>2018-05-20T10:24:50.000Z</time>
      </trkpt>
      <trkpt lat="45.14194" lon="2.50265">
        <ele>995.6</ele>
        <time>2018-05-20T10:24:54.000Z</time>
      </trkpt>
      <trkpt lat="45.14196" lon="2.50268">
        <ele>996.4</ele>
        <time>2018-05-20T10:24:56.000Z</time>
      </trkpt>
      <trkpt lat="45.14199" lon="2.50272">
        <ele>996.8</ele>
        <time>2018-05-20T10:24:59.000Z</time>
      </trkpt>
      <trkpt lat="45.14199" lon="2.50274">
        <ele>996.8</ele>
        <time>2018-05-20T10:25:00.000Z</time>
      </trkpt>
      <trkpt lat="45.142" lon="2.50282">
        <ele>997.8</ele>
        <time>2018-05-20T10:25:04.000Z</time>
      </trkpt>
      <trkpt lat="45.14208" lon="2.503">
        <ele>999</ele>
        <time>2018-05-20T10:25:12.000Z</time>
      </trkpt>
      <trkpt lat="45.14209" lon="2.50305">
        <ele>999.6</ele>
        <time>2018-05-20T10:25:14.000Z</time>
      </trkpt>
      <trkpt lat="45.14222" lon="2.50343">
        <ele>1001.2</ele>
        <time>2018-05-20T10:25:28.000Z</time>
      </trkpt>
      <trkpt lat="45.14226" lon="2.5035">
        <ele>1001.4</ele>
        <time>2018-05-20T10:25:31.000Z</time>
      </trkpt>
      <trkpt lat="45.14242" lon="2.5038">
        <ele>1002.6</ele>
        <time>2018-05-20T10:25:43.000Z</time>
      </trkpt>
      <trkpt lat="45.14272" lon="2.50413">
        <ele>1003.6</ele>
        <time>2018-05-20T10:26:01.000Z</time>
      </trkpt>
      <trkpt lat="45.14283" lon="2.50423">
        <ele>1004.4</ele>
        <time>2018-05-20T10:26:07.000Z</time>
      </trkpt>
      <trkpt lat="45.14306" lon="2.50452">
        <ele>1006</ele>
        <time>2018-05-20T10:26:22.000Z</time>
      </trkpt>
      <trkpt lat="45.14308" lon="2.50454">
        <ele>1006.2</ele>
        <time>2018-05-20T10:26:23.000Z</time>
      </trkpt>
      <trkpt lat="45.14315" lon="2.50464">
        <ele>1006.8</ele>
        <time>2018-05-20T10:26:28.000Z</time>
      </trkpt>
      <trkpt lat="45.14334" lon="2.50485">
        <ele>1009.6</ele>
        <time>2018-05-20T10:26:41.000Z</time>
      </trkpt>
      <trkpt lat="45.14335" lon="2.50488">
        <ele>1010</ele>
        <time>2018-05-20T10:26:43.000Z</time>
      </trkpt>
      <trkpt lat="45.14339" lon="2.50491">
        <ele>1010.4</ele>
        <time>2018-05-20T10:26:45.000Z</time>
      </trkpt>
      <trkpt lat="45.14356" lon="2.50509">
        <ele>1012.2</ele>
        <time>2018-05-20T10:26:55.000Z</time>
      </trkpt>
      <trkpt lat="45.14383" lon="2.50572">
        <ele>1017.8</ele>
        <time>2018-05-20T10:27:22.000Z</time>
      </trkpt>
      <trkpt lat="45.1439" lon="2.50586">
        <ele>1019</ele>
        <time>2018-05-20T10:27:29.000Z</time>
      </trkpt>
      <trkpt lat="45.14393" lon="2.50594">
        <ele>1020</ele>
        <time>2018-05-20T10:27:33.000Z</time>
      </trkpt>
      <trkpt lat="45.14397" lon="2.50602">
        <ele>1021</ele>
        <time>2018-05-20T10:27:38.000Z</time>
      </trkpt>
      <trkpt lat="45.14398" lon="2.50611">
        <ele>1022.2</ele>
        <time>2018-05-20T10:27:43.000Z</time>
      </trkpt>
      <trkpt lat="45.14397" lon="2.50632">
        <ele>1023</ele>
        <time>2018-05-20T10:27:51.000Z</time>
      </trkpt>
      <trkpt lat="45.14398" lon="2.50646">
        <ele>1023.6</ele>
        <time>2018-05-20T10:27:56.000Z</time>
      </trkpt>
      <trkpt lat="45.14402" lon="2.50675">
        <ele>1024.4</ele>
        <time>2018-05-20T10:28:06.000Z</time>
      </trkpt>
      <trkpt lat="45.14416" lon="2.50719">
        <ele>1026.8</ele>
        <time>2018-05-20T10:28:22.000Z</time>
      </trkpt>
      <trkpt lat="45.1442" lon="2.50728">
        <ele>1027.8</ele>
        <time>2018-05-20T10:28:26.000Z</time>
      </trkpt>
      <trkpt lat="45.14424" lon="2.50737">
        <ele>1028.4</ele>
        <time>2018-05-20T10:28:31.000Z</time>
      </trkpt>
      <trkpt lat="45.14427" lon="2.50743">
        <ele>1029</ele>
        <time>2018-05-20T10:28:34.000Z</time>
      </trkpt>
      <trkpt lat="45.14434" lon="2.50765">
        <ele>1031.2</ele>
        <time>2018-05-20T10:28:45.000Z</time>
      </trkpt>
      <trkpt lat="45.1445" lon="2.50797">
        <ele>1033.4</ele>
        <time>2018-05-20T10:28:59.000Z</time>
      </trkpt>
      <trkpt lat="45.14458" lon="2.5082">
        <ele>1034.4</ele>
        <time>2018-05-20T10:29:10.000Z</time>
      </trkpt>
      <trkpt lat="45.14459" lon="2.50822">
        <ele>1034.4</ele>
        <time>2018-05-20T10:29:11.000Z</time>
      </trkpt>
      <trkpt lat="45.14461" lon="2.50827">
        <ele>1034.6</ele>
        <time>2018-05-20T10:29:14.000Z</time>
      </trkpt>
      <trkpt lat="45.1447" lon="2.50841">
        <ele>1034.8</ele>
        <time>2018-05-20T10:29:21.000Z</time>
      </trkpt>
      <trkpt lat="45.14498" lon="2.50875">
        <ele>1036.6</ele>
        <time>2018-05-20T10:29:38.000Z</time>
      </trkpt>
      <trkpt lat="45.14508" lon="2.50896">
        <ele>1036.8</ele>
        <time>2018-05-20T10:29:49.000Z</time>
      </trkpt>
      <trkpt lat="45.14544" lon="2.50945">
        <ele>1037.6</ele>
        <time>2018-05-20T10:30:15.000Z</time>
      </trkpt>
      <trkpt lat="45.14545" lon="2.50946">
        <ele>1037.8</ele>
        <time>2018-05-20T10:30:16.000Z</time>
      </trkpt>
      <trkpt lat="45.1456" lon="2.50969">
        <ele>1037.8</ele>
        <time>2018-05-20T10:30:29.000Z</time>
      </trkpt>
      <trkpt lat="45.14563" lon="2.50972">
        <ele>1038.2</ele>
        <time>2018-05-20T10:30:31.000Z</time>
      </trkpt>
      <trkpt lat="45.14566" lon="2.50978">
        <ele>1038.2</ele>
        <time>2018-05-20T10:30:35.000Z</time>
      </trkpt>
      <trkpt lat="45.1457" lon="2.50985">
        <ele>1038.8</ele>
        <time>2018-05-20T10:30:39.000Z</time>
      </trkpt>
      <trkpt lat="45.14572" lon="2.5099">
        <ele>1039.4</ele>
        <time>2018-05-20T10:30:42.000Z</time>
      </trkpt>
      <trkpt lat="45.14591" lon="2.51019">
        <ele>1039.8</ele>
        <time>2018-05-20T10:30:55.000Z</time>
      </trkpt>
      <trkpt lat="45.146" lon="2.51037">
        <ele>1040.8</ele>
        <time>2018-05-20T10:31:06.000Z</time>
      </trkpt>
      <trkpt lat="45.14606" lon="2.51043">
        <ele>1041</ele>
        <time>2018-05-20T10:31:11.000Z</time>
      </trkpt>
      <trkpt lat="45.14615" lon="2.51059">
        <ele>1041.2</ele>
        <time>2018-05-20T10:31:26.000Z</time>
      </trkpt>
      <trkpt lat="45.14616" lon="2.51061">
        <ele>1041.6</ele>
        <time>2018-05-20T10:31:28.000Z</time>
      </trkpt>
      <trkpt lat="45.14616" lon="2.51063">
        <ele>1041.6</ele>
        <time>2018-05-20T10:31:29.000Z</time>
      </trkpt>
      <trkpt lat="45.14629" lon="2.5108">
        <ele>1042</ele>
        <time>2018-05-20T10:31:45.000Z</time>
      </trkpt>
      <trkpt lat="45.14635" lon="2.51088">
        <ele>1041.6</ele>
        <time>2018-05-20T10:31:56.000Z</time>
      </trkpt>
      <trkpt lat="45.1464" lon="2.51095">
        <ele>1042.2</ele>
        <time>2018-05-20T10:32:07.000Z</time>
      </trkpt>
      <trkpt lat="45.1464" lon="2.51094">
        <ele>1042.2</ele>
        <time>2018-05-20T10:32:08.000Z</time>
      </trkpt>
      <trkpt lat="45.1464" lon="2.51094">
        <ele>1042.2</ele>
        <time>2018-05-20T10:32:10.000Z</time>
      </trkpt>
      <trkpt lat="45.1464" lon="2.51094">
        <ele>1042.4</ele>
        <time>2018-05-20T10:32:11.000Z</time>
      </trkpt>
      <trkpt lat="45.14646" lon="2.51104">
        <ele>1042.4</ele>
        <time>2018-05-20T10:32:36.000Z</time>
      </trkpt>
      <trkpt lat="45.14648" lon="2.51106">
        <ele>1042.8</ele>
        <time>2018-05-20T10:32:40.000Z</time>
      </trkpt>
      <trkpt lat="45.1465" lon="2.51107">
        <ele>1043</ele>
        <time>2018-05-20T10:32:42.000Z</time>
      </trkpt>
      <trkpt lat="45.1465" lon="2.51108">
        <ele>1043.2</ele>
        <time>2018-05-20T10:32:43.000Z</time>
      </trkpt>
      <trkpt lat="45.14652" lon="2.51106">
        <ele>1043.4</ele>
        <time>2018-05-20T10:32:45.000Z</time>
      </trkpt>
      <trkpt lat="45.14656" lon="2.51098">
        <ele>1043.8</ele>
        <time>2018-05-20T10:32:54.000Z</time>
      </trkpt>
      <trkpt lat="45.14657" lon="2.51097">
        <ele>1044</ele>
        <time>2018-05-20T10:32:55.000Z</time>
      </trkpt>
      <trkpt lat="45.14658" lon="2.51095">
        <ele>1044.2</ele>
        <time>2018-05-20T10:32:56.000Z</time>
      </trkpt>
      <trkpt lat="45.14659" lon="2.51091">
        <ele>1044.4</ele>
        <time>2018-05-20T10:32:58.000Z</time>
      </trkpt>
      <trkpt lat="45.1466" lon="2.5109">
        <ele>1044.4</ele>
        <time>2018-05-20T10:32:59.000Z</time>
      </trkpt>
      <trkpt lat="45.14661" lon="2.51089">
        <ele>1044.4</ele>
        <time>2018-05-20T10:33:01.000Z</time>
      </trkpt>
      <trkpt lat="45.14662" lon="2.51087">
        <ele>1044.4</ele>
        <time>2018-05-20T10:33:03.000Z</time>
      </trkpt>
      <trkpt lat="45.14663" lon="2.51085">
        <ele>1044.2</ele>
        <time>2018-05-20T10:33:06.000Z</time>
      </trkpt>
      <trkpt lat="45.14667" lon="2.51081">
        <ele>1044.2</ele>
        <time>2018-05-20T10:33:16.000Z</time>
      </trkpt>
      <trkpt lat="45.14669" lon="2.51079">
        <ele>1044.4</ele>
        <time>2018-05-20T10:33:21.000Z</time>
      </trkpt>
      <trkpt lat="45.14671" lon="2.51073">
        <ele>1044.4</ele>
        <time>2018-05-20T10:33:27.000Z</time>
      </trkpt>
      <trkpt lat="45.14675" lon="2.51067">
        <ele>1044.4</ele>
        <time>2018-05-20T10:33:43.000Z</time>
      </trkpt>
      <trkpt lat="45.14677" lon="2.51059">
        <ele>1043.8</ele>
        <time>2018-05-20T10:33:55.000Z</time>
      </trkpt>
      <trkpt lat="45.14678" lon="2.51057">
        <ele>1044</ele>
        <time>2018-05-20T10:33:57.000Z</time>
      </trkpt>
      <trkpt lat="45.14679" lon="2.51057">
        <ele>1044</ele>
        <time>2018-05-20T10:33:58.000Z</time>
      </trkpt>
      <trkpt lat="45.14679" lon="2.51056">
        <ele>1044.2</ele>
        <time>2018-05-20T10:33:59.000Z</time>
      </trkpt>
      <trkpt lat="45.1468" lon="2.51056">
        <ele>1044.2</ele>
        <time>2018-05-20T10:34:01.000Z</time>
      </trkpt>
      <trkpt lat="45.14681" lon="2.51056">
        <ele>1044</ele>
        <time>2018-05-20T10:34:06.000Z</time>
      </trkpt>
      <trkpt lat="45.14682" lon="2.51055">
        <ele>1043.8</ele>
        <time>2018-05-20T10:34:08.000Z</time>
      </trkpt>
      <trkpt lat="45.14682" lon="2.51054">
        <ele>1043.8</ele>
        <time>2018-05-20T10:34:09.000Z</time>
      </trkpt>
      <trkpt lat="45.14683" lon="2.51053">
        <ele>1043.8</ele>
        <time>2018-05-20T10:34:11.000Z</time>
      </trkpt>
      <trkpt lat="45.147" lon="2.5103">
        <ele>1043</ele>
        <time>2018-05-20T10:34:40.000Z</time>
      </trkpt>
      <trkpt lat="45.14701" lon="2.51029">
        <ele>1043</ele>
        <time>2018-05-20T10:34:41.000Z</time>
      </trkpt>
      <trkpt lat="45.14712" lon="2.51025">
        <ele>1042.4</ele>
        <time>2018-05-20T10:34:49.000Z</time>
      </trkpt>
      <trkpt lat="45.14716" lon="2.51025">
        <ele>1042.4</ele>
        <time>2018-05-20T10:34:51.000Z</time>
      </trkpt>
      <trkpt lat="45.14719" lon="2.51027">
        <ele>1042.4</ele>
        <time>2018-05-20T10:34:54.000Z</time>
      </trkpt>
      <trkpt lat="45.14725" lon="2.51038">
        <ele>1043.6</ele>
        <time>2018-05-20T10:35:01.000Z</time>
      </trkpt>
      <trkpt lat="45.14726" lon="2.5104">
        <ele>1044</ele>
        <time>2018-05-20T10:35:02.000Z</time>
      </trkpt>
      <trkpt lat="45.14727" lon="2.51043">
        <ele>1044.2</ele>
        <time>2018-05-20T10:35:03.000Z</time>
      </trkpt>
      <trkpt lat="45.14728" lon="2.51049">
        <ele>1045.2</ele>
        <time>2018-05-20T10:35:06.000Z</time>
      </trkpt>
      <trkpt lat="45.14728" lon="2.51053">
        <ele>1045.6</ele>
        <time>2018-05-20T10:35:08.000Z</time>
      </trkpt>
      <trkpt lat="45.14724" lon="2.51084">
        <ele>1048.8</ele>
        <time>2018-05-20T10:35:19.000Z</time>
      </trkpt>
      <trkpt lat="45.14718" lon="2.51107">
        <ele>1052</ele>
        <time>2018-05-20T10:35:28.000Z</time>
      </trkpt>
      <trkpt lat="45.14716" lon="2.51111">
        <ele>1052.6</ele>
        <time>2018-05-20T10:35:30.000Z</time>
      </trkpt>
      <trkpt lat="45.14706" lon="2.51126">
        <ele>1053.8</ele>
        <time>2018-05-20T10:35:37.000Z</time>
      </trkpt>
      <trkpt lat="45.14701" lon="2.51133">
        <ele>1054.8</ele>
        <time>2018-05-20T10:35:41.000Z</time>
      </trkpt>
      <trkpt lat="45.14699" lon="2.51137">
        <ele>1055</ele>
        <time>2018-05-20T10:35:43.000Z</time>
      </trkpt>
      <trkpt lat="45.14694" lon="2.51143">
        <ele>1055.2</ele>
        <time>2018-05-20T10:35:47.000Z</time>
      </trkpt>
      <trkpt lat="45.14693" lon="2.51145">
        <ele>1055.2</ele>
        <time>2018-05-20T10:35:48.000Z</time>
      </trkpt>
      <trkpt lat="45.14692" lon="2.51161">
        <ele>1055.8</ele>
        <time>2018-05-20T10:35:54.000Z</time>
      </trkpt>
      <trkpt lat="45.14704" lon="2.51271">
        <ele>1061.4</ele>
        <time>2018-05-20T10:36:35.000Z</time>
      </trkpt>
      <trkpt lat="45.14706" lon="2.51277">
        <ele>1061.6</ele>
        <time>2018-05-20T10:36:38.000Z</time>
      </trkpt>
      <trkpt lat="45.14707" lon="2.51277">
        <ele>1062</ele>
        <time>2018-05-20T10:36:40.000Z</time>
      </trkpt>
      <trkpt lat="45.14707" lon="2.51278">
        <ele>1062.2</ele>
        <time>2018-05-20T10:36:44.000Z</time>
      </trkpt>
      <trkpt lat="45.14708" lon="2.51281">
        <ele>1062.2</ele>
        <time>2018-05-20T10:36:46.000Z</time>
      </trkpt>
      <trkpt lat="45.14708" lon="2.51292">
        <ele>1062.6</ele>
        <time>2018-05-20T10:36:52.000Z</time>
      </trkpt>
      <trkpt lat="45.14711" lon="2.51315">
        <ele>1062.6</ele>
        <time>2018-05-20T10:36:59.000Z</time>
      </trkpt>
      <trkpt lat="45.1472" lon="2.51344">
        <ele>1063.8</ele>
        <time>2018-05-20T10:37:07.000Z</time>
      </trkpt>
      <trkpt lat="45.14729" lon="2.51367">
        <ele>1064</ele>
        <time>2018-05-20T10:37:14.000Z</time>
      </trkpt>
      <trkpt lat="45.14733" lon="2.51382">
        <ele>1064.8</ele>
        <time>2018-05-20T10:37:19.000Z</time>
      </trkpt>
      <trkpt lat="45.14754" lon="2.51433">
        <ele>1066.6</ele>
        <time>2018-05-20T10:37:37.000Z</time>
      </trkpt>
      <trkpt lat="45.14777" lon="2.51528">
        <ele>1072</ele>
        <time>2018-05-20T10:38:11.000Z</time>
      </trkpt>
      <trkpt lat="45.14791" lon="2.51565">
        <ele>1073.8</ele>
        <time>2018-05-20T10:38:25.000Z</time>
      </trkpt>
      <trkpt lat="45.14793" lon="2.51569">
        <ele>1074.2</ele>
        <time>2018-05-20T10:38:27.000Z</time>
      </trkpt>
      <trkpt lat="45.14869" lon="2.51765">
        <ele>1080.4</ele>
        <time>2018-05-20T10:39:37.000Z</time>
      </trkpt>
      <trkpt lat="45.14884" lon="2.51798">
        <ele>1081.4</ele>
        <time>2018-05-20T10:39:50.000Z</time>
      </trkpt>
      <trkpt lat="45.14887" lon="2.51808">
        <ele>1082</ele>
        <time>2018-05-20T10:39:54.000Z</time>
      </trkpt>
      <trkpt lat="45.14899" lon="2.51833">
        <ele>1083.8</ele>
        <time>2018-05-20T10:40:05.000Z</time>
      </trkpt>
      <trkpt lat="45.14906" lon="2.51855">
        <ele>1084.2</ele>
        <time>2018-05-20T10:40:13.000Z</time>
      </trkpt>
      <trkpt lat="45.14913" lon="2.51869">
        <ele>1083.6</ele>
        <time>2018-05-20T10:40:18.000Z</time>
      </trkpt>
      <trkpt lat="45.14923" lon="2.51904">
        <ele>1082.8</ele>
        <time>2018-05-20T10:40:29.000Z</time>
      </trkpt>
      <trkpt lat="45.1494" lon="2.51939">
        <ele>1084</ele>
        <time>2018-05-20T10:40:42.000Z</time>
      </trkpt>
      <trkpt lat="45.14947" lon="2.5195">
        <ele>1084</ele>
        <time>2018-05-20T10:40:49.000Z</time>
      </trkpt>
      <trkpt lat="45.14948" lon="2.51949">
        <ele>1084</ele>
        <time>2018-05-20T10:40:51.000Z</time>
      </trkpt>
      <trkpt lat="45.14952" lon="2.51946">
        <ele>1084</ele>
        <time>2018-05-20T10:40:55.000Z</time>
      </trkpt>
      <trkpt lat="45.14954" lon="2.51945">
        <ele>1084.4</ele>
        <time>2018-05-20T10:40:57.000Z</time>
      </trkpt>
      <trkpt lat="45.14958" lon="2.51946">
        <ele>1085</ele>
        <time>2018-05-20T10:41:00.000Z</time>
      </trkpt>
      <trkpt lat="45.14973" lon="2.51962">
        <ele>1088.4</ele>
        <time>2018-05-20T10:41:13.000Z</time>
      </trkpt>
      <trkpt lat="45.14976" lon="2.51965">
        <ele>1089</ele>
        <time>2018-05-20T10:41:17.000Z</time>
      </trkpt>
      <trkpt lat="45.14978" lon="2.51968">
        <ele>1089.4</ele>
        <time>2018-05-20T10:41:19.000Z</time>
      </trkpt>
      <trkpt lat="45.14987" lon="2.51975">
        <ele>1091.6</ele>
        <time>2018-05-20T10:41:28.000Z</time>
      </trkpt>
      <trkpt lat="45.14991" lon="2.51977">
        <ele>1092.6</ele>
        <time>2018-05-20T10:41:32.000Z</time>
      </trkpt>
      <trkpt lat="45.15002" lon="2.51988">
        <ele>1095</ele>
        <time>2018-05-20T10:41:46.000Z</time>
      </trkpt>
      <trkpt lat="45.15008" lon="2.51994">
        <ele>1095.6</ele>
        <time>2018-05-20T10:41:53.000Z</time>
      </trkpt>
      <trkpt lat="45.15015" lon="2.51998">
        <ele>1096</ele>
        <time>2018-05-20T10:41:59.000Z</time>
      </trkpt>
      <trkpt lat="45.1502" lon="2.52">
        <ele>1096.6</ele>
        <time>2018-05-20T10:42:03.000Z</time>
      </trkpt>
      <trkpt lat="45.15028" lon="2.52001">
        <ele>1097.2</ele>
        <time>2018-05-20T10:42:09.000Z</time>
      </trkpt>
      <trkpt lat="45.15057" lon="2.52004">
        <ele>1097.6</ele>
        <time>2018-05-20T10:42:27.000Z</time>
      </trkpt>
      <trkpt lat="45.15064" lon="2.52006">
        <ele>1098.4</ele>
        <time>2018-05-20T10:42:31.000Z</time>
      </trkpt>
      <trkpt lat="45.15066" lon="2.52008">
        <ele>1098.8</ele>
        <time>2018-05-20T10:42:33.000Z</time>
      </trkpt>
      <trkpt lat="45.15082" lon="2.52014">
        <ele>1099.2</ele>
        <time>2018-05-20T10:42:43.000Z</time>
      </trkpt>
      <trkpt lat="45.15096" lon="2.52021">
        <ele>1101.2</ele>
        <time>2018-05-20T10:42:51.000Z</time>
      </trkpt>
      <trkpt lat="45.15102" lon="2.52026">
        <ele>1101.6</ele>
        <time>2018-05-20T10:42:55.000Z</time>
      </trkpt>
      <trkpt lat="45.15112" lon="2.52036">
        <ele>1102.4</ele>
        <time>2018-05-20T10:43:01.000Z</time>
      </trkpt>
      <trkpt lat="45.15115" lon="2.52039">
        <ele>1102.6</ele>
        <time>2018-05-20T10:43:03.000Z</time>
      </trkpt>
      <trkpt lat="45.15118" lon="2.52042">
        <ele>1102.8</ele>
        <time>2018-05-20T10:43:05.000Z</time>
      </trkpt>
      <trkpt lat="45.15119" lon="2.52043">
        <ele>1102.6</ele>
        <time>2018-05-20T10:43:06.000Z</time>
      </trkpt>
      <trkpt lat="45.15121" lon="2.52044">
        <ele>1102.6</ele>
        <time>2018-05-20T10:43:07.000Z</time>
      </trkpt>
      <trkpt lat="45.15126" lon="2.52051">
        <ele>1103.2</ele>
        <time>2018-05-20T10:43:11.000Z</time>
      </trkpt>
      <trkpt lat="45.15138" lon="2.52062">
        <ele>1104</ele>
        <time>2018-05-20T10:43:19.000Z</time>
      </trkpt>
      <trkpt lat="45.15144" lon="2.5207">
        <ele>1105</ele>
        <time>2018-05-20T10:43:26.000Z</time>
      </trkpt>
      <trkpt lat="45.15149" lon="2.52074">
        <ele>1105</ele>
        <time>2018-05-20T10:43:31.000Z</time>
      </trkpt>
      <trkpt lat="45.15149" lon="2.52075">
        <ele>1105.2</ele>
        <time>2018-05-20T10:43:32.000Z</time>
      </trkpt>
      <trkpt lat="45.15151" lon="2.52076">
        <ele>1105.6</ele>
        <time>2018-05-20T10:43:34.000Z</time>
      </trkpt>
      <trkpt lat="45.15152" lon="2.52077">
        <ele>1106</ele>
        <time>2018-05-20T10:43:35.000Z</time>
      </trkpt>
      <trkpt lat="45.15153" lon="2.52078">
        <ele>1106.2</ele>
        <time>2018-05-20T10:43:36.000Z</time>
      </trkpt>
      <trkpt lat="45.15154" lon="2.52079">
        <ele>1106.4</ele>
        <time>2018-05-20T10:43:37.000Z</time>
      </trkpt>
      <trkpt lat="45.15158" lon="2.52083">
        <ele>1107.4</ele>
        <time>2018-05-20T10:43:41.000Z</time>
      </trkpt>
      <trkpt lat="45.15165" lon="2.52093">
        <ele>1108.4</ele>
        <time>2018-05-20T10:43:49.000Z</time>
      </trkpt>
      <trkpt lat="45.15169" lon="2.521">
        <ele>1109.2</ele>
        <time>2018-05-20T10:43:54.000Z</time>
      </trkpt>
      <trkpt lat="45.1518" lon="2.52114">
        <ele>1110.6</ele>
        <time>2018-05-20T10:44:06.000Z</time>
      </trkpt>
      <trkpt lat="45.15186" lon="2.52117">
        <ele>1111</ele>
        <time>2018-05-20T10:44:10.000Z</time>
      </trkpt>
      <trkpt lat="45.15196" lon="2.52124">
        <ele>1112.4</ele>
        <time>2018-05-20T10:44:19.000Z</time>
      </trkpt>
      <trkpt lat="45.15197" lon="2.52125">
        <ele>1112.8</ele>
        <time>2018-05-20T10:44:20.000Z</time>
      </trkpt>
      <trkpt lat="45.15207" lon="2.52134">
        <ele>1113.6</ele>
        <time>2018-05-20T10:44:28.000Z</time>
      </trkpt>
      <trkpt lat="45.15208" lon="2.52134">
        <ele>1114</ele>
        <time>2018-05-20T10:44:29.000Z</time>
      </trkpt>
      <trkpt lat="45.15214" lon="2.52149">
        <ele>1114</ele>
        <time>2018-05-20T10:44:40.000Z</time>
      </trkpt>
      <trkpt lat="45.15215" lon="2.52151">
        <ele>1114.2</ele>
        <time>2018-05-20T10:44:42.000Z</time>
      </trkpt>
      <trkpt lat="45.15216" lon="2.52155">
        <ele>1114.8</ele>
        <time>2018-05-20T10:44:49.000Z</time>
      </trkpt>
      <trkpt lat="45.15225" lon="2.52166">
        <ele>1115</ele>
        <time>2018-05-20T10:44:56.000Z</time>
      </trkpt>
      <trkpt lat="45.1523" lon="2.52178">
        <ele>1116.2</ele>
        <time>2018-05-20T10:45:01.000Z</time>
      </trkpt>
      <trkpt lat="45.15239" lon="2.52203">
        <ele>1118.6</ele>
        <time>2018-05-20T10:45:10.000Z</time>
      </trkpt>
      <trkpt lat="45.15239" lon="2.52203">
        <ele>1118.8</ele>
        <time>2018-05-20T10:45:11.000Z</time>
      </trkpt>
      <trkpt lat="45.15248" lon="2.52227">
        <ele>1120.8</ele>
        <time>2018-05-20T10:45:22.000Z</time>
      </trkpt>
      <trkpt lat="45.15249" lon="2.52228">
        <ele>1121.2</ele>
        <time>2018-05-20T10:45:24.000Z</time>
      </trkpt>
      <trkpt lat="45.15249" lon="2.52228">
        <ele>1121.4</ele>
        <time>2018-05-20T10:45:26.000Z</time>
      </trkpt>
      <trkpt lat="45.1525" lon="2.52228">
        <ele>1121.4</ele>
        <time>2018-05-20T10:45:31.000Z</time>
      </trkpt>
      <trkpt lat="45.15253" lon="2.5223">
        <ele>1121.4</ele>
        <time>2018-05-20T10:45:40.000Z</time>
      </trkpt>
      <trkpt lat="45.15256" lon="2.52238">
        <ele>1122.4</ele>
        <time>2018-05-20T10:45:46.000Z</time>
      </trkpt>
      <trkpt lat="45.15265" lon="2.52252">
        <ele>1123.8</ele>
        <time>2018-05-20T10:45:57.000Z</time>
      </trkpt>
      <trkpt lat="45.15266" lon="2.52254">
        <ele>1124</ele>
        <time>2018-05-20T10:45:58.000Z</time>
      </trkpt>
      <trkpt lat="45.15271" lon="2.5226">
        <ele>1125.2</ele>
        <time>2018-05-20T10:46:03.000Z</time>
      </trkpt>
      <trkpt lat="45.15284" lon="2.52272">
        <ele>1126.2</ele>
        <time>2018-05-20T10:46:14.000Z</time>
      </trkpt>
      <trkpt lat="45.15285" lon="2.52273">
        <ele>1126.2</ele>
        <time>2018-05-20T10:46:15.000Z</time>
      </trkpt>
      <trkpt lat="45.15289" lon="2.52277">
        <ele>1126.6</ele>
        <time>2018-05-20T10:46:19.000Z</time>
      </trkpt>
      <trkpt lat="45.15298" lon="2.52283">
        <ele>1127.4</ele>
        <time>2018-05-20T10:46:25.000Z</time>
      </trkpt>
      <trkpt lat="45.15307" lon="2.52292">
        <ele>1128.6</ele>
        <time>2018-05-20T10:46:34.000Z</time>
      </trkpt>
      <trkpt lat="45.15321" lon="2.52299">
        <ele>1130.8</ele>
        <time>2018-05-20T10:46:48.000Z</time>
      </trkpt>
      <trkpt lat="45.15326" lon="2.52304">
        <ele>1131.8</ele>
        <time>2018-05-20T10:46:54.000Z</time>
      </trkpt>
      <trkpt lat="45.15332" lon="2.52306">
        <ele>1132.8</ele>
        <time>2018-05-20T10:46:59.000Z</time>
      </trkpt>
      <trkpt lat="45.15338" lon="2.5231">
        <ele>1133.8</ele>
        <time>2018-05-20T10:47:05.000Z</time>
      </trkpt>
      <trkpt lat="45.15338" lon="2.5231">
        <ele>1134</ele>
        <time>2018-05-20T10:47:06.000Z</time>
      </trkpt>
      <trkpt lat="45.15343" lon="2.52314">
        <ele>1134.8</ele>
        <time>2018-05-20T10:47:12.000Z</time>
      </trkpt>
      <trkpt lat="45.15344" lon="2.52316">
        <ele>1135</ele>
        <time>2018-05-20T10:47:13.000Z</time>
      </trkpt>
      <trkpt lat="45.15346" lon="2.52317">
        <ele>1135.4</ele>
        <time>2018-05-20T10:47:15.000Z</time>
      </trkpt>
      <trkpt lat="45.15348" lon="2.52319">
        <ele>1135.6</ele>
        <time>2018-05-20T10:47:18.000Z</time>
      </trkpt>
      <trkpt lat="45.15352" lon="2.52318">
        <ele>1136.2</ele>
        <time>2018-05-20T10:47:22.000Z</time>
      </trkpt>
      <trkpt lat="45.1536" lon="2.52321">
        <ele>1137.4</ele>
        <time>2018-05-20T10:47:28.000Z</time>
      </trkpt>
      <trkpt lat="45.15379" lon="2.52332">
        <ele>1140.6</ele>
        <time>2018-05-20T10:47:47.000Z</time>
      </trkpt>
      <trkpt lat="45.15388" lon="2.5234">
        <ele>1142.8</ele>
        <time>2018-05-20T10:47:56.000Z</time>
      </trkpt>
      <trkpt lat="45.15392" lon="2.52341">
        <ele>1144</ele>
        <time>2018-05-20T10:47:59.000Z</time>
      </trkpt>
      <trkpt lat="45.15398" lon="2.52342">
        <ele>1145</ele>
        <time>2018-05-20T10:48:05.000Z</time>
      </trkpt>
      <trkpt lat="45.15403" lon="2.52344">
        <ele>1146</ele>
        <time>2018-05-20T10:48:10.000Z</time>
      </trkpt>
      <trkpt lat="45.15407" lon="2.52348">
        <ele>1147.2</ele>
        <time>2018-05-20T10:48:15.000Z</time>
      </trkpt>
      <trkpt lat="45.15409" lon="2.52348">
        <ele>1147.6</ele>
        <time>2018-05-20T10:48:17.000Z</time>
      </trkpt>
      <trkpt lat="45.15415" lon="2.52351">
        <ele>1149.4</ele>
        <time>2018-05-20T10:48:23.000Z</time>
      </trkpt>
      <trkpt lat="45.15424" lon="2.52356">
        <ele>1150.2</ele>
        <time>2018-05-20T10:48:31.000Z</time>
      </trkpt>
      <trkpt lat="45.15425" lon="2.52356">
        <ele>1150.4</ele>
        <time>2018-05-20T10:48:32.000Z</time>
      </trkpt>
      <trkpt lat="45.15429" lon="2.5236">
        <ele>1151</ele>
        <time>2018-05-20T10:48:36.000Z</time>
      </trkpt>
      <trkpt lat="45.15433" lon="2.52366">
        <ele>1151.4</ele>
        <time>2018-05-20T10:48:41.000Z</time>
      </trkpt>
      <trkpt lat="45.15436" lon="2.52373">
        <ele>1152.2</ele>
        <time>2018-05-20T10:48:46.000Z</time>
      </trkpt>
      <trkpt lat="45.15441" lon="2.52382">
        <ele>1153.6</ele>
        <time>2018-05-20T10:48:54.000Z</time>
      </trkpt>
      <trkpt lat="45.15449" lon="2.52388">
        <ele>1155</ele>
        <time>2018-05-20T10:49:01.000Z</time>
      </trkpt>
      <trkpt lat="45.15452" lon="2.52391">
        <ele>1156</ele>
        <time>2018-05-20T10:49:04.000Z</time>
      </trkpt>
      <trkpt lat="45.15457" lon="2.52395">
        <ele>1157</ele>
        <time>2018-05-20T10:49:09.000Z</time>
      </trkpt>
      <trkpt lat="45.15461" lon="2.52397">
        <ele>1157.8</ele>
        <time>2018-05-20T10:49:13.000Z</time>
      </trkpt>
      <trkpt lat="45.15463" lon="2.52397">
        <ele>1158</ele>
        <time>2018-05-20T10:49:15.000Z</time>
      </trkpt>
      <trkpt lat="45.15465" lon="2.52399">
        <ele>1158.6</ele>
        <time>2018-05-20T10:49:17.000Z</time>
      </trkpt>
      <trkpt lat="45.15469" lon="2.52401">
        <ele>1159.4</ele>
        <time>2018-05-20T10:49:20.000Z</time>
      </trkpt>
      <trkpt lat="45.15481" lon="2.5241">
        <ele>1162.6</ele>
        <time>2018-05-20T10:49:36.000Z</time>
      </trkpt>
      <trkpt lat="45.15488" lon="2.52414">
        <ele>1163.8</ele>
        <time>2018-05-20T10:49:43.000Z</time>
      </trkpt>
      <trkpt lat="45.15494" lon="2.52418">
        <ele>1164.8</ele>
        <time>2018-05-20T10:49:50.000Z</time>
      </trkpt>
      <trkpt lat="45.15504" lon="2.52422">
        <ele>1166.8</ele>
        <time>2018-05-20T10:49:59.000Z</time>
      </trkpt>
      <trkpt lat="45.15505" lon="2.52422">
        <ele>1167</ele>
        <time>2018-05-20T10:50:00.000Z</time>
      </trkpt>
      <trkpt lat="45.15509" lon="2.52424">
        <ele>1167.6</ele>
        <time>2018-05-20T10:50:04.000Z</time>
      </trkpt>
      <trkpt lat="45.1551" lon="2.52426">
        <ele>1167.8</ele>
        <time>2018-05-20T10:50:07.000Z</time>
      </trkpt>
      <trkpt lat="45.15515" lon="2.52429">
        <ele>1167.6</ele>
        <time>2018-05-20T10:50:16.000Z</time>
      </trkpt>
      <trkpt lat="45.15519" lon="2.5243">
        <ele>1167.8</ele>
        <time>2018-05-20T10:50:19.000Z</time>
      </trkpt>
      <trkpt lat="45.15521" lon="2.5243">
        <ele>1168</ele>
        <time>2018-05-20T10:50:21.000Z</time>
      </trkpt>
      <trkpt lat="45.15543" lon="2.52435">
        <ele>1171.6</ele>
        <time>2018-05-20T10:50:39.000Z</time>
      </trkpt>
      <trkpt lat="45.15544" lon="2.52435">
        <ele>1171.8</ele>
        <time>2018-05-20T10:50:40.000Z</time>
      </trkpt>
      <trkpt lat="45.15546" lon="2.52435">
        <ele>1172</ele>
        <time>2018-05-20T10:50:41.000Z</time>
      </trkpt>
      <trkpt lat="45.15549" lon="2.52436">
        <ele>1172.4</ele>
        <time>2018-05-20T10:50:44.000Z</time>
      </trkpt>
      <trkpt lat="45.15552" lon="2.52436">
        <ele>1173.2</ele>
        <time>2018-05-20T10:50:48.000Z</time>
      </trkpt>
      <trkpt lat="45.15556" lon="2.52437">
        <ele>1173.6</ele>
        <time>2018-05-20T10:50:51.000Z</time>
      </trkpt>
      <trkpt lat="45.15558" lon="2.52439">
        <ele>1173.6</ele>
        <time>2018-05-20T10:50:52.000Z</time>
      </trkpt>
      <trkpt lat="45.15559" lon="2.5244">
        <ele>1173.8</ele>
        <time>2018-05-20T10:50:53.000Z</time>
      </trkpt>
      <trkpt lat="45.15561" lon="2.52441">
        <ele>1174</ele>
        <time>2018-05-20T10:50:54.000Z</time>
      </trkpt>
      <trkpt lat="45.15563" lon="2.52441">
        <ele>1174.2</ele>
        <time>2018-05-20T10:50:55.000Z</time>
      </trkpt>
      <trkpt lat="45.15565" lon="2.52441">
        <ele>1174.4</ele>
        <time>2018-05-20T10:50:56.000Z</time>
      </trkpt>
      <trkpt lat="45.15577" lon="2.52439">
        <ele>1175</ele>
        <time>2018-05-20T10:51:02.000Z</time>
      </trkpt>
      <trkpt lat="45.15589" lon="2.52433">
        <ele>1175.6</ele>
        <time>2018-05-20T10:51:08.000Z</time>
      </trkpt>
      <trkpt lat="45.15591" lon="2.52433">
        <ele>1175.8</ele>
        <time>2018-05-20T10:51:09.000Z</time>
      </trkpt>
      <trkpt lat="45.15596" lon="2.52431">
        <ele>1175.8</ele>
        <time>2018-05-20T10:51:11.000Z</time>
      </trkpt>
      <trkpt lat="45.15607" lon="2.52424">
        <ele>1175.8</ele>
        <time>2018-05-20T10:51:16.000Z</time>
      </trkpt>
      <trkpt lat="45.15634" lon="2.52424">
        <ele>1175.8</ele>
        <time>2018-05-20T10:51:28.000Z</time>
      </trkpt>
      <trkpt lat="45.15638" lon="2.52423">
        <ele>1176</ele>
        <time>2018-05-20T10:51:30.000Z</time>
      </trkpt>
      <trkpt lat="45.15664" lon="2.52428">
        <ele>1177.2</ele>
        <time>2018-05-20T10:51:41.000Z</time>
      </trkpt>
      <trkpt lat="45.15675" lon="2.52431">
        <ele>1177.8</ele>
        <time>2018-05-20T10:51:46.000Z</time>
      </trkpt>
      <trkpt lat="45.15679" lon="2.52432">
        <ele>1178.2</ele>
        <time>2018-05-20T10:51:48.000Z</time>
      </trkpt>
      <trkpt lat="45.15697" lon="2.52436">
        <ele>1179.2</ele>
        <time>2018-05-20T10:51:56.000Z</time>
      </trkpt>
      <trkpt lat="45.15705" lon="2.52438">
        <ele>1179.8</ele>
        <time>2018-05-20T10:52:00.000Z</time>
      </trkpt>
      <trkpt lat="45.15743" lon="2.52459">
        <ele>1181.6</ele>
        <time>2018-05-20T10:52:19.000Z</time>
      </trkpt>
      <trkpt lat="45.1578" lon="2.52486">
        <ele>1183.2</ele>
        <time>2018-05-20T10:52:40.000Z</time>
      </trkpt>
      <trkpt lat="45.15793" lon="2.525">
        <ele>1184.4</ele>
        <time>2018-05-20T10:52:48.000Z</time>
      </trkpt>
      <trkpt lat="45.15795" lon="2.52502">
        <ele>1184.6</ele>
        <time>2018-05-20T10:52:49.000Z</time>
      </trkpt>
      <trkpt lat="45.158" lon="2.52519">
        <ele>1185.8</ele>
        <time>2018-05-20T10:52:56.000Z</time>
      </trkpt>
      <trkpt lat="45.15802" lon="2.52531">
        <ele>1187.4</ele>
        <time>2018-05-20T10:53:01.000Z</time>
      </trkpt>
      <trkpt lat="45.15806" lon="2.52541">
        <ele>1189.2</ele>
        <time>2018-05-20T10:53:06.000Z</time>
      </trkpt>
      <trkpt lat="45.15807" lon="2.52543">
        <ele>1189.2</ele>
        <time>2018-05-20T10:53:07.000Z</time>
      </trkpt>
      <trkpt lat="45.15826" lon="2.52563">
        <ele>1189.6</ele>
        <time>2018-05-20T10:53:20.000Z</time>
      </trkpt>
      <trkpt lat="45.15839" lon="2.52584">
        <ele>1189</ele>
        <time>2018-05-20T10:53:29.000Z</time>
      </trkpt>
      <trkpt lat="45.15841" lon="2.52609">
        <ele>1190</ele>
        <time>2018-05-20T10:53:38.000Z</time>
      </trkpt>
      <trkpt lat="45.1584" lon="2.52612">
        <ele>1190.2</ele>
        <time>2018-05-20T10:53:39.000Z</time>
      </trkpt>
      <trkpt lat="45.15842" lon="2.52631">
        <ele>1191.8</ele>
        <time>2018-05-20T10:53:47.000Z</time>
      </trkpt>
      <trkpt lat="45.15849" lon="2.52664">
        <ele>1193</ele>
        <time>2018-05-20T10:54:00.000Z</time>
      </trkpt>
      <trkpt lat="45.15853" lon="2.527">
        <ele>1194</ele>
        <time>2018-05-20T10:54:13.000Z</time>
      </trkpt>
      <trkpt lat="45.15858" lon="2.52726">
        <ele>1193.8</ele>
        <time>2018-05-20T10:54:22.000Z</time>
      </trkpt>
      <trkpt lat="45.15862" lon="2.52766">
        <ele>1193</ele>
        <time>2018-05-20T10:54:35.000Z</time>
      </trkpt>
      <trkpt lat="45.15856" lon="2.52837">
        <ele>1192</ele>
        <time>2018-05-20T10:54:58.000Z</time>
      </trkpt>
      <trkpt lat="45.15839" lon="2.52901">
        <ele>1191.8</ele>
        <time>2018-05-20T10:55:23.000Z</time>
      </trkpt>
      <trkpt lat="45.15838" lon="2.52906">
        <ele>1192</ele>
        <time>2018-05-20T10:55:25.000Z</time>
      </trkpt>
      <trkpt lat="45.15826" lon="2.52937">
        <ele>1192.2</ele>
        <time>2018-05-20T10:55:37.000Z</time>
      </trkpt>
      <trkpt lat="45.15812" lon="2.52986">
        <ele>1192.2</ele>
        <time>2018-05-20T10:55:56.000Z</time>
      </trkpt>
      <trkpt lat="45.15771" lon="2.53077">
        <ele>1195.4</ele>
        <time>2018-05-20T10:56:34.000Z</time>
      </trkpt>
      <trkpt lat="45.15768" lon="2.53081">
        <ele>1195.4</ele>
        <time>2018-05-20T10:56:36.000Z</time>
      </trkpt>
      <trkpt lat="45.15759" lon="2.53103">
        <ele>1195.6</ele>
        <time>2018-05-20T10:56:45.000Z</time>
      </trkpt>
      <trkpt lat="45.15732" lon="2.5318">
        <ele>1195.4</ele>
        <time>2018-05-20T10:57:13.000Z</time>
      </trkpt>
      <trkpt lat="45.1573" lon="2.53184">
        <ele>1195.4</ele>
        <time>2018-05-20T10:57:15.000Z</time>
      </trkpt>
      <trkpt lat="45.15684" lon="2.53367">
        <ele>1199</ele>
        <time>2018-05-20T10:58:21.000Z</time>
      </trkpt>
      <trkpt lat="45.15674" lon="2.53455">
        <ele>1195.4</ele>
        <time>2018-05-20T10:58:48.000Z</time>
      </trkpt>
      <trkpt lat="45.15676" lon="2.53509">
        <ele>1190.4</ele>
        <time>2018-05-20T10:59:00.000Z</time>
      </trkpt>
      <trkpt lat="45.15665" lon="2.53552">
        <ele>1186.8</ele>
        <time>2018-05-20T10:59:11.000Z</time>
      </trkpt>
      <trkpt lat="45.15664" lon="2.5356">
        <ele>1185.6</ele>
        <time>2018-05-20T10:59:13.000Z</time>
      </trkpt>
      <trkpt lat="45.15666" lon="2.53588">
        <ele>1183.2</ele>
        <time>2018-05-20T10:59:20.000Z</time>
      </trkpt>
      <trkpt lat="45.15682" lon="2.53668">
        <ele>1178.8</ele>
        <time>2018-05-20T10:59:42.000Z</time>
      </trkpt>
      <trkpt lat="45.15682" lon="2.53688">
        <ele>1178.2</ele>
        <time>2018-05-20T10:59:48.000Z</time>
      </trkpt>
      <trkpt lat="45.15685" lon="2.53703">
        <ele>1179</ele>
        <time>2018-05-20T10:59:56.000Z</time>
      </trkpt>
      <trkpt lat="45.15685" lon="2.53707">
        <ele>1179.4</ele>
        <time>2018-05-20T11:00:03.000Z</time>
      </trkpt>
      <trkpt lat="45.15685" lon="2.53708">
        <ele>1179.4</ele>
        <time>2018-05-20T11:00:05.000Z</time>
      </trkpt>
      <trkpt lat="45.15685" lon="2.5371">
        <ele>1179</ele>
        <time>2018-05-20T11:00:13.000Z</time>
      </trkpt>
      <trkpt lat="45.15685" lon="2.5371">
        <ele>1179</ele>
        <time>2018-05-20T11:00:15.000Z</time>
      </trkpt>
      <trkpt lat="45.15685" lon="2.5371">
        <ele>1179</ele>
        <time>2018-05-20T11:00:16.000Z</time>
      </trkpt>
      <trkpt lat="45.15688" lon="2.53718">
        <ele>1178.6</ele>
        <time>2018-05-20T11:00:26.000Z</time>
      </trkpt>
      <trkpt lat="45.15687" lon="2.53719">
        <ele>1178.6</ele>
        <time>2018-05-20T11:00:42.000Z</time>
      </trkpt>
      <trkpt lat="45.15687" lon="2.53719">
        <ele>1178.6</ele>
        <time>2018-05-20T11:00:43.000Z</time>
      </trkpt>
      <trkpt lat="45.1569" lon="2.53719">
        <ele>1179.4</ele>
        <time>2018-05-20T11:00:57.000Z</time>
      </trkpt>
      <trkpt lat="45.15691" lon="2.53722">
        <ele>1178.8</ele>
        <time>2018-05-20T11:01:14.000Z</time>
      </trkpt>
      <trkpt lat="45.15687" lon="2.5372">
        <ele>1178.2</ele>
        <time>2018-05-20T11:01:26.000Z</time>
      </trkpt>
      <trkpt lat="45.15687" lon="2.53722">
        <ele>1177.6</ele>
        <time>2018-05-20T11:01:30.000Z</time>
      </trkpt>
      <trkpt lat="45.15687" lon="2.53722">
        <ele>1177.6</ele>
        <time>2018-05-20T11:01:31.000Z</time>
      </trkpt>
      <trkpt lat="45.15695" lon="2.53729">
        <ele>1178.4</ele>
        <time>2018-05-20T11:01:40.000Z</time>
      </trkpt>
      <trkpt lat="45.15698" lon="2.53738">
        <ele>1178.4</ele>
        <time>2018-05-20T11:01:42.000Z</time>
      </trkpt>
      <trkpt lat="45.15702" lon="2.53755">
        <ele>1178.4</ele>
        <time>2018-05-20T11:01:47.000Z</time>
      </trkpt>
      <trkpt lat="45.15702" lon="2.53759">
        <ele>1178.6</ele>
        <time>2018-05-20T11:01:49.000Z</time>
      </trkpt>
      <trkpt lat="45.15701" lon="2.53759">
        <ele>1178.8</ele>
        <time>2018-05-20T11:01:50.000Z</time>
      </trkpt>
      <trkpt lat="45.157" lon="2.53758">
        <ele>1178.8</ele>
        <time>2018-05-20T11:01:51.000Z</time>
      </trkpt>
      <trkpt lat="45.15703" lon="2.53764">
        <ele>1179.2</ele>
        <time>2018-05-20T11:01:55.000Z</time>
      </trkpt>
      <trkpt lat="45.15704" lon="2.53769">
        <ele>1179.4</ele>
        <time>2018-05-20T11:01:57.000Z</time>
      </trkpt>
      <trkpt lat="45.15723" lon="2.53887">
        <ele>1182.2</ele>
        <time>2018-05-20T11:02:43.000Z</time>
      </trkpt>
      <trkpt lat="45.15723" lon="2.53898">
        <ele>1182.8</ele>
        <time>2018-05-20T11:02:47.000Z</time>
      </trkpt>
      <trkpt lat="45.15722" lon="2.53901">
        <ele>1182.8</ele>
        <time>2018-05-20T11:02:48.000Z</time>
      </trkpt>
      <trkpt lat="45.15721" lon="2.5391">
        <ele>1183</ele>
        <time>2018-05-20T11:02:51.000Z</time>
      </trkpt>
      <trkpt lat="45.15728" lon="2.53975">
        <ele>1186.4</ele>
        <time>2018-05-20T11:03:14.000Z</time>
      </trkpt>
      <trkpt lat="45.15733" lon="2.53996">
        <ele>1187.4</ele>
        <time>2018-05-20T11:03:22.000Z</time>
      </trkpt>
      <trkpt lat="45.15735" lon="2.54014">
        <ele>1188.2</ele>
        <time>2018-05-20T11:03:29.000Z</time>
      </trkpt>
      <trkpt lat="45.15734" lon="2.54016">
        <ele>1188.6</ele>
        <time>2018-05-20T11:03:30.000Z</time>
      </trkpt>
      <trkpt lat="45.15752" lon="2.54138">
        <ele>1192.2</ele>
        <time>2018-05-20T11:04:14.000Z</time>
      </trkpt>
      <trkpt lat="45.15755" lon="2.54149">
        <ele>1192.8</ele>
        <time>2018-05-20T11:04:18.000Z</time>
      </trkpt>
      <trkpt lat="45.15785" lon="2.5436">
        <ele>1201</ele>
        <time>2018-05-20T11:05:31.000Z</time>
      </trkpt>
      <trkpt lat="45.15786" lon="2.54365">
        <ele>1201.4</ele>
        <time>2018-05-20T11:05:33.000Z</time>
      </trkpt>
      <trkpt lat="45.15808" lon="2.54506">
        <ele>1208.6</ele>
        <time>2018-05-20T11:06:26.000Z</time>
      </trkpt>
      <trkpt lat="45.15836" lon="2.54757">
        <ele>1222.2</ele>
        <time>2018-05-20T11:08:00.000Z</time>
      </trkpt>
      <trkpt lat="45.1584" lon="2.54779">
        <ele>1223.2</ele>
        <time>2018-05-20T11:08:09.000Z</time>
      </trkpt>
      <trkpt lat="45.15846" lon="2.548">
        <ele>1224.2</ele>
        <time>2018-05-20T11:08:17.000Z</time>
      </trkpt>
      <trkpt lat="45.15848" lon="2.5482">
        <ele>1225</ele>
        <time>2018-05-20T11:08:24.000Z</time>
      </trkpt>
      <trkpt lat="45.15847" lon="2.54831">
        <ele>1225.6</ele>
        <time>2018-05-20T11:08:28.000Z</time>
      </trkpt>
      <trkpt lat="45.1585" lon="2.54856">
        <ele>1226.8</ele>
        <time>2018-05-20T11:08:37.000Z</time>
      </trkpt>
      <trkpt lat="45.15855" lon="2.5495">
        <ele>1229.8</ele>
        <time>2018-05-20T11:09:08.000Z</time>
      </trkpt>
      <trkpt lat="45.15857" lon="2.54959">
        <ele>1230.2</ele>
        <time>2018-05-20T11:09:11.000Z</time>
      </trkpt>
      <trkpt lat="45.1586" lon="2.55079">
        <ele>1232.6</ele>
        <time>2018-05-20T11:09:49.000Z</time>
      </trkpt>
      <trkpt lat="45.15848" lon="2.55186">
        <ele>1232</ele>
        <time>2018-05-20T11:10:23.000Z</time>
      </trkpt>
      <trkpt lat="45.15849" lon="2.55214">
        <ele>1231.8</ele>
        <time>2018-05-20T11:10:32.000Z</time>
      </trkpt>
      <trkpt lat="45.15855" lon="2.55271">
        <ele>1232.2</ele>
        <time>2018-05-20T11:10:51.000Z</time>
      </trkpt>
      <trkpt lat="45.15853" lon="2.55354">
        <ele>1236.6</ele>
        <time>2018-05-20T11:11:19.000Z</time>
      </trkpt>
      <trkpt lat="45.15864" lon="2.55488">
        <ele>1241</ele>
        <time>2018-05-20T11:12:20.000Z</time>
      </trkpt>
      <trkpt lat="45.15864" lon="2.55494">
        <ele>1241.6</ele>
        <time>2018-05-20T11:12:24.000Z</time>
      </trkpt>
      <trkpt lat="45.15868" lon="2.55502">
        <ele>1242</ele>
        <time>2018-05-20T11:12:30.000Z</time>
      </trkpt>
      <trkpt lat="45.1587" lon="2.55512">
        <ele>1242.4</ele>
        <time>2018-05-20T11:12:36.000Z</time>
      </trkpt>
      <trkpt lat="45.1587" lon="2.55514">
        <ele>1242.4</ele>
        <time>2018-05-20T11:12:37.000Z</time>
      </trkpt>
      <trkpt lat="45.15871" lon="2.55516">
        <ele>1242.4</ele>
        <time>2018-05-20T11:12:38.000Z</time>
      </trkpt>
      <trkpt lat="45.15872" lon="2.55529">
        <ele>1242.8</ele>
        <time>2018-05-20T11:12:46.000Z</time>
      </trkpt>
      <trkpt lat="45.15872" lon="2.5554">
        <ele>1243.2</ele>
        <time>2018-05-20T11:12:52.000Z</time>
      </trkpt>
      <trkpt lat="45.15875" lon="2.55556">
        <ele>1244.2</ele>
        <time>2018-05-20T11:13:01.000Z</time>
      </trkpt>
      <trkpt lat="45.15873" lon="2.55566">
        <ele>1244.2</ele>
        <time>2018-05-20T11:13:06.000Z</time>
      </trkpt>
      <trkpt lat="45.1588" lon="2.55617">
        <ele>1245.6</ele>
        <time>2018-05-20T11:13:37.000Z</time>
      </trkpt>
      <trkpt lat="45.15885" lon="2.55633">
        <ele>1247.4</ele>
        <time>2018-05-20T11:13:48.000Z</time>
      </trkpt>
      <trkpt lat="45.15889" lon="2.55663">
        <ele>1249.4</ele>
        <time>2018-05-20T11:14:06.000Z</time>
      </trkpt>
      <trkpt lat="45.1589" lon="2.55664">
        <ele>1249.4</ele>
        <time>2018-05-20T11:14:07.000Z</time>
      </trkpt>
      <trkpt lat="45.1589" lon="2.55682">
        <ele>1250.8</ele>
        <time>2018-05-20T11:14:17.000Z</time>
      </trkpt>
      <trkpt lat="45.15893" lon="2.55692">
        <ele>1251.6</ele>
        <time>2018-05-20T11:14:21.000Z</time>
      </trkpt>
      <trkpt lat="45.15893" lon="2.55767">
        <ele>1255.8</ele>
        <time>2018-05-20T11:14:52.000Z</time>
      </trkpt>
      <trkpt lat="45.15893" lon="2.55772">
        <ele>1256.2</ele>
        <time>2018-05-20T11:14:54.000Z</time>
      </trkpt>
      <trkpt lat="45.15894" lon="2.5578">
        <ele>1257.2</ele>
        <time>2018-05-20T11:14:57.000Z</time>
      </trkpt>
      <trkpt lat="45.15894" lon="2.55791">
        <ele>1258.4</ele>
        <time>2018-05-20T11:15:01.000Z</time>
      </trkpt>
      <trkpt lat="45.15901" lon="2.55822">
        <ele>1260.6</ele>
        <time>2018-05-20T11:15:12.000Z</time>
      </trkpt>
      <trkpt lat="45.15926" lon="2.55891">
        <ele>1263.2</ele>
        <time>2018-05-20T11:15:40.000Z</time>
      </trkpt>
      <trkpt lat="45.15938" lon="2.55914">
        <ele>1264.2</ele>
        <time>2018-05-20T11:15:48.000Z</time>
      </trkpt>
      <trkpt lat="45.1596" lon="2.5594">
        <ele>1264.6</ele>
        <time>2018-05-20T11:15:59.000Z</time>
      </trkpt>
      <trkpt lat="45.15972" lon="2.55963">
        <ele>1263.8</ele>
        <time>2018-05-20T11:16:07.000Z</time>
      </trkpt>
      <trkpt lat="45.16004" lon="2.55995">
        <ele>1264.6</ele>
        <time>2018-05-20T11:16:22.000Z</time>
      </trkpt>
      <trkpt lat="45.16019" lon="2.5602">
        <ele>1265</ele>
        <time>2018-05-20T11:16:32.000Z</time>
      </trkpt>
      <trkpt lat="45.16022" lon="2.56027">
        <ele>1265</ele>
        <time>2018-05-20T11:16:34.000Z</time>
      </trkpt>
      <trkpt lat="45.16034" lon="2.56046">
        <ele>1265</ele>
        <time>2018-05-20T11:16:41.000Z</time>
      </trkpt>
      <trkpt lat="45.16041" lon="2.56061">
        <ele>1265.4</ele>
        <time>2018-05-20T11:16:46.000Z</time>
      </trkpt>
      <trkpt lat="45.16048" lon="2.56073">
        <ele>1265.4</ele>
        <time>2018-05-20T11:16:51.000Z</time>
      </trkpt>
      <trkpt lat="45.1608" lon="2.56116">
        <ele>1266.2</ele>
        <time>2018-05-20T11:17:08.000Z</time>
      </trkpt>
      <trkpt lat="45.16148" lon="2.56245">
        <ele>1267.2</ele>
        <time>2018-05-20T11:17:51.000Z</time>
      </trkpt>
      <trkpt lat="45.16158" lon="2.56274">
        <ele>1269.2</ele>
        <time>2018-05-20T11:18:00.000Z</time>
      </trkpt>
      <trkpt lat="45.16175" lon="2.56306">
        <ele>1269.4</ele>
        <time>2018-05-20T11:18:11.000Z</time>
      </trkpt>
      <trkpt lat="45.16185" lon="2.56329">
        <ele>1268.4</ele>
        <time>2018-05-20T11:18:18.000Z</time>
      </trkpt>
      <trkpt lat="45.1619" lon="2.56347">
        <ele>1268.4</ele>
        <time>2018-05-20T11:18:23.000Z</time>
      </trkpt>
      <trkpt lat="45.16193" lon="2.56367">
        <ele>1269.4</ele>
        <time>2018-05-20T11:18:29.000Z</time>
      </trkpt>
      <trkpt lat="45.16191" lon="2.56422">
        <ele>1274</ele>
        <time>2018-05-20T11:18:47.000Z</time>
      </trkpt>
      <trkpt lat="45.16191" lon="2.56425">
        <ele>1274.2</ele>
        <time>2018-05-20T11:18:48.000Z</time>
      </trkpt>
      <trkpt lat="45.16195" lon="2.56438">
        <ele>1275.2</ele>
        <time>2018-05-20T11:18:52.000Z</time>
      </trkpt>
      <trkpt lat="45.16198" lon="2.56484">
        <ele>1277.8</ele>
        <time>2018-05-20T11:19:06.000Z</time>
      </trkpt>
      <trkpt lat="45.16189" lon="2.56561">
        <ele>1280.2</ele>
        <time>2018-05-20T11:19:31.000Z</time>
      </trkpt>
      <trkpt lat="45.16187" lon="2.56569">
        <ele>1280.6</ele>
        <time>2018-05-20T11:19:34.000Z</time>
      </trkpt>
      <trkpt lat="45.16178" lon="2.5659">
        <ele>1281.6</ele>
        <time>2018-05-20T11:19:42.000Z</time>
      </trkpt>
      <trkpt lat="45.16177" lon="2.56616">
        <ele>1282.2</ele>
        <time>2018-05-20T11:19:49.000Z</time>
      </trkpt>
      <trkpt lat="45.1615" lon="2.56753">
        <ele>1283.4</ele>
        <time>2018-05-20T11:20:29.000Z</time>
      </trkpt>
      <trkpt lat="45.16105" lon="2.56884">
        <ele>1280.2</ele>
        <time>2018-05-20T11:21:06.000Z</time>
      </trkpt>
      <trkpt lat="45.16087" lon="2.5696">
        <ele>1280</ele>
        <time>2018-05-20T11:21:28.000Z</time>
      </trkpt>
      <trkpt lat="45.16058" lon="2.57036">
        <ele>1281.4</ele>
        <time>2018-05-20T11:21:53.000Z</time>
      </trkpt>
      <trkpt lat="45.16055" lon="2.57063">
        <ele>1281.4</ele>
        <time>2018-05-20T11:22:01.000Z</time>
      </trkpt>
      <trkpt lat="45.16052" lon="2.57067">
        <ele>1281.8</ele>
        <time>2018-05-20T11:22:03.000Z</time>
      </trkpt>
      <trkpt lat="45.16045" lon="2.57074">
        <ele>1283</ele>
        <time>2018-05-20T11:22:07.000Z</time>
      </trkpt>
      <trkpt lat="45.16039" lon="2.57097">
        <ele>1284.2</ele>
        <time>2018-05-20T11:22:15.000Z</time>
      </trkpt>
      <trkpt lat="45.16037" lon="2.57375">
        <ele>1294.6</ele>
        <time>2018-05-20T11:23:41.000Z</time>
      </trkpt>
      <trkpt lat="45.16038" lon="2.57381">
        <ele>1295</ele>
        <time>2018-05-20T11:23:43.000Z</time>
      </trkpt>
      <trkpt lat="45.16038" lon="2.57391">
        <ele>1295.6</ele>
        <time>2018-05-20T11:23:47.000Z</time>
      </trkpt>
      <trkpt lat="45.16037" lon="2.57402">
        <ele>1296.8</ele>
        <time>2018-05-20T11:23:51.000Z</time>
      </trkpt>
      <trkpt lat="45.16036" lon="2.57458">
        <ele>1302.2</ele>
        <time>2018-05-20T11:24:11.000Z</time>
      </trkpt>
      <trkpt lat="45.16035" lon="2.57516">
        <ele>1306.4</ele>
        <time>2018-05-20T11:24:36.000Z</time>
      </trkpt>
      <trkpt lat="45.16035" lon="2.57521">
        <ele>1306.8</ele>
        <time>2018-05-20T11:24:38.000Z</time>
      </trkpt>
      <trkpt lat="45.16032" lon="2.57534">
        <ele>1307.8</ele>
        <time>2018-05-20T11:24:43.000Z</time>
      </trkpt>
      <trkpt lat="45.16012" lon="2.57919">
        <ele>1320.2</ele>
        <time>2018-05-20T11:26:37.000Z</time>
      </trkpt>
      <trkpt lat="45.16012" lon="2.57923">
        <ele>1320.6</ele>
        <time>2018-05-20T11:26:38.000Z</time>
      </trkpt>
      <trkpt lat="45.1601" lon="2.57932">
        <ele>1321.6</ele>
        <time>2018-05-20T11:26:41.000Z</time>
      </trkpt>
      <trkpt lat="45.16005" lon="2.57946">
        <ele>1322.8</ele>
        <time>2018-05-20T11:26:46.000Z</time>
      </trkpt>
      <trkpt lat="45.15997" lon="2.57962">
        <ele>1324</ele>
        <time>2018-05-20T11:26:52.000Z</time>
      </trkpt>
      <trkpt lat="45.15988" lon="2.57976">
        <ele>1325</ele>
        <time>2018-05-20T11:26:58.000Z</time>
      </trkpt>
      <trkpt lat="45.15983" lon="2.57993">
        <ele>1326.2</ele>
        <time>2018-05-20T11:27:04.000Z</time>
      </trkpt>
      <trkpt lat="45.15974" lon="2.58035">
        <ele>1328.4</ele>
        <time>2018-05-20T11:27:19.000Z</time>
      </trkpt>
      <trkpt lat="45.15971" lon="2.58044">
        <ele>1329.4</ele>
        <time>2018-05-20T11:27:22.000Z</time>
      </trkpt>
      <trkpt lat="45.15953" lon="2.58085">
        <ele>1332.8</ele>
        <time>2018-05-20T11:27:38.000Z</time>
      </trkpt>
      <trkpt lat="45.15952" lon="2.58087">
        <ele>1332.6</ele>
        <time>2018-05-20T11:27:39.000Z</time>
      </trkpt>
      <trkpt lat="45.15941" lon="2.581">
        <ele>1332.8</ele>
        <time>2018-05-20T11:27:48.000Z</time>
      </trkpt>
      <trkpt lat="45.15936" lon="2.58104">
        <ele>1331.6</ele>
        <time>2018-05-20T11:28:00.000Z</time>
      </trkpt>
      <trkpt lat="45.15936" lon="2.58103">
        <ele>1331.2</ele>
        <time>2018-05-20T11:28:09.000Z</time>
      </trkpt>
      <trkpt lat="45.15937" lon="2.58102">
        <ele>1331.4</ele>
        <time>2018-05-20T11:28:14.000Z</time>
      </trkpt>
      <trkpt lat="45.15937" lon="2.58103">
        <ele>1331.6</ele>
        <time>2018-05-20T11:28:20.000Z</time>
      </trkpt>
      <trkpt lat="45.15936" lon="2.58103">
        <ele>1331.6</ele>
        <time>2018-05-20T11:28:27.000Z</time>
      </trkpt>
      <trkpt lat="45.15936" lon="2.58103">
        <ele>1331.8</ele>
        <time>2018-05-20T11:28:34.000Z</time>
      </trkpt>
      <trkpt lat="45.15936" lon="2.58103">
        <ele>1331.4</ele>
        <time>2018-05-20T11:28:39.000Z</time>
      </trkpt>
      <trkpt lat="45.15936" lon="2.58102">
        <ele>1331.6</ele>
        <time>2018-05-20T11:28:43.000Z</time>
      </trkpt>
      <trkpt lat="45.15937" lon="2.58103">
        <ele>1332.2</ele>
        <time>2018-05-20T11:28:51.000Z</time>
      </trkpt>
      <trkpt lat="45.15936" lon="2.58102">
        <ele>1331.6</ele>
        <time>2018-05-20T11:28:56.000Z</time>
      </trkpt>
      <trkpt lat="45.15936" lon="2.58102">
        <ele>1331.6</ele>
        <time>2018-05-20T11:28:57.000Z</time>
      </trkpt>
      <trkpt lat="45.15936" lon="2.58103">
        <ele>1331.8</ele>
        <time>2018-05-20T11:29:06.000Z</time>
      </trkpt>
      <trkpt lat="45.15936" lon="2.58102">
        <ele>1331.8</ele>
        <time>2018-05-20T11:29:10.000Z</time>
      </trkpt>
      <trkpt lat="45.15936" lon="2.58101">
        <ele>1332</ele>
        <time>2018-05-20T11:29:21.000Z</time>
      </trkpt>
      <trkpt lat="45.15937" lon="2.58099">
        <ele>1331.6</ele>
        <time>2018-05-20T11:29:40.000Z</time>
      </trkpt>
      <trkpt lat="45.15937" lon="2.58099">
        <ele>1332</ele>
        <time>2018-05-20T11:29:43.000Z</time>
      </trkpt>
      <trkpt lat="45.15936" lon="2.581">
        <ele>1332</ele>
        <time>2018-05-20T11:29:54.000Z</time>
      </trkpt>
      <trkpt lat="45.15935" lon="2.58101">
        <ele>1331.8</ele>
        <time>2018-05-20T11:30:39.000Z</time>
      </trkpt>
      <trkpt lat="45.15936" lon="2.581">
        <ele>1331.8</ele>
        <time>2018-05-20T11:30:41.000Z</time>
      </trkpt>
      <trkpt lat="45.15937" lon="2.58099">
        <ele>1331.8</ele>
        <time>2018-05-20T11:30:55.000Z</time>
      </trkpt>
      <trkpt lat="45.15937" lon="2.58099">
        <ele>1331.8</ele>
        <time>2018-05-20T11:30:56.000Z</time>
      </trkpt>
      <trkpt lat="45.15936" lon="2.58099">
        <ele>1331.8</ele>
        <time>2018-05-20T11:31:00.000Z</time>
      </trkpt>
      <trkpt lat="45.15936" lon="2.581">
        <ele>1331.8</ele>
        <time>2018-05-20T11:31:05.000Z</time>
      </trkpt>
      <trkpt lat="45.15936" lon="2.58101">
        <ele>1331.8</ele>
        <time>2018-05-20T11:31:10.000Z</time>
      </trkpt>
      <trkpt lat="45.15934" lon="2.58109">
        <ele>1332</ele>
        <time>2018-05-20T11:31:16.000Z</time>
      </trkpt>
      <trkpt lat="45.15889" lon="2.58214">
        <ele>1325.6</ele>
        <time>2018-05-20T11:31:44.000Z</time>
      </trkpt>
      <trkpt lat="45.1588" lon="2.5823">
        <ele>1324.6</ele>
        <time>2018-05-20T11:31:49.000Z</time>
      </trkpt>
      <trkpt lat="45.15868" lon="2.58258">
        <ele>1323.6</ele>
        <time>2018-05-20T11:31:56.000Z</time>
      </trkpt>
      <trkpt lat="45.1584" lon="2.58308">
        <ele>1318.6</ele>
        <time>2018-05-20T11:32:08.000Z</time>
      </trkpt>
      <trkpt lat="45.15825" lon="2.58331">
        <ele>1316.4</ele>
        <time>2018-05-20T11:32:14.000Z</time>
      </trkpt>
      <trkpt lat="45.15817" lon="2.58347">
        <ele>1314.8</ele>
        <time>2018-05-20T11:32:18.000Z</time>
      </trkpt>
      <trkpt lat="45.15812" lon="2.58367">
        <ele>1312.6</ele>
        <time>2018-05-20T11:32:23.000Z</time>
      </trkpt>
      <trkpt lat="45.15804" lon="2.58385">
        <ele>1310.4</ele>
        <time>2018-05-20T11:32:28.000Z</time>
      </trkpt>
      <trkpt lat="45.15782" lon="2.58417">
        <ele>1307</ele>
        <time>2018-05-20T11:32:37.000Z</time>
      </trkpt>
      <trkpt lat="45.15762" lon="2.58439">
        <ele>1304</ele>
        <time>2018-05-20T11:32:45.000Z</time>
      </trkpt>
      <trkpt lat="45.15754" lon="2.58447">
        <ele>1302.8</ele>
        <time>2018-05-20T11:32:48.000Z</time>
      </trkpt>
      <trkpt lat="45.15742" lon="2.58454">
        <ele>1301.4</ele>
        <time>2018-05-20T11:32:52.000Z</time>
      </trkpt>
      <trkpt lat="45.15734" lon="2.58456">
        <ele>1300.2</ele>
        <time>2018-05-20T11:32:55.000Z</time>
      </trkpt>
      <trkpt lat="45.15719" lon="2.58464">
        <ele>1298.8</ele>
        <time>2018-05-20T11:33:00.000Z</time>
      </trkpt>
      <trkpt lat="45.15712" lon="2.58468">
        <ele>1297.4</ele>
        <time>2018-05-20T11:33:02.000Z</time>
      </trkpt>
      <trkpt lat="45.15704" lon="2.58475">
        <ele>1296.2</ele>
        <time>2018-05-20T11:33:05.000Z</time>
      </trkpt>
      <trkpt lat="45.15684" lon="2.58514">
        <ele>1292.4</ele>
        <time>2018-05-20T11:33:16.000Z</time>
      </trkpt>
      <trkpt lat="45.15677" lon="2.58533">
        <ele>1291.6</ele>
        <time>2018-05-20T11:33:21.000Z</time>
      </trkpt>
      <trkpt lat="45.15673" lon="2.58564">
        <ele>1290.2</ele>
        <time>2018-05-20T11:33:28.000Z</time>
      </trkpt>
      <trkpt lat="45.15682" lon="2.58639">
        <ele>1287.2</ele>
        <time>2018-05-20T11:33:45.000Z</time>
      </trkpt>
      <trkpt lat="45.15682" lon="2.58643">
        <ele>1287</ele>
        <time>2018-05-20T11:33:46.000Z</time>
      </trkpt>
      <trkpt lat="45.15681" lon="2.58669">
        <ele>1286</ele>
        <time>2018-05-20T11:33:52.000Z</time>
      </trkpt>
      <trkpt lat="45.15683" lon="2.58673">
        <ele>1285.8</ele>
        <time>2018-05-20T11:33:53.000Z</time>
      </trkpt>
      <trkpt lat="45.1568" lon="2.58701">
        <ele>1284.6</ele>
        <time>2018-05-20T11:34:00.000Z</time>
      </trkpt>
      <trkpt lat="45.15587" lon="2.58967">
        <ele>1274</ele>
        <time>2018-05-20T11:35:15.000Z</time>
      </trkpt>
      <trkpt lat="45.1556" lon="2.59028">
        <ele>1270.6</ele>
        <time>2018-05-20T11:35:33.000Z</time>
      </trkpt>
      <trkpt lat="45.1556" lon="2.59032">
        <ele>1270.4</ele>
        <time>2018-05-20T11:35:34.000Z</time>
      </trkpt>
      <trkpt lat="45.15536" lon="2.59119">
        <ele>1268.2</ele>
        <time>2018-05-20T11:35:58.000Z</time>
      </trkpt>
      <trkpt lat="45.15522" lon="2.59154">
        <ele>1265.8</ele>
        <time>2018-05-20T11:36:08.000Z</time>
      </trkpt>
      <trkpt lat="45.15515" lon="2.5918">
        <ele>1264.4</ele>
        <time>2018-05-20T11:36:15.000Z</time>
      </trkpt>
      <trkpt lat="45.15514" lon="2.59184">
        <ele>1264.4</ele>
        <time>2018-05-20T11:36:16.000Z</time>
      </trkpt>
      <trkpt lat="45.15512" lon="2.59187">
        <ele>1264</ele>
        <time>2018-05-20T11:36:17.000Z</time>
      </trkpt>
      <trkpt lat="45.1551" lon="2.59189">
        <ele>1263.6</ele>
        <time>2018-05-20T11:36:18.000Z</time>
      </trkpt>
      <trkpt lat="45.15507" lon="2.5919">
        <ele>1263.2</ele>
        <time>2018-05-20T11:36:19.000Z</time>
      </trkpt>
      <trkpt lat="45.15499" lon="2.59191">
        <ele>1262</ele>
        <time>2018-05-20T11:36:22.000Z</time>
      </trkpt>
      <trkpt lat="45.15494" lon="2.59194">
        <ele>1261</ele>
        <time>2018-05-20T11:36:24.000Z</time>
      </trkpt>
      <trkpt lat="45.15489" lon="2.59201">
        <ele>1259.6</ele>
        <time>2018-05-20T11:36:27.000Z</time>
      </trkpt>
      <trkpt lat="45.15477" lon="2.59221">
        <ele>1259.8</ele>
        <time>2018-05-20T11:36:34.000Z</time>
      </trkpt>
      <trkpt lat="45.15469" lon="2.59244">
        <ele>1261</ele>
        <time>2018-05-20T11:36:43.000Z</time>
      </trkpt>
      <trkpt lat="45.15465" lon="2.5925">
        <ele>1261.6</ele>
        <time>2018-05-20T11:36:48.000Z</time>
      </trkpt>
      <trkpt lat="45.15459" lon="2.59255">
        <ele>1261</ele>
        <time>2018-05-20T11:36:55.000Z</time>
      </trkpt>
      <trkpt lat="45.15457" lon="2.59256">
        <ele>1261.2</ele>
        <time>2018-05-20T11:36:57.000Z</time>
      </trkpt>
      <trkpt lat="45.15457" lon="2.59256">
        <ele>1261.4</ele>
        <time>2018-05-20T11:36:58.000Z</time>
      </trkpt>
      <trkpt lat="45.15455" lon="2.59258">
        <ele>1261.6</ele>
        <time>2018-05-20T11:37:02.000Z</time>
      </trkpt>
      <trkpt lat="45.15455" lon="2.59259">
        <ele>1261.6</ele>
        <time>2018-05-20T11:37:05.000Z</time>
      </trkpt>
      <trkpt lat="45.15454" lon="2.59259">
        <ele>1261.4</ele>
        <time>2018-05-20T11:37:08.000Z</time>
      </trkpt>
      <trkpt lat="45.15454" lon="2.59258">
        <ele>1261.2</ele>
        <time>2018-05-20T11:37:09.000Z</time>
      </trkpt>
      <trkpt lat="45.15454" lon="2.59259">
        <ele>1260.8</ele>
        <time>2018-05-20T11:37:12.000Z</time>
      </trkpt>
      <trkpt lat="45.15456" lon="2.59261">
        <ele>1260.4</ele>
        <time>2018-05-20T11:37:19.000Z</time>
      </trkpt>
      <trkpt lat="45.15454" lon="2.59264">
        <ele>1260.4</ele>
        <time>2018-05-20T11:37:39.000Z</time>
      </trkpt>
      <trkpt lat="45.15454" lon="2.59265">
        <ele>1260.4</ele>
        <time>2018-05-20T11:37:45.000Z</time>
      </trkpt>
      <trkpt lat="45.15452" lon="2.59267">
        <ele>1261</ele>
        <time>2018-05-20T11:37:53.000Z</time>
      </trkpt>
      <trkpt lat="45.15452" lon="2.59268">
        <ele>1261</ele>
        <time>2018-05-20T11:37:54.000Z</time>
      </trkpt>
      <trkpt lat="45.15452" lon="2.59268">
        <ele>1261</ele>
        <time>2018-05-20T11:37:55.000Z</time>
      </trkpt>
      <trkpt lat="45.15451" lon="2.59269">
        <ele>1261</ele>
        <time>2018-05-20T11:38:00.000Z</time>
      </trkpt>
      <trkpt lat="45.15449" lon="2.59278">
        <ele>1261.2</ele>
        <time>2018-05-20T11:38:16.000Z</time>
      </trkpt>
      <trkpt lat="45.15449" lon="2.5928">
        <ele>1261.2</ele>
        <time>2018-05-20T11:38:19.000Z</time>
      </trkpt>
      <trkpt lat="45.15448" lon="2.59285">
        <ele>1262</ele>
        <time>2018-05-20T11:38:27.000Z</time>
      </trkpt>
      <trkpt lat="45.15444" lon="2.59299">
        <ele>1263.2</ele>
        <time>2018-05-20T11:38:35.000Z</time>
      </trkpt>
      <trkpt lat="45.15441" lon="2.59309">
        <ele>1264.2</ele>
        <time>2018-05-20T11:38:41.000Z</time>
      </trkpt>
      <trkpt lat="45.15441" lon="2.59314">
        <ele>1264.6</ele>
        <time>2018-05-20T11:38:44.000Z</time>
      </trkpt>
      <trkpt lat="45.1544" lon="2.59317">
        <ele>1264.8</ele>
        <time>2018-05-20T11:38:46.000Z</time>
      </trkpt>
      <trkpt lat="45.15427" lon="2.59351">
        <ele>1267.2</ele>
        <time>2018-05-20T11:39:09.000Z</time>
      </trkpt>
      <trkpt lat="45.15426" lon="2.59354">
        <ele>1267.4</ele>
        <time>2018-05-20T11:39:11.000Z</time>
      </trkpt>
      <trkpt lat="45.15414" lon="2.59382">
        <ele>1267.4</ele>
        <time>2018-05-20T11:39:26.000Z</time>
      </trkpt>
      <trkpt lat="45.15409" lon="2.59391">
        <ele>1267</ele>
        <time>2018-05-20T11:39:32.000Z</time>
      </trkpt>
      <trkpt lat="45.15407" lon="2.59395">
        <ele>1266.4</ele>
        <time>2018-05-20T11:39:35.000Z</time>
      </trkpt>
      <trkpt lat="45.15396" lon="2.59411">
        <ele>1265.2</ele>
        <time>2018-05-20T11:39:43.000Z</time>
      </trkpt>
      <trkpt lat="45.15373" lon="2.59436">
        <ele>1266.4</ele>
        <time>2018-05-20T11:39:57.000Z</time>
      </trkpt>
      <trkpt lat="45.15364" lon="2.59444">
        <ele>1267.6</ele>
        <time>2018-05-20T11:40:02.000Z</time>
      </trkpt>
      <trkpt lat="45.15358" lon="2.59449">
        <ele>1268.6</ele>
        <time>2018-05-20T11:40:05.000Z</time>
      </trkpt>
      <trkpt lat="45.15351" lon="2.59457">
        <ele>1270.2</ele>
        <time>2018-05-20T11:40:10.000Z</time>
      </trkpt>
      <trkpt lat="45.15346" lon="2.59464">
        <ele>1271.4</ele>
        <time>2018-05-20T11:40:13.000Z</time>
      </trkpt>
      <trkpt lat="45.15339" lon="2.59471">
        <ele>1271.8</ele>
        <time>2018-05-20T11:40:17.000Z</time>
      </trkpt>
      <trkpt lat="45.15337" lon="2.59474">
        <ele>1272.4</ele>
        <time>2018-05-20T11:40:19.000Z</time>
      </trkpt>
      <trkpt lat="45.15335" lon="2.59476">
        <ele>1272.8</ele>
        <time>2018-05-20T11:40:20.000Z</time>
      </trkpt>
      <trkpt lat="45.1533" lon="2.59489">
        <ele>1273.8</ele>
        <time>2018-05-20T11:40:26.000Z</time>
      </trkpt>
      <trkpt lat="45.15329" lon="2.59491">
        <ele>1274</ele>
        <time>2018-05-20T11:40:27.000Z</time>
      </trkpt>
      <trkpt lat="45.15328" lon="2.59496">
        <ele>1274.2</ele>
        <time>2018-05-20T11:40:29.000Z</time>
      </trkpt>
      <trkpt lat="45.15325" lon="2.59501">
        <ele>1274</ele>
        <time>2018-05-20T11:40:31.000Z</time>
      </trkpt>
      <trkpt lat="45.15324" lon="2.59508">
        <ele>1274.2</ele>
        <time>2018-05-20T11:40:34.000Z</time>
      </trkpt>
      <trkpt lat="45.15319" lon="2.59533">
        <ele>1274.2</ele>
        <time>2018-05-20T11:40:41.000Z</time>
      </trkpt>
      <trkpt lat="45.15306" lon="2.59567">
        <ele>1273.4</ele>
        <time>2018-05-20T11:40:52.000Z</time>
      </trkpt>
      <trkpt lat="45.15301" lon="2.59576">
        <ele>1273</ele>
        <time>2018-05-20T11:40:55.000Z</time>
      </trkpt>
      <trkpt lat="45.15299" lon="2.59578">
        <ele>1272.8</ele>
        <time>2018-05-20T11:40:56.000Z</time>
      </trkpt>
      <trkpt lat="45.15296" lon="2.59583">
        <ele>1272.2</ele>
        <time>2018-05-20T11:40:58.000Z</time>
      </trkpt>
      <trkpt lat="45.15289" lon="2.59603">
        <ele>1271.2</ele>
        <time>2018-05-20T11:41:04.000Z</time>
      </trkpt>
      <trkpt lat="45.15285" lon="2.59611">
        <ele>1271</ele>
        <time>2018-05-20T11:41:06.000Z</time>
      </trkpt>
      <trkpt lat="45.15274" lon="2.5962">
        <ele>1270.8</ele>
        <time>2018-05-20T11:41:12.000Z</time>
      </trkpt>
      <trkpt lat="45.15266" lon="2.59629">
        <ele>1271.2</ele>
        <time>2018-05-20T11:41:17.000Z</time>
      </trkpt>
      <trkpt lat="45.15257" lon="2.59636">
        <ele>1272.6</ele>
        <time>2018-05-20T11:41:22.000Z</time>
      </trkpt>
      <trkpt lat="45.15181" lon="2.59723">
        <ele>1275.4</ele>
        <time>2018-05-20T11:42:01.000Z</time>
      </trkpt>
      <trkpt lat="45.15178" lon="2.59728">
        <ele>1275.8</ele>
        <time>2018-05-20T11:42:03.000Z</time>
      </trkpt>
      <trkpt lat="45.15176" lon="2.59729">
        <ele>1275.8</ele>
        <time>2018-05-20T11:42:04.000Z</time>
      </trkpt>
      <trkpt lat="45.15169" lon="2.59733">
        <ele>1276.6</ele>
        <time>2018-05-20T11:42:08.000Z</time>
      </trkpt>
      <trkpt lat="45.1516" lon="2.59741">
        <ele>1278.4</ele>
        <time>2018-05-20T11:42:14.000Z</time>
      </trkpt>
      <trkpt lat="45.15156" lon="2.59745">
        <ele>1279.2</ele>
        <time>2018-05-20T11:42:17.000Z</time>
      </trkpt>
      <trkpt lat="45.15156" lon="2.59746">
        <ele>1279.4</ele>
        <time>2018-05-20T11:42:18.000Z</time>
      </trkpt>
      <trkpt lat="45.15155" lon="2.59747">
        <ele>1279.6</ele>
        <time>2018-05-20T11:42:19.000Z</time>
      </trkpt>
      <trkpt lat="45.15155" lon="2.59748">
        <ele>1279.8</ele>
        <time>2018-05-20T11:42:20.000Z</time>
      </trkpt>
      <trkpt lat="45.15153" lon="2.59749">
        <ele>1280</ele>
        <time>2018-05-20T11:42:21.000Z</time>
      </trkpt>
      <trkpt lat="45.15151" lon="2.5975">
        <ele>1280.2</ele>
        <time>2018-05-20T11:42:23.000Z</time>
      </trkpt>
      <trkpt lat="45.15149" lon="2.59751">
        <ele>1280.4</ele>
        <time>2018-05-20T11:42:24.000Z</time>
      </trkpt>
      <trkpt lat="45.15147" lon="2.59753">
        <ele>1280.6</ele>
        <time>2018-05-20T11:42:26.000Z</time>
      </trkpt>
      <trkpt lat="45.15145" lon="2.59753">
        <ele>1281</ele>
        <time>2018-05-20T11:42:28.000Z</time>
      </trkpt>
      <trkpt lat="45.15139" lon="2.59756">
        <ele>1281.6</ele>
        <time>2018-05-20T11:42:32.000Z</time>
      </trkpt>
      <trkpt lat="45.15135" lon="2.59761">
        <ele>1282.6</ele>
        <time>2018-05-20T11:42:37.000Z</time>
      </trkpt>
      <trkpt lat="45.15132" lon="2.59769">
        <ele>1284</ele>
        <time>2018-05-20T11:42:44.000Z</time>
      </trkpt>
      <trkpt lat="45.15129" lon="2.59772">
        <ele>1284.6</ele>
        <time>2018-05-20T11:42:46.000Z</time>
      </trkpt>
      <trkpt lat="45.15127" lon="2.59773">
        <ele>1284.8</ele>
        <time>2018-05-20T11:42:47.000Z</time>
      </trkpt>
      <trkpt lat="45.15125" lon="2.59773">
        <ele>1285</ele>
        <time>2018-05-20T11:42:49.000Z</time>
      </trkpt>
      <trkpt lat="45.15125" lon="2.59773">
        <ele>1285.2</ele>
        <time>2018-05-20T11:42:51.000Z</time>
      </trkpt>
      <trkpt lat="45.1512" lon="2.59773">
        <ele>1285.8</ele>
        <time>2018-05-20T11:42:56.000Z</time>
      </trkpt>
      <trkpt lat="45.1512" lon="2.59775">
        <ele>1286</ele>
        <time>2018-05-20T11:42:57.000Z</time>
      </trkpt>
      <trkpt lat="45.15117" lon="2.59779">
        <ele>1286.2</ele>
        <time>2018-05-20T11:43:00.000Z</time>
      </trkpt>
      <trkpt lat="45.15112" lon="2.59788">
        <ele>1286.2</ele>
        <time>2018-05-20T11:43:04.000Z</time>
      </trkpt>
      <trkpt lat="45.15101" lon="2.59806">
        <ele>1286</ele>
        <time>2018-05-20T11:43:12.000Z</time>
      </trkpt>
      <trkpt lat="45.15097" lon="2.5981">
        <ele>1286.2</ele>
        <time>2018-05-20T11:43:14.000Z</time>
      </trkpt>
      <trkpt lat="45.15096" lon="2.59811">
        <ele>1286.2</ele>
        <time>2018-05-20T11:43:15.000Z</time>
      </trkpt>
      <trkpt lat="45.15092" lon="2.59812">
        <ele>1286.4</ele>
        <time>2018-05-20T11:43:18.000Z</time>
      </trkpt>
      <trkpt lat="45.1509" lon="2.59812">
        <ele>1286.4</ele>
        <time>2018-05-20T11:43:19.000Z</time>
      </trkpt>
      <trkpt lat="45.15068" lon="2.59828">
        <ele>1286</ele>
        <time>2018-05-20T11:43:32.000Z</time>
      </trkpt>
      <trkpt lat="45.15058" lon="2.59836">
        <ele>1284.8</ele>
        <time>2018-05-20T11:43:36.000Z</time>
      </trkpt>
      <trkpt lat="45.15054" lon="2.59839">
        <ele>1284</ele>
        <time>2018-05-20T11:43:38.000Z</time>
      </trkpt>
      <trkpt lat="45.15052" lon="2.59841">
        <ele>1283.8</ele>
        <time>2018-05-20T11:43:39.000Z</time>
      </trkpt>
      <trkpt lat="45.15045" lon="2.59845">
        <ele>1283.2</ele>
        <time>2018-05-20T11:43:42.000Z</time>
      </trkpt>
      <trkpt lat="45.15043" lon="2.59848">
        <ele>1282.8</ele>
        <time>2018-05-20T11:43:43.000Z</time>
      </trkpt>
      <trkpt lat="45.15041" lon="2.59851">
        <ele>1282.4</ele>
        <time>2018-05-20T11:43:44.000Z</time>
      </trkpt>
      <trkpt lat="45.15039" lon="2.59853">
        <ele>1282.4</ele>
        <time>2018-05-20T11:43:45.000Z</time>
      </trkpt>
      <trkpt lat="45.15027" lon="2.59874">
        <ele>1281.4</ele>
        <time>2018-05-20T11:43:51.000Z</time>
      </trkpt>
      <trkpt lat="45.14978" lon="2.60004">
        <ele>1278.8</ele>
        <time>2018-05-20T11:44:25.000Z</time>
      </trkpt>
      <trkpt lat="45.14969" lon="2.60058">
        <ele>1278.8</ele>
        <time>2018-05-20T11:44:39.000Z</time>
      </trkpt>
      <trkpt lat="45.14947" lon="2.60095">
        <ele>1277</ele>
        <time>2018-05-20T11:44:52.000Z</time>
      </trkpt>
      <trkpt lat="45.14912" lon="2.6013">
        <ele>1273.2</ele>
        <time>2018-05-20T11:45:11.000Z</time>
      </trkpt>
      <trkpt lat="45.14899" lon="2.6015">
        <ele>1273.8</ele>
        <time>2018-05-20T11:45:19.000Z</time>
      </trkpt>
      <trkpt lat="45.14872" lon="2.602">
        <ele>1275.2</ele>
        <time>2018-05-20T11:45:35.000Z</time>
      </trkpt>
      <trkpt lat="45.14864" lon="2.60209">
        <ele>1275.4</ele>
        <time>2018-05-20T11:45:40.000Z</time>
      </trkpt>
      <trkpt lat="45.14863" lon="2.6021">
        <ele>1275.4</ele>
        <time>2018-05-20T11:45:41.000Z</time>
      </trkpt>
      <trkpt lat="45.14853" lon="2.6023">
        <ele>1275.8</ele>
        <time>2018-05-20T11:45:49.000Z</time>
      </trkpt>
      <trkpt lat="45.14839" lon="2.6025">
        <ele>1276</ele>
        <time>2018-05-20T11:45:56.000Z</time>
      </trkpt>
      <trkpt lat="45.14819" lon="2.60299">
        <ele>1277</ele>
        <time>2018-05-20T11:46:13.000Z</time>
      </trkpt>
      <trkpt lat="45.14811" lon="2.60333">
        <ele>1279</ele>
        <time>2018-05-20T11:46:26.000Z</time>
      </trkpt>
      <trkpt lat="45.1481" lon="2.60346">
        <ele>1280.4</ele>
        <time>2018-05-20T11:46:30.000Z</time>
      </trkpt>
      <trkpt lat="45.14814" lon="2.60391">
        <ele>1284.2</ele>
        <time>2018-05-20T11:46:46.000Z</time>
      </trkpt>
      <trkpt lat="45.14812" lon="2.60408">
        <ele>1285</ele>
        <time>2018-05-20T11:46:52.000Z</time>
      </trkpt>
      <trkpt lat="45.14806" lon="2.60422">
        <ele>1286</ele>
        <time>2018-05-20T11:46:58.000Z</time>
      </trkpt>
      <trkpt lat="45.14797" lon="2.60433">
        <ele>1287.2</ele>
        <time>2018-05-20T11:47:05.000Z</time>
      </trkpt>
      <trkpt lat="45.14794" lon="2.60438">
        <ele>1287.8</ele>
        <time>2018-05-20T11:47:08.000Z</time>
      </trkpt>
      <trkpt lat="45.14787" lon="2.60453">
        <ele>1289.6</ele>
        <time>2018-05-20T11:47:15.000Z</time>
      </trkpt>
      <trkpt lat="45.14775" lon="2.6047">
        <ele>1290</ele>
        <time>2018-05-20T11:47:24.000Z</time>
      </trkpt>
      <trkpt lat="45.1476" lon="2.60478">
        <ele>1291</ele>
        <time>2018-05-20T11:47:30.000Z</time>
      </trkpt>
      <trkpt lat="45.14754" lon="2.60483">
        <ele>1291.2</ele>
        <time>2018-05-20T11:47:35.000Z</time>
      </trkpt>
      <trkpt lat="45.14738" lon="2.60498">
        <ele>1290</ele>
        <time>2018-05-20T11:47:47.000Z</time>
      </trkpt>
      <trkpt lat="45.14732" lon="2.60507">
        <ele>1289.2</ele>
        <time>2018-05-20T11:47:56.000Z</time>
      </trkpt>
      <trkpt lat="45.14731" lon="2.60511">
        <ele>1289</ele>
        <time>2018-05-20T11:48:00.000Z</time>
      </trkpt>
      <trkpt lat="45.1473" lon="2.60512">
        <ele>1289</ele>
        <time>2018-05-20T11:48:02.000Z</time>
      </trkpt>
      <trkpt lat="45.14731" lon="2.60513">
        <ele>1288.8</ele>
        <time>2018-05-20T11:48:06.000Z</time>
      </trkpt>
      <trkpt lat="45.14732" lon="2.60513">
        <ele>1288.8</ele>
        <time>2018-05-20T11:48:12.000Z</time>
      </trkpt>
      <trkpt lat="45.14732" lon="2.60513">
        <ele>1288.6</ele>
        <time>2018-05-20T11:48:16.000Z</time>
      </trkpt>
      <trkpt lat="45.14732" lon="2.60513">
        <ele>1288.6</ele>
        <time>2018-05-20T11:48:19.000Z</time>
      </trkpt>
      <trkpt lat="45.14732" lon="2.60514">
        <ele>1288.2</ele>
        <time>2018-05-20T11:48:22.000Z</time>
      </trkpt>
      <trkpt lat="45.14732" lon="2.60514">
        <ele>1288.2</ele>
        <time>2018-05-20T11:48:23.000Z</time>
      </trkpt>
      <trkpt lat="45.14731" lon="2.60514">
        <ele>1288.2</ele>
        <time>2018-05-20T11:48:24.000Z</time>
      </trkpt>
      <trkpt lat="45.14727" lon="2.60518">
        <ele>1288.2</ele>
        <time>2018-05-20T11:48:36.000Z</time>
      </trkpt>
      <trkpt lat="45.14726" lon="2.60522">
        <ele>1288.6</ele>
        <time>2018-05-20T11:48:43.000Z</time>
      </trkpt>
      <trkpt lat="45.14723" lon="2.60524">
        <ele>1288.4</ele>
        <time>2018-05-20T11:48:47.000Z</time>
      </trkpt>
      <trkpt lat="45.14723" lon="2.60524">
        <ele>1288</ele>
        <time>2018-05-20T11:48:59.000Z</time>
      </trkpt>
      <trkpt lat="45.1472" lon="2.60527">
        <ele>1288</ele>
        <time>2018-05-20T11:49:07.000Z</time>
      </trkpt>
      <trkpt lat="45.14718" lon="2.60529">
        <ele>1288.2</ele>
        <time>2018-05-20T11:49:12.000Z</time>
      </trkpt>
      <trkpt lat="45.14718" lon="2.60529">
        <ele>1288.2</ele>
        <time>2018-05-20T11:49:13.000Z</time>
      </trkpt>
      <trkpt lat="45.14718" lon="2.60529">
        <ele>1288.4</ele>
        <time>2018-05-20T11:49:15.000Z</time>
      </trkpt>
      <trkpt lat="45.14717" lon="2.60529">
        <ele>1289</ele>
        <time>2018-05-20T11:49:26.000Z</time>
      </trkpt>
      <trkpt lat="45.14717" lon="2.60529">
        <ele>1289</ele>
        <time>2018-05-20T11:49:27.000Z</time>
      </trkpt>
      <trkpt lat="45.14716" lon="2.60536">
        <ele>1290</ele>
        <time>2018-05-20T11:49:41.000Z</time>
      </trkpt>
      <trkpt lat="45.14716" lon="2.60537">
        <ele>1290.4</ele>
        <time>2018-05-20T11:49:47.000Z</time>
      </trkpt>
      <trkpt lat="45.14703" lon="2.60556">
        <ele>1294.6</ele>
        <time>2018-05-20T11:50:34.000Z</time>
      </trkpt>
      <trkpt lat="45.14702" lon="2.6056">
        <ele>1295.4</ele>
        <time>2018-05-20T11:50:41.000Z</time>
      </trkpt>
      <trkpt lat="45.14702" lon="2.60561">
        <ele>1296.4</ele>
        <time>2018-05-20T11:50:54.000Z</time>
      </trkpt>
      <trkpt lat="45.14703" lon="2.60561">
        <ele>1296.8</ele>
        <time>2018-05-20T11:50:58.000Z</time>
      </trkpt>
      <trkpt lat="45.14701" lon="2.60561">
        <ele>1297.4</ele>
        <time>2018-05-20T11:51:04.000Z</time>
      </trkpt>
      <trkpt lat="45.147" lon="2.6056">
        <ele>1297.6</ele>
        <time>2018-05-20T11:51:06.000Z</time>
      </trkpt>
      <trkpt lat="45.14699" lon="2.6056">
        <ele>1297.6</ele>
        <time>2018-05-20T11:51:08.000Z</time>
      </trkpt>
      <trkpt lat="45.14698" lon="2.6056">
        <ele>1297.8</ele>
        <time>2018-05-20T11:51:11.000Z</time>
      </trkpt>
      <trkpt lat="45.14698" lon="2.60567">
        <ele>1298</ele>
        <time>2018-05-20T11:51:16.000Z</time>
      </trkpt>
      <trkpt lat="45.14697" lon="2.60568">
        <ele>1298.4</ele>
        <time>2018-05-20T11:51:17.000Z</time>
      </trkpt>
      <trkpt lat="45.14694" lon="2.60569">
        <ele>1299.8</ele>
        <time>2018-05-20T11:51:20.000Z</time>
      </trkpt>
      <trkpt lat="45.14693" lon="2.6057">
        <ele>1300.6</ele>
        <time>2018-05-20T11:51:22.000Z</time>
      </trkpt>
      <trkpt lat="45.14693" lon="2.60572">
        <ele>1301</ele>
        <time>2018-05-20T11:51:24.000Z</time>
      </trkpt>
      <trkpt lat="45.14693" lon="2.60573">
        <ele>1301</ele>
        <time>2018-05-20T11:51:25.000Z</time>
      </trkpt>
      <trkpt lat="45.14692" lon="2.60577">
        <ele>1301.8</ele>
        <time>2018-05-20T11:51:30.000Z</time>
      </trkpt>
      <trkpt lat="45.14691" lon="2.60579">
        <ele>1302</ele>
        <time>2018-05-20T11:51:32.000Z</time>
      </trkpt>
      <trkpt lat="45.14691" lon="2.60583">
        <ele>1302.2</ele>
        <time>2018-05-20T11:51:34.000Z</time>
      </trkpt>
      <trkpt lat="45.14689" lon="2.60589">
        <ele>1302.8</ele>
        <time>2018-05-20T11:51:37.000Z</time>
      </trkpt>
      <trkpt lat="45.14689" lon="2.60592">
        <ele>1303</ele>
        <time>2018-05-20T11:51:38.000Z</time>
      </trkpt>
      <trkpt lat="45.14688" lon="2.606">
        <ele>1304.2</ele>
        <time>2018-05-20T11:51:42.000Z</time>
      </trkpt>
      <trkpt lat="45.14679" lon="2.60627">
        <ele>1306.6</ele>
        <time>2018-05-20T11:51:54.000Z</time>
      </trkpt>
      <trkpt lat="45.14679" lon="2.60629">
        <ele>1307</ele>
        <time>2018-05-20T11:51:55.000Z</time>
      </trkpt>
      <trkpt lat="45.14677" lon="2.60635">
        <ele>1307.6</ele>
        <time>2018-05-20T11:51:58.000Z</time>
      </trkpt>
      <trkpt lat="45.14673" lon="2.60647">
        <ele>1308</ele>
        <time>2018-05-20T11:52:03.000Z</time>
      </trkpt>
      <trkpt lat="45.14663" lon="2.60664">
        <ele>1308.6</ele>
        <time>2018-05-20T11:52:09.000Z</time>
      </trkpt>
      <trkpt lat="45.1466" lon="2.6067">
        <ele>1308.6</ele>
        <time>2018-05-20T11:52:11.000Z</time>
      </trkpt>
      <trkpt lat="45.14655" lon="2.60687">
        <ele>1308.8</ele>
        <time>2018-05-20T11:52:16.000Z</time>
      </trkpt>
      <trkpt lat="45.14651" lon="2.60697">
        <ele>1308.8</ele>
        <time>2018-05-20T11:52:20.000Z</time>
      </trkpt>
      <trkpt lat="45.14647" lon="2.60705">
        <ele>1308.8</ele>
        <time>2018-05-20T11:52:23.000Z</time>
      </trkpt>
      <trkpt lat="45.14639" lon="2.60744">
        <ele>1309.6</ele>
        <time>2018-05-20T11:52:36.000Z</time>
      </trkpt>
      <trkpt lat="45.14634" lon="2.60756">
        <ele>1309.8</ele>
        <time>2018-05-20T11:52:41.000Z</time>
      </trkpt>
      <trkpt lat="45.14632" lon="2.60771">
        <ele>1310.4</ele>
        <time>2018-05-20T11:52:46.000Z</time>
      </trkpt>
      <trkpt lat="45.14628" lon="2.60786">
        <ele>1312</ele>
        <time>2018-05-20T11:52:52.000Z</time>
      </trkpt>
      <trkpt lat="45.14626" lon="2.60799">
        <ele>1313.2</ele>
        <time>2018-05-20T11:52:59.000Z</time>
      </trkpt>
      <trkpt lat="45.14626" lon="2.60808">
        <ele>1314.2</ele>
        <time>2018-05-20T11:53:04.000Z</time>
      </trkpt>
      <trkpt lat="45.14612" lon="2.60839">
        <ele>1315.4</ele>
        <time>2018-05-20T11:53:18.000Z</time>
      </trkpt>
      <trkpt lat="45.14608" lon="2.6086">
        <ele>1317.2</ele>
        <time>2018-05-20T11:53:30.000Z</time>
      </trkpt>
      <trkpt lat="45.14603" lon="2.60896">
        <ele>1319.4</ele>
        <time>2018-05-20T11:53:50.000Z</time>
      </trkpt>
      <trkpt lat="45.14596" lon="2.60921">
        <ele>1319.8</ele>
        <time>2018-05-20T11:54:00.000Z</time>
      </trkpt>
      <trkpt lat="45.14595" lon="2.60929">
        <ele>1320</ele>
        <time>2018-05-20T11:54:03.000Z</time>
      </trkpt>
      <trkpt lat="45.14596" lon="2.60942">
        <ele>1320.4</ele>
        <time>2018-05-20T11:54:08.000Z</time>
      </trkpt>
      <trkpt lat="45.14594" lon="2.60946">
        <ele>1320.6</ele>
        <time>2018-05-20T11:54:10.000Z</time>
      </trkpt>
      <trkpt lat="45.14593" lon="2.60948">
        <ele>1320.8</ele>
        <time>2018-05-20T11:54:11.000Z</time>
      </trkpt>
      <trkpt lat="45.1458" lon="2.60978">
        <ele>1322</ele>
        <time>2018-05-20T11:54:24.000Z</time>
      </trkpt>
      <trkpt lat="45.14576" lon="2.60985">
        <ele>1322</ele>
        <time>2018-05-20T11:54:27.000Z</time>
      </trkpt>
      <trkpt lat="45.14575" lon="2.60987">
        <ele>1322.2</ele>
        <time>2018-05-20T11:54:28.000Z</time>
      </trkpt>
      <trkpt lat="45.14546" lon="2.61039">
        <ele>1322.4</ele>
        <time>2018-05-20T11:54:49.000Z</time>
      </trkpt>
      <trkpt lat="45.14543" lon="2.61043">
        <ele>1322.2</ele>
        <time>2018-05-20T11:54:51.000Z</time>
      </trkpt>
      <trkpt lat="45.14541" lon="2.61047">
        <ele>1322.6</ele>
        <time>2018-05-20T11:54:53.000Z</time>
      </trkpt>
      <trkpt lat="45.14539" lon="2.61053">
        <ele>1323</ele>
        <time>2018-05-20T11:54:56.000Z</time>
      </trkpt>
      <trkpt lat="45.14538" lon="2.61055">
        <ele>1323</ele>
        <time>2018-05-20T11:54:57.000Z</time>
      </trkpt>
      <trkpt lat="45.14536" lon="2.61062">
        <ele>1323</ele>
        <time>2018-05-20T11:55:00.000Z</time>
      </trkpt>
      <trkpt lat="45.14536" lon="2.6107">
        <ele>1323.4</ele>
        <time>2018-05-20T11:55:03.000Z</time>
      </trkpt>
      <trkpt lat="45.14535" lon="2.61075">
        <ele>1323.6</ele>
        <time>2018-05-20T11:55:05.000Z</time>
      </trkpt>
      <trkpt lat="45.14517" lon="2.61133">
        <ele>1324.6</ele>
        <time>2018-05-20T11:55:28.000Z</time>
      </trkpt>
      <trkpt lat="45.14517" lon="2.61135">
        <ele>1324.8</ele>
        <time>2018-05-20T11:55:29.000Z</time>
      </trkpt>
      <trkpt lat="45.14509" lon="2.61152">
        <ele>1326</ele>
        <time>2018-05-20T11:55:38.000Z</time>
      </trkpt>
      <trkpt lat="45.14508" lon="2.61161">
        <ele>1327</ele>
        <time>2018-05-20T11:55:43.000Z</time>
      </trkpt>
      <trkpt lat="45.14506" lon="2.61167">
        <ele>1327</ele>
        <time>2018-05-20T11:55:47.000Z</time>
      </trkpt>
      <trkpt lat="45.14505" lon="2.61169">
        <ele>1327.2</ele>
        <time>2018-05-20T11:55:49.000Z</time>
      </trkpt>
      <trkpt lat="45.14504" lon="2.6117">
        <ele>1327.2</ele>
        <time>2018-05-20T11:55:50.000Z</time>
      </trkpt>
      <trkpt lat="45.14501" lon="2.61171">
        <ele>1327.2</ele>
        <time>2018-05-20T11:55:52.000Z</time>
      </trkpt>
      <trkpt lat="45.145" lon="2.61174">
        <ele>1327.2</ele>
        <time>2018-05-20T11:55:54.000Z</time>
      </trkpt>
      <trkpt lat="45.14482" lon="2.61201">
        <ele>1327.6</ele>
        <time>2018-05-20T11:56:05.000Z</time>
      </trkpt>
      <trkpt lat="45.14465" lon="2.61212">
        <ele>1328</ele>
        <time>2018-05-20T11:56:13.000Z</time>
      </trkpt>
      <trkpt lat="45.14452" lon="2.61222">
        <ele>1328.2</ele>
        <time>2018-05-20T11:56:20.000Z</time>
      </trkpt>
      <trkpt lat="45.14445" lon="2.61233">
        <ele>1329.4</ele>
        <time>2018-05-20T11:56:26.000Z</time>
      </trkpt>
      <trkpt lat="45.14443" lon="2.61239">
        <ele>1330.2</ele>
        <time>2018-05-20T11:56:30.000Z</time>
      </trkpt>
      <trkpt lat="45.14411" lon="2.61307">
        <ele>1336</ele>
        <time>2018-05-20T11:57:04.000Z</time>
      </trkpt>
      <trkpt lat="45.14411" lon="2.6131">
        <ele>1336.4</ele>
        <time>2018-05-20T11:57:06.000Z</time>
      </trkpt>
      <trkpt lat="45.1441" lon="2.61313">
        <ele>1336.8</ele>
        <time>2018-05-20T11:57:08.000Z</time>
      </trkpt>
      <trkpt lat="45.14397" lon="2.61329">
        <ele>1338.6</ele>
        <time>2018-05-20T11:57:19.000Z</time>
      </trkpt>
      <trkpt lat="45.14396" lon="2.61333">
        <ele>1338.8</ele>
        <time>2018-05-20T11:57:21.000Z</time>
      </trkpt>
      <trkpt lat="45.14389" lon="2.61362">
        <ele>1342.2</ele>
        <time>2018-05-20T11:57:35.000Z</time>
      </trkpt>
      <trkpt lat="45.1438" lon="2.61378">
        <ele>1343.4</ele>
        <time>2018-05-20T11:57:43.000Z</time>
      </trkpt>
      <trkpt lat="45.14373" lon="2.61392">
        <ele>1344.6</ele>
        <time>2018-05-20T11:57:50.000Z</time>
      </trkpt>
      <trkpt lat="45.14371" lon="2.61401">
        <ele>1345.6</ele>
        <time>2018-05-20T11:57:57.000Z</time>
      </trkpt>
      <trkpt lat="45.14368" lon="2.61403">
        <ele>1345.8</ele>
        <time>2018-05-20T11:58:00.000Z</time>
      </trkpt>
      <trkpt lat="45.14363" lon="2.61414">
        <ele>1346.6</ele>
        <time>2018-05-20T11:58:08.000Z</time>
      </trkpt>
      <trkpt lat="45.14363" lon="2.61421">
        <ele>1347.2</ele>
        <time>2018-05-20T11:58:12.000Z</time>
      </trkpt>
      <trkpt lat="45.14362" lon="2.61424">
        <ele>1347.6</ele>
        <time>2018-05-20T11:58:14.000Z</time>
      </trkpt>
      <trkpt lat="45.14357" lon="2.61435">
        <ele>1348</ele>
        <time>2018-05-20T11:58:20.000Z</time>
      </trkpt>
      <trkpt lat="45.14351" lon="2.61445">
        <ele>1348.6</ele>
        <time>2018-05-20T11:58:25.000Z</time>
      </trkpt>
      <trkpt lat="45.14348" lon="2.61451">
        <ele>1349.2</ele>
        <time>2018-05-20T11:58:27.000Z</time>
      </trkpt>
      <trkpt lat="45.14346" lon="2.6146">
        <ele>1349.6</ele>
        <time>2018-05-20T11:58:30.000Z</time>
      </trkpt>
      <trkpt lat="45.14343" lon="2.61468">
        <ele>1349.8</ele>
        <time>2018-05-20T11:58:33.000Z</time>
      </trkpt>
      <trkpt lat="45.14342" lon="2.61472">
        <ele>1350</ele>
        <time>2018-05-20T11:58:35.000Z</time>
      </trkpt>
      <trkpt lat="45.14341" lon="2.61475">
        <ele>1350.4</ele>
        <time>2018-05-20T11:58:37.000Z</time>
      </trkpt>
      <trkpt lat="45.14339" lon="2.61483">
        <ele>1351.2</ele>
        <time>2018-05-20T11:58:42.000Z</time>
      </trkpt>
      <trkpt lat="45.14337" lon="2.61484">
        <ele>1351.4</ele>
        <time>2018-05-20T11:58:43.000Z</time>
      </trkpt>
      <trkpt lat="45.14335" lon="2.61488">
        <ele>1351.6</ele>
        <time>2018-05-20T11:58:45.000Z</time>
      </trkpt>
      <trkpt lat="45.14332" lon="2.61491">
        <ele>1352.2</ele>
        <time>2018-05-20T11:58:47.000Z</time>
      </trkpt>
      <trkpt lat="45.1433" lon="2.61495">
        <ele>1352.4</ele>
        <time>2018-05-20T11:58:49.000Z</time>
      </trkpt>
      <trkpt lat="45.1433" lon="2.61498">
        <ele>1352.6</ele>
        <time>2018-05-20T11:58:50.000Z</time>
      </trkpt>
      <trkpt lat="45.14329" lon="2.615">
        <ele>1352.6</ele>
        <time>2018-05-20T11:58:51.000Z</time>
      </trkpt>
      <trkpt lat="45.14326" lon="2.61503">
        <ele>1352.6</ele>
        <time>2018-05-20T11:58:53.000Z</time>
      </trkpt>
      <trkpt lat="45.14325" lon="2.61505">
        <ele>1352.6</ele>
        <time>2018-05-20T11:58:54.000Z</time>
      </trkpt>
      <trkpt lat="45.14315" lon="2.61528">
        <ele>1353.2</ele>
        <time>2018-05-20T11:59:04.000Z</time>
      </trkpt>
      <trkpt lat="45.14314" lon="2.61531">
        <ele>1353.4</ele>
        <time>2018-05-20T11:59:05.000Z</time>
      </trkpt>
      <trkpt lat="45.14314" lon="2.61536">
        <ele>1353.8</ele>
        <time>2018-05-20T11:59:07.000Z</time>
      </trkpt>
      <trkpt lat="45.14311" lon="2.61545">
        <ele>1354.4</ele>
        <time>2018-05-20T11:59:10.000Z</time>
      </trkpt>
      <trkpt lat="45.14311" lon="2.61549">
        <ele>1355</ele>
        <time>2018-05-20T11:59:12.000Z</time>
      </trkpt>
      <trkpt lat="45.14312" lon="2.6155">
        <ele>1355.4</ele>
        <time>2018-05-20T11:59:13.000Z</time>
      </trkpt>
      <trkpt lat="45.14312" lon="2.61555">
        <ele>1356.4</ele>
        <time>2018-05-20T11:59:16.000Z</time>
      </trkpt>
      <trkpt lat="45.14312" lon="2.61556">
        <ele>1356.6</ele>
        <time>2018-05-20T11:59:17.000Z</time>
      </trkpt>
      <trkpt lat="45.14313" lon="2.61561">
        <ele>1356.6</ele>
        <time>2018-05-20T11:59:20.000Z</time>
      </trkpt>
      <trkpt lat="45.14292" lon="2.61624">
        <ele>1355.2</ele>
        <time>2018-05-20T11:59:43.000Z</time>
      </trkpt>
      <trkpt lat="45.14291" lon="2.61639">
        <ele>1355.6</ele>
        <time>2018-05-20T11:59:48.000Z</time>
      </trkpt>
      <trkpt lat="45.14289" lon="2.61643">
        <ele>1356</ele>
        <time>2018-05-20T11:59:49.000Z</time>
      </trkpt>
      <trkpt lat="45.14289" lon="2.61648">
        <ele>1356.8</ele>
        <time>2018-05-20T11:59:51.000Z</time>
      </trkpt>
      <trkpt lat="45.14287" lon="2.61655">
        <ele>1358</ele>
        <time>2018-05-20T11:59:55.000Z</time>
      </trkpt>
      <trkpt lat="45.14282" lon="2.61667">
        <ele>1359</ele>
        <time>2018-05-20T12:00:01.000Z</time>
      </trkpt>
      <trkpt lat="45.14274" lon="2.61678">
        <ele>1360.2</ele>
        <time>2018-05-20T12:00:08.000Z</time>
      </trkpt>
      <trkpt lat="45.14267" lon="2.61688">
        <ele>1361</ele>
        <time>2018-05-20T12:00:16.000Z</time>
      </trkpt>
      <trkpt lat="45.14266" lon="2.61692">
        <ele>1361.4</ele>
        <time>2018-05-20T12:00:19.000Z</time>
      </trkpt>
      <trkpt lat="45.14265" lon="2.61694">
        <ele>1361.6</ele>
        <time>2018-05-20T12:00:20.000Z</time>
      </trkpt>
      <trkpt lat="45.14262" lon="2.61702">
        <ele>1362.6</ele>
        <time>2018-05-20T12:00:25.000Z</time>
      </trkpt>
      <trkpt lat="45.14257" lon="2.6171">
        <ele>1363.2</ele>
        <time>2018-05-20T12:00:30.000Z</time>
      </trkpt>
      <trkpt lat="45.14246" lon="2.61732">
        <ele>1361.8</ele>
        <time>2018-05-20T12:00:39.000Z</time>
      </trkpt>
      <trkpt lat="45.14243" lon="2.61735">
        <ele>1361.4</ele>
        <time>2018-05-20T12:00:41.000Z</time>
      </trkpt>
      <trkpt lat="45.14241" lon="2.61741">
        <ele>1360.6</ele>
        <time>2018-05-20T12:00:44.000Z</time>
      </trkpt>
      <trkpt lat="45.14241" lon="2.61744">
        <ele>1360.8</ele>
        <time>2018-05-20T12:00:46.000Z</time>
      </trkpt>
      <trkpt lat="45.14242" lon="2.61747">
        <ele>1361.6</ele>
        <time>2018-05-20T12:00:49.000Z</time>
      </trkpt>
      <trkpt lat="45.14242" lon="2.61751">
        <ele>1362.2</ele>
        <time>2018-05-20T12:00:51.000Z</time>
      </trkpt>
      <trkpt lat="45.1424" lon="2.61755">
        <ele>1362.8</ele>
        <time>2018-05-20T12:00:53.000Z</time>
      </trkpt>
      <trkpt lat="45.1424" lon="2.6176">
        <ele>1363.2</ele>
        <time>2018-05-20T12:00:55.000Z</time>
      </trkpt>
      <trkpt lat="45.14238" lon="2.61763">
        <ele>1363.6</ele>
        <time>2018-05-20T12:00:57.000Z</time>
      </trkpt>
      <trkpt lat="45.14235" lon="2.61766">
        <ele>1363.8</ele>
        <time>2018-05-20T12:00:59.000Z</time>
      </trkpt>
      <trkpt lat="45.14232" lon="2.61771">
        <ele>1363.8</ele>
        <time>2018-05-20T12:01:01.000Z</time>
      </trkpt>
      <trkpt lat="45.14227" lon="2.61783">
        <ele>1364.6</ele>
        <time>2018-05-20T12:01:05.000Z</time>
      </trkpt>
      <trkpt lat="45.1422" lon="2.61792">
        <ele>1364.8</ele>
        <time>2018-05-20T12:01:09.000Z</time>
      </trkpt>
      <trkpt lat="45.14216" lon="2.61798">
        <ele>1365</ele>
        <time>2018-05-20T12:01:11.000Z</time>
      </trkpt>
      <trkpt lat="45.14215" lon="2.61801">
        <ele>1365</ele>
        <time>2018-05-20T12:01:12.000Z</time>
      </trkpt>
      <trkpt lat="45.14214" lon="2.61803">
        <ele>1365</ele>
        <time>2018-05-20T12:01:13.000Z</time>
      </trkpt>
      <trkpt lat="45.14213" lon="2.61806">
        <ele>1364.8</ele>
        <time>2018-05-20T12:01:14.000Z</time>
      </trkpt>
      <trkpt lat="45.14206" lon="2.61813">
        <ele>1364.4</ele>
        <time>2018-05-20T12:01:18.000Z</time>
      </trkpt>
      <trkpt lat="45.14198" lon="2.61832">
        <ele>1363.4</ele>
        <time>2018-05-20T12:01:26.000Z</time>
      </trkpt>
      <trkpt lat="45.14197" lon="2.61833">
        <ele>1363</ele>
        <time>2018-05-20T12:01:27.000Z</time>
      </trkpt>
      <trkpt lat="45.14194" lon="2.61834">
        <ele>1362.6</ele>
        <time>2018-05-20T12:01:29.000Z</time>
      </trkpt>
      <trkpt lat="45.14193" lon="2.61836">
        <ele>1362.2</ele>
        <time>2018-05-20T12:01:30.000Z</time>
      </trkpt>
      <trkpt lat="45.14192" lon="2.61838">
        <ele>1361.6</ele>
        <time>2018-05-20T12:01:31.000Z</time>
      </trkpt>
      <trkpt lat="45.14192" lon="2.61841">
        <ele>1361.4</ele>
        <time>2018-05-20T12:01:32.000Z</time>
      </trkpt>
      <trkpt lat="45.14189" lon="2.61845">
        <ele>1361.2</ele>
        <time>2018-05-20T12:01:34.000Z</time>
      </trkpt>
      <trkpt lat="45.14181" lon="2.61852">
        <ele>1360.8</ele>
        <time>2018-05-20T12:01:41.000Z</time>
      </trkpt>
      <trkpt lat="45.14174" lon="2.61858">
        <ele>1360.4</ele>
        <time>2018-05-20T12:01:45.000Z</time>
      </trkpt>
      <trkpt lat="45.14165" lon="2.61873">
        <ele>1360</ele>
        <time>2018-05-20T12:01:50.000Z</time>
      </trkpt>
      <trkpt lat="45.14141" lon="2.61932">
        <ele>1362.8</ele>
        <time>2018-05-20T12:02:13.000Z</time>
      </trkpt>
      <trkpt lat="45.1414" lon="2.61933">
        <ele>1363.2</ele>
        <time>2018-05-20T12:02:15.000Z</time>
      </trkpt>
      <trkpt lat="45.14139" lon="2.61934">
        <ele>1363.6</ele>
        <time>2018-05-20T12:02:16.000Z</time>
      </trkpt>
      <trkpt lat="45.14138" lon="2.61937">
        <ele>1364.2</ele>
        <time>2018-05-20T12:02:18.000Z</time>
      </trkpt>
      <trkpt lat="45.14137" lon="2.61939">
        <ele>1364.4</ele>
        <time>2018-05-20T12:02:19.000Z</time>
      </trkpt>
      <trkpt lat="45.14131" lon="2.61947">
        <ele>1365.4</ele>
        <time>2018-05-20T12:02:25.000Z</time>
      </trkpt>
      <trkpt lat="45.14124" lon="2.6196">
        <ele>1366.4</ele>
        <time>2018-05-20T12:02:32.000Z</time>
      </trkpt>
      <trkpt lat="45.14121" lon="2.61972">
        <ele>1367.4</ele>
        <time>2018-05-20T12:02:38.000Z</time>
      </trkpt>
      <trkpt lat="45.14112" lon="2.61985">
        <ele>1368.4</ele>
        <time>2018-05-20T12:02:46.000Z</time>
      </trkpt>
      <trkpt lat="45.14109" lon="2.61992">
        <ele>1368.6</ele>
        <time>2018-05-20T12:02:50.000Z</time>
      </trkpt>
      <trkpt lat="45.14108" lon="2.61993">
        <ele>1368.6</ele>
        <time>2018-05-20T12:02:51.000Z</time>
      </trkpt>
      <trkpt lat="45.14104" lon="2.61997">
        <ele>1369</ele>
        <time>2018-05-20T12:02:55.000Z</time>
      </trkpt>
      <trkpt lat="45.14098" lon="2.62">
        <ele>1369.2</ele>
        <time>2018-05-20T12:03:01.000Z</time>
      </trkpt>
      <trkpt lat="45.14091" lon="2.62014">
        <ele>1369.8</ele>
        <time>2018-05-20T12:03:12.000Z</time>
      </trkpt>
      <trkpt lat="45.1409" lon="2.62016">
        <ele>1370</ele>
        <time>2018-05-20T12:03:14.000Z</time>
      </trkpt>
      <trkpt lat="45.14087" lon="2.62022">
        <ele>1370.8</ele>
        <time>2018-05-20T12:03:19.000Z</time>
      </trkpt>
      <trkpt lat="45.14087" lon="2.62025">
        <ele>1371</ele>
        <time>2018-05-20T12:03:21.000Z</time>
      </trkpt>
      <trkpt lat="45.14083" lon="2.62032">
        <ele>1371.8</ele>
        <time>2018-05-20T12:03:26.000Z</time>
      </trkpt>
      <trkpt lat="45.14082" lon="2.62034">
        <ele>1372</ele>
        <time>2018-05-20T12:03:27.000Z</time>
      </trkpt>
      <trkpt lat="45.14075" lon="2.62051">
        <ele>1373.2</ele>
        <time>2018-05-20T12:03:38.000Z</time>
      </trkpt>
      <trkpt lat="45.14073" lon="2.62059">
        <ele>1374</ele>
        <time>2018-05-20T12:03:43.000Z</time>
      </trkpt>
      <trkpt lat="45.14072" lon="2.62068">
        <ele>1374.6</ele>
        <time>2018-05-20T12:03:48.000Z</time>
      </trkpt>
      <trkpt lat="45.14072" lon="2.62076">
        <ele>1376</ele>
        <time>2018-05-20T12:03:54.000Z</time>
      </trkpt>
      <trkpt lat="45.14071" lon="2.62084">
        <ele>1377</ele>
        <time>2018-05-20T12:03:59.000Z</time>
      </trkpt>
      <trkpt lat="45.14067" lon="2.62092">
        <ele>1377.8</ele>
        <time>2018-05-20T12:04:04.000Z</time>
      </trkpt>
      <trkpt lat="45.14066" lon="2.62096">
        <ele>1378</ele>
        <time>2018-05-20T12:04:06.000Z</time>
      </trkpt>
      <trkpt lat="45.14065" lon="2.62098">
        <ele>1378</ele>
        <time>2018-05-20T12:04:07.000Z</time>
      </trkpt>
      <trkpt lat="45.14063" lon="2.62103">
        <ele>1378.6</ele>
        <time>2018-05-20T12:04:10.000Z</time>
      </trkpt>
      <trkpt lat="45.1406" lon="2.6211">
        <ele>1378.6</ele>
        <time>2018-05-20T12:04:14.000Z</time>
      </trkpt>
      <trkpt lat="45.14059" lon="2.62112">
        <ele>1378.6</ele>
        <time>2018-05-20T12:04:15.000Z</time>
      </trkpt>
      <trkpt lat="45.14054" lon="2.62135">
        <ele>1379.6</ele>
        <time>2018-05-20T12:04:28.000Z</time>
      </trkpt>
      <trkpt lat="45.14053" lon="2.62136">
        <ele>1379.6</ele>
        <time>2018-05-20T12:04:29.000Z</time>
      </trkpt>
      <trkpt lat="45.14041" lon="2.62171">
        <ele>1381.6</ele>
        <time>2018-05-20T12:04:51.000Z</time>
      </trkpt>
      <trkpt lat="45.14033" lon="2.62183">
        <ele>1382.8</ele>
        <time>2018-05-20T12:05:00.000Z</time>
      </trkpt>
      <trkpt lat="45.14017" lon="2.62206">
        <ele>1384.6</ele>
        <time>2018-05-20T12:05:12.000Z</time>
      </trkpt>
      <trkpt lat="45.14013" lon="2.62215">
        <ele>1385</ele>
        <time>2018-05-20T12:05:16.000Z</time>
      </trkpt>
      <trkpt lat="45.14012" lon="2.62217">
        <ele>1385</ele>
        <time>2018-05-20T12:05:17.000Z</time>
      </trkpt>
      <trkpt lat="45.14006" lon="2.62223">
        <ele>1385.4</ele>
        <time>2018-05-20T12:05:20.000Z</time>
      </trkpt>
      <trkpt lat="45.14005" lon="2.62225">
        <ele>1385.2</ele>
        <time>2018-05-20T12:05:21.000Z</time>
      </trkpt>
      <trkpt lat="45.14001" lon="2.62232">
        <ele>1385.6</ele>
        <time>2018-05-20T12:05:25.000Z</time>
      </trkpt>
      <trkpt lat="45.14001" lon="2.62235">
        <ele>1386</ele>
        <time>2018-05-20T12:05:27.000Z</time>
      </trkpt>
      <trkpt lat="45.14" lon="2.62237">
        <ele>1386.2</ele>
        <time>2018-05-20T12:05:28.000Z</time>
      </trkpt>
      <trkpt lat="45.13999" lon="2.62238">
        <ele>1386.2</ele>
        <time>2018-05-20T12:05:29.000Z</time>
      </trkpt>
      <trkpt lat="45.13999" lon="2.62241">
        <ele>1386.2</ele>
        <time>2018-05-20T12:05:30.000Z</time>
      </trkpt>
      <trkpt lat="45.13997" lon="2.62245">
        <ele>1386.6</ele>
        <time>2018-05-20T12:05:32.000Z</time>
      </trkpt>
      <trkpt lat="45.13983" lon="2.62263">
        <ele>1387</ele>
        <time>2018-05-20T12:05:40.000Z</time>
      </trkpt>
      <trkpt lat="45.13972" lon="2.62272">
        <ele>1386.4</ele>
        <time>2018-05-20T12:05:47.000Z</time>
      </trkpt>
      <trkpt lat="45.1397" lon="2.62276">
        <ele>1386</ele>
        <time>2018-05-20T12:05:49.000Z</time>
      </trkpt>
      <trkpt lat="45.13969" lon="2.62283">
        <ele>1385.4</ele>
        <time>2018-05-20T12:05:51.000Z</time>
      </trkpt>
      <trkpt lat="45.1397" lon="2.62291">
        <ele>1383.8</ele>
        <time>2018-05-20T12:05:54.000Z</time>
      </trkpt>
      <trkpt lat="45.13972" lon="2.62294">
        <ele>1382.8</ele>
        <time>2018-05-20T12:05:56.000Z</time>
      </trkpt>
      <trkpt lat="45.13974" lon="2.62297">
        <ele>1381.8</ele>
        <time>2018-05-20T12:05:58.000Z</time>
      </trkpt>
      <trkpt lat="45.13976" lon="2.62303">
        <ele>1380.4</ele>
        <time>2018-05-20T12:06:00.000Z</time>
      </trkpt>
      <trkpt lat="45.13977" lon="2.62307">
        <ele>1379.8</ele>
        <time>2018-05-20T12:06:01.000Z</time>
      </trkpt>
      <trkpt lat="45.13977" lon="2.62311">
        <ele>1378.2</ele>
        <time>2018-05-20T12:06:03.000Z</time>
      </trkpt>
      <trkpt lat="45.13979" lon="2.62309">
        <ele>1376.8</ele>
        <time>2018-05-20T12:06:06.000Z</time>
      </trkpt>
      <trkpt lat="45.1398" lon="2.62309">
        <ele>1376.6</ele>
        <time>2018-05-20T12:06:07.000Z</time>
      </trkpt>
      <trkpt lat="45.13979" lon="2.62308">
        <ele>1376.6</ele>
        <time>2018-05-20T12:06:08.000Z</time>
      </trkpt>
      <trkpt lat="45.13979" lon="2.62308">
        <ele>1376.6</ele>
        <time>2018-05-20T12:06:09.000Z</time>
      </trkpt>
      <trkpt lat="45.13974" lon="2.62315">
        <ele>1376.6</ele>
        <time>2018-05-20T12:06:12.000Z</time>
      </trkpt>
      <trkpt lat="45.13949" lon="2.62337">
        <ele>1379.4</ele>
        <time>2018-05-20T12:06:26.000Z</time>
      </trkpt>
      <trkpt lat="45.13919" lon="2.62378">
        <ele>1382.8</ele>
        <time>2018-05-20T12:06:43.000Z</time>
      </trkpt>
      <trkpt lat="45.13914" lon="2.62391">
        <ele>1382</ele>
        <time>2018-05-20T12:06:48.000Z</time>
      </trkpt>
      <trkpt lat="45.13846" lon="2.62494">
        <ele>1383.2</ele>
        <time>2018-05-20T12:07:30.000Z</time>
      </trkpt>
      <trkpt lat="45.13844" lon="2.62496">
        <ele>1383.2</ele>
        <time>2018-05-20T12:07:31.000Z</time>
      </trkpt>
      <trkpt lat="45.13816" lon="2.62532">
        <ele>1382</ele>
        <time>2018-05-20T12:07:48.000Z</time>
      </trkpt>
      <trkpt lat="45.13806" lon="2.62538">
        <ele>1379.6</ele>
        <time>2018-05-20T12:07:53.000Z</time>
      </trkpt>
      <trkpt lat="45.13798" lon="2.62545">
        <ele>1378.4</ele>
        <time>2018-05-20T12:07:57.000Z</time>
      </trkpt>
      <trkpt lat="45.13782" lon="2.62556">
        <ele>1374.8</ele>
        <time>2018-05-20T12:08:04.000Z</time>
      </trkpt>
      <trkpt lat="45.13773" lon="2.62568">
        <ele>1372.6</ele>
        <time>2018-05-20T12:08:09.000Z</time>
      </trkpt>
      <trkpt lat="45.13741" lon="2.62595">
        <ele>1369.4</ele>
        <time>2018-05-20T12:08:23.000Z</time>
      </trkpt>
      <trkpt lat="45.13721" lon="2.62615">
        <ele>1368.2</ele>
        <time>2018-05-20T12:08:33.000Z</time>
      </trkpt>
      <trkpt lat="45.13679" lon="2.62649">
        <ele>1367.2</ele>
        <time>2018-05-20T12:08:53.000Z</time>
      </trkpt>
      <trkpt lat="45.13663" lon="2.62663">
        <ele>1367.8</ele>
        <time>2018-05-20T12:09:01.000Z</time>
      </trkpt>
      <trkpt lat="45.13655" lon="2.62674">
        <ele>1368.2</ele>
        <time>2018-05-20T12:09:06.000Z</time>
      </trkpt>
      <trkpt lat="45.13648" lon="2.62686">
        <ele>1369.4</ele>
        <time>2018-05-20T12:09:13.000Z</time>
      </trkpt>
      <trkpt lat="45.13633" lon="2.62703">
        <ele>1371.4</ele>
        <time>2018-05-20T12:09:28.000Z</time>
      </trkpt>
      <trkpt lat="45.13626" lon="2.6271">
        <ele>1372.6</ele>
        <time>2018-05-20T12:09:35.000Z</time>
      </trkpt>
      <trkpt lat="45.13614" lon="2.6272">
        <ele>1373.6</ele>
        <time>2018-05-20T12:09:46.000Z</time>
      </trkpt>
      <trkpt lat="45.13605" lon="2.62722">
        <ele>1374.6</ele>
        <time>2018-05-20T12:09:54.000Z</time>
      </trkpt>
      <trkpt lat="45.13601" lon="2.62723">
        <ele>1374.6</ele>
        <time>2018-05-20T12:09:57.000Z</time>
      </trkpt>
      <trkpt lat="45.13592" lon="2.62726">
        <ele>1375.8</ele>
        <time>2018-05-20T12:10:04.000Z</time>
      </trkpt>
      <trkpt lat="45.13584" lon="2.62727">
        <ele>1377</ele>
        <time>2018-05-20T12:10:12.000Z</time>
      </trkpt>
      <trkpt lat="45.13575" lon="2.62727">
        <ele>1377</ele>
        <time>2018-05-20T12:10:21.000Z</time>
      </trkpt>
      <trkpt lat="45.1357" lon="2.62728">
        <ele>1377.4</ele>
        <time>2018-05-20T12:10:28.000Z</time>
      </trkpt>
      <trkpt lat="45.13567" lon="2.62731">
        <ele>1378</ele>
        <time>2018-05-20T12:10:32.000Z</time>
      </trkpt>
      <trkpt lat="45.13564" lon="2.62732">
        <ele>1378.4</ele>
        <time>2018-05-20T12:10:35.000Z</time>
      </trkpt>
      <trkpt lat="45.13562" lon="2.62733">
        <ele>1378.6</ele>
        <time>2018-05-20T12:10:37.000Z</time>
      </trkpt>
      <trkpt lat="45.1356" lon="2.62735">
        <ele>1379</ele>
        <time>2018-05-20T12:10:39.000Z</time>
      </trkpt>
      <trkpt lat="45.13544" lon="2.62742">
        <ele>1380.6</ele>
        <time>2018-05-20T12:10:53.000Z</time>
      </trkpt>
      <trkpt lat="45.13538" lon="2.62744">
        <ele>1380.8</ele>
        <time>2018-05-20T12:10:59.000Z</time>
      </trkpt>
      <trkpt lat="45.1353" lon="2.62747">
        <ele>1381.2</ele>
        <time>2018-05-20T12:11:05.000Z</time>
      </trkpt>
      <trkpt lat="45.13528" lon="2.62747">
        <ele>1381.4</ele>
        <time>2018-05-20T12:11:08.000Z</time>
      </trkpt>
      <trkpt lat="45.13522" lon="2.62748">
        <ele>1381.8</ele>
        <time>2018-05-20T12:11:14.000Z</time>
      </trkpt>
      <trkpt lat="45.13522" lon="2.62746">
        <ele>1381.6</ele>
        <time>2018-05-20T12:11:18.000Z</time>
      </trkpt>
      <trkpt lat="45.13522" lon="2.62745">
        <ele>1381.4</ele>
        <time>2018-05-20T12:11:21.000Z</time>
      </trkpt>
      <trkpt lat="45.1352" lon="2.62745">
        <ele>1382</ele>
        <time>2018-05-20T12:11:33.000Z</time>
      </trkpt>
      <trkpt lat="45.13513" lon="2.62749">
        <ele>1381.8</ele>
        <time>2018-05-20T12:11:40.000Z</time>
      </trkpt>
      <trkpt lat="45.13511" lon="2.6275">
        <ele>1382</ele>
        <time>2018-05-20T12:11:42.000Z</time>
      </trkpt>
      <trkpt lat="45.13508" lon="2.62751">
        <ele>1382</ele>
        <time>2018-05-20T12:11:45.000Z</time>
      </trkpt>
      <trkpt lat="45.13489" lon="2.62752">
        <ele>1381.4</ele>
        <time>2018-05-20T12:11:56.000Z</time>
      </trkpt>
      <trkpt lat="45.13479" lon="2.62756">
        <ele>1381.4</ele>
        <time>2018-05-20T12:12:01.000Z</time>
      </trkpt>
      <trkpt lat="45.13477" lon="2.62757">
        <ele>1381.6</ele>
        <time>2018-05-20T12:12:02.000Z</time>
      </trkpt>
      <trkpt lat="45.13475" lon="2.62758">
        <ele>1382</ele>
        <time>2018-05-20T12:12:03.000Z</time>
      </trkpt>
      <trkpt lat="45.1347" lon="2.62764">
        <ele>1383</ele>
        <time>2018-05-20T12:12:08.000Z</time>
      </trkpt>
      <trkpt lat="45.1347" lon="2.62766">
        <ele>1383.2</ele>
        <time>2018-05-20T12:12:09.000Z</time>
      </trkpt>
      <trkpt lat="45.13464" lon="2.62771">
        <ele>1383.4</ele>
        <time>2018-05-20T12:12:14.000Z</time>
      </trkpt>
      <trkpt lat="45.13463" lon="2.62772">
        <ele>1383.4</ele>
        <time>2018-05-20T12:12:15.000Z</time>
      </trkpt>
      <trkpt lat="45.13462" lon="2.62773">
        <ele>1383.4</ele>
        <time>2018-05-20T12:12:16.000Z</time>
      </trkpt>
      <trkpt lat="45.1346" lon="2.62775">
        <ele>1383.4</ele>
        <time>2018-05-20T12:12:18.000Z</time>
      </trkpt>
      <trkpt lat="45.13459" lon="2.62776">
        <ele>1383.4</ele>
        <time>2018-05-20T12:12:20.000Z</time>
      </trkpt>
      <trkpt lat="45.1346" lon="2.62779">
        <ele>1383.6</ele>
        <time>2018-05-20T12:12:24.000Z</time>
      </trkpt>
      <trkpt lat="45.13461" lon="2.62779">
        <ele>1383.6</ele>
        <time>2018-05-20T12:12:26.000Z</time>
      </trkpt>
      <trkpt lat="45.13462" lon="2.62779">
        <ele>1383.6</ele>
        <time>2018-05-20T12:12:27.000Z</time>
      </trkpt>
      <trkpt lat="45.13462" lon="2.62779">
        <ele>1383.6</ele>
        <time>2018-05-20T12:12:28.000Z</time>
      </trkpt>
      <trkpt lat="45.13463" lon="2.62778">
        <ele>1383.6</ele>
        <time>2018-05-20T12:12:29.000Z</time>
      </trkpt>
      <trkpt lat="45.13464" lon="2.62778">
        <ele>1383.4</ele>
        <time>2018-05-20T12:12:30.000Z</time>
      </trkpt>
      <trkpt lat="45.13463" lon="2.62781">
        <ele>1383.6</ele>
        <time>2018-05-20T12:12:35.000Z</time>
      </trkpt>
      <trkpt lat="45.13461" lon="2.62784">
        <ele>1384</ele>
        <time>2018-05-20T12:12:47.000Z</time>
      </trkpt>
      <trkpt lat="45.1346" lon="2.62786">
        <ele>1384.2</ele>
        <time>2018-05-20T12:12:51.000Z</time>
      </trkpt>
      <trkpt lat="45.1346" lon="2.62786">
        <ele>1384.2</ele>
        <time>2018-05-20T12:12:53.000Z</time>
      </trkpt>
      <trkpt lat="45.1346" lon="2.62786">
        <ele>1383.8</ele>
        <time>2018-05-20T12:12:57.000Z</time>
      </trkpt>
      <trkpt lat="45.1346" lon="2.62786">
        <ele>1383.4</ele>
        <time>2018-05-20T12:13:01.000Z</time>
      </trkpt>
      <trkpt lat="45.13459" lon="2.62787">
        <ele>1383.4</ele>
        <time>2018-05-20T12:13:05.000Z</time>
      </trkpt>
      <trkpt lat="45.13459" lon="2.62787">
        <ele>1383.4</ele>
        <time>2018-05-20T12:13:07.000Z</time>
      </trkpt>
      <trkpt lat="45.13459" lon="2.62788">
        <ele>1383.4</ele>
        <time>2018-05-20T12:13:10.000Z</time>
      </trkpt>
      <trkpt lat="45.13459" lon="2.62787">
        <ele>1383.4</ele>
        <time>2018-05-20T12:13:12.000Z</time>
      </trkpt>
      <trkpt lat="45.13459" lon="2.62787">
        <ele>1383.4</ele>
        <time>2018-05-20T12:13:14.000Z</time>
      </trkpt>
      <trkpt lat="45.1346" lon="2.62787">
        <ele>1383.4</ele>
        <time>2018-05-20T12:13:16.000Z</time>
      </trkpt>
      <trkpt lat="45.1346" lon="2.62787">
        <ele>1383.6</ele>
        <time>2018-05-20T12:13:17.000Z</time>
      </trkpt>
      <trkpt lat="45.13461" lon="2.62786">
        <ele>1383.6</ele>
        <time>2018-05-20T12:13:23.000Z</time>
      </trkpt>
      <trkpt lat="45.1346" lon="2.62788">
        <ele>1384.6</ele>
        <time>2018-05-20T12:13:30.000Z</time>
      </trkpt>
      <trkpt lat="45.1345" lon="2.62803">
        <ele>1385</ele>
        <time>2018-05-20T12:14:08.000Z</time>
      </trkpt>
      <trkpt lat="45.1345" lon="2.62803">
        <ele>1384.8</ele>
        <time>2018-05-20T12:14:11.000Z</time>
      </trkpt>
      <trkpt lat="45.1345" lon="2.62803">
        <ele>1384.8</ele>
        <time>2018-05-20T12:14:12.000Z</time>
      </trkpt>
      <trkpt lat="45.13449" lon="2.62802">
        <ele>1384.6</ele>
        <time>2018-05-20T12:14:13.000Z</time>
      </trkpt>
      <trkpt lat="45.13449" lon="2.62804">
        <ele>1384.6</ele>
        <time>2018-05-20T12:14:16.000Z</time>
      </trkpt>
      <trkpt lat="45.13448" lon="2.62806">
        <ele>1384.6</ele>
        <time>2018-05-20T12:14:17.000Z</time>
      </trkpt>
      <trkpt lat="45.13445" lon="2.62811">
        <ele>1384.8</ele>
        <time>2018-05-20T12:14:21.000Z</time>
      </trkpt>
      <trkpt lat="45.13444" lon="2.62812">
        <ele>1385</ele>
        <time>2018-05-20T12:14:22.000Z</time>
      </trkpt>
      <trkpt lat="45.13441" lon="2.62818">
        <ele>1384.8</ele>
        <time>2018-05-20T12:14:28.000Z</time>
      </trkpt>
      <trkpt lat="45.1344" lon="2.62818">
        <ele>1384.8</ele>
        <time>2018-05-20T12:14:29.000Z</time>
      </trkpt>
      <trkpt lat="45.13436" lon="2.62824">
        <ele>1384.8</ele>
        <time>2018-05-20T12:14:35.000Z</time>
      </trkpt>
      <trkpt lat="45.13435" lon="2.62825">
        <ele>1384.8</ele>
        <time>2018-05-20T12:14:37.000Z</time>
      </trkpt>
      <trkpt lat="45.13428" lon="2.62827">
        <ele>1385.4</ele>
        <time>2018-05-20T12:14:43.000Z</time>
      </trkpt>
      <trkpt lat="45.13426" lon="2.62827">
        <ele>1385.6</ele>
        <time>2018-05-20T12:14:45.000Z</time>
      </trkpt>
      <trkpt lat="45.13425" lon="2.62827">
        <ele>1385.8</ele>
        <time>2018-05-20T12:14:46.000Z</time>
      </trkpt>
      <trkpt lat="45.13422" lon="2.62828">
        <ele>1386.4</ele>
        <time>2018-05-20T12:14:48.000Z</time>
      </trkpt>
      <trkpt lat="45.13421" lon="2.62829">
        <ele>1386.6</ele>
        <time>2018-05-20T12:14:49.000Z</time>
      </trkpt>
      <trkpt lat="45.13411" lon="2.62829">
        <ele>1388.8</ele>
        <time>2018-05-20T12:14:56.000Z</time>
      </trkpt>
      <trkpt lat="45.13409" lon="2.62829">
        <ele>1389.2</ele>
        <time>2018-05-20T12:14:57.000Z</time>
      </trkpt>
      <trkpt lat="45.13406" lon="2.62831">
        <ele>1389.8</ele>
        <time>2018-05-20T12:15:00.000Z</time>
      </trkpt>
      <trkpt lat="45.13405" lon="2.62831">
        <ele>1390.2</ele>
        <time>2018-05-20T12:15:01.000Z</time>
      </trkpt>
      <trkpt lat="45.13404" lon="2.62831">
        <ele>1390.4</ele>
        <time>2018-05-20T12:15:02.000Z</time>
      </trkpt>
      <trkpt lat="45.13401" lon="2.62833">
        <ele>1391.4</ele>
        <time>2018-05-20T12:15:05.000Z</time>
      </trkpt>
      <trkpt lat="45.13396" lon="2.62837">
        <ele>1392.6</ele>
        <time>2018-05-20T12:15:09.000Z</time>
      </trkpt>
      <trkpt lat="45.13384" lon="2.62841">
        <ele>1394.2</ele>
        <time>2018-05-20T12:15:18.000Z</time>
      </trkpt>
      <trkpt lat="45.1338" lon="2.62843">
        <ele>1394.8</ele>
        <time>2018-05-20T12:15:22.000Z</time>
      </trkpt>
      <trkpt lat="45.13378" lon="2.62844">
        <ele>1395.4</ele>
        <time>2018-05-20T12:15:25.000Z</time>
      </trkpt>
      <trkpt lat="45.13369" lon="2.62845">
        <ele>1397</ele>
        <time>2018-05-20T12:15:31.000Z</time>
      </trkpt>
      <trkpt lat="45.13358" lon="2.62849">
        <ele>1398.2</ele>
        <time>2018-05-20T12:15:38.000Z</time>
      </trkpt>
      <trkpt lat="45.13347" lon="2.62846">
        <ele>1400.2</ele>
        <time>2018-05-20T12:15:46.000Z</time>
      </trkpt>
      <trkpt lat="45.13346" lon="2.62845">
        <ele>1400.4</ele>
        <time>2018-05-20T12:15:47.000Z</time>
      </trkpt>
      <trkpt lat="45.13338" lon="2.62842">
        <ele>1401.4</ele>
        <time>2018-05-20T12:15:54.000Z</time>
      </trkpt>
      <trkpt lat="45.13335" lon="2.62839">
        <ele>1401.8</ele>
        <time>2018-05-20T12:15:57.000Z</time>
      </trkpt>
      <trkpt lat="45.13329" lon="2.62838">
        <ele>1402.6</ele>
        <time>2018-05-20T12:16:01.000Z</time>
      </trkpt>
      <trkpt lat="45.13326" lon="2.62838">
        <ele>1403.2</ele>
        <time>2018-05-20T12:16:04.000Z</time>
      </trkpt>
      <trkpt lat="45.13324" lon="2.62837">
        <ele>1403.6</ele>
        <time>2018-05-20T12:16:06.000Z</time>
      </trkpt>
      <trkpt lat="45.13318" lon="2.62839">
        <ele>1404.6</ele>
        <time>2018-05-20T12:16:11.000Z</time>
      </trkpt>
      <trkpt lat="45.13316" lon="2.62838">
        <ele>1405</ele>
        <time>2018-05-20T12:16:13.000Z</time>
      </trkpt>
      <trkpt lat="45.13312" lon="2.62838">
        <ele>1405.4</ele>
        <time>2018-05-20T12:16:16.000Z</time>
      </trkpt>
      <trkpt lat="45.1331" lon="2.62838">
        <ele>1405.6</ele>
        <time>2018-05-20T12:16:18.000Z</time>
      </trkpt>
      <trkpt lat="45.13309" lon="2.62838">
        <ele>1405.8</ele>
        <time>2018-05-20T12:16:19.000Z</time>
      </trkpt>
      <trkpt lat="45.13307" lon="2.62839">
        <ele>1406</ele>
        <time>2018-05-20T12:16:20.000Z</time>
      </trkpt>
      <trkpt lat="45.13302" lon="2.62839">
        <ele>1406.6</ele>
        <time>2018-05-20T12:16:25.000Z</time>
      </trkpt>
      <trkpt lat="45.13301" lon="2.62838">
        <ele>1406.8</ele>
        <time>2018-05-20T12:16:26.000Z</time>
      </trkpt>
      <trkpt lat="45.133" lon="2.62839">
        <ele>1407</ele>
        <time>2018-05-20T12:16:27.000Z</time>
      </trkpt>
      <trkpt lat="45.13298" lon="2.62839">
        <ele>1407</ele>
        <time>2018-05-20T12:16:28.000Z</time>
      </trkpt>
      <trkpt lat="45.13292" lon="2.62837">
        <ele>1407.8</ele>
        <time>2018-05-20T12:16:34.000Z</time>
      </trkpt>
      <trkpt lat="45.13291" lon="2.62837">
        <ele>1408</ele>
        <time>2018-05-20T12:16:35.000Z</time>
      </trkpt>
      <trkpt lat="45.13288" lon="2.62837">
        <ele>1408.8</ele>
        <time>2018-05-20T12:16:39.000Z</time>
      </trkpt>
      <trkpt lat="45.13287" lon="2.62837">
        <ele>1408.8</ele>
        <time>2018-05-20T12:16:40.000Z</time>
      </trkpt>
      <trkpt lat="45.13286" lon="2.62837">
        <ele>1409.2</ele>
        <time>2018-05-20T12:16:42.000Z</time>
      </trkpt>
      <trkpt lat="45.13285" lon="2.62838">
        <ele>1409.4</ele>
        <time>2018-05-20T12:16:43.000Z</time>
      </trkpt>
      <trkpt lat="45.13285" lon="2.62838">
        <ele>1409.6</ele>
        <time>2018-05-20T12:16:44.000Z</time>
      </trkpt>
      <trkpt lat="45.13283" lon="2.62839">
        <ele>1409.8</ele>
        <time>2018-05-20T12:16:46.000Z</time>
      </trkpt>
      <trkpt lat="45.13282" lon="2.62839">
        <ele>1410</ele>
        <time>2018-05-20T12:16:47.000Z</time>
      </trkpt>
      <trkpt lat="45.13275" lon="2.62838">
        <ele>1410.6</ele>
        <time>2018-05-20T12:16:51.000Z</time>
      </trkpt>
      <trkpt lat="45.13274" lon="2.62838">
        <ele>1410.6</ele>
        <time>2018-05-20T12:16:52.000Z</time>
      </trkpt>
      <trkpt lat="45.13272" lon="2.62838">
        <ele>1410.8</ele>
        <time>2018-05-20T12:16:53.000Z</time>
      </trkpt>
      <trkpt lat="45.13269" lon="2.62838">
        <ele>1411.2</ele>
        <time>2018-05-20T12:16:55.000Z</time>
      </trkpt>
      <trkpt lat="45.13268" lon="2.62839">
        <ele>1411.2</ele>
        <time>2018-05-20T12:16:56.000Z</time>
      </trkpt>
      <trkpt lat="45.1326" lon="2.6284">
        <ele>1412.2</ele>
        <time>2018-05-20T12:17:02.000Z</time>
      </trkpt>
      <trkpt lat="45.13258" lon="2.62841">
        <ele>1412.6</ele>
        <time>2018-05-20T12:17:05.000Z</time>
      </trkpt>
      <trkpt lat="45.13256" lon="2.62842">
        <ele>1412.8</ele>
        <time>2018-05-20T12:17:06.000Z</time>
      </trkpt>
      <trkpt lat="45.13255" lon="2.62842">
        <ele>1413.2</ele>
        <time>2018-05-20T12:17:08.000Z</time>
      </trkpt>
      <trkpt lat="45.13254" lon="2.62842">
        <ele>1413.4</ele>
        <time>2018-05-20T12:17:09.000Z</time>
      </trkpt>
      <trkpt lat="45.13252" lon="2.62843">
        <ele>1413.8</ele>
        <time>2018-05-20T12:17:11.000Z</time>
      </trkpt>
      <trkpt lat="45.13249" lon="2.62844">
        <ele>1414.4</ele>
        <time>2018-05-20T12:17:14.000Z</time>
      </trkpt>
      <trkpt lat="45.13246" lon="2.62844">
        <ele>1414.8</ele>
        <time>2018-05-20T12:17:17.000Z</time>
      </trkpt>
      <trkpt lat="45.13242" lon="2.62847">
        <ele>1415.6</ele>
        <time>2018-05-20T12:17:21.000Z</time>
      </trkpt>
      <trkpt lat="45.13214" lon="2.62858">
        <ele>1419.6</ele>
        <time>2018-05-20T12:17:43.000Z</time>
      </trkpt>
      <trkpt lat="45.13212" lon="2.62859">
        <ele>1420</ele>
        <time>2018-05-20T12:17:45.000Z</time>
      </trkpt>
      <trkpt lat="45.13209" lon="2.62862">
        <ele>1420.8</ele>
        <time>2018-05-20T12:17:49.000Z</time>
      </trkpt>
      <trkpt lat="45.13208" lon="2.62862">
        <ele>1421.2</ele>
        <time>2018-05-20T12:17:51.000Z</time>
      </trkpt>
      <trkpt lat="45.13208" lon="2.62863">
        <ele>1421.4</ele>
        <time>2018-05-20T12:17:52.000Z</time>
      </trkpt>
      <trkpt lat="45.13208" lon="2.62863">
        <ele>1421.6</ele>
        <time>2018-05-20T12:17:53.000Z</time>
      </trkpt>
      <trkpt lat="45.13207" lon="2.62864">
        <ele>1421.8</ele>
        <time>2018-05-20T12:17:54.000Z</time>
      </trkpt>
      <trkpt lat="45.13206" lon="2.62865">
        <ele>1422</ele>
        <time>2018-05-20T12:17:56.000Z</time>
      </trkpt>
      <trkpt lat="45.13205" lon="2.62865">
        <ele>1422.2</ele>
        <time>2018-05-20T12:17:57.000Z</time>
      </trkpt>
      <trkpt lat="45.13201" lon="2.62867">
        <ele>1423</ele>
        <time>2018-05-20T12:18:00.000Z</time>
      </trkpt>
      <trkpt lat="45.13201" lon="2.6287">
        <ele>1423.4</ele>
        <time>2018-05-20T12:18:03.000Z</time>
      </trkpt>
      <trkpt lat="45.13199" lon="2.62871">
        <ele>1423.8</ele>
        <time>2018-05-20T12:18:05.000Z</time>
      </trkpt>
      <trkpt lat="45.13196" lon="2.62873">
        <ele>1424.4</ele>
        <time>2018-05-20T12:18:08.000Z</time>
      </trkpt>
      <trkpt lat="45.13194" lon="2.62874">
        <ele>1424.8</ele>
        <time>2018-05-20T12:18:10.000Z</time>
      </trkpt>
      <trkpt lat="45.13194" lon="2.62875">
        <ele>1424.8</ele>
        <time>2018-05-20T12:18:11.000Z</time>
      </trkpt>
      <trkpt lat="45.1319" lon="2.62878">
        <ele>1425.4</ele>
        <time>2018-05-20T12:18:15.000Z</time>
      </trkpt>
      <trkpt lat="45.13186" lon="2.6288">
        <ele>1426.4</ele>
        <time>2018-05-20T12:18:20.000Z</time>
      </trkpt>
      <trkpt lat="45.13185" lon="2.62881">
        <ele>1426.8</ele>
        <time>2018-05-20T12:18:22.000Z</time>
      </trkpt>
      <trkpt lat="45.13182" lon="2.62883">
        <ele>1427.6</ele>
        <time>2018-05-20T12:18:26.000Z</time>
      </trkpt>
      <trkpt lat="45.1318" lon="2.62884">
        <ele>1427.6</ele>
        <time>2018-05-20T12:18:27.000Z</time>
      </trkpt>
      <trkpt lat="45.1318" lon="2.62885">
        <ele>1427.8</ele>
        <time>2018-05-20T12:18:28.000Z</time>
      </trkpt>
      <trkpt lat="45.13179" lon="2.62885">
        <ele>1427.8</ele>
        <time>2018-05-20T12:18:29.000Z</time>
      </trkpt>
      <trkpt lat="45.13176" lon="2.62887">
        <ele>1428.6</ele>
        <time>2018-05-20T12:18:33.000Z</time>
      </trkpt>
      <trkpt lat="45.13174" lon="2.62887">
        <ele>1429</ele>
        <time>2018-05-20T12:18:35.000Z</time>
      </trkpt>
      <trkpt lat="45.13171" lon="2.62887">
        <ele>1429.6</ele>
        <time>2018-05-20T12:18:38.000Z</time>
      </trkpt>
      <trkpt lat="45.13157" lon="2.62896">
        <ele>1432</ele>
        <time>2018-05-20T12:18:51.000Z</time>
      </trkpt>
      <trkpt lat="45.13149" lon="2.62902">
        <ele>1433.6</ele>
        <time>2018-05-20T12:19:00.000Z</time>
      </trkpt>
      <trkpt lat="45.13147" lon="2.62904">
        <ele>1434</ele>
        <time>2018-05-20T12:19:02.000Z</time>
      </trkpt>
      <trkpt lat="45.13141" lon="2.62907">
        <ele>1434.8</ele>
        <time>2018-05-20T12:19:07.000Z</time>
      </trkpt>
      <trkpt lat="45.13137" lon="2.62907">
        <ele>1435</ele>
        <time>2018-05-20T12:19:10.000Z</time>
      </trkpt>
      <trkpt lat="45.13136" lon="2.62907">
        <ele>1435.2</ele>
        <time>2018-05-20T12:19:11.000Z</time>
      </trkpt>
      <trkpt lat="45.13128" lon="2.62909">
        <ele>1436.2</ele>
        <time>2018-05-20T12:19:17.000Z</time>
      </trkpt>
      <trkpt lat="45.13116" lon="2.62914">
        <ele>1437.2</ele>
        <time>2018-05-20T12:19:29.000Z</time>
      </trkpt>
      <trkpt lat="45.13112" lon="2.62918">
        <ele>1437.8</ele>
        <time>2018-05-20T12:19:34.000Z</time>
      </trkpt>
      <trkpt lat="45.13112" lon="2.62917">
        <ele>1438</ele>
        <time>2018-05-20T12:19:35.000Z</time>
      </trkpt>
      <trkpt lat="45.13112" lon="2.62917">
        <ele>1438.2</ele>
        <time>2018-05-20T12:19:36.000Z</time>
      </trkpt>
      <trkpt lat="45.1311" lon="2.62919">
        <ele>1438.6</ele>
        <time>2018-05-20T12:19:39.000Z</time>
      </trkpt>
      <trkpt lat="45.13109" lon="2.6292">
        <ele>1438.6</ele>
        <time>2018-05-20T12:19:41.000Z</time>
      </trkpt>
      <trkpt lat="45.13105" lon="2.62921">
        <ele>1439</ele>
        <time>2018-05-20T12:19:45.000Z</time>
      </trkpt>
      <trkpt lat="45.13103" lon="2.62922">
        <ele>1439.2</ele>
        <time>2018-05-20T12:19:48.000Z</time>
      </trkpt>
      <trkpt lat="45.13096" lon="2.62925">
        <ele>1440.2</ele>
        <time>2018-05-20T12:19:54.000Z</time>
      </trkpt>
      <trkpt lat="45.13079" lon="2.62928">
        <ele>1441.4</ele>
        <time>2018-05-20T12:20:07.000Z</time>
      </trkpt>
      <trkpt lat="45.13078" lon="2.62928">
        <ele>1441.6</ele>
        <time>2018-05-20T12:20:08.000Z</time>
      </trkpt>
      <trkpt lat="45.13075" lon="2.62929">
        <ele>1441.8</ele>
        <time>2018-05-20T12:20:11.000Z</time>
      </trkpt>
      <trkpt lat="45.13073" lon="2.62931">
        <ele>1442.2</ele>
        <time>2018-05-20T12:20:13.000Z</time>
      </trkpt>
      <trkpt lat="45.1307" lon="2.62932">
        <ele>1442.6</ele>
        <time>2018-05-20T12:20:16.000Z</time>
      </trkpt>
      <trkpt lat="45.13068" lon="2.62933">
        <ele>1443</ele>
        <time>2018-05-20T12:20:18.000Z</time>
      </trkpt>
      <trkpt lat="45.13067" lon="2.62934">
        <ele>1443.6</ele>
        <time>2018-05-20T12:20:20.000Z</time>
      </trkpt>
      <trkpt lat="45.13066" lon="2.62935">
        <ele>1443.6</ele>
        <time>2018-05-20T12:20:21.000Z</time>
      </trkpt>
      <trkpt lat="45.13065" lon="2.62936">
        <ele>1444</ele>
        <time>2018-05-20T12:20:23.000Z</time>
      </trkpt>
      <trkpt lat="45.13061" lon="2.62937">
        <ele>1444.6</ele>
        <time>2018-05-20T12:20:26.000Z</time>
      </trkpt>
      <trkpt lat="45.1306" lon="2.62937">
        <ele>1444.6</ele>
        <time>2018-05-20T12:20:27.000Z</time>
      </trkpt>
      <trkpt lat="45.13059" lon="2.62937">
        <ele>1444.8</ele>
        <time>2018-05-20T12:20:28.000Z</time>
      </trkpt>
      <trkpt lat="45.13057" lon="2.62936">
        <ele>1444.8</ele>
        <time>2018-05-20T12:20:30.000Z</time>
      </trkpt>
      <trkpt lat="45.13057" lon="2.62937">
        <ele>1444.8</ele>
        <time>2018-05-20T12:20:31.000Z</time>
      </trkpt>
      <trkpt lat="45.13056" lon="2.62937">
        <ele>1444.8</ele>
        <time>2018-05-20T12:20:32.000Z</time>
      </trkpt>
      <trkpt lat="45.13049" lon="2.62942">
        <ele>1445.8</ele>
        <time>2018-05-20T12:20:41.000Z</time>
      </trkpt>
      <trkpt lat="45.13044" lon="2.62943">
        <ele>1446.8</ele>
        <time>2018-05-20T12:20:46.000Z</time>
      </trkpt>
      <trkpt lat="45.13029" lon="2.62953">
        <ele>1448.2</ele>
        <time>2018-05-20T12:21:01.000Z</time>
      </trkpt>
      <trkpt lat="45.13023" lon="2.62955">
        <ele>1449</ele>
        <time>2018-05-20T12:21:07.000Z</time>
      </trkpt>
      <trkpt lat="45.13022" lon="2.62956">
        <ele>1449.4</ele>
        <time>2018-05-20T12:21:08.000Z</time>
      </trkpt>
      <trkpt lat="45.13003" lon="2.62957">
        <ele>1450</ele>
        <time>2018-05-20T12:21:24.000Z</time>
      </trkpt>
      <trkpt lat="45.12994" lon="2.6296">
        <ele>1451.2</ele>
        <time>2018-05-20T12:21:32.000Z</time>
      </trkpt>
      <trkpt lat="45.12991" lon="2.6296">
        <ele>1451.6</ele>
        <time>2018-05-20T12:21:35.000Z</time>
      </trkpt>
      <trkpt lat="45.12991" lon="2.6296">
        <ele>1451.8</ele>
        <time>2018-05-20T12:21:36.000Z</time>
      </trkpt>
      <trkpt lat="45.12989" lon="2.6296">
        <ele>1452</ele>
        <time>2018-05-20T12:21:38.000Z</time>
      </trkpt>
      <trkpt lat="45.12986" lon="2.6296">
        <ele>1452.6</ele>
        <time>2018-05-20T12:21:41.000Z</time>
      </trkpt>
      <trkpt lat="45.12985" lon="2.6296">
        <ele>1452.8</ele>
        <time>2018-05-20T12:21:42.000Z</time>
      </trkpt>
      <trkpt lat="45.12985" lon="2.6296">
        <ele>1453</ele>
        <time>2018-05-20T12:21:43.000Z</time>
      </trkpt>
      <trkpt lat="45.12984" lon="2.6296">
        <ele>1453</ele>
        <time>2018-05-20T12:21:44.000Z</time>
      </trkpt>
      <trkpt lat="45.12984" lon="2.62961">
        <ele>1453.2</ele>
        <time>2018-05-20T12:21:45.000Z</time>
      </trkpt>
      <trkpt lat="45.12983" lon="2.62961">
        <ele>1453.4</ele>
        <time>2018-05-20T12:21:46.000Z</time>
      </trkpt>
      <trkpt lat="45.12977" lon="2.6296">
        <ele>1454</ele>
        <time>2018-05-20T12:21:52.000Z</time>
      </trkpt>
      <trkpt lat="45.12973" lon="2.6296">
        <ele>1454.4</ele>
        <time>2018-05-20T12:21:55.000Z</time>
      </trkpt>
      <trkpt lat="45.12969" lon="2.62961">
        <ele>1454.8</ele>
        <time>2018-05-20T12:21:57.000Z</time>
      </trkpt>
      <trkpt lat="45.12962" lon="2.62962">
        <ele>1455.4</ele>
        <time>2018-05-20T12:22:02.000Z</time>
      </trkpt>
      <trkpt lat="45.12958" lon="2.62962">
        <ele>1456</ele>
        <time>2018-05-20T12:22:06.000Z</time>
      </trkpt>
      <trkpt lat="45.12951" lon="2.62964">
        <ele>1457</ele>
        <time>2018-05-20T12:22:13.000Z</time>
      </trkpt>
      <trkpt lat="45.12942" lon="2.62965">
        <ele>1459.2</ele>
        <time>2018-05-20T12:22:24.000Z</time>
      </trkpt>
      <trkpt lat="45.12933" lon="2.62968">
        <ele>1461.4</ele>
        <time>2018-05-20T12:22:34.000Z</time>
      </trkpt>
      <trkpt lat="45.12931" lon="2.62968">
        <ele>1461.6</ele>
        <time>2018-05-20T12:22:36.000Z</time>
      </trkpt>
      <trkpt lat="45.12927" lon="2.62967">
        <ele>1462.4</ele>
        <time>2018-05-20T12:22:41.000Z</time>
      </trkpt>
      <trkpt lat="45.12924" lon="2.62967">
        <ele>1462.6</ele>
        <time>2018-05-20T12:22:44.000Z</time>
      </trkpt>
      <trkpt lat="45.12911" lon="2.62962">
        <ele>1464.6</ele>
        <time>2018-05-20T12:22:57.000Z</time>
      </trkpt>
      <trkpt lat="45.12907" lon="2.62962">
        <ele>1465</ele>
        <time>2018-05-20T12:23:02.000Z</time>
      </trkpt>
      <trkpt lat="45.12906" lon="2.62961">
        <ele>1465.8</ele>
        <time>2018-05-20T12:23:06.000Z</time>
      </trkpt>
      <trkpt lat="45.129" lon="2.62962">
        <ele>1467</ele>
        <time>2018-05-20T12:23:14.000Z</time>
      </trkpt>
      <trkpt lat="45.12895" lon="2.62963">
        <ele>1468</ele>
        <time>2018-05-20T12:23:19.000Z</time>
      </trkpt>
      <trkpt lat="45.12887" lon="2.62967">
        <ele>1470</ele>
        <time>2018-05-20T12:23:28.000Z</time>
      </trkpt>
      <trkpt lat="45.12884" lon="2.62968">
        <ele>1471.2</ele>
        <time>2018-05-20T12:23:32.000Z</time>
      </trkpt>
      <trkpt lat="45.1288" lon="2.62969">
        <ele>1471.8</ele>
        <time>2018-05-20T12:23:35.000Z</time>
      </trkpt>
      <trkpt lat="45.12877" lon="2.6297">
        <ele>1472</ele>
        <time>2018-05-20T12:23:38.000Z</time>
      </trkpt>
      <trkpt lat="45.12875" lon="2.62971">
        <ele>1472.4</ele>
        <time>2018-05-20T12:23:40.000Z</time>
      </trkpt>
      <trkpt lat="45.12864" lon="2.62974">
        <ele>1474.6</ele>
        <time>2018-05-20T12:23:50.000Z</time>
      </trkpt>
      <trkpt lat="45.12863" lon="2.62975">
        <ele>1474.8</ele>
        <time>2018-05-20T12:23:51.000Z</time>
      </trkpt>
      <trkpt lat="45.12859" lon="2.62976">
        <ele>1475.8</ele>
        <time>2018-05-20T12:23:55.000Z</time>
      </trkpt>
      <trkpt lat="45.12853" lon="2.62978">
        <ele>1476.8</ele>
        <time>2018-05-20T12:24:00.000Z</time>
      </trkpt>
      <trkpt lat="45.12839" lon="2.62984">
        <ele>1479.2</ele>
        <time>2018-05-20T12:24:11.000Z</time>
      </trkpt>
      <trkpt lat="45.12838" lon="2.62986">
        <ele>1479.8</ele>
        <time>2018-05-20T12:24:13.000Z</time>
      </trkpt>
      <trkpt lat="45.12835" lon="2.62988">
        <ele>1480.6</ele>
        <time>2018-05-20T12:24:17.000Z</time>
      </trkpt>
      <trkpt lat="45.12834" lon="2.62989">
        <ele>1481</ele>
        <time>2018-05-20T12:24:19.000Z</time>
      </trkpt>
      <trkpt lat="45.12833" lon="2.6299">
        <ele>1481.4</ele>
        <time>2018-05-20T12:24:21.000Z</time>
      </trkpt>
      <trkpt lat="45.12832" lon="2.62991">
        <ele>1481.6</ele>
        <time>2018-05-20T12:24:22.000Z</time>
      </trkpt>
      <trkpt lat="45.1283" lon="2.62992">
        <ele>1482</ele>
        <time>2018-05-20T12:24:24.000Z</time>
      </trkpt>
      <trkpt lat="45.12824" lon="2.62995">
        <ele>1483.8</ele>
        <time>2018-05-20T12:24:30.000Z</time>
      </trkpt>
      <trkpt lat="45.12823" lon="2.62995">
        <ele>1484</ele>
        <time>2018-05-20T12:24:31.000Z</time>
      </trkpt>
      <trkpt lat="45.12817" lon="2.62997">
        <ele>1484.8</ele>
        <time>2018-05-20T12:24:36.000Z</time>
      </trkpt>
      <trkpt lat="45.12812" lon="2.62997">
        <ele>1485.8</ele>
        <time>2018-05-20T12:24:43.000Z</time>
      </trkpt>
      <trkpt lat="45.12809" lon="2.62996">
        <ele>1486.2</ele>
        <time>2018-05-20T12:24:46.000Z</time>
      </trkpt>
      <trkpt lat="45.12806" lon="2.62996">
        <ele>1486.8</ele>
        <time>2018-05-20T12:24:49.000Z</time>
      </trkpt>
      <trkpt lat="45.12806" lon="2.62995">
        <ele>1487</ele>
        <time>2018-05-20T12:24:50.000Z</time>
      </trkpt>
      <trkpt lat="45.12806" lon="2.62993">
        <ele>1487.4</ele>
        <time>2018-05-20T12:24:54.000Z</time>
      </trkpt>
      <trkpt lat="45.12801" lon="2.62994">
        <ele>1487.4</ele>
        <time>2018-05-20T12:24:58.000Z</time>
      </trkpt>
      <trkpt lat="45.12797" lon="2.62996">
        <ele>1487.8</ele>
        <time>2018-05-20T12:25:01.000Z</time>
      </trkpt>
      <trkpt lat="45.12794" lon="2.62999">
        <ele>1488.4</ele>
        <time>2018-05-20T12:25:06.000Z</time>
      </trkpt>
      <trkpt lat="45.1279" lon="2.63002">
        <ele>1489</ele>
        <time>2018-05-20T12:25:10.000Z</time>
      </trkpt>
      <trkpt lat="45.12785" lon="2.63006">
        <ele>1490.2</ele>
        <time>2018-05-20T12:25:16.000Z</time>
      </trkpt>
      <trkpt lat="45.12781" lon="2.63008">
        <ele>1490.8</ele>
        <time>2018-05-20T12:25:19.000Z</time>
      </trkpt>
      <trkpt lat="45.12776" lon="2.63009">
        <ele>1491.2</ele>
        <time>2018-05-20T12:25:23.000Z</time>
      </trkpt>
      <trkpt lat="45.12775" lon="2.6301">
        <ele>1491.4</ele>
        <time>2018-05-20T12:25:24.000Z</time>
      </trkpt>
      <trkpt lat="45.12774" lon="2.63011">
        <ele>1491.6</ele>
        <time>2018-05-20T12:25:25.000Z</time>
      </trkpt>
      <trkpt lat="45.12771" lon="2.63012">
        <ele>1491.8</ele>
        <time>2018-05-20T12:25:27.000Z</time>
      </trkpt>
      <trkpt lat="45.1277" lon="2.63013">
        <ele>1492.4</ele>
        <time>2018-05-20T12:25:29.000Z</time>
      </trkpt>
      <trkpt lat="45.12765" lon="2.63015">
        <ele>1493.2</ele>
        <time>2018-05-20T12:25:35.000Z</time>
      </trkpt>
      <trkpt lat="45.12763" lon="2.63015">
        <ele>1493.4</ele>
        <time>2018-05-20T12:25:36.000Z</time>
      </trkpt>
      <trkpt lat="45.1276" lon="2.63016">
        <ele>1494</ele>
        <time>2018-05-20T12:25:39.000Z</time>
      </trkpt>
      <trkpt lat="45.12756" lon="2.63016">
        <ele>1494.4</ele>
        <time>2018-05-20T12:25:42.000Z</time>
      </trkpt>
      <trkpt lat="45.12755" lon="2.63016">
        <ele>1494.6</ele>
        <time>2018-05-20T12:25:43.000Z</time>
      </trkpt>
      <trkpt lat="45.12753" lon="2.63017">
        <ele>1494.8</ele>
        <time>2018-05-20T12:25:45.000Z</time>
      </trkpt>
      <trkpt lat="45.12752" lon="2.63017">
        <ele>1495</ele>
        <time>2018-05-20T12:25:46.000Z</time>
      </trkpt>
      <trkpt lat="45.12751" lon="2.63017">
        <ele>1495</ele>
        <time>2018-05-20T12:25:47.000Z</time>
      </trkpt>
      <trkpt lat="45.12749" lon="2.63017">
        <ele>1495.6</ele>
        <time>2018-05-20T12:25:50.000Z</time>
      </trkpt>
      <trkpt lat="45.12747" lon="2.63017">
        <ele>1496</ele>
        <time>2018-05-20T12:25:53.000Z</time>
      </trkpt>
      <trkpt lat="45.12743" lon="2.63018">
        <ele>1496.6</ele>
        <time>2018-05-20T12:25:56.000Z</time>
      </trkpt>
      <trkpt lat="45.12735" lon="2.6302">
        <ele>1498.8</ele>
        <time>2018-05-20T12:26:05.000Z</time>
      </trkpt>
      <trkpt lat="45.12732" lon="2.6302">
        <ele>1499.6</ele>
        <time>2018-05-20T12:26:09.000Z</time>
      </trkpt>
      <trkpt lat="45.12731" lon="2.63021">
        <ele>1499.8</ele>
        <time>2018-05-20T12:26:10.000Z</time>
      </trkpt>
      <trkpt lat="45.1273" lon="2.63021">
        <ele>1500.2</ele>
        <time>2018-05-20T12:26:11.000Z</time>
      </trkpt>
      <trkpt lat="45.12727" lon="2.63022">
        <ele>1500.8</ele>
        <time>2018-05-20T12:26:14.000Z</time>
      </trkpt>
      <trkpt lat="45.12725" lon="2.63023">
        <ele>1501</ele>
        <time>2018-05-20T12:26:16.000Z</time>
      </trkpt>
      <trkpt lat="45.12711" lon="2.63027">
        <ele>1503</ele>
        <time>2018-05-20T12:26:29.000Z</time>
      </trkpt>
      <trkpt lat="45.12698" lon="2.63034">
        <ele>1505.4</ele>
        <time>2018-05-20T12:26:39.000Z</time>
      </trkpt>
      <trkpt lat="45.12689" lon="2.63037">
        <ele>1506.6</ele>
        <time>2018-05-20T12:26:51.000Z</time>
      </trkpt>
      <trkpt lat="45.1269" lon="2.63036">
        <ele>1506.6</ele>
        <time>2018-05-20T12:26:56.000Z</time>
      </trkpt>
      <trkpt lat="45.1269" lon="2.63036">
        <ele>1506.6</ele>
        <time>2018-05-20T12:27:05.000Z</time>
      </trkpt>
      <trkpt lat="45.1269" lon="2.63036">
        <ele>1506.6</ele>
        <time>2018-05-20T12:27:10.000Z</time>
      </trkpt>
      <trkpt lat="45.12692" lon="2.63038">
        <ele>1506.4</ele>
        <time>2018-05-20T12:27:17.000Z</time>
      </trkpt>
      <trkpt lat="45.12692" lon="2.63037">
        <ele>1506.8</ele>
        <time>2018-05-20T12:27:22.000Z</time>
      </trkpt>
      <trkpt lat="45.12694" lon="2.63035">
        <ele>1506.4</ele>
        <time>2018-05-20T12:27:37.000Z</time>
      </trkpt>
      <trkpt lat="45.12693" lon="2.63035">
        <ele>1506</ele>
        <time>2018-05-20T12:27:42.000Z</time>
      </trkpt>
      <trkpt lat="45.12691" lon="2.63038">
        <ele>1506</ele>
        <time>2018-05-20T12:27:45.000Z</time>
      </trkpt>
      <trkpt lat="45.12689" lon="2.63039">
        <ele>1506.4</ele>
        <time>2018-05-20T12:27:47.000Z</time>
      </trkpt>
      <trkpt lat="45.12682" lon="2.63043">
        <ele>1506.2</ele>
        <time>2018-05-20T12:27:54.000Z</time>
      </trkpt>
      <trkpt lat="45.12676" lon="2.63051">
        <ele>1506</ele>
        <time>2018-05-20T12:27:59.000Z</time>
      </trkpt>
      <trkpt lat="45.12673" lon="2.63059">
        <ele>1506.4</ele>
        <time>2018-05-20T12:28:02.000Z</time>
      </trkpt>
      <trkpt lat="45.1267" lon="2.63062">
        <ele>1507</ele>
        <time>2018-05-20T12:28:04.000Z</time>
      </trkpt>
      <trkpt lat="45.12669" lon="2.63063">
        <ele>1507</ele>
        <time>2018-05-20T12:28:05.000Z</time>
      </trkpt>
      <trkpt lat="45.1266" lon="2.63065">
        <ele>1507.4</ele>
        <time>2018-05-20T12:28:09.000Z</time>
      </trkpt>
      <trkpt lat="45.12652" lon="2.63066">
        <ele>1507.6</ele>
        <time>2018-05-20T12:28:12.000Z</time>
      </trkpt>
      <trkpt lat="45.12648" lon="2.63069">
        <ele>1507.2</ele>
        <time>2018-05-20T12:28:14.000Z</time>
      </trkpt>
      <trkpt lat="45.12646" lon="2.6307">
        <ele>1507.2</ele>
        <time>2018-05-20T12:28:15.000Z</time>
      </trkpt>
      <trkpt lat="45.12644" lon="2.63075">
        <ele>1507.2</ele>
        <time>2018-05-20T12:28:17.000Z</time>
      </trkpt>
      <trkpt lat="45.12643" lon="2.63084">
        <ele>1507</ele>
        <time>2018-05-20T12:28:20.000Z</time>
      </trkpt>
      <trkpt lat="45.12642" lon="2.6309">
        <ele>1506.6</ele>
        <time>2018-05-20T12:28:22.000Z</time>
      </trkpt>
      <trkpt lat="45.1264" lon="2.63094">
        <ele>1506</ele>
        <time>2018-05-20T12:28:24.000Z</time>
      </trkpt>
      <trkpt lat="45.12638" lon="2.63096">
        <ele>1505.6</ele>
        <time>2018-05-20T12:28:25.000Z</time>
      </trkpt>
      <trkpt lat="45.12637" lon="2.63099">
        <ele>1505.4</ele>
        <time>2018-05-20T12:28:28.000Z</time>
      </trkpt>
      <trkpt lat="45.12638" lon="2.63099">
        <ele>1505.4</ele>
        <time>2018-05-20T12:28:34.000Z</time>
      </trkpt>
      <trkpt lat="45.12638" lon="2.631">
        <ele>1505.4</ele>
        <time>2018-05-20T12:28:35.000Z</time>
      </trkpt>
      <trkpt lat="45.12638" lon="2.63102">
        <ele>1505.2</ele>
        <time>2018-05-20T12:28:36.000Z</time>
      </trkpt>
      <trkpt lat="45.12636" lon="2.63104">
        <ele>1505.2</ele>
        <time>2018-05-20T12:28:39.000Z</time>
      </trkpt>
      <trkpt lat="45.12622" lon="2.63121">
        <ele>1506.4</ele>
        <time>2018-05-20T12:28:50.000Z</time>
      </trkpt>
      <trkpt lat="45.12617" lon="2.63134">
        <ele>1507</ele>
        <time>2018-05-20T12:28:59.000Z</time>
      </trkpt>
      <trkpt lat="45.12609" lon="2.63144">
        <ele>1507.8</ele>
        <time>2018-05-20T12:29:08.000Z</time>
      </trkpt>
      <trkpt lat="45.12608" lon="2.63146">
        <ele>1508</ele>
        <time>2018-05-20T12:29:09.000Z</time>
      </trkpt>
      <trkpt lat="45.12606" lon="2.63147">
        <ele>1508.2</ele>
        <time>2018-05-20T12:29:10.000Z</time>
      </trkpt>
      <trkpt lat="45.12605" lon="2.63148">
        <ele>1508.4</ele>
        <time>2018-05-20T12:29:11.000Z</time>
      </trkpt>
      <trkpt lat="45.12605" lon="2.63149">
        <ele>1508.6</ele>
        <time>2018-05-20T12:29:12.000Z</time>
      </trkpt>
      <trkpt lat="45.12604" lon="2.63151">
        <ele>1508.8</ele>
        <time>2018-05-20T12:29:13.000Z</time>
      </trkpt>
      <trkpt lat="45.12603" lon="2.63152">
        <ele>1509</ele>
        <time>2018-05-20T12:29:14.000Z</time>
      </trkpt>
      <trkpt lat="45.12595" lon="2.63159">
        <ele>1509.4</ele>
        <time>2018-05-20T12:29:22.000Z</time>
      </trkpt>
      <trkpt lat="45.12595" lon="2.63159">
        <ele>1509.6</ele>
        <time>2018-05-20T12:29:23.000Z</time>
      </trkpt>
      <trkpt lat="45.12596" lon="2.63159">
        <ele>1510</ele>
        <time>2018-05-20T12:29:26.000Z</time>
      </trkpt>
      <trkpt lat="45.12595" lon="2.63162">
        <ele>1509.4</ele>
        <time>2018-05-20T12:29:33.000Z</time>
      </trkpt>
      <trkpt lat="45.12591" lon="2.63167">
        <ele>1510</ele>
        <time>2018-05-20T12:29:38.000Z</time>
      </trkpt>
      <trkpt lat="45.12589" lon="2.63169">
        <ele>1510.2</ele>
        <time>2018-05-20T12:29:40.000Z</time>
      </trkpt>
      <trkpt lat="45.12583" lon="2.63175">
        <ele>1510.2</ele>
        <time>2018-05-20T12:29:45.000Z</time>
      </trkpt>
      <trkpt lat="45.1258" lon="2.63179">
        <ele>1509.8</ele>
        <time>2018-05-20T12:29:47.000Z</time>
      </trkpt>
      <trkpt lat="45.1257" lon="2.63184">
        <ele>1510</ele>
        <time>2018-05-20T12:29:53.000Z</time>
      </trkpt>
      <trkpt lat="45.12568" lon="2.63185">
        <ele>1510.2</ele>
        <time>2018-05-20T12:29:54.000Z</time>
      </trkpt>
      <trkpt lat="45.12565" lon="2.63188">
        <ele>1510.6</ele>
        <time>2018-05-20T12:29:57.000Z</time>
      </trkpt>
      <trkpt lat="45.12562" lon="2.63187">
        <ele>1510.8</ele>
        <time>2018-05-20T12:29:59.000Z</time>
      </trkpt>
      <trkpt lat="45.12562" lon="2.63187">
        <ele>1510.8</ele>
        <time>2018-05-20T12:30:00.000Z</time>
      </trkpt>
      <trkpt lat="45.12557" lon="2.63187">
        <ele>1511</ele>
        <time>2018-05-20T12:30:04.000Z</time>
      </trkpt>
      <trkpt lat="45.12556" lon="2.63187">
        <ele>1511</ele>
        <time>2018-05-20T12:30:05.000Z</time>
      </trkpt>
      <trkpt lat="45.12555" lon="2.63188">
        <ele>1511</ele>
        <time>2018-05-20T12:30:06.000Z</time>
      </trkpt>
      <trkpt lat="45.12553" lon="2.63191">
        <ele>1511</ele>
        <time>2018-05-20T12:30:08.000Z</time>
      </trkpt>
      <trkpt lat="45.12552" lon="2.63194">
        <ele>1511.2</ele>
        <time>2018-05-20T12:30:10.000Z</time>
      </trkpt>
      <trkpt lat="45.12548" lon="2.63198">
        <ele>1511.2</ele>
        <time>2018-05-20T12:30:13.000Z</time>
      </trkpt>
      <trkpt lat="45.12544" lon="2.6321">
        <ele>1511.2</ele>
        <time>2018-05-20T12:30:19.000Z</time>
      </trkpt>
      <trkpt lat="45.12541" lon="2.63212">
        <ele>1512</ele>
        <time>2018-05-20T12:30:23.000Z</time>
      </trkpt>
      <trkpt lat="45.12543" lon="2.63214">
        <ele>1512.8</ele>
        <time>2018-05-20T12:30:25.000Z</time>
      </trkpt>
      <trkpt lat="45.12543" lon="2.63211">
        <ele>1514.2</ele>
        <time>2018-05-20T12:30:29.000Z</time>
      </trkpt>
      <trkpt lat="45.12544" lon="2.6321">
        <ele>1515.2</ele>
        <time>2018-05-20T12:30:35.000Z</time>
      </trkpt>
      <trkpt lat="45.12541" lon="2.6321">
        <ele>1514.6</ele>
        <time>2018-05-20T12:30:39.000Z</time>
      </trkpt>
      <trkpt lat="45.12539" lon="2.63208">
        <ele>1513.6</ele>
        <time>2018-05-20T12:30:42.000Z</time>
      </trkpt>
      <trkpt lat="45.12539" lon="2.63208">
        <ele>1513</ele>
        <time>2018-05-20T12:30:44.000Z</time>
      </trkpt>
      <trkpt lat="45.1254" lon="2.63215">
        <ele>1512.8</ele>
        <time>2018-05-20T12:30:50.000Z</time>
      </trkpt>
      <trkpt lat="45.12534" lon="2.63219">
        <ele>1514.2</ele>
        <time>2018-05-20T12:30:54.000Z</time>
      </trkpt>
      <trkpt lat="45.12527" lon="2.63228">
        <ele>1516</ele>
        <time>2018-05-20T12:31:00.000Z</time>
      </trkpt>
      <trkpt lat="45.12524" lon="2.63232">
        <ele>1516.6</ele>
        <time>2018-05-20T12:31:04.000Z</time>
      </trkpt>
      <trkpt lat="45.12514" lon="2.63247">
        <ele>1518.8</ele>
        <time>2018-05-20T12:31:17.000Z</time>
      </trkpt>
      <trkpt lat="45.1251" lon="2.63248">
        <ele>1519.2</ele>
        <time>2018-05-20T12:31:20.000Z</time>
      </trkpt>
      <trkpt lat="45.12509" lon="2.63247">
        <ele>1519.8</ele>
        <time>2018-05-20T12:31:22.000Z</time>
      </trkpt>
      <trkpt lat="45.12507" lon="2.63247">
        <ele>1520.8</ele>
        <time>2018-05-20T12:31:25.000Z</time>
      </trkpt>
      <trkpt lat="45.12507" lon="2.63247">
        <ele>1521</ele>
        <time>2018-05-20T12:31:26.000Z</time>
      </trkpt>
      <trkpt lat="45.12506" lon="2.63247">
        <ele>1521.8</ele>
        <time>2018-05-20T12:31:28.000Z</time>
      </trkpt>
      <trkpt lat="45.12505" lon="2.63247">
        <ele>1522</ele>
        <time>2018-05-20T12:31:29.000Z</time>
      </trkpt>
      <trkpt lat="45.12505" lon="2.63248">
        <ele>1522.2</ele>
        <time>2018-05-20T12:31:30.000Z</time>
      </trkpt>
      <trkpt lat="45.125" lon="2.63251">
        <ele>1522.4</ele>
        <time>2018-05-20T12:31:35.000Z</time>
      </trkpt>
      <trkpt lat="45.12496" lon="2.63252">
        <ele>1522.8</ele>
        <time>2018-05-20T12:31:38.000Z</time>
      </trkpt>
      <trkpt lat="45.12496" lon="2.63253">
        <ele>1523.4</ele>
        <time>2018-05-20T12:31:40.000Z</time>
      </trkpt>
      <trkpt lat="45.12496" lon="2.63256">
        <ele>1524.2</ele>
        <time>2018-05-20T12:31:43.000Z</time>
      </trkpt>
      <trkpt lat="45.12496" lon="2.63257">
        <ele>1524.4</ele>
        <time>2018-05-20T12:31:44.000Z</time>
      </trkpt>
      <trkpt lat="45.12495" lon="2.63259">
        <ele>1524.8</ele>
        <time>2018-05-20T12:31:46.000Z</time>
      </trkpt>
      <trkpt lat="45.12494" lon="2.63259">
        <ele>1525.4</ele>
        <time>2018-05-20T12:31:48.000Z</time>
      </trkpt>
      <trkpt lat="45.12493" lon="2.6326">
        <ele>1525.6</ele>
        <time>2018-05-20T12:31:49.000Z</time>
      </trkpt>
      <trkpt lat="45.12491" lon="2.63265">
        <ele>1526.4</ele>
        <time>2018-05-20T12:31:55.000Z</time>
      </trkpt>
      <trkpt lat="45.12491" lon="2.63266">
        <ele>1526.6</ele>
        <time>2018-05-20T12:31:56.000Z</time>
      </trkpt>
      <trkpt lat="45.12485" lon="2.63267">
        <ele>1528.8</ele>
        <time>2018-05-20T12:32:07.000Z</time>
      </trkpt>
      <trkpt lat="45.12484" lon="2.63267">
        <ele>1528.8</ele>
        <time>2018-05-20T12:32:08.000Z</time>
      </trkpt>
      <trkpt lat="45.1248" lon="2.63267">
        <ele>1530</ele>
        <time>2018-05-20T12:32:14.000Z</time>
      </trkpt>
      <trkpt lat="45.12477" lon="2.63267">
        <ele>1531</ele>
        <time>2018-05-20T12:32:18.000Z</time>
      </trkpt>
      <trkpt lat="45.12476" lon="2.63267">
        <ele>1531.2</ele>
        <time>2018-05-20T12:32:19.000Z</time>
      </trkpt>
      <trkpt lat="45.12475" lon="2.63266">
        <ele>1531.4</ele>
        <time>2018-05-20T12:32:20.000Z</time>
      </trkpt>
      <trkpt lat="45.12474" lon="2.63266">
        <ele>1531.6</ele>
        <time>2018-05-20T12:32:21.000Z</time>
      </trkpt>
      <trkpt lat="45.12472" lon="2.63266">
        <ele>1532</ele>
        <time>2018-05-20T12:32:23.000Z</time>
      </trkpt>
      <trkpt lat="45.12471" lon="2.63266">
        <ele>1532</ele>
        <time>2018-05-20T12:32:24.000Z</time>
      </trkpt>
      <trkpt lat="45.12469" lon="2.6327">
        <ele>1533.2</ele>
        <time>2018-05-20T12:32:31.000Z</time>
      </trkpt>
      <trkpt lat="45.12466" lon="2.63277">
        <ele>1534.4</ele>
        <time>2018-05-20T12:32:36.000Z</time>
      </trkpt>
      <trkpt lat="45.12463" lon="2.63281">
        <ele>1535.6</ele>
        <time>2018-05-20T12:32:40.000Z</time>
      </trkpt>
      <trkpt lat="45.12461" lon="2.63287">
        <ele>1536.2</ele>
        <time>2018-05-20T12:32:44.000Z</time>
      </trkpt>
      <trkpt lat="45.12453" lon="2.63296">
        <ele>1537.4</ele>
        <time>2018-05-20T12:32:55.000Z</time>
      </trkpt>
      <trkpt lat="45.12451" lon="2.63301">
        <ele>1537.8</ele>
        <time>2018-05-20T12:32:59.000Z</time>
      </trkpt>
      <trkpt lat="45.12449" lon="2.63303">
        <ele>1538</ele>
        <time>2018-05-20T12:33:01.000Z</time>
      </trkpt>
      <trkpt lat="45.12438" lon="2.63312">
        <ele>1538.6</ele>
        <time>2018-05-20T12:33:12.000Z</time>
      </trkpt>
      <trkpt lat="45.12437" lon="2.63314">
        <ele>1538.8</ele>
        <time>2018-05-20T12:33:14.000Z</time>
      </trkpt>
      <trkpt lat="45.12435" lon="2.63317">
        <ele>1539.4</ele>
        <time>2018-05-20T12:33:18.000Z</time>
      </trkpt>
      <trkpt lat="45.12434" lon="2.63317">
        <ele>1539.8</ele>
        <time>2018-05-20T12:33:21.000Z</time>
      </trkpt>
      <trkpt lat="45.12434" lon="2.63318">
        <ele>1540</ele>
        <time>2018-05-20T12:33:22.000Z</time>
      </trkpt>
      <trkpt lat="45.12435" lon="2.63319">
        <ele>1540.2</ele>
        <time>2018-05-20T12:33:23.000Z</time>
      </trkpt>
      <trkpt lat="45.12434" lon="2.6332">
        <ele>1540.4</ele>
        <time>2018-05-20T12:33:24.000Z</time>
      </trkpt>
      <trkpt lat="45.12433" lon="2.63321">
        <ele>1540.6</ele>
        <time>2018-05-20T12:33:25.000Z</time>
      </trkpt>
      <trkpt lat="45.1243" lon="2.63322">
        <ele>1541.2</ele>
        <time>2018-05-20T12:33:28.000Z</time>
      </trkpt>
      <trkpt lat="45.12429" lon="2.63325">
        <ele>1541.4</ele>
        <time>2018-05-20T12:33:30.000Z</time>
      </trkpt>
      <trkpt lat="45.12414" lon="2.63333">
        <ele>1543.2</ele>
        <time>2018-05-20T12:33:39.000Z</time>
      </trkpt>
      <trkpt lat="45.12412" lon="2.63335">
        <ele>1543.6</ele>
        <time>2018-05-20T12:33:42.000Z</time>
      </trkpt>
      <trkpt lat="45.1241" lon="2.63338">
        <ele>1544</ele>
        <time>2018-05-20T12:33:45.000Z</time>
      </trkpt>
      <trkpt lat="45.12407" lon="2.6334">
        <ele>1544.2</ele>
        <time>2018-05-20T12:33:48.000Z</time>
      </trkpt>
      <trkpt lat="45.12406" lon="2.63341">
        <ele>1544.2</ele>
        <time>2018-05-20T12:33:49.000Z</time>
      </trkpt>
      <trkpt lat="45.12399" lon="2.63346">
        <ele>1545</ele>
        <time>2018-05-20T12:33:55.000Z</time>
      </trkpt>
      <trkpt lat="45.12396" lon="2.63347">
        <ele>1545.4</ele>
        <time>2018-05-20T12:33:57.000Z</time>
      </trkpt>
      <trkpt lat="45.12388" lon="2.63359">
        <ele>1546.4</ele>
        <time>2018-05-20T12:34:07.000Z</time>
      </trkpt>
      <trkpt lat="45.12384" lon="2.63363">
        <ele>1547</ele>
        <time>2018-05-20T12:34:12.000Z</time>
      </trkpt>
      <trkpt lat="45.12383" lon="2.63364">
        <ele>1547.2</ele>
        <time>2018-05-20T12:34:14.000Z</time>
      </trkpt>
      <trkpt lat="45.12381" lon="2.63366">
        <ele>1547.4</ele>
        <time>2018-05-20T12:34:16.000Z</time>
      </trkpt>
      <trkpt lat="45.12373" lon="2.63369">
        <ele>1548.2</ele>
        <time>2018-05-20T12:34:22.000Z</time>
      </trkpt>
      <trkpt lat="45.12366" lon="2.6337">
        <ele>1548.6</ele>
        <time>2018-05-20T12:34:27.000Z</time>
      </trkpt>
      <trkpt lat="45.12361" lon="2.63371">
        <ele>1549.8</ele>
        <time>2018-05-20T12:34:31.000Z</time>
      </trkpt>
      <trkpt lat="45.12357" lon="2.63372">
        <ele>1549.8</ele>
        <time>2018-05-20T12:34:35.000Z</time>
      </trkpt>
      <trkpt lat="45.12355" lon="2.63374">
        <ele>1550</ele>
        <time>2018-05-20T12:34:38.000Z</time>
      </trkpt>
      <trkpt lat="45.12353" lon="2.63375">
        <ele>1551</ele>
        <time>2018-05-20T12:34:41.000Z</time>
      </trkpt>
      <trkpt lat="45.12351" lon="2.63379">
        <ele>1551.8</ele>
        <time>2018-05-20T12:34:45.000Z</time>
      </trkpt>
      <trkpt lat="45.12351" lon="2.63381">
        <ele>1551.8</ele>
        <time>2018-05-20T12:34:46.000Z</time>
      </trkpt>
      <trkpt lat="45.12351" lon="2.63381">
        <ele>1552</ele>
        <time>2018-05-20T12:34:47.000Z</time>
      </trkpt>
      <trkpt lat="45.1235" lon="2.63382">
        <ele>1552</ele>
        <time>2018-05-20T12:34:48.000Z</time>
      </trkpt>
      <trkpt lat="45.12349" lon="2.63383">
        <ele>1552.2</ele>
        <time>2018-05-20T12:34:49.000Z</time>
      </trkpt>
      <trkpt lat="45.12342" lon="2.63385">
        <ele>1553</ele>
        <time>2018-05-20T12:34:54.000Z</time>
      </trkpt>
      <trkpt lat="45.12341" lon="2.63384">
        <ele>1553.2</ele>
        <time>2018-05-20T12:34:55.000Z</time>
      </trkpt>
      <trkpt lat="45.12337" lon="2.63385">
        <ele>1553.8</ele>
        <time>2018-05-20T12:34:59.000Z</time>
      </trkpt>
      <trkpt lat="45.12336" lon="2.63386">
        <ele>1554</ele>
        <time>2018-05-20T12:35:00.000Z</time>
      </trkpt>
      <trkpt lat="45.12335" lon="2.63386">
        <ele>1554</ele>
        <time>2018-05-20T12:35:01.000Z</time>
      </trkpt>
      <trkpt lat="45.12336" lon="2.6339">
        <ele>1554.4</ele>
        <time>2018-05-20T12:35:03.000Z</time>
      </trkpt>
      <trkpt lat="45.12338" lon="2.63397">
        <ele>1555</ele>
        <time>2018-05-20T12:35:07.000Z</time>
      </trkpt>
      <trkpt lat="45.12337" lon="2.63397">
        <ele>1555.2</ele>
        <time>2018-05-20T12:35:08.000Z</time>
      </trkpt>
      <trkpt lat="45.12336" lon="2.63395">
        <ele>1555.6</ele>
        <time>2018-05-20T12:35:10.000Z</time>
      </trkpt>
      <trkpt lat="45.12337" lon="2.63395">
        <ele>1555.8</ele>
        <time>2018-05-20T12:35:11.000Z</time>
      </trkpt>
      <trkpt lat="45.12337" lon="2.63395">
        <ele>1556</ele>
        <time>2018-05-20T12:35:12.000Z</time>
      </trkpt>
      <trkpt lat="45.12338" lon="2.63397">
        <ele>1556.2</ele>
        <time>2018-05-20T12:35:14.000Z</time>
      </trkpt>
      <trkpt lat="45.12338" lon="2.63397">
        <ele>1556.8</ele>
        <time>2018-05-20T12:35:17.000Z</time>
      </trkpt>
      <trkpt lat="45.12339" lon="2.63396">
        <ele>1557.2</ele>
        <time>2018-05-20T12:35:19.000Z</time>
      </trkpt>
      <trkpt lat="45.12338" lon="2.63397">
        <ele>1557.6</ele>
        <time>2018-05-20T12:35:21.000Z</time>
      </trkpt>
      <trkpt lat="45.12337" lon="2.63398">
        <ele>1557.8</ele>
        <time>2018-05-20T12:35:23.000Z</time>
      </trkpt>
      <trkpt lat="45.12333" lon="2.63401">
        <ele>1558.4</ele>
        <time>2018-05-20T12:35:25.000Z</time>
      </trkpt>
      <trkpt lat="45.12333" lon="2.63401">
        <ele>1558.8</ele>
        <time>2018-05-20T12:35:26.000Z</time>
      </trkpt>
      <trkpt lat="45.12331" lon="2.63403">
        <ele>1559.4</ele>
        <time>2018-05-20T12:35:28.000Z</time>
      </trkpt>
      <trkpt lat="45.1233" lon="2.63404">
        <ele>1559.6</ele>
        <time>2018-05-20T12:35:29.000Z</time>
      </trkpt>
      <trkpt lat="45.12328" lon="2.63404">
        <ele>1560.2</ele>
        <time>2018-05-20T12:35:31.000Z</time>
      </trkpt>
      <trkpt lat="45.12327" lon="2.63405">
        <ele>1560.4</ele>
        <time>2018-05-20T12:35:32.000Z</time>
      </trkpt>
      <trkpt lat="45.12325" lon="2.63406">
        <ele>1560.8</ele>
        <time>2018-05-20T12:35:34.000Z</time>
      </trkpt>
      <trkpt lat="45.1232" lon="2.63409">
        <ele>1561.8</ele>
        <time>2018-05-20T12:35:39.000Z</time>
      </trkpt>
      <trkpt lat="45.1232" lon="2.63407">
        <ele>1562</ele>
        <time>2018-05-20T12:35:40.000Z</time>
      </trkpt>
      <trkpt lat="45.12315" lon="2.63409">
        <ele>1562.8</ele>
        <time>2018-05-20T12:35:46.000Z</time>
      </trkpt>
      <trkpt lat="45.12314" lon="2.6341">
        <ele>1562.8</ele>
        <time>2018-05-20T12:35:47.000Z</time>
      </trkpt>
      <trkpt lat="45.12307" lon="2.63413">
        <ele>1563.6</ele>
        <time>2018-05-20T12:35:52.000Z</time>
      </trkpt>
      <trkpt lat="45.12306" lon="2.63413">
        <ele>1564</ele>
        <time>2018-05-20T12:35:53.000Z</time>
      </trkpt>
      <trkpt lat="45.12305" lon="2.63413">
        <ele>1564.2</ele>
        <time>2018-05-20T12:35:54.000Z</time>
      </trkpt>
      <trkpt lat="45.12295" lon="2.63415">
        <ele>1565</ele>
        <time>2018-05-20T12:36:02.000Z</time>
      </trkpt>
      <trkpt lat="45.12279" lon="2.63411">
        <ele>1565.6</ele>
        <time>2018-05-20T12:36:08.000Z</time>
      </trkpt>
      <trkpt lat="45.12253" lon="2.6341">
        <ele>1568</ele>
        <time>2018-05-20T12:36:25.000Z</time>
      </trkpt>
      <trkpt lat="45.12241" lon="2.63411">
        <ele>1568.2</ele>
        <time>2018-05-20T12:36:32.000Z</time>
      </trkpt>
      <trkpt lat="45.12216" lon="2.6341">
        <ele>1570.4</ele>
        <time>2018-05-20T12:36:53.000Z</time>
      </trkpt>
      <trkpt lat="45.12211" lon="2.63411">
        <ele>1570.2</ele>
        <time>2018-05-20T12:36:58.000Z</time>
      </trkpt>
      <trkpt lat="45.12211" lon="2.63411">
        <ele>1570</ele>
        <time>2018-05-20T12:37:00.000Z</time>
      </trkpt>
      <trkpt lat="45.12212" lon="2.63406">
        <ele>1569.4</ele>
        <time>2018-05-20T12:37:18.000Z</time>
      </trkpt>
      <trkpt lat="45.12213" lon="2.63406">
        <ele>1569.4</ele>
        <time>2018-05-20T12:37:21.000Z</time>
      </trkpt>
      <trkpt lat="45.12212" lon="2.63406">
        <ele>1569.2</ele>
        <time>2018-05-20T12:37:23.000Z</time>
      </trkpt>
      <trkpt lat="45.12212" lon="2.63406">
        <ele>1569.2</ele>
        <time>2018-05-20T12:37:24.000Z</time>
      </trkpt>
      <trkpt lat="45.12212" lon="2.63406">
        <ele>1569.2</ele>
        <time>2018-05-20T12:37:25.000Z</time>
      </trkpt>
      <trkpt lat="45.12207" lon="2.634">
        <ele>1570.4</ele>
        <time>2018-05-20T12:37:42.000Z</time>
      </trkpt>
      <trkpt lat="45.12206" lon="2.63399">
        <ele>1570.6</ele>
        <time>2018-05-20T12:37:43.000Z</time>
      </trkpt>
      <trkpt lat="45.12208" lon="2.63389">
        <ele>1571.4</ele>
        <time>2018-05-20T12:37:50.000Z</time>
      </trkpt>
      <trkpt lat="45.12208" lon="2.6338">
        <ele>1573.4</ele>
        <time>2018-05-20T12:37:58.000Z</time>
      </trkpt>
      <trkpt lat="45.1221" lon="2.63375">
        <ele>1575.2</ele>
        <time>2018-05-20T12:38:05.000Z</time>
      </trkpt>
      <trkpt lat="45.12212" lon="2.63372">
        <ele>1576.2</ele>
        <time>2018-05-20T12:38:12.000Z</time>
      </trkpt>
      <trkpt lat="45.12213" lon="2.63363">
        <ele>1578.6</ele>
        <time>2018-05-20T12:38:21.000Z</time>
      </trkpt>
      <trkpt lat="45.12214" lon="2.63361">
        <ele>1579</ele>
        <time>2018-05-20T12:38:23.000Z</time>
      </trkpt>
      <trkpt lat="45.12214" lon="2.63359">
        <ele>1579.6</ele>
        <time>2018-05-20T12:38:25.000Z</time>
      </trkpt>
      <trkpt lat="45.12213" lon="2.63357">
        <ele>1580.2</ele>
        <time>2018-05-20T12:38:27.000Z</time>
      </trkpt>
      <trkpt lat="45.12213" lon="2.63354">
        <ele>1580.8</ele>
        <time>2018-05-20T12:38:30.000Z</time>
      </trkpt>
      <trkpt lat="45.12213" lon="2.63353">
        <ele>1581</ele>
        <time>2018-05-20T12:38:31.000Z</time>
      </trkpt>
      <trkpt lat="45.12214" lon="2.63352">
        <ele>1581.8</ele>
        <time>2018-05-20T12:38:34.000Z</time>
      </trkpt>
      <trkpt lat="45.12215" lon="2.63352">
        <ele>1582</ele>
        <time>2018-05-20T12:38:35.000Z</time>
      </trkpt>
      <trkpt lat="45.12216" lon="2.63349">
        <ele>1583.2</ele>
        <time>2018-05-20T12:38:40.000Z</time>
      </trkpt>
      <trkpt lat="45.1222" lon="2.63344">
        <ele>1585.6</ele>
        <time>2018-05-20T12:38:50.000Z</time>
      </trkpt>
      <trkpt lat="45.12221" lon="2.63343">
        <ele>1585.8</ele>
        <time>2018-05-20T12:38:51.000Z</time>
      </trkpt>
      <trkpt lat="45.12222" lon="2.63342">
        <ele>1586</ele>
        <time>2018-05-20T12:38:53.000Z</time>
      </trkpt>
      <trkpt lat="45.12223" lon="2.63339">
        <ele>1586.6</ele>
        <time>2018-05-20T12:38:56.000Z</time>
      </trkpt>
      <trkpt lat="45.12224" lon="2.63337">
        <ele>1587.6</ele>
        <time>2018-05-20T12:38:59.000Z</time>
      </trkpt>
      <trkpt lat="45.12227" lon="2.63336">
        <ele>1588.8</ele>
        <time>2018-05-20T12:39:03.000Z</time>
      </trkpt>
      <trkpt lat="45.12229" lon="2.63336">
        <ele>1589.4</ele>
        <time>2018-05-20T12:39:06.000Z</time>
      </trkpt>
      <trkpt lat="45.12229" lon="2.63335">
        <ele>1589.8</ele>
        <time>2018-05-20T12:39:07.000Z</time>
      </trkpt>
      <trkpt lat="45.12231" lon="2.63332">
        <ele>1590.4</ele>
        <time>2018-05-20T12:39:10.000Z</time>
      </trkpt>
      <trkpt lat="45.12231" lon="2.63331">
        <ele>1590.6</ele>
        <time>2018-05-20T12:39:11.000Z</time>
      </trkpt>
      <trkpt lat="45.12232" lon="2.6333">
        <ele>1590.8</ele>
        <time>2018-05-20T12:39:12.000Z</time>
      </trkpt>
      <trkpt lat="45.12234" lon="2.63331">
        <ele>1591.4</ele>
        <time>2018-05-20T12:39:14.000Z</time>
      </trkpt>
      <trkpt lat="45.12235" lon="2.6333">
        <ele>1591.8</ele>
        <time>2018-05-20T12:39:16.000Z</time>
      </trkpt>
      <trkpt lat="45.12236" lon="2.63327">
        <ele>1592.8</ele>
        <time>2018-05-20T12:39:20.000Z</time>
      </trkpt>
      <trkpt lat="45.12242" lon="2.63324">
        <ele>1595.4</ele>
        <time>2018-05-20T12:39:29.000Z</time>
      </trkpt>
      <trkpt lat="45.12243" lon="2.63314">
        <ele>1598</ele>
        <time>2018-05-20T12:39:38.000Z</time>
      </trkpt>
      <trkpt lat="45.12245" lon="2.63309">
        <ele>1599</ele>
        <time>2018-05-20T12:39:42.000Z</time>
      </trkpt>
      <trkpt lat="45.12246" lon="2.63307">
        <ele>1599.4</ele>
        <time>2018-05-20T12:39:44.000Z</time>
      </trkpt>
      <trkpt lat="45.12248" lon="2.63302">
        <ele>1600.2</ele>
        <time>2018-05-20T12:39:48.000Z</time>
      </trkpt>
      <trkpt lat="45.12247" lon="2.63289">
        <ele>1602.6</ele>
        <time>2018-05-20T12:39:57.000Z</time>
      </trkpt>
      <trkpt lat="45.12248" lon="2.63276">
        <ele>1603.6</ele>
        <time>2018-05-20T12:40:06.000Z</time>
      </trkpt>
      <trkpt lat="45.12248" lon="2.63272">
        <ele>1604.2</ele>
        <time>2018-05-20T12:40:09.000Z</time>
      </trkpt>
      <trkpt lat="45.12249" lon="2.6327">
        <ele>1604.4</ele>
        <time>2018-05-20T12:40:11.000Z</time>
      </trkpt>
      <trkpt lat="45.12249" lon="2.63266">
        <ele>1604.8</ele>
        <time>2018-05-20T12:40:15.000Z</time>
      </trkpt>
      <trkpt lat="45.12251" lon="2.63262">
        <ele>1605.2</ele>
        <time>2018-05-20T12:40:18.000Z</time>
      </trkpt>
      <trkpt lat="45.12251" lon="2.63261">
        <ele>1605.4</ele>
        <time>2018-05-20T12:40:19.000Z</time>
      </trkpt>
      <trkpt lat="45.12249" lon="2.63248">
        <ele>1607</ele>
        <time>2018-05-20T12:40:28.000Z</time>
      </trkpt>
      <trkpt lat="45.12251" lon="2.63243">
        <ele>1607.4</ele>
        <time>2018-05-20T12:40:33.000Z</time>
      </trkpt>
      <trkpt lat="45.12249" lon="2.63231">
        <ele>1609</ele>
        <time>2018-05-20T12:40:43.000Z</time>
      </trkpt>
      <trkpt lat="45.12247" lon="2.63221">
        <ele>1610.4</ele>
        <time>2018-05-20T12:40:50.000Z</time>
      </trkpt>
      <trkpt lat="45.12246" lon="2.63205">
        <ele>1611.8</ele>
        <time>2018-05-20T12:41:00.000Z</time>
      </trkpt>
      <trkpt lat="45.12247" lon="2.63202">
        <ele>1611.8</ele>
        <time>2018-05-20T12:41:02.000Z</time>
      </trkpt>
      <trkpt lat="45.12246" lon="2.63198">
        <ele>1612.2</ele>
        <time>2018-05-20T12:41:06.000Z</time>
      </trkpt>
      <trkpt lat="45.12244" lon="2.63192">
        <ele>1613.6</ele>
        <time>2018-05-20T12:41:12.000Z</time>
      </trkpt>
      <trkpt lat="45.12243" lon="2.6319">
        <ele>1613.8</ele>
        <time>2018-05-20T12:41:14.000Z</time>
      </trkpt>
      <trkpt lat="45.12245" lon="2.63178">
        <ele>1615.2</ele>
        <time>2018-05-20T12:41:24.000Z</time>
      </trkpt>
      <trkpt lat="45.12245" lon="2.63173">
        <ele>1616.2</ele>
        <time>2018-05-20T12:41:29.000Z</time>
      </trkpt>
      <trkpt lat="45.12246" lon="2.63171">
        <ele>1616.8</ele>
        <time>2018-05-20T12:41:32.000Z</time>
      </trkpt>
      <trkpt lat="45.12252" lon="2.63166">
        <ele>1619.2</ele>
        <time>2018-05-20T12:41:40.000Z</time>
      </trkpt>
      <trkpt lat="45.12255" lon="2.63168">
        <ele>1620.4</ele>
        <time>2018-05-20T12:41:43.000Z</time>
      </trkpt>
      <trkpt lat="45.12256" lon="2.63169">
        <ele>1620.4</ele>
        <time>2018-05-20T12:41:52.000Z</time>
      </trkpt>
      <trkpt lat="45.12256" lon="2.63168">
        <ele>1620</ele>
        <time>2018-05-20T12:42:01.000Z</time>
      </trkpt>
      <trkpt lat="45.12256" lon="2.63166">
        <ele>1619.4</ele>
        <time>2018-05-20T12:42:04.000Z</time>
      </trkpt>
      <trkpt lat="45.12257" lon="2.63166">
        <ele>1619.2</ele>
        <time>2018-05-20T12:42:28.000Z</time>
      </trkpt>
      <trkpt lat="45.12257" lon="2.63166">
        <ele>1620.2</ele>
        <time>2018-05-20T12:42:32.000Z</time>
      </trkpt>
      <trkpt lat="45.12257" lon="2.63167">
        <ele>1620.4</ele>
        <time>2018-05-20T12:42:34.000Z</time>
      </trkpt>
      <trkpt lat="45.12257" lon="2.63164">
        <ele>1619.6</ele>
        <time>2018-05-20T12:42:47.000Z</time>
      </trkpt>
      <trkpt lat="45.12258" lon="2.63164">
        <ele>1619.6</ele>
        <time>2018-05-20T12:42:49.000Z</time>
      </trkpt>
      <trkpt lat="45.12259" lon="2.63164">
        <ele>1619.6</ele>
        <time>2018-05-20T12:42:55.000Z</time>
      </trkpt>
      <trkpt lat="45.12259" lon="2.63164">
        <ele>1619.6</ele>
        <time>2018-05-20T12:42:56.000Z</time>
      </trkpt>
      <trkpt lat="45.12259" lon="2.63163">
        <ele>1619.6</ele>
        <time>2018-05-20T12:42:57.000Z</time>
      </trkpt>
      <trkpt lat="45.12259" lon="2.63163">
        <ele>1619.6</ele>
        <time>2018-05-20T12:42:58.000Z</time>
      </trkpt>
      <trkpt lat="45.12259" lon="2.63163">
        <ele>1619.6</ele>
        <time>2018-05-20T12:42:59.000Z</time>
      </trkpt>
      <trkpt lat="45.1226" lon="2.63161">
        <ele>1619.6</ele>
        <time>2018-05-20T12:43:01.000Z</time>
      </trkpt>
      <trkpt lat="45.12261" lon="2.6316">
        <ele>1619.6</ele>
        <time>2018-05-20T12:43:02.000Z</time>
      </trkpt>
      <trkpt lat="45.12263" lon="2.63159">
        <ele>1619.4</ele>
        <time>2018-05-20T12:43:04.000Z</time>
      </trkpt>
      <trkpt lat="45.12266" lon="2.63157">
        <ele>1619.6</ele>
        <time>2018-05-20T12:43:07.000Z</time>
      </trkpt>
      <trkpt lat="45.12277" lon="2.63156">
        <ele>1619</ele>
        <time>2018-05-20T12:43:13.000Z</time>
      </trkpt>
      <trkpt lat="45.12295" lon="2.63147">
        <ele>1619.2</ele>
        <time>2018-05-20T12:43:24.000Z</time>
      </trkpt>
      <trkpt lat="45.12302" lon="2.63143">
        <ele>1619.6</ele>
        <time>2018-05-20T12:43:28.000Z</time>
      </trkpt>
      <trkpt lat="45.12305" lon="2.63141">
        <ele>1620</ele>
        <time>2018-05-20T12:43:30.000Z</time>
      </trkpt>
      <trkpt lat="45.12309" lon="2.63137">
        <ele>1620.8</ele>
        <time>2018-05-20T12:43:33.000Z</time>
      </trkpt>
      <trkpt lat="45.12312" lon="2.63136">
        <ele>1621.4</ele>
        <time>2018-05-20T12:43:36.000Z</time>
      </trkpt>
      <trkpt lat="45.12313" lon="2.63137">
        <ele>1621.4</ele>
        <time>2018-05-20T12:43:37.000Z</time>
      </trkpt>
      <trkpt lat="45.12313" lon="2.63136">
        <ele>1621.6</ele>
        <time>2018-05-20T12:43:38.000Z</time>
      </trkpt>
      <trkpt lat="45.12315" lon="2.6313">
        <ele>1621.2</ele>
        <time>2018-05-20T12:43:42.000Z</time>
      </trkpt>
      <trkpt lat="45.12321" lon="2.63124">
        <ele>1620.6</ele>
        <time>2018-05-20T12:43:46.000Z</time>
      </trkpt>
      <trkpt lat="45.12324" lon="2.63121">
        <ele>1620.8</ele>
        <time>2018-05-20T12:43:48.000Z</time>
      </trkpt>
      <trkpt lat="45.12327" lon="2.63116">
        <ele>1621</ele>
        <time>2018-05-20T12:43:50.000Z</time>
      </trkpt>
      <trkpt lat="45.12329" lon="2.63113">
        <ele>1621</ele>
        <time>2018-05-20T12:43:51.000Z</time>
      </trkpt>
      <trkpt lat="45.12331" lon="2.63112">
        <ele>1621.2</ele>
        <time>2018-05-20T12:43:52.000Z</time>
      </trkpt>
      <trkpt lat="45.12332" lon="2.63109">
        <ele>1621.4</ele>
        <time>2018-05-20T12:43:53.000Z</time>
      </trkpt>
      <trkpt lat="45.12337" lon="2.63104">
        <ele>1621.8</ele>
        <time>2018-05-20T12:43:57.000Z</time>
      </trkpt>
      <trkpt lat="45.1234" lon="2.63103">
        <ele>1622.2</ele>
        <time>2018-05-20T12:43:59.000Z</time>
      </trkpt>
      <trkpt lat="45.12343" lon="2.63099">
        <ele>1623</ele>
        <time>2018-05-20T12:44:03.000Z</time>
      </trkpt>
      <trkpt lat="45.12344" lon="2.63099">
        <ele>1623.2</ele>
        <time>2018-05-20T12:44:04.000Z</time>
      </trkpt>
      <trkpt lat="45.12348" lon="2.63093">
        <ele>1623.6</ele>
        <time>2018-05-20T12:44:10.000Z</time>
      </trkpt>
      <trkpt lat="45.12355" lon="2.63084">
        <ele>1623.8</ele>
        <time>2018-05-20T12:44:18.000Z</time>
      </trkpt>
      <trkpt lat="45.12358" lon="2.63082">
        <ele>1624</ele>
        <time>2018-05-20T12:44:20.000Z</time>
      </trkpt>
      <trkpt lat="45.12363" lon="2.63075">
        <ele>1624.6</ele>
        <time>2018-05-20T12:44:25.000Z</time>
      </trkpt>
      <trkpt lat="45.12374" lon="2.63065">
        <ele>1623.8</ele>
        <time>2018-05-20T12:44:38.000Z</time>
      </trkpt>
      <trkpt lat="45.12379" lon="2.63068">
        <ele>1623.4</ele>
        <time>2018-05-20T12:44:43.000Z</time>
      </trkpt>
      <trkpt lat="45.12395" lon="2.63049">
        <ele>1622</ele>
        <time>2018-05-20T12:44:55.000Z</time>
      </trkpt>
      <trkpt lat="45.12405" lon="2.63032">
        <ele>1620.8</ele>
        <time>2018-05-20T12:45:04.000Z</time>
      </trkpt>
      <trkpt lat="45.1241" lon="2.63026">
        <ele>1620</ele>
        <time>2018-05-20T12:45:07.000Z</time>
      </trkpt>
      <trkpt lat="45.12413" lon="2.63021">
        <ele>1619.6</ele>
        <time>2018-05-20T12:45:09.000Z</time>
      </trkpt>
      <trkpt lat="45.12416" lon="2.63009">
        <ele>1619.6</ele>
        <time>2018-05-20T12:45:14.000Z</time>
      </trkpt>
      <trkpt lat="45.12417" lon="2.63007">
        <ele>1619.6</ele>
        <time>2018-05-20T12:45:15.000Z</time>
      </trkpt>
      <trkpt lat="45.12423" lon="2.62992">
        <ele>1621</ele>
        <time>2018-05-20T12:45:21.000Z</time>
      </trkpt>
      <trkpt lat="45.12424" lon="2.62989">
        <ele>1620.8</ele>
        <time>2018-05-20T12:45:22.000Z</time>
      </trkpt>
      <trkpt lat="45.12424" lon="2.62982">
        <ele>1620.6</ele>
        <time>2018-05-20T12:45:24.000Z</time>
      </trkpt>
      <trkpt lat="45.12426" lon="2.62974">
        <ele>1619.6</ele>
        <time>2018-05-20T12:45:27.000Z</time>
      </trkpt>
      <trkpt lat="45.12426" lon="2.62968">
        <ele>1618.8</ele>
        <time>2018-05-20T12:45:29.000Z</time>
      </trkpt>
      <trkpt lat="45.12428" lon="2.6296">
        <ele>1617.6</ele>
        <time>2018-05-20T12:45:32.000Z</time>
      </trkpt>
      <trkpt lat="45.12432" lon="2.62929">
        <ele>1613.8</ele>
        <time>2018-05-20T12:45:44.000Z</time>
      </trkpt>
      <trkpt lat="45.12435" lon="2.62918">
        <ele>1612.4</ele>
        <time>2018-05-20T12:45:49.000Z</time>
      </trkpt>
      <trkpt lat="45.12435" lon="2.62917">
        <ele>1612.2</ele>
        <time>2018-05-20T12:45:50.000Z</time>
      </trkpt>
      <trkpt lat="45.12435" lon="2.62916">
        <ele>1611.8</ele>
        <time>2018-05-20T12:45:52.000Z</time>
      </trkpt>
      <trkpt lat="45.12435" lon="2.62915">
        <ele>1611.4</ele>
        <time>2018-05-20T12:45:56.000Z</time>
      </trkpt>
      <trkpt lat="45.12434" lon="2.62915">
        <ele>1611.4</ele>
        <time>2018-05-20T12:45:58.000Z</time>
      </trkpt>
      <trkpt lat="45.12434" lon="2.62915">
        <ele>1611.2</ele>
        <time>2018-05-20T12:46:00.000Z</time>
      </trkpt>
      <trkpt lat="45.12434" lon="2.62915">
        <ele>1611</ele>
        <time>2018-05-20T12:46:02.000Z</time>
      </trkpt>
      <trkpt lat="45.12434" lon="2.62915">
        <ele>1611</ele>
        <time>2018-05-20T12:46:03.000Z</time>
      </trkpt>
      <trkpt lat="45.12434" lon="2.62916">
        <ele>1611</ele>
        <time>2018-05-20T12:46:05.000Z</time>
      </trkpt>
      <trkpt lat="45.12435" lon="2.62917">
        <ele>1611</ele>
        <time>2018-05-20T12:46:09.000Z</time>
      </trkpt>
      <trkpt lat="45.12435" lon="2.62916">
        <ele>1611</ele>
        <time>2018-05-20T12:46:11.000Z</time>
      </trkpt>
      <trkpt lat="45.12438" lon="2.6291">
        <ele>1610.4</ele>
        <time>2018-05-20T12:46:20.000Z</time>
      </trkpt>
      <trkpt lat="45.1244" lon="2.62908">
        <ele>1609.6</ele>
        <time>2018-05-20T12:46:23.000Z</time>
      </trkpt>
      <trkpt lat="45.12441" lon="2.62906">
        <ele>1609.4</ele>
        <time>2018-05-20T12:46:25.000Z</time>
      </trkpt>
      <trkpt lat="45.12442" lon="2.62887">
        <ele>1605.6</ele>
        <time>2018-05-20T12:46:37.000Z</time>
      </trkpt>
      <trkpt lat="45.12444" lon="2.62882">
        <ele>1604.6</ele>
        <time>2018-05-20T12:46:41.000Z</time>
      </trkpt>
      <trkpt lat="45.12446" lon="2.6288">
        <ele>1604.2</ele>
        <time>2018-05-20T12:46:44.000Z</time>
      </trkpt>
      <trkpt lat="45.12444" lon="2.62878">
        <ele>1603.4</ele>
        <time>2018-05-20T12:46:49.000Z</time>
      </trkpt>
      <trkpt lat="45.12445" lon="2.62879">
        <ele>1603.2</ele>
        <time>2018-05-20T12:46:52.000Z</time>
      </trkpt>
      <trkpt lat="45.12447" lon="2.62876">
        <ele>1602.4</ele>
        <time>2018-05-20T12:47:02.000Z</time>
      </trkpt>
      <trkpt lat="45.12447" lon="2.62868">
        <ele>1602.2</ele>
        <time>2018-05-20T12:47:07.000Z</time>
      </trkpt>
      <trkpt lat="45.12448" lon="2.62861">
        <ele>1602</ele>
        <time>2018-05-20T12:47:11.000Z</time>
      </trkpt>
      <trkpt lat="45.12454" lon="2.62848">
        <ele>1599.8</ele>
        <time>2018-05-20T12:47:20.000Z</time>
      </trkpt>
      <trkpt lat="45.12455" lon="2.62843">
        <ele>1598.8</ele>
        <time>2018-05-20T12:47:23.000Z</time>
      </trkpt>
      <trkpt lat="45.12459" lon="2.62839">
        <ele>1597.6</ele>
        <time>2018-05-20T12:47:26.000Z</time>
      </trkpt>
      <trkpt lat="45.12461" lon="2.62822">
        <ele>1597.2</ele>
        <time>2018-05-20T12:47:34.000Z</time>
      </trkpt>
      <trkpt lat="45.12464" lon="2.62813">
        <ele>1596.6</ele>
        <time>2018-05-20T12:47:38.000Z</time>
      </trkpt>
      <trkpt lat="45.12464" lon="2.62807">
        <ele>1596.2</ele>
        <time>2018-05-20T12:47:41.000Z</time>
      </trkpt>
      <trkpt lat="45.12466" lon="2.62798">
        <ele>1595.2</ele>
        <time>2018-05-20T12:47:45.000Z</time>
      </trkpt>
      <trkpt lat="45.12468" lon="2.62795">
        <ele>1594.2</ele>
        <time>2018-05-20T12:47:47.000Z</time>
      </trkpt>
      <trkpt lat="45.1247" lon="2.62781">
        <ele>1592.2</ele>
        <time>2018-05-20T12:47:54.000Z</time>
      </trkpt>
      <trkpt lat="45.12471" lon="2.6278">
        <ele>1591.8</ele>
        <time>2018-05-20T12:47:55.000Z</time>
      </trkpt>
      <trkpt lat="45.12472" lon="2.62751">
        <ele>1586.2</ele>
        <time>2018-05-20T12:48:10.000Z</time>
      </trkpt>
      <trkpt lat="45.12475" lon="2.6274">
        <ele>1584.4</ele>
        <time>2018-05-20T12:48:14.000Z</time>
      </trkpt>
      <trkpt lat="45.12475" lon="2.62731">
        <ele>1583.6</ele>
        <time>2018-05-20T12:48:18.000Z</time>
      </trkpt>
      <trkpt lat="45.12475" lon="2.62728">
        <ele>1583.2</ele>
        <time>2018-05-20T12:48:19.000Z</time>
      </trkpt>
      <trkpt lat="45.12475" lon="2.62725">
        <ele>1582.6</ele>
        <time>2018-05-20T12:48:20.000Z</time>
      </trkpt>
      <trkpt lat="45.12474" lon="2.62723">
        <ele>1582</ele>
        <time>2018-05-20T12:48:21.000Z</time>
      </trkpt>
      <trkpt lat="45.12474" lon="2.6272">
        <ele>1581.4</ele>
        <time>2018-05-20T12:48:22.000Z</time>
      </trkpt>
      <trkpt lat="45.12474" lon="2.62715">
        <ele>1580.4</ele>
        <time>2018-05-20T12:48:24.000Z</time>
      </trkpt>
      <trkpt lat="45.12475" lon="2.62712">
        <ele>1580.2</ele>
        <time>2018-05-20T12:48:25.000Z</time>
      </trkpt>
      <trkpt lat="45.12478" lon="2.6271">
        <ele>1579.8</ele>
        <time>2018-05-20T12:48:27.000Z</time>
      </trkpt>
      <trkpt lat="45.12481" lon="2.627">
        <ele>1581</ele>
        <time>2018-05-20T12:48:35.000Z</time>
      </trkpt>
      <trkpt lat="45.12482" lon="2.62683">
        <ele>1581.8</ele>
        <time>2018-05-20T12:48:44.000Z</time>
      </trkpt>
      <trkpt lat="45.12486" lon="2.62672">
        <ele>1583.4</ele>
        <time>2018-05-20T12:48:52.000Z</time>
      </trkpt>
      <trkpt lat="45.12493" lon="2.62676">
        <ele>1583.8</ele>
        <time>2018-05-20T12:48:54.000Z</time>
      </trkpt>
      <trkpt lat="45.12499" lon="2.62677">
        <ele>1584.8</ele>
        <time>2018-05-20T12:48:57.000Z</time>
      </trkpt>
      <trkpt lat="45.12503" lon="2.62673">
        <ele>1585</ele>
        <time>2018-05-20T12:48:59.000Z</time>
      </trkpt>
      <trkpt lat="45.12511" lon="2.6267">
        <ele>1583.6</ele>
        <time>2018-05-20T12:49:02.000Z</time>
      </trkpt>
      <trkpt lat="45.12513" lon="2.62666">
        <ele>1582.6</ele>
        <time>2018-05-20T12:49:05.000Z</time>
      </trkpt>
      <trkpt lat="45.12513" lon="2.62665">
        <ele>1582.6</ele>
        <time>2018-05-20T12:49:06.000Z</time>
      </trkpt>
      <trkpt lat="45.12515" lon="2.62664">
        <ele>1582.4</ele>
        <time>2018-05-20T12:49:08.000Z</time>
      </trkpt>
      <trkpt lat="45.12516" lon="2.62659">
        <ele>1581.6</ele>
        <time>2018-05-20T12:49:15.000Z</time>
      </trkpt>
      <trkpt lat="45.12511" lon="2.62654">
        <ele>1580.4</ele>
        <time>2018-05-20T12:49:19.000Z</time>
      </trkpt>
      <trkpt lat="45.1251" lon="2.62649">
        <ele>1580.2</ele>
        <time>2018-05-20T12:49:21.000Z</time>
      </trkpt>
      <trkpt lat="45.12512" lon="2.62631">
        <ele>1580.2</ele>
        <time>2018-05-20T12:49:29.000Z</time>
      </trkpt>
      <trkpt lat="45.12514" lon="2.62627">
        <ele>1580.8</ele>
        <time>2018-05-20T12:49:32.000Z</time>
      </trkpt>
      <trkpt lat="45.12514" lon="2.62624">
        <ele>1581.4</ele>
        <time>2018-05-20T12:49:34.000Z</time>
      </trkpt>
      <trkpt lat="45.12515" lon="2.62623">
        <ele>1581.8</ele>
        <time>2018-05-20T12:49:35.000Z</time>
      </trkpt>
      <trkpt lat="45.12515" lon="2.62617">
        <ele>1582.6</ele>
        <time>2018-05-20T12:49:39.000Z</time>
      </trkpt>
      <trkpt lat="45.12516" lon="2.62607">
        <ele>1583.4</ele>
        <time>2018-05-20T12:49:45.000Z</time>
      </trkpt>
      <trkpt lat="45.12516" lon="2.62604">
        <ele>1583.8</ele>
        <time>2018-05-20T12:49:49.000Z</time>
      </trkpt>
      <trkpt lat="45.12516" lon="2.62602">
        <ele>1584.2</ele>
        <time>2018-05-20T12:49:50.000Z</time>
      </trkpt>
      <trkpt lat="45.12517" lon="2.62598">
        <ele>1584.6</ele>
        <time>2018-05-20T12:49:53.000Z</time>
      </trkpt>
      <trkpt lat="45.12517" lon="2.62596">
        <ele>1584.8</ele>
        <time>2018-05-20T12:49:55.000Z</time>
      </trkpt>
      <trkpt lat="45.12517" lon="2.62586">
        <ele>1584.6</ele>
        <time>2018-05-20T12:50:02.000Z</time>
      </trkpt>
      <trkpt lat="45.12516" lon="2.62582">
        <ele>1584.4</ele>
        <time>2018-05-20T12:50:05.000Z</time>
      </trkpt>
      <trkpt lat="45.12513" lon="2.62579">
        <ele>1584</ele>
        <time>2018-05-20T12:50:07.000Z</time>
      </trkpt>
      <trkpt lat="45.12513" lon="2.62575">
        <ele>1583.8</ele>
        <time>2018-05-20T12:50:10.000Z</time>
      </trkpt>
      <trkpt lat="45.12513" lon="2.62574">
        <ele>1583.8</ele>
        <time>2018-05-20T12:50:11.000Z</time>
      </trkpt>
      <trkpt lat="45.12508" lon="2.62569">
        <ele>1584.4</ele>
        <time>2018-05-20T12:50:16.000Z</time>
      </trkpt>
      <trkpt lat="45.12508" lon="2.62567">
        <ele>1584.6</ele>
        <time>2018-05-20T12:50:17.000Z</time>
      </trkpt>
      <trkpt lat="45.12506" lon="2.62563">
        <ele>1585</ele>
        <time>2018-05-20T12:50:20.000Z</time>
      </trkpt>
      <trkpt lat="45.12507" lon="2.62556">
        <ele>1585.2</ele>
        <time>2018-05-20T12:50:26.000Z</time>
      </trkpt>
      <trkpt lat="45.12505" lon="2.62549">
        <ele>1586</ele>
        <time>2018-05-20T12:50:32.000Z</time>
      </trkpt>
      <trkpt lat="45.12504" lon="2.62541">
        <ele>1586.4</ele>
        <time>2018-05-20T12:50:37.000Z</time>
      </trkpt>
      <trkpt lat="45.12496" lon="2.6253">
        <ele>1588</ele>
        <time>2018-05-20T12:50:48.000Z</time>
      </trkpt>
      <trkpt lat="45.12496" lon="2.62529">
        <ele>1588.2</ele>
        <time>2018-05-20T12:50:49.000Z</time>
      </trkpt>
      <trkpt lat="45.12493" lon="2.62525">
        <ele>1588.8</ele>
        <time>2018-05-20T12:50:54.000Z</time>
      </trkpt>
      <trkpt lat="45.12493" lon="2.62525">
        <ele>1589</ele>
        <time>2018-05-20T12:50:55.000Z</time>
      </trkpt>
      <trkpt lat="45.12492" lon="2.62525">
        <ele>1589</ele>
        <time>2018-05-20T12:50:56.000Z</time>
      </trkpt>
      <trkpt lat="45.12491" lon="2.62524">
        <ele>1589.4</ele>
        <time>2018-05-20T12:50:58.000Z</time>
      </trkpt>
      <trkpt lat="45.12491" lon="2.62523">
        <ele>1589.6</ele>
        <time>2018-05-20T12:50:59.000Z</time>
      </trkpt>
      <trkpt lat="45.12491" lon="2.62522">
        <ele>1590.4</ele>
        <time>2018-05-20T12:51:01.000Z</time>
      </trkpt>
      <trkpt lat="45.1249" lon="2.62521">
        <ele>1590.8</ele>
        <time>2018-05-20T12:51:02.000Z</time>
      </trkpt>
      <trkpt lat="45.12489" lon="2.6252">
        <ele>1591.2</ele>
        <time>2018-05-20T12:51:03.000Z</time>
      </trkpt>
      <trkpt lat="45.12489" lon="2.62519">
        <ele>1592</ele>
        <time>2018-05-20T12:51:05.000Z</time>
      </trkpt>
      <trkpt lat="45.1249" lon="2.62516">
        <ele>1592.8</ele>
        <time>2018-05-20T12:51:08.000Z</time>
      </trkpt>
      <trkpt lat="45.1249" lon="2.62516">
        <ele>1593.2</ele>
        <time>2018-05-20T12:51:09.000Z</time>
      </trkpt>
      <trkpt lat="45.12487" lon="2.62512">
        <ele>1594.4</ele>
        <time>2018-05-20T12:51:14.000Z</time>
      </trkpt>
      <trkpt lat="45.12487" lon="2.6251">
        <ele>1594.8</ele>
        <time>2018-05-20T12:51:15.000Z</time>
      </trkpt>
      <trkpt lat="45.12485" lon="2.62504">
        <ele>1596.2</ele>
        <time>2018-05-20T12:51:21.000Z</time>
      </trkpt>
      <trkpt lat="45.12483" lon="2.62503">
        <ele>1596.6</ele>
        <time>2018-05-20T12:51:23.000Z</time>
      </trkpt>
      <trkpt lat="45.12479" lon="2.625">
        <ele>1597.6</ele>
        <time>2018-05-20T12:51:28.000Z</time>
      </trkpt>
      <trkpt lat="45.12478" lon="2.625">
        <ele>1597.8</ele>
        <time>2018-05-20T12:51:29.000Z</time>
      </trkpt>
      <trkpt lat="45.12478" lon="2.625">
        <ele>1598.4</ele>
        <time>2018-05-20T12:51:31.000Z</time>
      </trkpt>
      <trkpt lat="45.12478" lon="2.62498">
        <ele>1598.4</ele>
        <time>2018-05-20T12:51:32.000Z</time>
      </trkpt>
      <trkpt lat="45.12478" lon="2.62498">
        <ele>1598.6</ele>
        <time>2018-05-20T12:51:34.000Z</time>
      </trkpt>
      <trkpt lat="45.12476" lon="2.62497">
        <ele>1599.2</ele>
        <time>2018-05-20T12:51:37.000Z</time>
      </trkpt>
      <trkpt lat="45.12477" lon="2.62496">
        <ele>1600.2</ele>
        <time>2018-05-20T12:51:40.000Z</time>
      </trkpt>
      <trkpt lat="45.12477" lon="2.62496">
        <ele>1600.4</ele>
        <time>2018-05-20T12:51:41.000Z</time>
      </trkpt>
      <trkpt lat="45.12476" lon="2.62497">
        <ele>1600.4</ele>
        <time>2018-05-20T12:51:45.000Z</time>
      </trkpt>
      <trkpt lat="45.12473" lon="2.62496">
        <ele>1600</ele>
        <time>2018-05-20T12:51:55.000Z</time>
      </trkpt>
      <trkpt lat="45.12473" lon="2.62497">
        <ele>1599.8</ele>
        <time>2018-05-20T12:52:01.000Z</time>
      </trkpt>
      <trkpt lat="45.1247" lon="2.62491">
        <ele>1599.6</ele>
        <time>2018-05-20T12:52:13.000Z</time>
      </trkpt>
      <trkpt lat="45.1247" lon="2.62491">
        <ele>1599.6</ele>
        <time>2018-05-20T12:52:15.000Z</time>
      </trkpt>
      <trkpt lat="45.1247" lon="2.6249">
        <ele>1599.8</ele>
        <time>2018-05-20T12:52:17.000Z</time>
      </trkpt>
      <trkpt lat="45.1247" lon="2.6249">
        <ele>1599.4</ele>
        <time>2018-05-20T12:52:27.000Z</time>
      </trkpt>
      <trkpt lat="45.1247" lon="2.62491">
        <ele>1599.2</ele>
        <time>2018-05-20T12:52:31.000Z</time>
      </trkpt>
      <trkpt lat="45.12472" lon="2.62493">
        <ele>1599.8</ele>
        <time>2018-05-20T12:52:39.000Z</time>
      </trkpt>
      <trkpt lat="45.12472" lon="2.62493">
        <ele>1599.8</ele>
        <time>2018-05-20T12:52:42.000Z</time>
      </trkpt>
      <trkpt lat="45.1247" lon="2.62491">
        <ele>1599.4</ele>
        <time>2018-05-20T12:52:50.000Z</time>
      </trkpt>
      <trkpt lat="45.1247" lon="2.62491">
        <ele>1599.8</ele>
        <time>2018-05-20T12:52:54.000Z</time>
      </trkpt>
      <trkpt lat="45.1247" lon="2.62491">
        <ele>1599.8</ele>
        <time>2018-05-20T12:52:55.000Z</time>
      </trkpt>
      <trkpt lat="45.1247" lon="2.62491">
        <ele>1599.8</ele>
        <time>2018-05-20T12:52:56.000Z</time>
      </trkpt>
      <trkpt lat="45.12471" lon="2.62491">
        <ele>1599.8</ele>
        <time>2018-05-20T12:52:58.000Z</time>
      </trkpt>
      <trkpt lat="45.12472" lon="2.62492">
        <ele>1599.8</ele>
        <time>2018-05-20T12:52:59.000Z</time>
      </trkpt>
      <trkpt lat="45.12472" lon="2.6249">
        <ele>1599.8</ele>
        <time>2018-05-20T12:53:02.000Z</time>
      </trkpt>
      <trkpt lat="45.12472" lon="2.62488">
        <ele>1599.6</ele>
        <time>2018-05-20T12:53:06.000Z</time>
      </trkpt>
      <trkpt lat="45.12474" lon="2.62488">
        <ele>1599.6</ele>
        <time>2018-05-20T12:53:08.000Z</time>
      </trkpt>
      <trkpt lat="45.12475" lon="2.62489">
        <ele>1599.6</ele>
        <time>2018-05-20T12:53:09.000Z</time>
      </trkpt>
      <trkpt lat="45.12474" lon="2.6249">
        <ele>1600</ele>
        <time>2018-05-20T12:53:14.000Z</time>
      </trkpt>
      <trkpt lat="45.12478" lon="2.62493">
        <ele>1600.2</ele>
        <time>2018-05-20T12:53:17.000Z</time>
      </trkpt>
      <trkpt lat="45.12478" lon="2.62492">
        <ele>1600.4</ele>
        <time>2018-05-20T12:53:19.000Z</time>
      </trkpt>
      <trkpt lat="45.12477" lon="2.62492">
        <ele>1600.4</ele>
        <time>2018-05-20T12:53:26.000Z</time>
      </trkpt>
      <trkpt lat="45.1248" lon="2.62496">
        <ele>1601.2</ele>
        <time>2018-05-20T12:54:06.000Z</time>
      </trkpt>
      <trkpt lat="45.12481" lon="2.62496">
        <ele>1601.4</ele>
        <time>2018-05-20T12:54:07.000Z</time>
      </trkpt>
      <trkpt lat="45.12481" lon="2.62495">
        <ele>1601</ele>
        <time>2018-05-20T12:54:27.000Z</time>
      </trkpt>
      <trkpt lat="45.1248" lon="2.62496">
        <ele>1602</ele>
        <time>2018-05-20T12:54:53.000Z</time>
      </trkpt>
      <trkpt lat="45.12483" lon="2.62496">
        <ele>1602.4</ele>
        <time>2018-05-20T12:55:04.000Z</time>
      </trkpt>
      <trkpt lat="45.12484" lon="2.62496">
        <ele>1602.2</ele>
        <time>2018-05-20T12:55:12.000Z</time>
      </trkpt>
      <trkpt lat="45.12483" lon="2.62495">
        <ele>1601.4</ele>
        <time>2018-05-20T12:55:26.000Z</time>
      </trkpt>
      <trkpt lat="45.12476" lon="2.62496">
        <ele>1601.6</ele>
        <time>2018-05-20T12:55:35.000Z</time>
      </trkpt>
      <trkpt lat="45.12474" lon="2.62497">
        <ele>1601</ele>
        <time>2018-05-20T12:55:38.000Z</time>
      </trkpt>
      <trkpt lat="45.12474" lon="2.62495">
        <ele>1600.8</ele>
        <time>2018-05-20T12:55:40.000Z</time>
      </trkpt>
      <trkpt lat="45.12474" lon="2.62495">
        <ele>1600.6</ele>
        <time>2018-05-20T12:55:42.000Z</time>
      </trkpt>
      <trkpt lat="45.12475" lon="2.62495">
        <ele>1600.6</ele>
        <time>2018-05-20T12:55:43.000Z</time>
      </trkpt>
      <trkpt lat="45.12474" lon="2.62495">
        <ele>1600.6</ele>
        <time>2018-05-20T12:55:45.000Z</time>
      </trkpt>
      <trkpt lat="45.12474" lon="2.62495">
        <ele>1600.6</ele>
        <time>2018-05-20T12:55:47.000Z</time>
      </trkpt>
      <trkpt lat="45.12474" lon="2.62495">
        <ele>1600.4</ele>
        <time>2018-05-20T12:55:49.000Z</time>
      </trkpt>
      <trkpt lat="45.12473" lon="2.62495">
        <ele>1600.4</ele>
        <time>2018-05-20T12:55:50.000Z</time>
      </trkpt>
      <trkpt lat="45.12471" lon="2.62495">
        <ele>1600.2</ele>
        <time>2018-05-20T12:55:51.000Z</time>
      </trkpt>
      <trkpt lat="45.12468" lon="2.62492">
        <ele>1599</ele>
        <time>2018-05-20T12:55:54.000Z</time>
      </trkpt>
      <trkpt lat="45.12464" lon="2.62489">
        <ele>1597.8</ele>
        <time>2018-05-20T12:55:57.000Z</time>
      </trkpt>
      <trkpt lat="45.1246" lon="2.62483">
        <ele>1596.6</ele>
        <time>2018-05-20T12:56:00.000Z</time>
      </trkpt>
      <trkpt lat="45.12458" lon="2.6248">
        <ele>1596.2</ele>
        <time>2018-05-20T12:56:01.000Z</time>
      </trkpt>
      <trkpt lat="45.12451" lon="2.62469">
        <ele>1593.8</ele>
        <time>2018-05-20T12:56:06.000Z</time>
      </trkpt>
      <trkpt lat="45.12435" lon="2.62438">
        <ele>1592.2</ele>
        <time>2018-05-20T12:56:17.000Z</time>
      </trkpt>
      <trkpt lat="45.12433" lon="2.62434">
        <ele>1591.8</ele>
        <time>2018-05-20T12:56:18.000Z</time>
      </trkpt>
      <trkpt lat="45.12426" lon="2.62415">
        <ele>1591.6</ele>
        <time>2018-05-20T12:56:24.000Z</time>
      </trkpt>
      <trkpt lat="45.12422" lon="2.62403">
        <ele>1591.2</ele>
        <time>2018-05-20T12:56:29.000Z</time>
      </trkpt>
      <trkpt lat="45.12422" lon="2.62401">
        <ele>1591</ele>
        <time>2018-05-20T12:56:31.000Z</time>
      </trkpt>
      <trkpt lat="45.12421" lon="2.62396">
        <ele>1591</ele>
        <time>2018-05-20T12:56:34.000Z</time>
      </trkpt>
      <trkpt lat="45.1242" lon="2.62393">
        <ele>1591</ele>
        <time>2018-05-20T12:56:35.000Z</time>
      </trkpt>
      <trkpt lat="45.1242" lon="2.623">
        <ele>1592.4</ele>
        <time>2018-05-20T12:57:13.000Z</time>
      </trkpt>
      <trkpt lat="45.12422" lon="2.62294">
        <ele>1592.4</ele>
        <time>2018-05-20T12:57:23.000Z</time>
      </trkpt>
      <trkpt lat="45.12423" lon="2.62291">
        <ele>1592.8</ele>
        <time>2018-05-20T12:57:25.000Z</time>
      </trkpt>
      <trkpt lat="45.12421" lon="2.62279">
        <ele>1594</ele>
        <time>2018-05-20T12:57:31.000Z</time>
      </trkpt>
      <trkpt lat="45.12422" lon="2.62262">
        <ele>1594.2</ele>
        <time>2018-05-20T12:57:39.000Z</time>
      </trkpt>
      <trkpt lat="45.1243" lon="2.62235">
        <ele>1594</ele>
        <time>2018-05-20T12:57:56.000Z</time>
      </trkpt>
      <trkpt lat="45.12428" lon="2.62173">
        <ele>1594.2</ele>
        <time>2018-05-20T12:58:15.000Z</time>
      </trkpt>
      <trkpt lat="45.12438" lon="2.62137">
        <ele>1597.4</ele>
        <time>2018-05-20T12:58:27.000Z</time>
      </trkpt>
      <trkpt lat="45.12434" lon="2.62074">
        <ele>1597.6</ele>
        <time>2018-05-20T12:58:45.000Z</time>
      </trkpt>
      <trkpt lat="45.12436" lon="2.62047">
        <ele>1598.4</ele>
        <time>2018-05-20T12:58:55.000Z</time>
      </trkpt>
      <trkpt lat="45.12438" lon="2.62043">
        <ele>1598.2</ele>
        <time>2018-05-20T12:58:57.000Z</time>
      </trkpt>
      <trkpt lat="45.12441" lon="2.62021">
        <ele>1597.4</ele>
        <time>2018-05-20T12:59:10.000Z</time>
      </trkpt>
      <trkpt lat="45.12441" lon="2.62015">
        <ele>1598.4</ele>
        <time>2018-05-20T12:59:15.000Z</time>
      </trkpt>
      <trkpt lat="45.12437" lon="2.61983">
        <ele>1601.6</ele>
        <time>2018-05-20T12:59:36.000Z</time>
      </trkpt>
      <trkpt lat="45.12438" lon="2.61979">
        <ele>1602</ele>
        <time>2018-05-20T12:59:40.000Z</time>
      </trkpt>
      <trkpt lat="45.12441" lon="2.61976">
        <ele>1602.8</ele>
        <time>2018-05-20T12:59:44.000Z</time>
      </trkpt>
      <trkpt lat="45.12441" lon="2.61971">
        <ele>1603.8</ele>
        <time>2018-05-20T12:59:48.000Z</time>
      </trkpt>
      <trkpt lat="45.12441" lon="2.61964">
        <ele>1604.6</ele>
        <time>2018-05-20T12:59:54.000Z</time>
      </trkpt>
      <trkpt lat="45.12442" lon="2.61962">
        <ele>1604.6</ele>
        <time>2018-05-20T12:59:56.000Z</time>
      </trkpt>
      <trkpt lat="45.12441" lon="2.6196">
        <ele>1604.8</ele>
        <time>2018-05-20T12:59:59.000Z</time>
      </trkpt>
      <trkpt lat="45.12443" lon="2.61934">
        <ele>1605.8</ele>
        <time>2018-05-20T13:00:15.000Z</time>
      </trkpt>
      <trkpt lat="45.12445" lon="2.61926">
        <ele>1606.2</ele>
        <time>2018-05-20T13:00:20.000Z</time>
      </trkpt>
      <trkpt lat="45.12446" lon="2.61914">
        <ele>1607</ele>
        <time>2018-05-20T13:00:27.000Z</time>
      </trkpt>
      <trkpt lat="45.12446" lon="2.61913">
        <ele>1607</ele>
        <time>2018-05-20T13:00:28.000Z</time>
      </trkpt>
      <trkpt lat="45.12445" lon="2.61898">
        <ele>1607.8</ele>
        <time>2018-05-20T13:00:42.000Z</time>
      </trkpt>
      <trkpt lat="45.12445" lon="2.61896">
        <ele>1608</ele>
        <time>2018-05-20T13:00:43.000Z</time>
      </trkpt>
      <trkpt lat="45.12444" lon="2.61894">
        <ele>1608.2</ele>
        <time>2018-05-20T13:00:44.000Z</time>
      </trkpt>
      <trkpt lat="45.12447" lon="2.6189">
        <ele>1609.2</ele>
        <time>2018-05-20T13:00:49.000Z</time>
      </trkpt>
      <trkpt lat="45.12448" lon="2.61888">
        <ele>1609.6</ele>
        <time>2018-05-20T13:00:52.000Z</time>
      </trkpt>
      <trkpt lat="45.12449" lon="2.61887">
        <ele>1610</ele>
        <time>2018-05-20T13:01:08.000Z</time>
      </trkpt>
      <trkpt lat="45.12449" lon="2.61887">
        <ele>1609.6</ele>
        <time>2018-05-20T13:01:12.000Z</time>
      </trkpt>
      <trkpt lat="45.1245" lon="2.61887">
        <ele>1609.6</ele>
        <time>2018-05-20T13:01:18.000Z</time>
      </trkpt>
      <trkpt lat="45.1245" lon="2.61888">
        <ele>1610</ele>
        <time>2018-05-20T13:01:24.000Z</time>
      </trkpt>
      <trkpt lat="45.12446" lon="2.61881">
        <ele>1610.2</ele>
        <time>2018-05-20T13:01:34.000Z</time>
      </trkpt>
      <trkpt lat="45.12444" lon="2.6187">
        <ele>1612</ele>
        <time>2018-05-20T13:01:42.000Z</time>
      </trkpt>
      <trkpt lat="45.12442" lon="2.61868">
        <ele>1612.4</ele>
        <time>2018-05-20T13:01:44.000Z</time>
      </trkpt>
      <trkpt lat="45.12442" lon="2.61866">
        <ele>1612.8</ele>
        <time>2018-05-20T13:01:46.000Z</time>
      </trkpt>
      <trkpt lat="45.12441" lon="2.61865">
        <ele>1613.4</ele>
        <time>2018-05-20T13:01:48.000Z</time>
      </trkpt>
      <trkpt lat="45.12439" lon="2.6186">
        <ele>1614.6</ele>
        <time>2018-05-20T13:01:52.000Z</time>
      </trkpt>
      <trkpt lat="45.12432" lon="2.61846">
        <ele>1618</ele>
        <time>2018-05-20T13:02:03.000Z</time>
      </trkpt>
      <trkpt lat="45.1243" lon="2.61838">
        <ele>1619</ele>
        <time>2018-05-20T13:02:08.000Z</time>
      </trkpt>
      <trkpt lat="45.1243" lon="2.61832">
        <ele>1620</ele>
        <time>2018-05-20T13:02:12.000Z</time>
      </trkpt>
      <trkpt lat="45.1243" lon="2.6181">
        <ele>1620</ele>
        <time>2018-05-20T13:02:23.000Z</time>
      </trkpt>
      <trkpt lat="45.12431" lon="2.61805">
        <ele>1619.8</ele>
        <time>2018-05-20T13:02:26.000Z</time>
      </trkpt>
      <trkpt lat="45.12433" lon="2.61804">
        <ele>1620</ele>
        <time>2018-05-20T13:02:28.000Z</time>
      </trkpt>
      <trkpt lat="45.12433" lon="2.61793">
        <ele>1620.2</ele>
        <time>2018-05-20T13:02:34.000Z</time>
      </trkpt>
      <trkpt lat="45.12463" lon="2.61664">
        <ele>1615.8</ele>
        <time>2018-05-20T13:03:12.000Z</time>
      </trkpt>
      <trkpt lat="45.12464" lon="2.61654">
        <ele>1615.6</ele>
        <time>2018-05-20T13:03:15.000Z</time>
      </trkpt>
      <trkpt lat="45.12464" lon="2.61648">
        <ele>1615</ele>
        <time>2018-05-20T13:03:17.000Z</time>
      </trkpt>
      <trkpt lat="45.12463" lon="2.61645">
        <ele>1614.6</ele>
        <time>2018-05-20T13:03:18.000Z</time>
      </trkpt>
      <trkpt lat="45.12459" lon="2.6163">
        <ele>1614</ele>
        <time>2018-05-20T13:03:23.000Z</time>
      </trkpt>
      <trkpt lat="45.12448" lon="2.61612">
        <ele>1614.6</ele>
        <time>2018-05-20T13:03:31.000Z</time>
      </trkpt>
      <trkpt lat="45.12445" lon="2.61601">
        <ele>1615.2</ele>
        <time>2018-05-20T13:03:35.000Z</time>
      </trkpt>
      <trkpt lat="45.12441" lon="2.61593">
        <ele>1615.2</ele>
        <time>2018-05-20T13:03:38.000Z</time>
      </trkpt>
      <trkpt lat="45.1244" lon="2.61591">
        <ele>1615.4</ele>
        <time>2018-05-20T13:03:39.000Z</time>
      </trkpt>
      <trkpt lat="45.12439" lon="2.61585">
        <ele>1615.8</ele>
        <time>2018-05-20T13:03:41.000Z</time>
      </trkpt>
      <trkpt lat="45.12438" lon="2.61582">
        <ele>1615.8</ele>
        <time>2018-05-20T13:03:42.000Z</time>
      </trkpt>
      <trkpt lat="45.12435" lon="2.61578">
        <ele>1616</ele>
        <time>2018-05-20T13:03:44.000Z</time>
      </trkpt>
      <trkpt lat="45.12431" lon="2.61569">
        <ele>1616.4</ele>
        <time>2018-05-20T13:03:47.000Z</time>
      </trkpt>
      <trkpt lat="45.12426" lon="2.61553">
        <ele>1616.8</ele>
        <time>2018-05-20T13:03:52.000Z</time>
      </trkpt>
      <trkpt lat="45.12421" lon="2.61541">
        <ele>1617.4</ele>
        <time>2018-05-20T13:03:56.000Z</time>
      </trkpt>
      <trkpt lat="45.12416" lon="2.61533">
        <ele>1617.8</ele>
        <time>2018-05-20T13:03:59.000Z</time>
      </trkpt>
      <trkpt lat="45.12416" lon="2.6153">
        <ele>1617.6</ele>
        <time>2018-05-20T13:04:00.000Z</time>
      </trkpt>
      <trkpt lat="45.1237" lon="2.61433">
        <ele>1613.8</ele>
        <time>2018-05-20T13:04:34.000Z</time>
      </trkpt>
      <trkpt lat="45.12364" lon="2.61421">
        <ele>1612.8</ele>
        <time>2018-05-20T13:04:38.000Z</time>
      </trkpt>
      <trkpt lat="45.12357" lon="2.61396">
        <ele>1612.4</ele>
        <time>2018-05-20T13:04:45.000Z</time>
      </trkpt>
      <trkpt lat="45.12363" lon="2.61167">
        <ele>1601.2</ele>
        <time>2018-05-20T13:05:38.000Z</time>
      </trkpt>
      <trkpt lat="45.12365" lon="2.61155">
        <ele>1600</ele>
        <time>2018-05-20T13:05:41.000Z</time>
      </trkpt>
      <trkpt lat="45.12365" lon="2.61125">
        <ele>1597.4</ele>
        <time>2018-05-20T13:05:48.000Z</time>
      </trkpt>
      <trkpt lat="45.1237" lon="2.61036">
        <ele>1595</ele>
        <time>2018-05-20T13:06:14.000Z</time>
      </trkpt>
      <trkpt lat="45.12368" lon="2.61014">
        <ele>1592.6</ele>
        <time>2018-05-20T13:06:21.000Z</time>
      </trkpt>
      <trkpt lat="45.12366" lon="2.60959">
        <ele>1588.2</ele>
        <time>2018-05-20T13:06:39.000Z</time>
      </trkpt>
      <trkpt lat="45.12362" lon="2.60939">
        <ele>1586.2</ele>
        <time>2018-05-20T13:06:44.000Z</time>
      </trkpt>
      <trkpt lat="45.1235" lon="2.60811">
        <ele>1573.8</ele>
        <time>2018-05-20T13:07:13.000Z</time>
      </trkpt>
      <trkpt lat="45.12344" lon="2.60797">
        <ele>1572.6</ele>
        <time>2018-05-20T13:07:17.000Z</time>
      </trkpt>
      <trkpt lat="45.12337" lon="2.60776">
        <ele>1570</ele>
        <time>2018-05-20T13:07:22.000Z</time>
      </trkpt>
      <trkpt lat="45.12315" lon="2.60728">
        <ele>1565.4</ele>
        <time>2018-05-20T13:07:37.000Z</time>
      </trkpt>
      <trkpt lat="45.12313" lon="2.60713">
        <ele>1564.4</ele>
        <time>2018-05-20T13:07:41.000Z</time>
      </trkpt>
      <trkpt lat="45.12311" lon="2.60585">
        <ele>1551.2</ele>
        <time>2018-05-20T13:08:11.000Z</time>
      </trkpt>
      <trkpt lat="45.12318" lon="2.60541">
        <ele>1546.4</ele>
        <time>2018-05-20T13:08:21.000Z</time>
      </trkpt>
      <trkpt lat="45.12322" lon="2.60494">
        <ele>1539</ele>
        <time>2018-05-20T13:08:35.000Z</time>
      </trkpt>
      <trkpt lat="45.12321" lon="2.60477">
        <ele>1535.6</ele>
        <time>2018-05-20T13:08:41.000Z</time>
      </trkpt>
      <trkpt lat="45.12322" lon="2.60466">
        <ele>1534.4</ele>
        <time>2018-05-20T13:08:44.000Z</time>
      </trkpt>
      <trkpt lat="45.12332" lon="2.60436">
        <ele>1532.4</ele>
        <time>2018-05-20T13:08:53.000Z</time>
      </trkpt>
      <trkpt lat="45.12349" lon="2.60375">
        <ele>1529.4</ele>
        <time>2018-05-20T13:09:09.000Z</time>
      </trkpt>
      <trkpt lat="45.12365" lon="2.60342">
        <ele>1530.2</ele>
        <time>2018-05-20T13:09:20.000Z</time>
      </trkpt>
      <trkpt lat="45.1242" lon="2.60262">
        <ele>1531.2</ele>
        <time>2018-05-20T13:09:50.000Z</time>
      </trkpt>
      <trkpt lat="45.12423" lon="2.60254">
        <ele>1532.2</ele>
        <time>2018-05-20T13:09:53.000Z</time>
      </trkpt>
      <trkpt lat="45.12426" lon="2.60231">
        <ele>1532.6</ele>
        <time>2018-05-20T13:10:04.000Z</time>
      </trkpt>
      <trkpt lat="45.12424" lon="2.60207">
        <ele>1532.4</ele>
        <time>2018-05-20T13:10:18.000Z</time>
      </trkpt>
      <trkpt lat="45.12429" lon="2.60179">
        <ele>1532.6</ele>
        <time>2018-05-20T13:10:33.000Z</time>
      </trkpt>
      <trkpt lat="45.12438" lon="2.60149">
        <ele>1533.2</ele>
        <time>2018-05-20T13:10:49.000Z</time>
      </trkpt>
      <trkpt lat="45.12442" lon="2.6014">
        <ele>1534</ele>
        <time>2018-05-20T13:10:55.000Z</time>
      </trkpt>
      <trkpt lat="45.1245" lon="2.60129">
        <ele>1535.2</ele>
        <time>2018-05-20T13:11:04.000Z</time>
      </trkpt>
      <trkpt lat="45.12451" lon="2.60128">
        <ele>1535.4</ele>
        <time>2018-05-20T13:11:05.000Z</time>
      </trkpt>
      <trkpt lat="45.12459" lon="2.60112">
        <ele>1536.2</ele>
        <time>2018-05-20T13:11:17.000Z</time>
      </trkpt>
      <trkpt lat="45.12458" lon="2.60111">
        <ele>1535.4</ele>
        <time>2018-05-20T13:11:46.000Z</time>
      </trkpt>
      <trkpt lat="45.12456" lon="2.60107">
        <ele>1535.4</ele>
        <time>2018-05-20T13:11:53.000Z</time>
      </trkpt>
      <trkpt lat="45.12457" lon="2.60105">
        <ele>1535.8</ele>
        <time>2018-05-20T13:12:00.000Z</time>
      </trkpt>
      <trkpt lat="45.12458" lon="2.60105">
        <ele>1535.6</ele>
        <time>2018-05-20T13:12:07.000Z</time>
      </trkpt>
      <trkpt lat="45.12458" lon="2.60105">
        <ele>1535.2</ele>
        <time>2018-05-20T13:12:14.000Z</time>
      </trkpt>
      <trkpt lat="45.12457" lon="2.60103">
        <ele>1534.8</ele>
        <time>2018-05-20T13:12:18.000Z</time>
      </trkpt>
      <trkpt lat="45.12457" lon="2.60098">
        <ele>1534.4</ele>
        <time>2018-05-20T13:12:27.000Z</time>
      </trkpt>
      <trkpt lat="45.12454" lon="2.60097">
        <ele>1535.2</ele>
        <time>2018-05-20T13:12:38.000Z</time>
      </trkpt>
      <trkpt lat="45.12454" lon="2.60097">
        <ele>1535</ele>
        <time>2018-05-20T13:12:45.000Z</time>
      </trkpt>
      <trkpt lat="45.12458" lon="2.60099">
        <ele>1534.6</ele>
        <time>2018-05-20T13:12:56.000Z</time>
      </trkpt>
      <trkpt lat="45.12462" lon="2.60092">
        <ele>1534.6</ele>
        <time>2018-05-20T13:13:13.000Z</time>
      </trkpt>
      <trkpt lat="45.1246" lon="2.60087">
        <ele>1535</ele>
        <time>2018-05-20T13:13:19.000Z</time>
      </trkpt>
      <trkpt lat="45.12462" lon="2.6008">
        <ele>1535</ele>
        <time>2018-05-20T13:13:27.000Z</time>
      </trkpt>
      <trkpt lat="45.12463" lon="2.60069">
        <ele>1535</ele>
        <time>2018-05-20T13:13:34.000Z</time>
      </trkpt>
      <trkpt lat="45.12466" lon="2.6005">
        <ele>1535</ele>
        <time>2018-05-20T13:13:42.000Z</time>
      </trkpt>
      <trkpt lat="45.12469" lon="2.60033">
        <ele>1535.6</ele>
        <time>2018-05-20T13:13:46.000Z</time>
      </trkpt>
      <trkpt lat="45.12471" lon="2.60023">
        <ele>1536</ele>
        <time>2018-05-20T13:13:49.000Z</time>
      </trkpt>
      <trkpt lat="45.12473" lon="2.6001">
        <ele>1537.2</ele>
        <time>2018-05-20T13:13:53.000Z</time>
      </trkpt>
      <trkpt lat="45.12474" lon="2.60007">
        <ele>1537.8</ele>
        <time>2018-05-20T13:13:55.000Z</time>
      </trkpt>
      <trkpt lat="45.12474" lon="2.60003">
        <ele>1538</ele>
        <time>2018-05-20T13:13:59.000Z</time>
      </trkpt>
      <trkpt lat="45.12474" lon="2.60002">
        <ele>1538</ele>
        <time>2018-05-20T13:14:00.000Z</time>
      </trkpt>
      <trkpt lat="45.12476" lon="2.59989">
        <ele>1538.6</ele>
        <time>2018-05-20T13:14:08.000Z</time>
      </trkpt>
      <trkpt lat="45.12477" lon="2.59988">
        <ele>1538.8</ele>
        <time>2018-05-20T13:14:09.000Z</time>
      </trkpt>
      <trkpt lat="45.12477" lon="2.59988">
        <ele>1538.8</ele>
        <time>2018-05-20T13:14:10.000Z</time>
      </trkpt>
      <trkpt lat="45.12477" lon="2.59988">
        <ele>1539.2</ele>
        <time>2018-05-20T13:14:12.000Z</time>
      </trkpt>
      <trkpt lat="45.12478" lon="2.59978">
        <ele>1540</ele>
        <time>2018-05-20T13:14:18.000Z</time>
      </trkpt>
      <trkpt lat="45.12482" lon="2.59958">
        <ele>1540.2</ele>
        <time>2018-05-20T13:14:30.000Z</time>
      </trkpt>
      <trkpt lat="45.12481" lon="2.59922">
        <ele>1541</ele>
        <time>2018-05-20T13:14:51.000Z</time>
      </trkpt>
      <trkpt lat="45.12481" lon="2.59916">
        <ele>1541.2</ele>
        <time>2018-05-20T13:14:54.000Z</time>
      </trkpt>
      <trkpt lat="45.12482" lon="2.59814">
        <ele>1541.4</ele>
        <time>2018-05-20T13:15:40.000Z</time>
      </trkpt>
      <trkpt lat="45.12478" lon="2.59766">
        <ele>1540</ele>
        <time>2018-05-20T13:15:54.000Z</time>
      </trkpt>
      <trkpt lat="45.12477" lon="2.59755">
        <ele>1539.8</ele>
        <time>2018-05-20T13:15:57.000Z</time>
      </trkpt>
      <trkpt lat="45.12476" lon="2.59753">
        <ele>1539.6</ele>
        <time>2018-05-20T13:15:58.000Z</time>
      </trkpt>
      <trkpt lat="45.12476" lon="2.59743">
        <ele>1538.8</ele>
        <time>2018-05-20T13:16:01.000Z</time>
      </trkpt>
      <trkpt lat="45.12475" lon="2.5974">
        <ele>1538.6</ele>
        <time>2018-05-20T13:16:02.000Z</time>
      </trkpt>
      <trkpt lat="45.12476" lon="2.59734">
        <ele>1538.2</ele>
        <time>2018-05-20T13:16:04.000Z</time>
      </trkpt>
      <trkpt lat="45.12476" lon="2.59731">
        <ele>1538.2</ele>
        <time>2018-05-20T13:16:05.000Z</time>
      </trkpt>
      <trkpt lat="45.12472" lon="2.59706">
        <ele>1537</ele>
        <time>2018-05-20T13:16:11.000Z</time>
      </trkpt>
      <trkpt lat="45.12471" lon="2.59695">
        <ele>1536.2</ele>
        <time>2018-05-20T13:16:14.000Z</time>
      </trkpt>
      <trkpt lat="45.12469" lon="2.59633">
        <ele>1533.4</ele>
        <time>2018-05-20T13:16:31.000Z</time>
      </trkpt>
      <trkpt lat="45.12453" lon="2.59517">
        <ele>1526.6</ele>
        <time>2018-05-20T13:17:02.000Z</time>
      </trkpt>
      <trkpt lat="45.12448" lon="2.59496">
        <ele>1525.6</ele>
        <time>2018-05-20T13:17:08.000Z</time>
      </trkpt>
      <trkpt lat="45.12442" lon="2.59437">
        <ele>1522.2</ele>
        <time>2018-05-20T13:17:23.000Z</time>
      </trkpt>
      <trkpt lat="45.12443" lon="2.59421">
        <ele>1521</ele>
        <time>2018-05-20T13:17:27.000Z</time>
      </trkpt>
      <trkpt lat="45.12454" lon="2.59401">
        <ele>1520.4</ele>
        <time>2018-05-20T13:17:34.000Z</time>
      </trkpt>
      <trkpt lat="45.12466" lon="2.59401">
        <ele>1521.6</ele>
        <time>2018-05-20T13:17:42.000Z</time>
      </trkpt>
      <trkpt lat="45.12473" lon="2.59402">
        <ele>1523.6</ele>
        <time>2018-05-20T13:17:49.000Z</time>
      </trkpt>
      <trkpt lat="45.12476" lon="2.59401">
        <ele>1524.4</ele>
        <time>2018-05-20T13:17:53.000Z</time>
      </trkpt>
      <trkpt lat="45.12479" lon="2.594">
        <ele>1525.6</ele>
        <time>2018-05-20T13:17:57.000Z</time>
      </trkpt>
      <trkpt lat="45.12486" lon="2.59399">
        <ele>1526.6</ele>
        <time>2018-05-20T13:18:02.000Z</time>
      </trkpt>
      <trkpt lat="45.12492" lon="2.59397">
        <ele>1527.4</ele>
        <time>2018-05-20T13:18:06.000Z</time>
      </trkpt>
      <trkpt lat="45.12495" lon="2.59394">
        <ele>1527.6</ele>
        <time>2018-05-20T13:18:09.000Z</time>
      </trkpt>
      <trkpt lat="45.12505" lon="2.59389">
        <ele>1528.2</ele>
        <time>2018-05-20T13:18:16.000Z</time>
      </trkpt>
      <trkpt lat="45.12508" lon="2.59386">
        <ele>1528.4</ele>
        <time>2018-05-20T13:18:18.000Z</time>
      </trkpt>
      <trkpt lat="45.12513" lon="2.59384">
        <ele>1528.4</ele>
        <time>2018-05-20T13:18:20.000Z</time>
      </trkpt>
      <trkpt lat="45.12525" lon="2.59376">
        <ele>1528</ele>
        <time>2018-05-20T13:18:25.000Z</time>
      </trkpt>
      <trkpt lat="45.12542" lon="2.5936">
        <ele>1527.2</ele>
        <time>2018-05-20T13:18:33.000Z</time>
      </trkpt>
      <trkpt lat="45.12549" lon="2.59349">
        <ele>1527</ele>
        <time>2018-05-20T13:18:37.000Z</time>
      </trkpt>
      <trkpt lat="45.12551" lon="2.59345">
        <ele>1526.8</ele>
        <time>2018-05-20T13:18:38.000Z</time>
      </trkpt>
      <trkpt lat="45.12558" lon="2.59336">
        <ele>1526.4</ele>
        <time>2018-05-20T13:18:42.000Z</time>
      </trkpt>
      <trkpt lat="45.12586" lon="2.59316">
        <ele>1525.8</ele>
        <time>2018-05-20T13:18:55.000Z</time>
      </trkpt>
      <trkpt lat="45.126" lon="2.59303">
        <ele>1525.2</ele>
        <time>2018-05-20T13:19:02.000Z</time>
      </trkpt>
      <trkpt lat="45.12603" lon="2.59302">
        <ele>1525.2</ele>
        <time>2018-05-20T13:19:03.000Z</time>
      </trkpt>
      <trkpt lat="45.12605" lon="2.59301">
        <ele>1525.4</ele>
        <time>2018-05-20T13:19:04.000Z</time>
      </trkpt>
      <trkpt lat="45.12608" lon="2.59298">
        <ele>1525.4</ele>
        <time>2018-05-20T13:19:06.000Z</time>
      </trkpt>
      <trkpt lat="45.12615" lon="2.59294">
        <ele>1525.2</ele>
        <time>2018-05-20T13:19:09.000Z</time>
      </trkpt>
      <trkpt lat="45.12628" lon="2.59288">
        <ele>1525.2</ele>
        <time>2018-05-20T13:19:15.000Z</time>
      </trkpt>
      <trkpt lat="45.12631" lon="2.59286">
        <ele>1525.2</ele>
        <time>2018-05-20T13:19:16.000Z</time>
      </trkpt>
      <trkpt lat="45.12646" lon="2.5927">
        <ele>1525.2</ele>
        <time>2018-05-20T13:19:24.000Z</time>
      </trkpt>
      <trkpt lat="45.12706" lon="2.59253">
        <ele>1523.8</ele>
        <time>2018-05-20T13:19:49.000Z</time>
      </trkpt>
      <trkpt lat="45.12725" lon="2.59246">
        <ele>1525</ele>
        <time>2018-05-20T13:19:58.000Z</time>
      </trkpt>
      <trkpt lat="45.12745" lon="2.59244">
        <ele>1527</ele>
        <time>2018-05-20T13:20:14.000Z</time>
      </trkpt>
      <trkpt lat="45.12746" lon="2.59243">
        <ele>1527.2</ele>
        <time>2018-05-20T13:20:15.000Z</time>
      </trkpt>
      <trkpt lat="45.12753" lon="2.59242">
        <ele>1528.2</ele>
        <time>2018-05-20T13:20:20.000Z</time>
      </trkpt>
      <trkpt lat="45.12762" lon="2.59242">
        <ele>1529.2</ele>
        <time>2018-05-20T13:20:26.000Z</time>
      </trkpt>
      <trkpt lat="45.12766" lon="2.59241">
        <ele>1529.8</ele>
        <time>2018-05-20T13:20:29.000Z</time>
      </trkpt>
      <trkpt lat="45.12773" lon="2.59238">
        <ele>1530.2</ele>
        <time>2018-05-20T13:20:35.000Z</time>
      </trkpt>
      <trkpt lat="45.12782" lon="2.59232">
        <ele>1531.4</ele>
        <time>2018-05-20T13:20:43.000Z</time>
      </trkpt>
      <trkpt lat="45.12797" lon="2.59225">
        <ele>1533.4</ele>
        <time>2018-05-20T13:20:57.000Z</time>
      </trkpt>
      <trkpt lat="45.12804" lon="2.59223">
        <ele>1534</ele>
        <time>2018-05-20T13:21:03.000Z</time>
      </trkpt>
      <trkpt lat="45.12813" lon="2.59221">
        <ele>1535</ele>
        <time>2018-05-20T13:21:10.000Z</time>
      </trkpt>
      <trkpt lat="45.12815" lon="2.59221">
        <ele>1535.2</ele>
        <time>2018-05-20T13:21:11.000Z</time>
      </trkpt>
      <trkpt lat="45.12816" lon="2.5922">
        <ele>1535.4</ele>
        <time>2018-05-20T13:21:12.000Z</time>
      </trkpt>
      <trkpt lat="45.12817" lon="2.59219">
        <ele>1535.6</ele>
        <time>2018-05-20T13:21:13.000Z</time>
      </trkpt>
      <trkpt lat="45.1282" lon="2.59216">
        <ele>1536</ele>
        <time>2018-05-20T13:21:16.000Z</time>
      </trkpt>
      <trkpt lat="45.12822" lon="2.59216">
        <ele>1536.2</ele>
        <time>2018-05-20T13:21:17.000Z</time>
      </trkpt>
      <trkpt lat="45.12823" lon="2.59215">
        <ele>1536.2</ele>
        <time>2018-05-20T13:21:18.000Z</time>
      </trkpt>
      <trkpt lat="45.12825" lon="2.59213">
        <ele>1536.6</ele>
        <time>2018-05-20T13:21:20.000Z</time>
      </trkpt>
      <trkpt lat="45.12825" lon="2.59212">
        <ele>1536.6</ele>
        <time>2018-05-20T13:21:21.000Z</time>
      </trkpt>
      <trkpt lat="45.12828" lon="2.59209">
        <ele>1536.8</ele>
        <time>2018-05-20T13:21:23.000Z</time>
      </trkpt>
      <trkpt lat="45.12843" lon="2.59184">
        <ele>1538.8</ele>
        <time>2018-05-20T13:21:42.000Z</time>
      </trkpt>
      <trkpt lat="45.12848" lon="2.59176">
        <ele>1539.4</ele>
        <time>2018-05-20T13:21:48.000Z</time>
      </trkpt>
      <trkpt lat="45.12858" lon="2.59154">
        <ele>1540.8</ele>
        <time>2018-05-20T13:22:03.000Z</time>
      </trkpt>
      <trkpt lat="45.12872" lon="2.59133">
        <ele>1542.4</ele>
        <time>2018-05-20T13:22:20.000Z</time>
      </trkpt>
      <trkpt lat="45.12875" lon="2.5913">
        <ele>1542.8</ele>
        <time>2018-05-20T13:22:23.000Z</time>
      </trkpt>
      <trkpt lat="45.12877" lon="2.59129">
        <ele>1543</ele>
        <time>2018-05-20T13:22:24.000Z</time>
      </trkpt>
      <trkpt lat="45.12877" lon="2.59129">
        <ele>1543.4</ele>
        <time>2018-05-20T13:22:25.000Z</time>
      </trkpt>
      <trkpt lat="45.12879" lon="2.59127">
        <ele>1543.8</ele>
        <time>2018-05-20T13:22:27.000Z</time>
      </trkpt>
      <trkpt lat="45.1288" lon="2.59127">
        <ele>1544</ele>
        <time>2018-05-20T13:22:28.000Z</time>
      </trkpt>
      <trkpt lat="45.12882" lon="2.59125">
        <ele>1544.2</ele>
        <time>2018-05-20T13:22:30.000Z</time>
      </trkpt>
      <trkpt lat="45.12884" lon="2.5912">
        <ele>1544.8</ele>
        <time>2018-05-20T13:22:35.000Z</time>
      </trkpt>
      <trkpt lat="45.12885" lon="2.59117">
        <ele>1545.8</ele>
        <time>2018-05-20T13:22:38.000Z</time>
      </trkpt>
      <trkpt lat="45.12886" lon="2.59117">
        <ele>1545.8</ele>
        <time>2018-05-20T13:22:49.000Z</time>
      </trkpt>
      <trkpt lat="45.12888" lon="2.59112">
        <ele>1545.8</ele>
        <time>2018-05-20T13:22:59.000Z</time>
      </trkpt>
      <trkpt lat="45.12889" lon="2.59111">
        <ele>1546.4</ele>
        <time>2018-05-20T13:23:02.000Z</time>
      </trkpt>
      <trkpt lat="45.1289" lon="2.5911">
        <ele>1546.8</ele>
        <time>2018-05-20T13:23:06.000Z</time>
      </trkpt>
      <trkpt lat="45.12891" lon="2.5911">
        <ele>1546.8</ele>
        <time>2018-05-20T13:23:21.000Z</time>
      </trkpt>
      <trkpt lat="45.12895" lon="2.59104">
        <ele>1548</ele>
        <time>2018-05-20T13:23:32.000Z</time>
      </trkpt>
      <trkpt lat="45.12896" lon="2.59103">
        <ele>1548.2</ele>
        <time>2018-05-20T13:23:33.000Z</time>
      </trkpt>
      <trkpt lat="45.12898" lon="2.59099">
        <ele>1549</ele>
        <time>2018-05-20T13:23:37.000Z</time>
      </trkpt>
      <trkpt lat="45.12899" lon="2.59097">
        <ele>1549.4</ele>
        <time>2018-05-20T13:23:39.000Z</time>
      </trkpt>
      <trkpt lat="45.129" lon="2.59096">
        <ele>1549.6</ele>
        <time>2018-05-20T13:23:40.000Z</time>
      </trkpt>
      <trkpt lat="45.12902" lon="2.59094">
        <ele>1550</ele>
        <time>2018-05-20T13:23:42.000Z</time>
      </trkpt>
      <trkpt lat="45.12902" lon="2.59093">
        <ele>1550.2</ele>
        <time>2018-05-20T13:23:43.000Z</time>
      </trkpt>
      <trkpt lat="45.12906" lon="2.59089">
        <ele>1551.2</ele>
        <time>2018-05-20T13:23:48.000Z</time>
      </trkpt>
      <trkpt lat="45.12907" lon="2.59087">
        <ele>1551.2</ele>
        <time>2018-05-20T13:23:49.000Z</time>
      </trkpt>
      <trkpt lat="45.12913" lon="2.5908">
        <ele>1552.2</ele>
        <time>2018-05-20T13:23:57.000Z</time>
      </trkpt>
      <trkpt lat="45.12915" lon="2.59076">
        <ele>1553</ele>
        <time>2018-05-20T13:24:01.000Z</time>
      </trkpt>
      <trkpt lat="45.12915" lon="2.59074">
        <ele>1553.2</ele>
        <time>2018-05-20T13:24:02.000Z</time>
      </trkpt>
      <trkpt lat="45.12919" lon="2.59069">
        <ele>1554</ele>
        <time>2018-05-20T13:24:05.000Z</time>
      </trkpt>
      <trkpt lat="45.1292" lon="2.59066">
        <ele>1554.2</ele>
        <time>2018-05-20T13:24:07.000Z</time>
      </trkpt>
      <trkpt lat="45.1292" lon="2.59066">
        <ele>1554.4</ele>
        <time>2018-05-20T13:24:09.000Z</time>
      </trkpt>
      <trkpt lat="45.1292" lon="2.59065">
        <ele>1554.6</ele>
        <time>2018-05-20T13:24:10.000Z</time>
      </trkpt>
      <trkpt lat="45.12921" lon="2.59065">
        <ele>1554.8</ele>
        <time>2018-05-20T13:24:11.000Z</time>
      </trkpt>
      <trkpt lat="45.12922" lon="2.59064">
        <ele>1555.2</ele>
        <time>2018-05-20T13:24:13.000Z</time>
      </trkpt>
      <trkpt lat="45.12923" lon="2.59064">
        <ele>1555.4</ele>
        <time>2018-05-20T13:24:14.000Z</time>
      </trkpt>
      <trkpt lat="45.12923" lon="2.59063">
        <ele>1555.4</ele>
        <time>2018-05-20T13:24:15.000Z</time>
      </trkpt>
      <trkpt lat="45.12925" lon="2.59058">
        <ele>1556.8</ele>
        <time>2018-05-20T13:24:27.000Z</time>
      </trkpt>
      <trkpt lat="45.12927" lon="2.59055">
        <ele>1557.2</ele>
        <time>2018-05-20T13:24:31.000Z</time>
      </trkpt>
      <trkpt lat="45.12929" lon="2.59055">
        <ele>1557.6</ele>
        <time>2018-05-20T13:24:33.000Z</time>
      </trkpt>
      <trkpt lat="45.1293" lon="2.59054">
        <ele>1558</ele>
        <time>2018-05-20T13:24:35.000Z</time>
      </trkpt>
      <trkpt lat="45.12931" lon="2.59053">
        <ele>1558.2</ele>
        <time>2018-05-20T13:24:36.000Z</time>
      </trkpt>
      <trkpt lat="45.12933" lon="2.59049">
        <ele>1559</ele>
        <time>2018-05-20T13:24:42.000Z</time>
      </trkpt>
      <trkpt lat="45.12936" lon="2.59047">
        <ele>1560.2</ele>
        <time>2018-05-20T13:24:48.000Z</time>
      </trkpt>
      <trkpt lat="45.12944" lon="2.59036">
        <ele>1562.6</ele>
        <time>2018-05-20T13:25:02.000Z</time>
      </trkpt>
      <trkpt lat="45.12946" lon="2.59033">
        <ele>1563.4</ele>
        <time>2018-05-20T13:25:06.000Z</time>
      </trkpt>
      <trkpt lat="45.12948" lon="2.59032">
        <ele>1563.8</ele>
        <time>2018-05-20T13:25:08.000Z</time>
      </trkpt>
      <trkpt lat="45.1295" lon="2.59029">
        <ele>1564.4</ele>
        <time>2018-05-20T13:25:12.000Z</time>
      </trkpt>
      <trkpt lat="45.12951" lon="2.59022">
        <ele>1565.6</ele>
        <time>2018-05-20T13:25:19.000Z</time>
      </trkpt>
      <trkpt lat="45.12952" lon="2.59021">
        <ele>1566.4</ele>
        <time>2018-05-20T13:25:23.000Z</time>
      </trkpt>
      <trkpt lat="45.12953" lon="2.5902">
        <ele>1566.6</ele>
        <time>2018-05-20T13:25:24.000Z</time>
      </trkpt>
      <trkpt lat="45.12953" lon="2.59019">
        <ele>1566.8</ele>
        <time>2018-05-20T13:25:25.000Z</time>
      </trkpt>
      <trkpt lat="45.12955" lon="2.59019">
        <ele>1567</ele>
        <time>2018-05-20T13:25:26.000Z</time>
      </trkpt>
      <trkpt lat="45.12955" lon="2.59019">
        <ele>1567</ele>
        <time>2018-05-20T13:25:27.000Z</time>
      </trkpt>
      <trkpt lat="45.12956" lon="2.59019">
        <ele>1567.2</ele>
        <time>2018-05-20T13:25:28.000Z</time>
      </trkpt>
      <trkpt lat="45.12956" lon="2.59019">
        <ele>1567.4</ele>
        <time>2018-05-20T13:25:29.000Z</time>
      </trkpt>
      <trkpt lat="45.12957" lon="2.59018">
        <ele>1567.8</ele>
        <time>2018-05-20T13:25:31.000Z</time>
      </trkpt>
      <trkpt lat="45.12958" lon="2.59018">
        <ele>1568.2</ele>
        <time>2018-05-20T13:25:33.000Z</time>
      </trkpt>
      <trkpt lat="45.12958" lon="2.59018">
        <ele>1568.4</ele>
        <time>2018-05-20T13:25:34.000Z</time>
      </trkpt>
      <trkpt lat="45.1296" lon="2.59017">
        <ele>1568.8</ele>
        <time>2018-05-20T13:25:37.000Z</time>
      </trkpt>
      <trkpt lat="45.1296" lon="2.59016">
        <ele>1569</ele>
        <time>2018-05-20T13:25:38.000Z</time>
      </trkpt>
      <trkpt lat="45.12962" lon="2.59012">
        <ele>1569.8</ele>
        <time>2018-05-20T13:25:44.000Z</time>
      </trkpt>
      <trkpt lat="45.12964" lon="2.59011">
        <ele>1570.6</ele>
        <time>2018-05-20T13:25:48.000Z</time>
      </trkpt>
      <trkpt lat="45.12964" lon="2.59011">
        <ele>1571</ele>
        <time>2018-05-20T13:25:49.000Z</time>
      </trkpt>
      <trkpt lat="45.12964" lon="2.59011">
        <ele>1571.6</ele>
        <time>2018-05-20T13:25:55.000Z</time>
      </trkpt>
      <trkpt lat="45.12965" lon="2.59008">
        <ele>1572</ele>
        <time>2018-05-20T13:26:02.000Z</time>
      </trkpt>
      <trkpt lat="45.12966" lon="2.59006">
        <ele>1573.2</ele>
        <time>2018-05-20T13:26:09.000Z</time>
      </trkpt>
      <trkpt lat="45.12969" lon="2.59001">
        <ele>1574.2</ele>
        <time>2018-05-20T13:26:20.000Z</time>
      </trkpt>
      <trkpt lat="45.1297" lon="2.58999">
        <ele>1575.6</ele>
        <time>2018-05-20T13:26:25.000Z</time>
      </trkpt>
      <trkpt lat="45.12972" lon="2.58997">
        <ele>1576.6</ele>
        <time>2018-05-20T13:26:34.000Z</time>
      </trkpt>
      <trkpt lat="45.12971" lon="2.58992">
        <ele>1577.8</ele>
        <time>2018-05-20T13:26:41.000Z</time>
      </trkpt>
      <trkpt lat="45.12972" lon="2.58988">
        <ele>1580.2</ele>
        <time>2018-05-20T13:26:51.000Z</time>
      </trkpt>
      <trkpt lat="45.12972" lon="2.58984">
        <ele>1581.2</ele>
        <time>2018-05-20T13:26:59.000Z</time>
      </trkpt>
      <trkpt lat="45.12974" lon="2.58985">
        <ele>1582.4</ele>
        <time>2018-05-20T13:27:07.000Z</time>
      </trkpt>
      <trkpt lat="45.12976" lon="2.58984">
        <ele>1583.2</ele>
        <time>2018-05-20T13:27:12.000Z</time>
      </trkpt>
      <trkpt lat="45.12977" lon="2.58984">
        <ele>1583.4</ele>
        <time>2018-05-20T13:27:13.000Z</time>
      </trkpt>
      <trkpt lat="45.12978" lon="2.58985">
        <ele>1584.2</ele>
        <time>2018-05-20T13:27:19.000Z</time>
      </trkpt>
      <trkpt lat="45.12978" lon="2.58984">
        <ele>1584.2</ele>
        <time>2018-05-20T13:27:20.000Z</time>
      </trkpt>
      <trkpt lat="45.12978" lon="2.58984">
        <ele>1584.4</ele>
        <time>2018-05-20T13:27:21.000Z</time>
      </trkpt>
      <trkpt lat="45.12978" lon="2.58982">
        <ele>1584.6</ele>
        <time>2018-05-20T13:27:23.000Z</time>
      </trkpt>
      <trkpt lat="45.12979" lon="2.58983">
        <ele>1585.8</ele>
        <time>2018-05-20T13:27:27.000Z</time>
      </trkpt>
      <trkpt lat="45.12981" lon="2.58982">
        <ele>1586.8</ele>
        <time>2018-05-20T13:27:34.000Z</time>
      </trkpt>
      <trkpt lat="45.12982" lon="2.58978">
        <ele>1588</ele>
        <time>2018-05-20T13:27:42.000Z</time>
      </trkpt>
      <trkpt lat="45.12984" lon="2.58977">
        <ele>1589</ele>
        <time>2018-05-20T13:27:48.000Z</time>
      </trkpt>
      <trkpt lat="45.12988" lon="2.58975">
        <ele>1590.2</ele>
        <time>2018-05-20T13:27:56.000Z</time>
      </trkpt>
      <trkpt lat="45.12989" lon="2.58975">
        <ele>1591.2</ele>
        <time>2018-05-20T13:28:01.000Z</time>
      </trkpt>
      <trkpt lat="45.12991" lon="2.58976">
        <ele>1592.4</ele>
        <time>2018-05-20T13:28:07.000Z</time>
      </trkpt>
      <trkpt lat="45.12994" lon="2.58975">
        <ele>1593.4</ele>
        <time>2018-05-20T13:28:14.000Z</time>
      </trkpt>
      <trkpt lat="45.12998" lon="2.58974">
        <ele>1595.2</ele>
        <time>2018-05-20T13:28:23.000Z</time>
      </trkpt>
      <trkpt lat="45.13" lon="2.58974">
        <ele>1595.6</ele>
        <time>2018-05-20T13:28:27.000Z</time>
      </trkpt>
      <trkpt lat="45.13002" lon="2.58974">
        <ele>1595.8</ele>
        <time>2018-05-20T13:28:29.000Z</time>
      </trkpt>
      <trkpt lat="45.13002" lon="2.58974">
        <ele>1596</ele>
        <time>2018-05-20T13:28:31.000Z</time>
      </trkpt>
      <trkpt lat="45.13002" lon="2.58974">
        <ele>1596.4</ele>
        <time>2018-05-20T13:28:34.000Z</time>
      </trkpt>
      <trkpt lat="45.13002" lon="2.58973">
        <ele>1596.6</ele>
        <time>2018-05-20T13:28:35.000Z</time>
      </trkpt>
      <trkpt lat="45.13003" lon="2.58974">
        <ele>1596.6</ele>
        <time>2018-05-20T13:28:36.000Z</time>
      </trkpt>
      <trkpt lat="45.13004" lon="2.58974">
        <ele>1597</ele>
        <time>2018-05-20T13:28:37.000Z</time>
      </trkpt>
      <trkpt lat="45.13005" lon="2.58974">
        <ele>1597.2</ele>
        <time>2018-05-20T13:28:38.000Z</time>
      </trkpt>
      <trkpt lat="45.13005" lon="2.58974">
        <ele>1597.4</ele>
        <time>2018-05-20T13:28:39.000Z</time>
      </trkpt>
      <trkpt lat="45.13005" lon="2.58974">
        <ele>1597.8</ele>
        <time>2018-05-20T13:28:40.000Z</time>
      </trkpt>
      <trkpt lat="45.13006" lon="2.58975">
        <ele>1598</ele>
        <time>2018-05-20T13:28:41.000Z</time>
      </trkpt>
      <trkpt lat="45.13006" lon="2.58976">
        <ele>1598.2</ele>
        <time>2018-05-20T13:28:42.000Z</time>
      </trkpt>
      <trkpt lat="45.13008" lon="2.58977">
        <ele>1598.4</ele>
        <time>2018-05-20T13:28:45.000Z</time>
      </trkpt>
      <trkpt lat="45.13009" lon="2.58976">
        <ele>1598.6</ele>
        <time>2018-05-20T13:28:47.000Z</time>
      </trkpt>
      <trkpt lat="45.13009" lon="2.58976">
        <ele>1598.6</ele>
        <time>2018-05-20T13:28:48.000Z</time>
      </trkpt>
      <trkpt lat="45.13009" lon="2.58974">
        <ele>1599</ele>
        <time>2018-05-20T13:28:51.000Z</time>
      </trkpt>
      <trkpt lat="45.13009" lon="2.58972">
        <ele>1599.8</ele>
        <time>2018-05-20T13:28:54.000Z</time>
      </trkpt>
      <trkpt lat="45.13009" lon="2.58971">
        <ele>1599.8</ele>
        <time>2018-05-20T13:28:55.000Z</time>
      </trkpt>
      <trkpt lat="45.1301" lon="2.58965">
        <ele>1600.8</ele>
        <time>2018-05-20T13:29:01.000Z</time>
      </trkpt>
      <trkpt lat="45.13011" lon="2.58965">
        <ele>1601</ele>
        <time>2018-05-20T13:29:02.000Z</time>
      </trkpt>
      <trkpt lat="45.13012" lon="2.58962">
        <ele>1601.8</ele>
        <time>2018-05-20T13:29:06.000Z</time>
      </trkpt>
      <trkpt lat="45.13006" lon="2.5892">
        <ele>1603.4</ele>
        <time>2018-05-20T13:29:29.000Z</time>
      </trkpt>
      <trkpt lat="45.13006" lon="2.58901">
        <ele>1604.6</ele>
        <time>2018-05-20T13:29:35.000Z</time>
      </trkpt>
      <trkpt lat="45.13006" lon="2.58898">
        <ele>1604.8</ele>
        <time>2018-05-20T13:29:36.000Z</time>
      </trkpt>
      <trkpt lat="45.13008" lon="2.58891">
        <ele>1605.4</ele>
        <time>2018-05-20T13:29:39.000Z</time>
      </trkpt>
      <trkpt lat="45.13008" lon="2.58889">
        <ele>1605.4</ele>
        <time>2018-05-20T13:29:42.000Z</time>
      </trkpt>
      <trkpt lat="45.13009" lon="2.58889">
        <ele>1605.2</ele>
        <time>2018-05-20T13:29:44.000Z</time>
      </trkpt>
      <trkpt lat="45.13009" lon="2.58887">
        <ele>1604.8</ele>
        <time>2018-05-20T13:29:47.000Z</time>
      </trkpt>
      <trkpt lat="45.13009" lon="2.58887">
        <ele>1604.6</ele>
        <time>2018-05-20T13:29:48.000Z</time>
      </trkpt>
      <trkpt lat="45.1301" lon="2.58886">
        <ele>1604.4</ele>
        <time>2018-05-20T13:29:49.000Z</time>
      </trkpt>
      <trkpt lat="45.1301" lon="2.58885">
        <ele>1604.2</ele>
        <time>2018-05-20T13:29:50.000Z</time>
      </trkpt>
      <trkpt lat="45.13011" lon="2.58884">
        <ele>1603.2</ele>
        <time>2018-05-20T13:29:54.000Z</time>
      </trkpt>
      <trkpt lat="45.13012" lon="2.58878">
        <ele>1601.4</ele>
        <time>2018-05-20T13:30:01.000Z</time>
      </trkpt>
      <trkpt lat="45.13012" lon="2.58877">
        <ele>1601.2</ele>
        <time>2018-05-20T13:30:03.000Z</time>
      </trkpt>
      <trkpt lat="45.13013" lon="2.58876">
        <ele>1601</ele>
        <time>2018-05-20T13:30:06.000Z</time>
      </trkpt>
      <trkpt lat="45.13014" lon="2.58874">
        <ele>1600</ele>
        <time>2018-05-20T13:30:09.000Z</time>
      </trkpt>
      <trkpt lat="45.13014" lon="2.58871">
        <ele>1598.8</ele>
        <time>2018-05-20T13:30:13.000Z</time>
      </trkpt>
      <trkpt lat="45.13013" lon="2.58868">
        <ele>1597.8</ele>
        <time>2018-05-20T13:30:17.000Z</time>
      </trkpt>
      <trkpt lat="45.13013" lon="2.58867">
        <ele>1597.6</ele>
        <time>2018-05-20T13:30:18.000Z</time>
      </trkpt>
      <trkpt lat="45.1301" lon="2.58858">
        <ele>1595.6</ele>
        <time>2018-05-20T13:30:27.000Z</time>
      </trkpt>
      <trkpt lat="45.13008" lon="2.58853">
        <ele>1594.4</ele>
        <time>2018-05-20T13:30:34.000Z</time>
      </trkpt>
      <trkpt lat="45.13008" lon="2.58852">
        <ele>1593.6</ele>
        <time>2018-05-20T13:30:38.000Z</time>
      </trkpt>
      <trkpt lat="45.13008" lon="2.58851">
        <ele>1593.2</ele>
        <time>2018-05-20T13:30:39.000Z</time>
      </trkpt>
      <trkpt lat="45.13008" lon="2.5885">
        <ele>1592</ele>
        <time>2018-05-20T13:30:44.000Z</time>
      </trkpt>
      <trkpt lat="45.1301" lon="2.58849">
        <ele>1590.8</ele>
        <time>2018-05-20T13:30:48.000Z</time>
      </trkpt>
      <trkpt lat="45.13009" lon="2.58842">
        <ele>1588.4</ele>
        <time>2018-05-20T13:30:55.000Z</time>
      </trkpt>
      <trkpt lat="45.13011" lon="2.58839">
        <ele>1587.2</ele>
        <time>2018-05-20T13:31:01.000Z</time>
      </trkpt>
      <trkpt lat="45.1301" lon="2.58836">
        <ele>1586.2</ele>
        <time>2018-05-20T13:31:04.000Z</time>
      </trkpt>
      <trkpt lat="45.1301" lon="2.58834">
        <ele>1585</ele>
        <time>2018-05-20T13:31:07.000Z</time>
      </trkpt>
      <trkpt lat="45.1301" lon="2.58832">
        <ele>1584</ele>
        <time>2018-05-20T13:31:10.000Z</time>
      </trkpt>
      <trkpt lat="45.13011" lon="2.58831">
        <ele>1583</ele>
        <time>2018-05-20T13:31:13.000Z</time>
      </trkpt>
      <trkpt lat="45.13011" lon="2.58825">
        <ele>1581.8</ele>
        <time>2018-05-20T13:31:17.000Z</time>
      </trkpt>
      <trkpt lat="45.1301" lon="2.58825">
        <ele>1580.8</ele>
        <time>2018-05-20T13:31:27.000Z</time>
      </trkpt>
      <trkpt lat="45.13009" lon="2.58821">
        <ele>1580.6</ele>
        <time>2018-05-20T13:31:44.000Z</time>
      </trkpt>
      <trkpt lat="45.13009" lon="2.58816">
        <ele>1579.6</ele>
        <time>2018-05-20T13:31:51.000Z</time>
      </trkpt>
      <trkpt lat="45.13008" lon="2.58811">
        <ele>1578.6</ele>
        <time>2018-05-20T13:31:55.000Z</time>
      </trkpt>
      <trkpt lat="45.13008" lon="2.58808">
        <ele>1578.4</ele>
        <time>2018-05-20T13:31:57.000Z</time>
      </trkpt>
      <trkpt lat="45.1301" lon="2.58807">
        <ele>1577.2</ele>
        <time>2018-05-20T13:32:00.000Z</time>
      </trkpt>
      <trkpt lat="45.13012" lon="2.58806">
        <ele>1576</ele>
        <time>2018-05-20T13:32:04.000Z</time>
      </trkpt>
      <trkpt lat="45.13013" lon="2.58806">
        <ele>1575.2</ele>
        <time>2018-05-20T13:32:07.000Z</time>
      </trkpt>
      <trkpt lat="45.13014" lon="2.58805">
        <ele>1574.8</ele>
        <time>2018-05-20T13:32:08.000Z</time>
      </trkpt>
      <trkpt lat="45.13013" lon="2.58799">
        <ele>1573</ele>
        <time>2018-05-20T13:32:14.000Z</time>
      </trkpt>
      <trkpt lat="45.13013" lon="2.58798">
        <ele>1572.8</ele>
        <time>2018-05-20T13:32:17.000Z</time>
      </trkpt>
      <trkpt lat="45.13015" lon="2.58796">
        <ele>1571.6</ele>
        <time>2018-05-20T13:32:24.000Z</time>
      </trkpt>
      <trkpt lat="45.13015" lon="2.58792">
        <ele>1569.4</ele>
        <time>2018-05-20T13:32:30.000Z</time>
      </trkpt>
      <trkpt lat="45.13015" lon="2.58788">
        <ele>1569</ele>
        <time>2018-05-20T13:32:33.000Z</time>
      </trkpt>
      <trkpt lat="45.13014" lon="2.58788">
        <ele>1568.2</ele>
        <time>2018-05-20T13:32:36.000Z</time>
      </trkpt>
      <trkpt lat="45.13016" lon="2.58783">
        <ele>1567.2</ele>
        <time>2018-05-20T13:32:40.000Z</time>
      </trkpt>
      <trkpt lat="45.13019" lon="2.58779">
        <ele>1566</ele>
        <time>2018-05-20T13:32:47.000Z</time>
      </trkpt>
      <trkpt lat="45.13021" lon="2.58773">
        <ele>1563.8</ele>
        <time>2018-05-20T13:32:53.000Z</time>
      </trkpt>
      <trkpt lat="45.13021" lon="2.58764">
        <ele>1561.4</ele>
        <time>2018-05-20T13:33:01.000Z</time>
      </trkpt>
      <trkpt lat="45.1302" lon="2.5876">
        <ele>1560.4</ele>
        <time>2018-05-20T13:33:05.000Z</time>
      </trkpt>
      <trkpt lat="45.13021" lon="2.58753">
        <ele>1559.4</ele>
        <time>2018-05-20T13:33:10.000Z</time>
      </trkpt>
      <trkpt lat="45.13019" lon="2.58747">
        <ele>1557</ele>
        <time>2018-05-20T13:33:19.000Z</time>
      </trkpt>
      <trkpt lat="45.13019" lon="2.58747">
        <ele>1556.8</ele>
        <time>2018-05-20T13:33:20.000Z</time>
      </trkpt>
      <trkpt lat="45.13019" lon="2.58737">
        <ele>1555.6</ele>
        <time>2018-05-20T13:33:26.000Z</time>
      </trkpt>
      <trkpt lat="45.13021" lon="2.58729">
        <ele>1554.2</ele>
        <time>2018-05-20T13:33:30.000Z</time>
      </trkpt>
      <trkpt lat="45.13023" lon="2.58728">
        <ele>1553.6</ele>
        <time>2018-05-20T13:33:32.000Z</time>
      </trkpt>
      <trkpt lat="45.13024" lon="2.58727">
        <ele>1553.2</ele>
        <time>2018-05-20T13:33:33.000Z</time>
      </trkpt>
      <trkpt lat="45.13026" lon="2.58725">
        <ele>1552.6</ele>
        <time>2018-05-20T13:33:35.000Z</time>
      </trkpt>
      <trkpt lat="45.13026" lon="2.58725">
        <ele>1552.4</ele>
        <time>2018-05-20T13:33:36.000Z</time>
      </trkpt>
      <trkpt lat="45.13025" lon="2.58718">
        <ele>1551.2</ele>
        <time>2018-05-20T13:33:42.000Z</time>
      </trkpt>
      <trkpt lat="45.13025" lon="2.58712">
        <ele>1550</ele>
        <time>2018-05-20T13:33:47.000Z</time>
      </trkpt>
      <trkpt lat="45.13024" lon="2.58708">
        <ele>1549</ele>
        <time>2018-05-20T13:33:50.000Z</time>
      </trkpt>
      <trkpt lat="45.13024" lon="2.58704">
        <ele>1548</ele>
        <time>2018-05-20T13:33:53.000Z</time>
      </trkpt>
      <trkpt lat="45.13024" lon="2.58697">
        <ele>1547</ele>
        <time>2018-05-20T13:33:58.000Z</time>
      </trkpt>
      <trkpt lat="45.13021" lon="2.58678">
        <ele>1545.2</ele>
        <time>2018-05-20T13:34:04.000Z</time>
      </trkpt>
      <trkpt lat="45.13019" lon="2.58671">
        <ele>1544.4</ele>
        <time>2018-05-20T13:34:06.000Z</time>
      </trkpt>
      <trkpt lat="45.13016" lon="2.58665">
        <ele>1543.4</ele>
        <time>2018-05-20T13:34:08.000Z</time>
      </trkpt>
      <trkpt lat="45.13015" lon="2.58662">
        <ele>1542.8</ele>
        <time>2018-05-20T13:34:09.000Z</time>
      </trkpt>
      <trkpt lat="45.13015" lon="2.58642">
        <ele>1540.4</ele>
        <time>2018-05-20T13:34:15.000Z</time>
      </trkpt>
      <trkpt lat="45.13014" lon="2.58635">
        <ele>1539.2</ele>
        <time>2018-05-20T13:34:17.000Z</time>
      </trkpt>
      <trkpt lat="45.13013" lon="2.58592">
        <ele>1534.4</ele>
        <time>2018-05-20T13:34:27.000Z</time>
      </trkpt>
      <trkpt lat="45.13014" lon="2.58588">
        <ele>1534.2</ele>
        <time>2018-05-20T13:34:28.000Z</time>
      </trkpt>
      <trkpt lat="45.13014" lon="2.58578">
        <ele>1532.8</ele>
        <time>2018-05-20T13:34:30.000Z</time>
      </trkpt>
      <trkpt lat="45.13017" lon="2.58557">
        <ele>1530.2</ele>
        <time>2018-05-20T13:34:35.000Z</time>
      </trkpt>
      <trkpt lat="45.13019" lon="2.58546">
        <ele>1528.8</ele>
        <time>2018-05-20T13:34:38.000Z</time>
      </trkpt>
      <trkpt lat="45.13036" lon="2.58501">
        <ele>1524.2</ele>
        <time>2018-05-20T13:34:51.000Z</time>
      </trkpt>
      <trkpt lat="45.13044" lon="2.58473">
        <ele>1522.4</ele>
        <time>2018-05-20T13:34:59.000Z</time>
      </trkpt>
      <trkpt lat="45.13044" lon="2.58457">
        <ele>1520.4</ele>
        <time>2018-05-20T13:35:03.000Z</time>
      </trkpt>
      <trkpt lat="45.13044" lon="2.58452">
        <ele>1519.8</ele>
        <time>2018-05-20T13:35:05.000Z</time>
      </trkpt>
      <trkpt lat="45.13045" lon="2.58457">
        <ele>1519.4</ele>
        <time>2018-05-20T13:35:08.000Z</time>
      </trkpt>
      <trkpt lat="45.13059" lon="2.58254">
        <ele>1503.6</ele>
        <time>2018-05-20T13:35:56.000Z</time>
      </trkpt>
      <trkpt lat="45.1307" lon="2.58211">
        <ele>1500.2</ele>
        <time>2018-05-20T13:36:07.000Z</time>
      </trkpt>
      <trkpt lat="45.13093" lon="2.58144">
        <ele>1493.6</ele>
        <time>2018-05-20T13:36:26.000Z</time>
      </trkpt>
      <trkpt lat="45.13121" lon="2.58052">
        <ele>1485.2</ele>
        <time>2018-05-20T13:36:52.000Z</time>
      </trkpt>
      <trkpt lat="45.13139" lon="2.58012">
        <ele>1481.8</ele>
        <time>2018-05-20T13:37:05.000Z</time>
      </trkpt>
      <trkpt lat="45.13152" lon="2.5799">
        <ele>1479.4</ele>
        <time>2018-05-20T13:37:12.000Z</time>
      </trkpt>
      <trkpt lat="45.13156" lon="2.57972">
        <ele>1478.4</ele>
        <time>2018-05-20T13:37:16.000Z</time>
      </trkpt>
      <trkpt lat="45.1316" lon="2.5796">
        <ele>1477.2</ele>
        <time>2018-05-20T13:37:19.000Z</time>
      </trkpt>
      <trkpt lat="45.13166" lon="2.57947">
        <ele>1476</ele>
        <time>2018-05-20T13:37:23.000Z</time>
      </trkpt>
      <trkpt lat="45.13173" lon="2.5793">
        <ele>1475</ele>
        <time>2018-05-20T13:37:28.000Z</time>
      </trkpt>
      <trkpt lat="45.13184" lon="2.57869">
        <ele>1470.2</ele>
        <time>2018-05-20T13:37:44.000Z</time>
      </trkpt>
      <trkpt lat="45.13185" lon="2.57858">
        <ele>1469</ele>
        <time>2018-05-20T13:37:47.000Z</time>
      </trkpt>
      <trkpt lat="45.1319" lon="2.57845">
        <ele>1467.8</ele>
        <time>2018-05-20T13:37:51.000Z</time>
      </trkpt>
      <trkpt lat="45.13205" lon="2.57826">
        <ele>1465.6</ele>
        <time>2018-05-20T13:37:59.000Z</time>
      </trkpt>
      <trkpt lat="45.13215" lon="2.57817">
        <ele>1464.4</ele>
        <time>2018-05-20T13:38:04.000Z</time>
      </trkpt>
      <trkpt lat="45.13224" lon="2.57807">
        <ele>1463.2</ele>
        <time>2018-05-20T13:38:09.000Z</time>
      </trkpt>
      <trkpt lat="45.13238" lon="2.57784">
        <ele>1461.2</ele>
        <time>2018-05-20T13:38:17.000Z</time>
      </trkpt>
      <trkpt lat="45.13256" lon="2.57762">
        <ele>1458.6</ele>
        <time>2018-05-20T13:38:26.000Z</time>
      </trkpt>
      <trkpt lat="45.13261" lon="2.57751">
        <ele>1457.6</ele>
        <time>2018-05-20T13:38:30.000Z</time>
      </trkpt>
      <trkpt lat="45.13268" lon="2.57724">
        <ele>1455.2</ele>
        <time>2018-05-20T13:38:38.000Z</time>
      </trkpt>
      <trkpt lat="45.13278" lon="2.57663">
        <ele>1451.8</ele>
        <time>2018-05-20T13:38:53.000Z</time>
      </trkpt>
      <trkpt lat="45.13286" lon="2.57643">
        <ele>1450.6</ele>
        <time>2018-05-20T13:38:59.000Z</time>
      </trkpt>
      <trkpt lat="45.13293" lon="2.5763">
        <ele>1449.4</ele>
        <time>2018-05-20T13:39:03.000Z</time>
      </trkpt>
      <trkpt lat="45.13299" lon="2.57622">
        <ele>1448.6</ele>
        <time>2018-05-20T13:39:06.000Z</time>
      </trkpt>
      <trkpt lat="45.13301" lon="2.5762">
        <ele>1448.4</ele>
        <time>2018-05-20T13:39:07.000Z</time>
      </trkpt>
      <trkpt lat="45.13309" lon="2.5761">
        <ele>1447</ele>
        <time>2018-05-20T13:39:11.000Z</time>
      </trkpt>
      <trkpt lat="45.13333" lon="2.57558">
        <ele>1441.8</ele>
        <time>2018-05-20T13:39:25.000Z</time>
      </trkpt>
      <trkpt lat="45.13368" lon="2.57507">
        <ele>1437.4</ele>
        <time>2018-05-20T13:39:43.000Z</time>
      </trkpt>
      <trkpt lat="45.13407" lon="2.57419">
        <ele>1432</ele>
        <time>2018-05-20T13:40:08.000Z</time>
      </trkpt>
      <trkpt lat="45.13425" lon="2.57391">
        <ele>1430.6</ele>
        <time>2018-05-20T13:40:18.000Z</time>
      </trkpt>
      <trkpt lat="45.13462" lon="2.57316">
        <ele>1428</ele>
        <time>2018-05-20T13:40:40.000Z</time>
      </trkpt>
      <trkpt lat="45.13482" lon="2.57258">
        <ele>1425.2</ele>
        <time>2018-05-20T13:40:53.000Z</time>
      </trkpt>
      <trkpt lat="45.13487" lon="2.57249">
        <ele>1424.2</ele>
        <time>2018-05-20T13:40:56.000Z</time>
      </trkpt>
      <trkpt lat="45.13509" lon="2.5723">
        <ele>1421.8</ele>
        <time>2018-05-20T13:41:04.000Z</time>
      </trkpt>
      <trkpt lat="45.13523" lon="2.57223">
        <ele>1419.4</ele>
        <time>2018-05-20T13:41:08.000Z</time>
      </trkpt>
      <trkpt lat="45.13528" lon="2.57219">
        <ele>1418</ele>
        <time>2018-05-20T13:41:10.000Z</time>
      </trkpt>
      <trkpt lat="45.13534" lon="2.57212">
        <ele>1416.6</ele>
        <time>2018-05-20T13:41:12.000Z</time>
      </trkpt>
      <trkpt lat="45.13541" lon="2.572">
        <ele>1414.2</ele>
        <time>2018-05-20T13:41:15.000Z</time>
      </trkpt>
      <trkpt lat="45.13557" lon="2.5718">
        <ele>1411.6</ele>
        <time>2018-05-20T13:41:22.000Z</time>
      </trkpt>
      <trkpt lat="45.13564" lon="2.57166">
        <ele>1409.4</ele>
        <time>2018-05-20T13:41:29.000Z</time>
      </trkpt>
      <trkpt lat="45.13567" lon="2.57157">
        <ele>1408.4</ele>
        <time>2018-05-20T13:41:31.000Z</time>
      </trkpt>
      <trkpt lat="45.13569" lon="2.57138">
        <ele>1407.2</ele>
        <time>2018-05-20T13:41:35.000Z</time>
      </trkpt>
      <trkpt lat="45.13604" lon="2.5702">
        <ele>1396</ele>
        <time>2018-05-20T13:42:02.000Z</time>
      </trkpt>
      <trkpt lat="45.13608" lon="2.56994">
        <ele>1393.6</ele>
        <time>2018-05-20T13:42:08.000Z</time>
      </trkpt>
      <trkpt lat="45.13611" lon="2.56981">
        <ele>1392.6</ele>
        <time>2018-05-20T13:42:11.000Z</time>
      </trkpt>
      <trkpt lat="45.13622" lon="2.56953">
        <ele>1390.2</ele>
        <time>2018-05-20T13:42:18.000Z</time>
      </trkpt>
      <trkpt lat="45.13642" lon="2.56913">
        <ele>1385</ele>
        <time>2018-05-20T13:42:30.000Z</time>
      </trkpt>
      <trkpt lat="45.13648" lon="2.56892">
        <ele>1382.4</ele>
        <time>2018-05-20T13:42:35.000Z</time>
      </trkpt>
      <trkpt lat="45.13648" lon="2.56883">
        <ele>1381</ele>
        <time>2018-05-20T13:42:39.000Z</time>
      </trkpt>
      <trkpt lat="45.13645" lon="2.56876">
        <ele>1381</ele>
        <time>2018-05-20T13:42:45.000Z</time>
      </trkpt>
      <trkpt lat="45.13644" lon="2.56878">
        <ele>1380.4</ele>
        <time>2018-05-20T13:42:50.000Z</time>
      </trkpt>
      <trkpt lat="45.13644" lon="2.56878">
        <ele>1380</ele>
        <time>2018-05-20T13:42:54.000Z</time>
      </trkpt>
      <trkpt lat="45.13647" lon="2.56879">
        <ele>1380.2</ele>
        <time>2018-05-20T13:42:59.000Z</time>
      </trkpt>
      <trkpt lat="45.1365" lon="2.56879">
        <ele>1380.4</ele>
        <time>2018-05-20T13:43:03.000Z</time>
      </trkpt>
      <trkpt lat="45.13649" lon="2.56876">
        <ele>1380.2</ele>
        <time>2018-05-20T13:43:06.000Z</time>
      </trkpt>
      <trkpt lat="45.13649" lon="2.56873">
        <ele>1380</ele>
        <time>2018-05-20T13:43:10.000Z</time>
      </trkpt>
      <trkpt lat="45.13649" lon="2.56873">
        <ele>1380</ele>
        <time>2018-05-20T13:43:11.000Z</time>
      </trkpt>
      <trkpt lat="45.13649" lon="2.56871">
        <ele>1380</ele>
        <time>2018-05-20T13:43:12.000Z</time>
      </trkpt>
      <trkpt lat="45.1365" lon="2.5687">
        <ele>1379</ele>
        <time>2018-05-20T13:43:27.000Z</time>
      </trkpt>
      <trkpt lat="45.1365" lon="2.5687">
        <ele>1379.6</ele>
        <time>2018-05-20T13:43:36.000Z</time>
      </trkpt>
      <trkpt lat="45.13651" lon="2.56867">
        <ele>1379.6</ele>
        <time>2018-05-20T13:43:41.000Z</time>
      </trkpt>
      <trkpt lat="45.13652" lon="2.56869">
        <ele>1379</ele>
        <time>2018-05-20T13:43:46.000Z</time>
      </trkpt>
      <trkpt lat="45.1365" lon="2.56871">
        <ele>1379</ele>
        <time>2018-05-20T13:44:17.000Z</time>
      </trkpt>
      <trkpt lat="45.1365" lon="2.5687">
        <ele>1379</ele>
        <time>2018-05-20T13:44:25.000Z</time>
      </trkpt>
      <trkpt lat="45.13651" lon="2.56872">
        <ele>1379</ele>
        <time>2018-05-20T13:44:32.000Z</time>
      </trkpt>
      <trkpt lat="45.13657" lon="2.56877">
        <ele>1379</ele>
        <time>2018-05-20T13:45:03.000Z</time>
      </trkpt>
      <trkpt lat="45.13655" lon="2.56878">
        <ele>1379</ele>
        <time>2018-05-20T13:45:18.000Z</time>
      </trkpt>
      <trkpt lat="45.13654" lon="2.56876">
        <ele>1379</ele>
        <time>2018-05-20T13:45:24.000Z</time>
      </trkpt>
      <trkpt lat="45.13653" lon="2.56875">
        <ele>1379</ele>
        <time>2018-05-20T13:46:11.000Z</time>
      </trkpt>
      <trkpt lat="45.13653" lon="2.56874">
        <ele>1379</ele>
        <time>2018-05-20T13:46:12.000Z</time>
      </trkpt>
      <trkpt lat="45.13653" lon="2.56875">
        <ele>1379</ele>
        <time>2018-05-20T13:46:23.000Z</time>
      </trkpt>
      <trkpt lat="45.13653" lon="2.56875">
        <ele>1379</ele>
        <time>2018-05-20T13:46:30.000Z</time>
      </trkpt>
      <trkpt lat="45.13649" lon="2.56872">
        <ele>1379</ele>
        <time>2018-05-20T13:46:46.000Z</time>
      </trkpt>
      <trkpt lat="45.13648" lon="2.5687">
        <ele>1379.4</ele>
        <time>2018-05-20T13:46:48.000Z</time>
      </trkpt>
      <trkpt lat="45.13647" lon="2.56869">
        <ele>1379.4</ele>
        <time>2018-05-20T13:46:50.000Z</time>
      </trkpt>
      <trkpt lat="45.13646" lon="2.56869">
        <ele>1379.2</ele>
        <time>2018-05-20T13:46:53.000Z</time>
      </trkpt>
      <trkpt lat="45.13646" lon="2.5687">
        <ele>1379.2</ele>
        <time>2018-05-20T13:46:54.000Z</time>
      </trkpt>
      <trkpt lat="45.13651" lon="2.56875">
        <ele>1379.2</ele>
        <time>2018-05-20T13:47:04.000Z</time>
      </trkpt>
      <trkpt lat="45.13651" lon="2.56872">
        <ele>1379.2</ele>
        <time>2018-05-20T13:47:06.000Z</time>
      </trkpt>
      <trkpt lat="45.13653" lon="2.56868">
        <ele>1379</ele>
        <time>2018-05-20T13:47:16.000Z</time>
      </trkpt>
      <trkpt lat="45.13653" lon="2.56868">
        <ele>1379.2</ele>
        <time>2018-05-20T13:47:17.000Z</time>
      </trkpt>
      <trkpt lat="45.13653" lon="2.56867">
        <ele>1379.2</ele>
        <time>2018-05-20T13:47:31.000Z</time>
      </trkpt>
      <trkpt lat="45.13654" lon="2.56867">
        <ele>1379</ele>
        <time>2018-05-20T13:47:35.000Z</time>
      </trkpt>
      <trkpt lat="45.13655" lon="2.56868">
        <ele>1378.6</ele>
        <time>2018-05-20T13:47:40.000Z</time>
      </trkpt>
      <trkpt lat="45.13655" lon="2.56868">
        <ele>1378.8</ele>
        <time>2018-05-20T13:47:43.000Z</time>
      </trkpt>
      <trkpt lat="45.13657" lon="2.56868">
        <ele>1379.4</ele>
        <time>2018-05-20T13:47:46.000Z</time>
      </trkpt>
      <trkpt lat="45.13658" lon="2.56869">
        <ele>1379.6</ele>
        <time>2018-05-20T13:47:48.000Z</time>
      </trkpt>
      <trkpt lat="45.13657" lon="2.56871">
        <ele>1379.6</ele>
        <time>2018-05-20T13:47:54.000Z</time>
      </trkpt>
      <trkpt lat="45.1366" lon="2.56872">
        <ele>1379.6</ele>
        <time>2018-05-20T13:47:59.000Z</time>
      </trkpt>
      <trkpt lat="45.13661" lon="2.56864">
        <ele>1379.4</ele>
        <time>2018-05-20T13:48:04.000Z</time>
      </trkpt>
      <trkpt lat="45.13663" lon="2.56858">
        <ele>1379.2</ele>
        <time>2018-05-20T13:48:07.000Z</time>
      </trkpt>
      <trkpt lat="45.13666" lon="2.56849">
        <ele>1378.8</ele>
        <time>2018-05-20T13:48:11.000Z</time>
      </trkpt>
      <trkpt lat="45.13668" lon="2.56847">
        <ele>1378.8</ele>
        <time>2018-05-20T13:48:12.000Z</time>
      </trkpt>
      <trkpt lat="45.13671" lon="2.56841">
        <ele>1378.6</ele>
        <time>2018-05-20T13:48:15.000Z</time>
      </trkpt>
      <trkpt lat="45.13671" lon="2.56838">
        <ele>1378.6</ele>
        <time>2018-05-20T13:48:16.000Z</time>
      </trkpt>
      <trkpt lat="45.1367" lon="2.56835">
        <ele>1378.6</ele>
        <time>2018-05-20T13:48:17.000Z</time>
      </trkpt>
      <trkpt lat="45.13668" lon="2.56832">
        <ele>1378.6</ele>
        <time>2018-05-20T13:48:18.000Z</time>
      </trkpt>
      <trkpt lat="45.13656" lon="2.56816">
        <ele>1378</ele>
        <time>2018-05-20T13:48:25.000Z</time>
      </trkpt>
      <trkpt lat="45.13651" lon="2.56811">
        <ele>1377.4</ele>
        <time>2018-05-20T13:48:28.000Z</time>
      </trkpt>
      <trkpt lat="45.1364" lon="2.56806">
        <ele>1376</ele>
        <time>2018-05-20T13:48:33.000Z</time>
      </trkpt>
      <trkpt lat="45.13635" lon="2.56804">
        <ele>1375.8</ele>
        <time>2018-05-20T13:48:35.000Z</time>
      </trkpt>
      <trkpt lat="45.13601" lon="2.56793">
        <ele>1371.6</ele>
        <time>2018-05-20T13:48:49.000Z</time>
      </trkpt>
      <trkpt lat="45.13531" lon="2.56783">
        <ele>1369.2</ele>
        <time>2018-05-20T13:49:16.000Z</time>
      </trkpt>
      <trkpt lat="45.135" lon="2.56776">
        <ele>1368.8</ele>
        <time>2018-05-20T13:49:30.000Z</time>
      </trkpt>
      <trkpt lat="45.13481" lon="2.56768">
        <ele>1369</ele>
        <time>2018-05-20T13:49:39.000Z</time>
      </trkpt>
      <trkpt lat="45.1345" lon="2.56738">
        <ele>1368.4</ele>
        <time>2018-05-20T13:49:55.000Z</time>
      </trkpt>
      <trkpt lat="45.1344" lon="2.56731">
        <ele>1369.6</ele>
        <time>2018-05-20T13:50:02.000Z</time>
      </trkpt>
      <trkpt lat="45.13438" lon="2.5673">
        <ele>1369.8</ele>
        <time>2018-05-20T13:50:04.000Z</time>
      </trkpt>
      <trkpt lat="45.13427" lon="2.56725">
        <ele>1371</ele>
        <time>2018-05-20T13:50:13.000Z</time>
      </trkpt>
      <trkpt lat="45.13411" lon="2.5672">
        <ele>1372</ele>
        <time>2018-05-20T13:50:24.000Z</time>
      </trkpt>
      <trkpt lat="45.134" lon="2.56714">
        <ele>1373</ele>
        <time>2018-05-20T13:50:34.000Z</time>
      </trkpt>
      <trkpt lat="45.13397" lon="2.56712">
        <ele>1373</ele>
        <time>2018-05-20T13:50:36.000Z</time>
      </trkpt>
      <trkpt lat="45.1339" lon="2.56704">
        <ele>1373</ele>
        <time>2018-05-20T13:50:42.000Z</time>
      </trkpt>
      <trkpt lat="45.13387" lon="2.56703">
        <ele>1373</ele>
        <time>2018-05-20T13:50:45.000Z</time>
      </trkpt>
      <trkpt lat="45.13387" lon="2.56701">
        <ele>1372.8</ele>
        <time>2018-05-20T13:50:47.000Z</time>
      </trkpt>
      <trkpt lat="45.13386" lon="2.56701">
        <ele>1373</ele>
        <time>2018-05-20T13:50:50.000Z</time>
      </trkpt>
      <trkpt lat="45.1338" lon="2.56696">
        <ele>1373</ele>
        <time>2018-05-20T13:50:58.000Z</time>
      </trkpt>
      <trkpt lat="45.13377" lon="2.56687">
        <ele>1373.4</ele>
        <time>2018-05-20T13:51:04.000Z</time>
      </trkpt>
      <trkpt lat="45.13377" lon="2.56686">
        <ele>1373.6</ele>
        <time>2018-05-20T13:51:05.000Z</time>
      </trkpt>
      <trkpt lat="45.13374" lon="2.56683">
        <ele>1374.2</ele>
        <time>2018-05-20T13:51:09.000Z</time>
      </trkpt>
      <trkpt lat="45.13374" lon="2.56683">
        <ele>1374.4</ele>
        <time>2018-05-20T13:51:10.000Z</time>
      </trkpt>
      <trkpt lat="45.13373" lon="2.56682">
        <ele>1374.6</ele>
        <time>2018-05-20T13:51:12.000Z</time>
      </trkpt>
      <trkpt lat="45.1337" lon="2.56676">
        <ele>1375.2</ele>
        <time>2018-05-20T13:51:17.000Z</time>
      </trkpt>
      <trkpt lat="45.13362" lon="2.56665">
        <ele>1376.2</ele>
        <time>2018-05-20T13:51:28.000Z</time>
      </trkpt>
      <trkpt lat="45.13363" lon="2.56664">
        <ele>1376.2</ele>
        <time>2018-05-20T13:51:29.000Z</time>
      </trkpt>
      <trkpt lat="45.13364" lon="2.56663">
        <ele>1376</ele>
        <time>2018-05-20T13:51:33.000Z</time>
      </trkpt>
      <trkpt lat="45.13357" lon="2.56657">
        <ele>1376.2</ele>
        <time>2018-05-20T13:51:43.000Z</time>
      </trkpt>
      <trkpt lat="45.13351" lon="2.56648">
        <ele>1377</ele>
        <time>2018-05-20T13:51:49.000Z</time>
      </trkpt>
      <trkpt lat="45.13333" lon="2.56626">
        <ele>1377.4</ele>
        <time>2018-05-20T13:52:03.000Z</time>
      </trkpt>
      <trkpt lat="45.13325" lon="2.56613">
        <ele>1377.6</ele>
        <time>2018-05-20T13:52:11.000Z</time>
      </trkpt>
      <trkpt lat="45.13321" lon="2.56608">
        <ele>1377.8</ele>
        <time>2018-05-20T13:52:15.000Z</time>
      </trkpt>
      <trkpt lat="45.13312" lon="2.566">
        <ele>1378.6</ele>
        <time>2018-05-20T13:52:24.000Z</time>
      </trkpt>
      <trkpt lat="45.13308" lon="2.56595">
        <ele>1379.6</ele>
        <time>2018-05-20T13:52:30.000Z</time>
      </trkpt>
      <trkpt lat="45.13306" lon="2.56593">
        <ele>1379.8</ele>
        <time>2018-05-20T13:52:32.000Z</time>
      </trkpt>
      <trkpt lat="45.13305" lon="2.56593">
        <ele>1380</ele>
        <time>2018-05-20T13:52:34.000Z</time>
      </trkpt>
      <trkpt lat="45.13304" lon="2.56588">
        <ele>1380.2</ele>
        <time>2018-05-20T13:52:37.000Z</time>
      </trkpt>
      <trkpt lat="45.13284" lon="2.5655">
        <ele>1382</ele>
        <time>2018-05-20T13:53:03.000Z</time>
      </trkpt>
      <trkpt lat="45.13274" lon="2.56535">
        <ele>1382.2</ele>
        <time>2018-05-20T13:53:16.000Z</time>
      </trkpt>
      <trkpt lat="45.13273" lon="2.56535">
        <ele>1382.4</ele>
        <time>2018-05-20T13:53:18.000Z</time>
      </trkpt>
      <trkpt lat="45.13271" lon="2.56532">
        <ele>1382.4</ele>
        <time>2018-05-20T13:53:21.000Z</time>
      </trkpt>
      <trkpt lat="45.13266" lon="2.56528">
        <ele>1382.2</ele>
        <time>2018-05-20T13:53:26.000Z</time>
      </trkpt>
      <trkpt lat="45.13258" lon="2.56515">
        <ele>1382</ele>
        <time>2018-05-20T13:53:34.000Z</time>
      </trkpt>
      <trkpt lat="45.1325" lon="2.56504">
        <ele>1381.6</ele>
        <time>2018-05-20T13:53:43.000Z</time>
      </trkpt>
      <trkpt lat="45.13247" lon="2.56498">
        <ele>1380.8</ele>
        <time>2018-05-20T13:53:48.000Z</time>
      </trkpt>
      <trkpt lat="45.13245" lon="2.56496">
        <ele>1380.6</ele>
        <time>2018-05-20T13:53:50.000Z</time>
      </trkpt>
      <trkpt lat="45.13228" lon="2.56469">
        <ele>1379.8</ele>
        <time>2018-05-20T13:54:00.000Z</time>
      </trkpt>
      <trkpt lat="45.13223" lon="2.56457">
        <ele>1378.6</ele>
        <time>2018-05-20T13:54:04.000Z</time>
      </trkpt>
      <trkpt lat="45.1322" lon="2.56431">
        <ele>1375.8</ele>
        <time>2018-05-20T13:54:11.000Z</time>
      </trkpt>
      <trkpt lat="45.1322" lon="2.56422">
        <ele>1374.4</ele>
        <time>2018-05-20T13:54:14.000Z</time>
      </trkpt>
      <trkpt lat="45.13214" lon="2.56385">
        <ele>1369.8</ele>
        <time>2018-05-20T13:54:24.000Z</time>
      </trkpt>
      <trkpt lat="45.13214" lon="2.56385">
        <ele>1369.2</ele>
        <time>2018-05-20T13:54:25.000Z</time>
      </trkpt>
      <trkpt lat="45.13214" lon="2.56386">
        <ele>1368.6</ele>
        <time>2018-05-20T13:54:26.000Z</time>
      </trkpt>
      <trkpt lat="45.13214" lon="2.56385">
        <ele>1368.2</ele>
        <time>2018-05-20T13:54:27.000Z</time>
      </trkpt>
      <trkpt lat="45.13201" lon="2.56339">
        <ele>1364</ele>
        <time>2018-05-20T13:54:41.000Z</time>
      </trkpt>
      <trkpt lat="45.13204" lon="2.56329">
        <ele>1363</ele>
        <time>2018-05-20T13:54:44.000Z</time>
      </trkpt>
      <trkpt lat="45.13204" lon="2.56321">
        <ele>1361.6</ele>
        <time>2018-05-20T13:54:46.000Z</time>
      </trkpt>
      <trkpt lat="45.13203" lon="2.56314">
        <ele>1360.4</ele>
        <time>2018-05-20T13:54:48.000Z</time>
      </trkpt>
      <trkpt lat="45.13195" lon="2.56299">
        <ele>1358</ele>
        <time>2018-05-20T13:54:53.000Z</time>
      </trkpt>
      <trkpt lat="45.13191" lon="2.56288">
        <ele>1357</ele>
        <time>2018-05-20T13:54:56.000Z</time>
      </trkpt>
      <trkpt lat="45.13175" lon="2.56206">
        <ele>1349.6</ele>
        <time>2018-05-20T13:55:19.000Z</time>
      </trkpt>
      <trkpt lat="45.13173" lon="2.562">
        <ele>1348.2</ele>
        <time>2018-05-20T13:55:22.000Z</time>
      </trkpt>
      <trkpt lat="45.13171" lon="2.56186">
        <ele>1346</ele>
        <time>2018-05-20T13:55:26.000Z</time>
      </trkpt>
      <trkpt lat="45.13166" lon="2.5617">
        <ele>1343.6</ele>
        <time>2018-05-20T13:55:31.000Z</time>
      </trkpt>
      <trkpt lat="45.13165" lon="2.56161">
        <ele>1342.4</ele>
        <time>2018-05-20T13:55:34.000Z</time>
      </trkpt>
      <trkpt lat="45.13162" lon="2.56153">
        <ele>1341.2</ele>
        <time>2018-05-20T13:55:37.000Z</time>
      </trkpt>
      <trkpt lat="45.13144" lon="2.56061">
        <ele>1328.4</ele>
        <time>2018-05-20T13:56:07.000Z</time>
      </trkpt>
      <trkpt lat="45.13143" lon="2.5605">
        <ele>1327.4</ele>
        <time>2018-05-20T13:56:11.000Z</time>
      </trkpt>
      <trkpt lat="45.13138" lon="2.56026">
        <ele>1323.8</ele>
        <time>2018-05-20T13:56:20.000Z</time>
      </trkpt>
      <trkpt lat="45.13135" lon="2.56018">
        <ele>1322.8</ele>
        <time>2018-05-20T13:56:23.000Z</time>
      </trkpt>
      <trkpt lat="45.13121" lon="2.56009">
        <ele>1320.2</ele>
        <time>2018-05-20T13:56:30.000Z</time>
      </trkpt>
      <trkpt lat="45.13103" lon="2.55991">
        <ele>1316.6</ele>
        <time>2018-05-20T13:56:41.000Z</time>
      </trkpt>
      <trkpt lat="45.13099" lon="2.55986">
        <ele>1315.4</ele>
        <time>2018-05-20T13:56:44.000Z</time>
      </trkpt>
      <trkpt lat="45.13069" lon="2.55955">
        <ele>1307.8</ele>
        <time>2018-05-20T13:57:04.000Z</time>
      </trkpt>
      <trkpt lat="45.13058" lon="2.55939">
        <ele>1304</ele>
        <time>2018-05-20T13:57:12.000Z</time>
      </trkpt>
      <trkpt lat="45.13042" lon="2.55918">
        <ele>1298.8</ele>
        <time>2018-05-20T13:57:21.000Z</time>
      </trkpt>
      <trkpt lat="45.13038" lon="2.55915">
        <ele>1297.6</ele>
        <time>2018-05-20T13:57:23.000Z</time>
      </trkpt>
      <trkpt lat="45.13033" lon="2.5591">
        <ele>1296.4</ele>
        <time>2018-05-20T13:57:26.000Z</time>
      </trkpt>
      <trkpt lat="45.13032" lon="2.55909">
        <ele>1295.8</ele>
        <time>2018-05-20T13:57:27.000Z</time>
      </trkpt>
      <trkpt lat="45.13031" lon="2.55907">
        <ele>1295</ele>
        <time>2018-05-20T13:57:28.000Z</time>
      </trkpt>
      <trkpt lat="45.13029" lon="2.55902">
        <ele>1293.6</ele>
        <time>2018-05-20T13:57:30.000Z</time>
      </trkpt>
      <trkpt lat="45.13026" lon="2.55898">
        <ele>1292</ele>
        <time>2018-05-20T13:57:32.000Z</time>
      </trkpt>
      <trkpt lat="45.1302" lon="2.5589">
        <ele>1289.2</ele>
        <time>2018-05-20T13:57:36.000Z</time>
      </trkpt>
      <trkpt lat="45.13004" lon="2.55865">
        <ele>1284</ele>
        <time>2018-05-20T13:57:46.000Z</time>
      </trkpt>
      <trkpt lat="45.13" lon="2.55856">
        <ele>1283</ele>
        <time>2018-05-20T13:57:51.000Z</time>
      </trkpt>
      <trkpt lat="45.12997" lon="2.55851">
        <ele>1282.6</ele>
        <time>2018-05-20T13:57:55.000Z</time>
      </trkpt>
      <trkpt lat="45.12997" lon="2.55849">
        <ele>1282.4</ele>
        <time>2018-05-20T13:57:56.000Z</time>
      </trkpt>
      <trkpt lat="45.12996" lon="2.55848">
        <ele>1282.4</ele>
        <time>2018-05-20T13:57:57.000Z</time>
      </trkpt>
      <trkpt lat="45.12991" lon="2.55842">
        <ele>1281.8</ele>
        <time>2018-05-20T13:58:01.000Z</time>
      </trkpt>
      <trkpt lat="45.1298" lon="2.55822">
        <ele>1279</ele>
        <time>2018-05-20T13:58:13.000Z</time>
      </trkpt>
      <trkpt lat="45.12971" lon="2.55811">
        <ele>1277.2</ele>
        <time>2018-05-20T13:58:18.000Z</time>
      </trkpt>
      <trkpt lat="45.12966" lon="2.55805">
        <ele>1276</ele>
        <time>2018-05-20T13:58:21.000Z</time>
      </trkpt>
      <trkpt lat="45.12963" lon="2.55798">
        <ele>1274.6</ele>
        <time>2018-05-20T13:58:24.000Z</time>
      </trkpt>
      <trkpt lat="45.12962" lon="2.55796">
        <ele>1274.2</ele>
        <time>2018-05-20T13:58:25.000Z</time>
      </trkpt>
      <trkpt lat="45.12957" lon="2.55786">
        <ele>1272.2</ele>
        <time>2018-05-20T13:58:29.000Z</time>
      </trkpt>
      <trkpt lat="45.12956" lon="2.55784">
        <ele>1271.6</ele>
        <time>2018-05-20T13:58:30.000Z</time>
      </trkpt>
      <trkpt lat="45.12952" lon="2.55782">
        <ele>1269.8</ele>
        <time>2018-05-20T13:58:33.000Z</time>
      </trkpt>
      <trkpt lat="45.12949" lon="2.55778">
        <ele>1268.6</ele>
        <time>2018-05-20T13:58:36.000Z</time>
      </trkpt>
      <trkpt lat="45.12949" lon="2.55772">
        <ele>1267.4</ele>
        <time>2018-05-20T13:58:38.000Z</time>
      </trkpt>
      <trkpt lat="45.1295" lon="2.55763">
        <ele>1266</ele>
        <time>2018-05-20T13:58:41.000Z</time>
      </trkpt>
      <trkpt lat="45.1295" lon="2.55762">
        <ele>1265.6</ele>
        <time>2018-05-20T13:58:42.000Z</time>
      </trkpt>
      <trkpt lat="45.12951" lon="2.55762">
        <ele>1265</ele>
        <time>2018-05-20T13:58:44.000Z</time>
      </trkpt>
      <trkpt lat="45.12951" lon="2.55764">
        <ele>1264.6</ele>
        <time>2018-05-20T13:58:47.000Z</time>
      </trkpt>
      <trkpt lat="45.12951" lon="2.55766">
        <ele>1264.4</ele>
        <time>2018-05-20T13:58:50.000Z</time>
      </trkpt>
      <trkpt lat="45.12953" lon="2.55769">
        <ele>1264.2</ele>
        <time>2018-05-20T13:59:11.000Z</time>
      </trkpt>
      <trkpt lat="45.12953" lon="2.55769">
        <ele>1264.2</ele>
        <time>2018-05-20T13:59:13.000Z</time>
      </trkpt>
      <trkpt lat="45.12952" lon="2.55771">
        <ele>1264.4</ele>
        <time>2018-05-20T13:59:15.000Z</time>
      </trkpt>
      <trkpt lat="45.12952" lon="2.55771">
        <ele>1264.2</ele>
        <time>2018-05-20T13:59:17.000Z</time>
      </trkpt>
      <trkpt lat="45.12951" lon="2.55772">
        <ele>1264</ele>
        <time>2018-05-20T13:59:22.000Z</time>
      </trkpt>
      <trkpt lat="45.12952" lon="2.55772">
        <ele>1263.8</ele>
        <time>2018-05-20T13:59:27.000Z</time>
      </trkpt>
      <trkpt lat="45.12955" lon="2.55774">
        <ele>1264.4</ele>
        <time>2018-05-20T13:59:35.000Z</time>
      </trkpt>
      <trkpt lat="45.12954" lon="2.55777">
        <ele>1265.2</ele>
        <time>2018-05-20T13:59:38.000Z</time>
      </trkpt>
      <trkpt lat="45.12955" lon="2.55782">
        <ele>1265.6</ele>
        <time>2018-05-20T13:59:42.000Z</time>
      </trkpt>
      <trkpt lat="45.12956" lon="2.55785">
        <ele>1266.2</ele>
        <time>2018-05-20T13:59:45.000Z</time>
      </trkpt>
      <trkpt lat="45.12957" lon="2.5579">
        <ele>1267.4</ele>
        <time>2018-05-20T13:59:54.000Z</time>
      </trkpt>
      <trkpt lat="45.12961" lon="2.55792">
        <ele>1268.4</ele>
        <time>2018-05-20T14:00:01.000Z</time>
      </trkpt>
      <trkpt lat="45.12965" lon="2.55795">
        <ele>1269.8</ele>
        <time>2018-05-20T14:00:04.000Z</time>
      </trkpt>
      <trkpt lat="45.12968" lon="2.55797">
        <ele>1271</ele>
        <time>2018-05-20T14:00:07.000Z</time>
      </trkpt>
      <trkpt lat="45.12969" lon="2.55799">
        <ele>1271.6</ele>
        <time>2018-05-20T14:00:09.000Z</time>
      </trkpt>
      <trkpt lat="45.1297" lon="2.55802">
        <ele>1271.8</ele>
        <time>2018-05-20T14:00:11.000Z</time>
      </trkpt>
      <trkpt lat="45.12973" lon="2.55804">
        <ele>1272.2</ele>
        <time>2018-05-20T14:00:13.000Z</time>
      </trkpt>
      <trkpt lat="45.12978" lon="2.55816">
        <ele>1274.4</ele>
        <time>2018-05-20T14:00:18.000Z</time>
      </trkpt>
      <trkpt lat="45.12982" lon="2.55823">
        <ele>1275.6</ele>
        <time>2018-05-20T14:00:21.000Z</time>
      </trkpt>
      <trkpt lat="45.12986" lon="2.55832">
        <ele>1276.6</ele>
        <time>2018-05-20T14:00:25.000Z</time>
      </trkpt>
      <trkpt lat="45.12986" lon="2.55833">
        <ele>1277</ele>
        <time>2018-05-20T14:00:26.000Z</time>
      </trkpt>
      <trkpt lat="45.12987" lon="2.55835">
        <ele>1277.8</ele>
        <time>2018-05-20T14:00:28.000Z</time>
      </trkpt>
      <trkpt lat="45.12988" lon="2.55836">
        <ele>1278</ele>
        <time>2018-05-20T14:00:29.000Z</time>
      </trkpt>
      <trkpt lat="45.12988" lon="2.55836">
        <ele>1278.4</ele>
        <time>2018-05-20T14:00:30.000Z</time>
      </trkpt>
      <trkpt lat="45.12988" lon="2.55837">
        <ele>1278.6</ele>
        <time>2018-05-20T14:00:31.000Z</time>
      </trkpt>
      <trkpt lat="45.12988" lon="2.55837">
        <ele>1278.6</ele>
        <time>2018-05-20T14:00:32.000Z</time>
      </trkpt>
      <trkpt lat="45.12988" lon="2.55838">
        <ele>1278.8</ele>
        <time>2018-05-20T14:00:33.000Z</time>
      </trkpt>
      <trkpt lat="45.12987" lon="2.55837">
        <ele>1279</ele>
        <time>2018-05-20T14:00:36.000Z</time>
      </trkpt>
      <trkpt lat="45.12987" lon="2.55837">
        <ele>1279.2</ele>
        <time>2018-05-20T14:00:37.000Z</time>
      </trkpt>
      <trkpt lat="45.12987" lon="2.55836">
        <ele>1279.2</ele>
        <time>2018-05-20T14:00:39.000Z</time>
      </trkpt>
      <trkpt lat="45.12987" lon="2.55836">
        <ele>1279.2</ele>
        <time>2018-05-20T14:00:41.000Z</time>
      </trkpt>
      <trkpt lat="45.12985" lon="2.55836">
        <ele>1278.4</ele>
        <time>2018-05-20T14:01:03.000Z</time>
      </trkpt>
      <trkpt lat="45.12985" lon="2.55838">
        <ele>1278.2</ele>
        <time>2018-05-20T14:01:08.000Z</time>
      </trkpt>
      <trkpt lat="45.12985" lon="2.55838">
        <ele>1278.2</ele>
        <time>2018-05-20T14:01:11.000Z</time>
      </trkpt>
      <trkpt lat="45.12984" lon="2.55839">
        <ele>1278.2</ele>
        <time>2018-05-20T14:01:18.000Z</time>
      </trkpt>
      <trkpt lat="45.12984" lon="2.55839">
        <ele>1278</ele>
        <time>2018-05-20T14:01:21.000Z</time>
      </trkpt>
      <trkpt lat="45.12986" lon="2.55837">
        <ele>1278</ele>
        <time>2018-05-20T14:01:24.000Z</time>
      </trkpt>
      <trkpt lat="45.12986" lon="2.55836">
        <ele>1277.6</ele>
        <time>2018-05-20T14:01:27.000Z</time>
      </trkpt>
      <trkpt lat="45.12986" lon="2.55836">
        <ele>1277.4</ele>
        <time>2018-05-20T14:01:30.000Z</time>
      </trkpt>
      <trkpt lat="45.12986" lon="2.55836">
        <ele>1277.2</ele>
        <time>2018-05-20T14:01:36.000Z</time>
      </trkpt>
      <trkpt lat="45.12986" lon="2.55836">
        <ele>1277.4</ele>
        <time>2018-05-20T14:01:40.000Z</time>
      </trkpt>
      <trkpt lat="45.12986" lon="2.55836">
        <ele>1277.4</ele>
        <time>2018-05-20T14:01:41.000Z</time>
      </trkpt>
      <trkpt lat="45.12986" lon="2.55836">
        <ele>1277.4</ele>
        <time>2018-05-20T14:01:42.000Z</time>
      </trkpt>
      <trkpt lat="45.12986" lon="2.55835">
        <ele>1277.2</ele>
        <time>2018-05-20T14:01:44.000Z</time>
      </trkpt>
      <trkpt lat="45.12987" lon="2.55835">
        <ele>1277.4</ele>
        <time>2018-05-20T14:02:06.000Z</time>
      </trkpt>
      <trkpt lat="45.12986" lon="2.55836">
        <ele>1277.2</ele>
        <time>2018-05-20T14:02:22.000Z</time>
      </trkpt>
      <trkpt lat="45.12986" lon="2.55835">
        <ele>1277.8</ele>
        <time>2018-05-20T14:02:26.000Z</time>
      </trkpt>
      <trkpt lat="45.12985" lon="2.55834">
        <ele>1278</ele>
        <time>2018-05-20T14:02:28.000Z</time>
      </trkpt>
      <trkpt lat="45.12985" lon="2.55834">
        <ele>1278</ele>
        <time>2018-05-20T14:02:29.000Z</time>
      </trkpt>
      <trkpt lat="45.12984" lon="2.55836">
        <ele>1278.6</ele>
        <time>2018-05-20T14:02:35.000Z</time>
      </trkpt>
      <trkpt lat="45.12984" lon="2.55836">
        <ele>1278.6</ele>
        <time>2018-05-20T14:02:37.000Z</time>
      </trkpt>
      <trkpt lat="45.12984" lon="2.55837">
        <ele>1278.6</ele>
        <time>2018-05-20T14:02:38.000Z</time>
      </trkpt>
      <trkpt lat="45.12985" lon="2.55834">
        <ele>1278.8</ele>
        <time>2018-05-20T14:02:44.000Z</time>
      </trkpt>
      <trkpt lat="45.12985" lon="2.55833">
        <ele>1278.6</ele>
        <time>2018-05-20T14:02:46.000Z</time>
      </trkpt>
      <trkpt lat="45.12981" lon="2.55829">
        <ele>1278.4</ele>
        <time>2018-05-20T14:02:50.000Z</time>
      </trkpt>
      <trkpt lat="45.12974" lon="2.55819">
        <ele>1277.2</ele>
        <time>2018-05-20T14:02:55.000Z</time>
      </trkpt>
      <trkpt lat="45.12973" lon="2.55816">
        <ele>1277</ele>
        <time>2018-05-20T14:02:56.000Z</time>
      </trkpt>
      <trkpt lat="45.1297" lon="2.55809">
        <ele>1276</ele>
        <time>2018-05-20T14:02:59.000Z</time>
      </trkpt>
      <trkpt lat="45.12967" lon="2.55805">
        <ele>1274.8</ele>
        <time>2018-05-20T14:03:01.000Z</time>
      </trkpt>
      <trkpt lat="45.12965" lon="2.55802">
        <ele>1274.2</ele>
        <time>2018-05-20T14:03:02.000Z</time>
      </trkpt>
      <trkpt lat="45.12959" lon="2.55793">
        <ele>1272.4</ele>
        <time>2018-05-20T14:03:05.000Z</time>
      </trkpt>
      <trkpt lat="45.12957" lon="2.55791">
        <ele>1271.8</ele>
        <time>2018-05-20T14:03:06.000Z</time>
      </trkpt>
      <trkpt lat="45.12955" lon="2.5579">
        <ele>1271</ele>
        <time>2018-05-20T14:03:07.000Z</time>
      </trkpt>
      <trkpt lat="45.12953" lon="2.55787">
        <ele>1269.8</ele>
        <time>2018-05-20T14:03:09.000Z</time>
      </trkpt>
      <trkpt lat="45.12951" lon="2.55786">
        <ele>1268.6</ele>
        <time>2018-05-20T14:03:11.000Z</time>
      </trkpt>
      <trkpt lat="45.12949" lon="2.55781">
        <ele>1267.6</ele>
        <time>2018-05-20T14:03:14.000Z</time>
      </trkpt>
      <trkpt lat="45.12948" lon="2.55778">
        <ele>1266.8</ele>
        <time>2018-05-20T14:03:16.000Z</time>
      </trkpt>
      <trkpt lat="45.12949" lon="2.55769">
        <ele>1265.6</ele>
        <time>2018-05-20T14:03:19.000Z</time>
      </trkpt>
      <trkpt lat="45.12949" lon="2.55766">
        <ele>1265.2</ele>
        <time>2018-05-20T14:03:20.000Z</time>
      </trkpt>
      <trkpt lat="45.1295" lon="2.5575">
        <ele>1263.4</ele>
        <time>2018-05-20T14:03:28.000Z</time>
      </trkpt>
      <trkpt lat="45.12951" lon="2.5575">
        <ele>1263</ele>
        <time>2018-05-20T14:03:29.000Z</time>
      </trkpt>
      <trkpt lat="45.12951" lon="2.55748">
        <ele>1262.6</ele>
        <time>2018-05-20T14:03:30.000Z</time>
      </trkpt>
      <trkpt lat="45.12951" lon="2.55746">
        <ele>1261.8</ele>
        <time>2018-05-20T14:03:32.000Z</time>
      </trkpt>
      <trkpt lat="45.1295" lon="2.5574">
        <ele>1261.2</ele>
        <time>2018-05-20T14:03:35.000Z</time>
      </trkpt>
      <trkpt lat="45.12951" lon="2.55713">
        <ele>1259</ele>
        <time>2018-05-20T14:03:45.000Z</time>
      </trkpt>
      <trkpt lat="45.1295" lon="2.5571">
        <ele>1258.4</ele>
        <time>2018-05-20T14:03:46.000Z</time>
      </trkpt>
      <trkpt lat="45.12952" lon="2.55687">
        <ele>1255.8</ele>
        <time>2018-05-20T14:03:51.000Z</time>
      </trkpt>
      <trkpt lat="45.1295" lon="2.55577">
        <ele>1244.6</ele>
        <time>2018-05-20T14:04:19.000Z</time>
      </trkpt>
      <trkpt lat="45.12953" lon="2.55546">
        <ele>1242.2</ele>
        <time>2018-05-20T14:04:28.000Z</time>
      </trkpt>
      <trkpt lat="45.12969" lon="2.55486">
        <ele>1237.6</ele>
        <time>2018-05-20T14:04:47.000Z</time>
      </trkpt>
      <trkpt lat="45.1297" lon="2.55485">
        <ele>1237</ele>
        <time>2018-05-20T14:04:49.000Z</time>
      </trkpt>
      <trkpt lat="45.1297" lon="2.55486">
        <ele>1236.8</ele>
        <time>2018-05-20T14:04:51.000Z</time>
      </trkpt>
      <trkpt lat="45.12969" lon="2.5548">
        <ele>1236.6</ele>
        <time>2018-05-20T14:04:59.000Z</time>
      </trkpt>
      <trkpt lat="45.12969" lon="2.55477">
        <ele>1235.8</ele>
        <time>2018-05-20T14:05:05.000Z</time>
      </trkpt>
      <trkpt lat="45.12969" lon="2.55474">
        <ele>1235.8</ele>
        <time>2018-05-20T14:05:07.000Z</time>
      </trkpt>
      <trkpt lat="45.12971" lon="2.5547">
        <ele>1235.4</ele>
        <time>2018-05-20T14:05:09.000Z</time>
      </trkpt>
      <trkpt lat="45.12969" lon="2.55399">
        <ele>1227.8</ele>
        <time>2018-05-20T14:05:32.000Z</time>
      </trkpt>
      <trkpt lat="45.1297" lon="2.55384">
        <ele>1226.8</ele>
        <time>2018-05-20T14:05:37.000Z</time>
      </trkpt>
      <trkpt lat="45.12971" lon="2.55383">
        <ele>1226.6</ele>
        <time>2018-05-20T14:05:38.000Z</time>
      </trkpt>
      <trkpt lat="45.1297" lon="2.55382">
        <ele>1226.4</ele>
        <time>2018-05-20T14:05:39.000Z</time>
      </trkpt>
      <trkpt lat="45.1297" lon="2.55378">
        <ele>1225.8</ele>
        <time>2018-05-20T14:05:42.000Z</time>
      </trkpt>
      <trkpt lat="45.1297" lon="2.55377">
        <ele>1225.4</ele>
        <time>2018-05-20T14:05:44.000Z</time>
      </trkpt>
      <trkpt lat="45.12969" lon="2.55368">
        <ele>1224</ele>
        <time>2018-05-20T14:05:48.000Z</time>
      </trkpt>
      <trkpt lat="45.12971" lon="2.55346">
        <ele>1221.6</ele>
        <time>2018-05-20T14:05:55.000Z</time>
      </trkpt>
      <trkpt lat="45.12968" lon="2.55306">
        <ele>1214.8</ele>
        <time>2018-05-20T14:06:09.000Z</time>
      </trkpt>
      <trkpt lat="45.12969" lon="2.55301">
        <ele>1214</ele>
        <time>2018-05-20T14:06:11.000Z</time>
      </trkpt>
      <trkpt lat="45.12968" lon="2.55298">
        <ele>1213.8</ele>
        <time>2018-05-20T14:06:12.000Z</time>
      </trkpt>
      <trkpt lat="45.12968" lon="2.55292">
        <ele>1212.6</ele>
        <time>2018-05-20T14:06:15.000Z</time>
      </trkpt>
      <trkpt lat="45.12968" lon="2.5529">
        <ele>1212</ele>
        <time>2018-05-20T14:06:16.000Z</time>
      </trkpt>
      <trkpt lat="45.12967" lon="2.55257">
        <ele>1204.8</ele>
        <time>2018-05-20T14:06:31.000Z</time>
      </trkpt>
      <trkpt lat="45.1297" lon="2.55187">
        <ele>1194.6</ele>
        <time>2018-05-20T14:06:53.000Z</time>
      </trkpt>
      <trkpt lat="45.12972" lon="2.55181">
        <ele>1193.4</ele>
        <time>2018-05-20T14:06:55.000Z</time>
      </trkpt>
      <trkpt lat="45.12979" lon="2.55121">
        <ele>1190.2</ele>
        <time>2018-05-20T14:07:12.000Z</time>
      </trkpt>
      <trkpt lat="45.12996" lon="2.55086">
        <ele>1190.6</ele>
        <time>2018-05-20T14:07:26.000Z</time>
      </trkpt>
      <trkpt lat="45.13002" lon="2.55082">
        <ele>1190.8</ele>
        <time>2018-05-20T14:07:32.000Z</time>
      </trkpt>
      <trkpt lat="45.13003" lon="2.55078">
        <ele>1190.8</ele>
        <time>2018-05-20T14:07:34.000Z</time>
      </trkpt>
      <trkpt lat="45.13004" lon="2.55075">
        <ele>1190.6</ele>
        <time>2018-05-20T14:07:36.000Z</time>
      </trkpt>
      <trkpt lat="45.13018" lon="2.55058">
        <ele>1189.6</ele>
        <time>2018-05-20T14:07:45.000Z</time>
      </trkpt>
      <trkpt lat="45.13032" lon="2.55035">
        <ele>1188.2</ele>
        <time>2018-05-20T14:07:53.000Z</time>
      </trkpt>
      <trkpt lat="45.13044" lon="2.55027">
        <ele>1187</ele>
        <time>2018-05-20T14:07:58.000Z</time>
      </trkpt>
      <trkpt lat="45.13057" lon="2.55009">
        <ele>1186.2</ele>
        <time>2018-05-20T14:08:05.000Z</time>
      </trkpt>
      <trkpt lat="45.13061" lon="2.55005">
        <ele>1186.4</ele>
        <time>2018-05-20T14:08:09.000Z</time>
      </trkpt>
      <trkpt lat="45.13076" lon="2.5498">
        <ele>1185</ele>
        <time>2018-05-20T14:08:24.000Z</time>
      </trkpt>
      <trkpt lat="45.1309" lon="2.54959">
        <ele>1184.4</ele>
        <time>2018-05-20T14:08:32.000Z</time>
      </trkpt>
      <trkpt lat="45.13099" lon="2.5495">
        <ele>1183.8</ele>
        <time>2018-05-20T14:08:37.000Z</time>
      </trkpt>
      <trkpt lat="45.13106" lon="2.54928">
        <ele>1183</ele>
        <time>2018-05-20T14:08:44.000Z</time>
      </trkpt>
      <trkpt lat="45.13109" lon="2.54875">
        <ele>1181.2</ele>
        <time>2018-05-20T14:09:00.000Z</time>
      </trkpt>
      <trkpt lat="45.1311" lon="2.54872">
        <ele>1181</ele>
        <time>2018-05-20T14:09:03.000Z</time>
      </trkpt>
      <trkpt lat="45.13111" lon="2.54873">
        <ele>1180.8</ele>
        <time>2018-05-20T14:09:05.000Z</time>
      </trkpt>
      <trkpt lat="45.13115" lon="2.54866">
        <ele>1180.8</ele>
        <time>2018-05-20T14:09:14.000Z</time>
      </trkpt>
      <trkpt lat="45.13114" lon="2.54853">
        <ele>1181.2</ele>
        <time>2018-05-20T14:09:28.000Z</time>
      </trkpt>
      <trkpt lat="45.13115" lon="2.54851">
        <ele>1181.2</ele>
        <time>2018-05-20T14:09:31.000Z</time>
      </trkpt>
      <trkpt lat="45.13119" lon="2.54853">
        <ele>1180.4</ele>
        <time>2018-05-20T14:09:46.000Z</time>
      </trkpt>
      <trkpt lat="45.13118" lon="2.54856">
        <ele>1180</ele>
        <time>2018-05-20T14:09:52.000Z</time>
      </trkpt>
      <trkpt lat="45.1312" lon="2.54857">
        <ele>1180</ele>
        <time>2018-05-20T14:09:57.000Z</time>
      </trkpt>
      <trkpt lat="45.1312" lon="2.54858">
        <ele>1180.2</ele>
        <time>2018-05-20T14:10:01.000Z</time>
      </trkpt>
      <trkpt lat="45.1312" lon="2.54858">
        <ele>1180.2</ele>
        <time>2018-05-20T14:10:03.000Z</time>
      </trkpt>
      <trkpt lat="45.1312" lon="2.54858">
        <ele>1180</ele>
        <time>2018-05-20T14:10:07.000Z</time>
      </trkpt>
      <trkpt lat="45.13121" lon="2.54857">
        <ele>1180</ele>
        <time>2018-05-20T14:10:18.000Z</time>
      </trkpt>
      <trkpt lat="45.13119" lon="2.54836">
        <ele>1180.6</ele>
        <time>2018-05-20T14:10:33.000Z</time>
      </trkpt>
      <trkpt lat="45.1312" lon="2.54776">
        <ele>1180.4</ele>
        <time>2018-05-20T14:10:57.000Z</time>
      </trkpt>
      <trkpt lat="45.13121" lon="2.54767">
        <ele>1181.2</ele>
        <time>2018-05-20T14:11:02.000Z</time>
      </trkpt>
      <trkpt lat="45.13122" lon="2.54766">
        <ele>1181.4</ele>
        <time>2018-05-20T14:11:03.000Z</time>
      </trkpt>
      <trkpt lat="45.13122" lon="2.54766">
        <ele>1181.6</ele>
        <time>2018-05-20T14:11:04.000Z</time>
      </trkpt>
      <trkpt lat="45.13123" lon="2.54766">
        <ele>1181.8</ele>
        <time>2018-05-20T14:11:05.000Z</time>
      </trkpt>
      <trkpt lat="45.13123" lon="2.54766">
        <ele>1182</ele>
        <time>2018-05-20T14:11:06.000Z</time>
      </trkpt>
      <trkpt lat="45.13124" lon="2.54765">
        <ele>1182</ele>
        <time>2018-05-20T14:11:07.000Z</time>
      </trkpt>
      <trkpt lat="45.13124" lon="2.54763">
        <ele>1182.2</ele>
        <time>2018-05-20T14:11:08.000Z</time>
      </trkpt>
      <trkpt lat="45.13122" lon="2.54755">
        <ele>1183</ele>
        <time>2018-05-20T14:11:13.000Z</time>
      </trkpt>
      <trkpt lat="45.13123" lon="2.54743">
        <ele>1184.2</ele>
        <time>2018-05-20T14:11:21.000Z</time>
      </trkpt>
      <trkpt lat="45.13124" lon="2.54738">
        <ele>1184.4</ele>
        <time>2018-05-20T14:11:24.000Z</time>
      </trkpt>
      <trkpt lat="45.13125" lon="2.54735">
        <ele>1184.6</ele>
        <time>2018-05-20T14:11:26.000Z</time>
      </trkpt>
      <trkpt lat="45.13126" lon="2.54733">
        <ele>1184.8</ele>
        <time>2018-05-20T14:11:28.000Z</time>
      </trkpt>
      <trkpt lat="45.13128" lon="2.54732">
        <ele>1184.8</ele>
        <time>2018-05-20T14:11:29.000Z</time>
      </trkpt>
      <trkpt lat="45.13129" lon="2.54732">
        <ele>1185</ele>
        <time>2018-05-20T14:11:30.000Z</time>
      </trkpt>
      <trkpt lat="45.13133" lon="2.54727">
        <ele>1185.2</ele>
        <time>2018-05-20T14:11:35.000Z</time>
      </trkpt>
      <trkpt lat="45.13133" lon="2.54715">
        <ele>1185.6</ele>
        <time>2018-05-20T14:11:43.000Z</time>
      </trkpt>
      <trkpt lat="45.13125" lon="2.54691">
        <ele>1185.6</ele>
        <time>2018-05-20T14:11:55.000Z</time>
      </trkpt>
      <trkpt lat="45.13123" lon="2.54674">
        <ele>1186</ele>
        <time>2018-05-20T14:12:02.000Z</time>
      </trkpt>
      <trkpt lat="45.13123" lon="2.54666">
        <ele>1186</ele>
        <time>2018-05-20T14:12:05.000Z</time>
      </trkpt>
      <trkpt lat="45.13125" lon="2.54656">
        <ele>1186.2</ele>
        <time>2018-05-20T14:12:09.000Z</time>
      </trkpt>
      <trkpt lat="45.13126" lon="2.54648">
        <ele>1186.6</ele>
        <time>2018-05-20T14:12:12.000Z</time>
      </trkpt>
      <trkpt lat="45.13117" lon="2.54617">
        <ele>1187</ele>
        <time>2018-05-20T14:12:22.000Z</time>
      </trkpt>
      <trkpt lat="45.13115" lon="2.54584">
        <ele>1187.2</ele>
        <time>2018-05-20T14:12:32.000Z</time>
      </trkpt>
      <trkpt lat="45.13123" lon="2.54511">
        <ele>1185.8</ele>
        <time>2018-05-20T14:12:54.000Z</time>
      </trkpt>
      <trkpt lat="45.1313" lon="2.5449">
        <ele>1184.8</ele>
        <time>2018-05-20T14:13:01.000Z</time>
      </trkpt>
      <trkpt lat="45.13143" lon="2.54469">
        <ele>1184.2</ele>
        <time>2018-05-20T14:13:10.000Z</time>
      </trkpt>
      <trkpt lat="45.13148" lon="2.54454">
        <ele>1183.6</ele>
        <time>2018-05-20T14:13:15.000Z</time>
      </trkpt>
      <trkpt lat="45.13155" lon="2.54414">
        <ele>1180.4</ele>
        <time>2018-05-20T14:13:26.000Z</time>
      </trkpt>
      <trkpt lat="45.13172" lon="2.5436">
        <ele>1178.6</ele>
        <time>2018-05-20T14:13:45.000Z</time>
      </trkpt>
      <trkpt lat="45.13186" lon="2.54283">
        <ele>1179.2</ele>
        <time>2018-05-20T14:14:19.000Z</time>
      </trkpt>
      <trkpt lat="45.13194" lon="2.54262">
        <ele>1179.8</ele>
        <time>2018-05-20T14:14:32.000Z</time>
      </trkpt>
      <trkpt lat="45.13193" lon="2.54259">
        <ele>1180</ele>
        <time>2018-05-20T14:14:34.000Z</time>
      </trkpt>
      <trkpt lat="45.13194" lon="2.54251">
        <ele>1180.2</ele>
        <time>2018-05-20T14:14:40.000Z</time>
      </trkpt>
      <trkpt lat="45.132" lon="2.54221">
        <ele>1181.2</ele>
        <time>2018-05-20T14:14:53.000Z</time>
      </trkpt>
      <trkpt lat="45.13201" lon="2.54219">
        <ele>1181.4</ele>
        <time>2018-05-20T14:14:54.000Z</time>
      </trkpt>
      <trkpt lat="45.13203" lon="2.54194">
        <ele>1180.4</ele>
        <time>2018-05-20T14:15:04.000Z</time>
      </trkpt>
      <trkpt lat="45.13203" lon="2.54128">
        <ele>1178</ele>
        <time>2018-05-20T14:15:25.000Z</time>
      </trkpt>
      <trkpt lat="45.13196" lon="2.54104">
        <ele>1177</ele>
        <time>2018-05-20T14:15:33.000Z</time>
      </trkpt>
      <trkpt lat="45.1319" lon="2.54089">
        <ele>1176.2</ele>
        <time>2018-05-20T14:15:39.000Z</time>
      </trkpt>
      <trkpt lat="45.1319" lon="2.54087">
        <ele>1176</ele>
        <time>2018-05-20T14:15:40.000Z</time>
      </trkpt>
      <trkpt lat="45.13176" lon="2.54057">
        <ele>1173.4</ele>
        <time>2018-05-20T14:15:52.000Z</time>
      </trkpt>
      <trkpt lat="45.13172" lon="2.54046">
        <ele>1173.2</ele>
        <time>2018-05-20T14:15:56.000Z</time>
      </trkpt>
      <trkpt lat="45.13169" lon="2.54033">
        <ele>1172.6</ele>
        <time>2018-05-20T14:16:00.000Z</time>
      </trkpt>
      <trkpt lat="45.13135" lon="2.53925">
        <ele>1161.6</ele>
        <time>2018-05-20T14:16:40.000Z</time>
      </trkpt>
      <trkpt lat="45.13135" lon="2.53919">
        <ele>1160.4</ele>
        <time>2018-05-20T14:16:42.000Z</time>
      </trkpt>
      <trkpt lat="45.13138" lon="2.53905">
        <ele>1157.6</ele>
        <time>2018-05-20T14:16:47.000Z</time>
      </trkpt>
      <trkpt lat="45.13143" lon="2.53891">
        <ele>1155.2</ele>
        <time>2018-05-20T14:16:52.000Z</time>
      </trkpt>
      <trkpt lat="45.13145" lon="2.53887">
        <ele>1154.4</ele>
        <time>2018-05-20T14:16:55.000Z</time>
      </trkpt>
      <trkpt lat="45.13146" lon="2.53886">
        <ele>1154</ele>
        <time>2018-05-20T14:16:56.000Z</time>
      </trkpt>
      <trkpt lat="45.13162" lon="2.53866">
        <ele>1150</ele>
        <time>2018-05-20T14:17:06.000Z</time>
      </trkpt>
      <trkpt lat="45.13164" lon="2.53864">
        <ele>1149</ele>
        <time>2018-05-20T14:17:08.000Z</time>
      </trkpt>
      <trkpt lat="45.13168" lon="2.53857">
        <ele>1147.6</ele>
        <time>2018-05-20T14:17:12.000Z</time>
      </trkpt>
      <trkpt lat="45.13169" lon="2.53853">
        <ele>1146.2</ele>
        <time>2018-05-20T14:17:15.000Z</time>
      </trkpt>
      <trkpt lat="45.13171" lon="2.53845">
        <ele>1145.8</ele>
        <time>2018-05-20T14:17:21.000Z</time>
      </trkpt>
      <trkpt lat="45.13169" lon="2.53831">
        <ele>1144</ele>
        <time>2018-05-20T14:17:28.000Z</time>
      </trkpt>
      <trkpt lat="45.13166" lon="2.53823">
        <ele>1143</ele>
        <time>2018-05-20T14:17:31.000Z</time>
      </trkpt>
      <trkpt lat="45.13162" lon="2.5382">
        <ele>1141</ele>
        <time>2018-05-20T14:17:35.000Z</time>
      </trkpt>
      <trkpt lat="45.13162" lon="2.5382">
        <ele>1140.4</ele>
        <time>2018-05-20T14:17:37.000Z</time>
      </trkpt>
      <trkpt lat="45.13162" lon="2.5382">
        <ele>1139.8</ele>
        <time>2018-05-20T14:17:41.000Z</time>
      </trkpt>
      <trkpt lat="45.13161" lon="2.5382">
        <ele>1139.6</ele>
        <time>2018-05-20T14:17:45.000Z</time>
      </trkpt>
      <trkpt lat="45.13161" lon="2.5382">
        <ele>1139.2</ele>
        <time>2018-05-20T14:17:47.000Z</time>
      </trkpt>
      <trkpt lat="45.13162" lon="2.53821">
        <ele>1139.4</ele>
        <time>2018-05-20T14:17:54.000Z</time>
      </trkpt>
      <trkpt lat="45.13162" lon="2.53821">
        <ele>1139</ele>
        <time>2018-05-20T14:18:11.000Z</time>
      </trkpt>
      <trkpt lat="45.13162" lon="2.53815">
        <ele>1139</ele>
        <time>2018-05-20T14:18:14.000Z</time>
      </trkpt>
      <trkpt lat="45.13163" lon="2.53821">
        <ele>1138.6</ele>
        <time>2018-05-20T14:18:22.000Z</time>
      </trkpt>
      <trkpt lat="45.13163" lon="2.53819">
        <ele>1138.6</ele>
        <time>2018-05-20T14:18:26.000Z</time>
      </trkpt>
      <trkpt lat="45.13163" lon="2.53819">
        <ele>1138.8</ele>
        <time>2018-05-20T14:18:30.000Z</time>
      </trkpt>
      <trkpt lat="45.13162" lon="2.53817">
        <ele>1139</ele>
        <time>2018-05-20T14:18:35.000Z</time>
      </trkpt>
      <trkpt lat="45.13161" lon="2.53813">
        <ele>1139</ele>
        <time>2018-05-20T14:18:41.000Z</time>
      </trkpt>
      <trkpt lat="45.13153" lon="2.53801">
        <ele>1138</ele>
        <time>2018-05-20T14:18:48.000Z</time>
      </trkpt>
      <trkpt lat="45.13151" lon="2.53793">
        <ele>1136.6</ele>
        <time>2018-05-20T14:18:51.000Z</time>
      </trkpt>
      <trkpt lat="45.13149" lon="2.53784">
        <ele>1136</ele>
        <time>2018-05-20T14:18:54.000Z</time>
      </trkpt>
      <trkpt lat="45.13149" lon="2.53779">
        <ele>1135.6</ele>
        <time>2018-05-20T14:18:56.000Z</time>
      </trkpt>
      <trkpt lat="45.13146" lon="2.53771">
        <ele>1135.2</ele>
        <time>2018-05-20T14:18:59.000Z</time>
      </trkpt>
      <trkpt lat="45.13145" lon="2.53765">
        <ele>1134.4</ele>
        <time>2018-05-20T14:19:02.000Z</time>
      </trkpt>
      <trkpt lat="45.13143" lon="2.53761">
        <ele>1133.4</ele>
        <time>2018-05-20T14:19:06.000Z</time>
      </trkpt>
      <trkpt lat="45.1314" lon="2.53761">
        <ele>1132.4</ele>
        <time>2018-05-20T14:19:11.000Z</time>
      </trkpt>
      <trkpt lat="45.13132" lon="2.53751">
        <ele>1128.8</ele>
        <time>2018-05-20T14:19:22.000Z</time>
      </trkpt>
      <trkpt lat="45.13131" lon="2.5375">
        <ele>1128.4</ele>
        <time>2018-05-20T14:19:23.000Z</time>
      </trkpt>
      <trkpt lat="45.1313" lon="2.53748">
        <ele>1127.6</ele>
        <time>2018-05-20T14:19:25.000Z</time>
      </trkpt>
      <trkpt lat="45.13129" lon="2.53745">
        <ele>1126.8</ele>
        <time>2018-05-20T14:19:27.000Z</time>
      </trkpt>
      <trkpt lat="45.13128" lon="2.53744">
        <ele>1126.4</ele>
        <time>2018-05-20T14:19:28.000Z</time>
      </trkpt>
      <trkpt lat="45.13126" lon="2.53743">
        <ele>1125.8</ele>
        <time>2018-05-20T14:19:31.000Z</time>
      </trkpt>
      <trkpt lat="45.13124" lon="2.53745">
        <ele>1125.2</ele>
        <time>2018-05-20T14:19:33.000Z</time>
      </trkpt>
      <trkpt lat="45.13124" lon="2.53747">
        <ele>1124.2</ele>
        <time>2018-05-20T14:19:35.000Z</time>
      </trkpt>
      <trkpt lat="45.13123" lon="2.53748">
        <ele>1123.6</ele>
        <time>2018-05-20T14:19:36.000Z</time>
      </trkpt>
      <trkpt lat="45.13124" lon="2.5375">
        <ele>1123.4</ele>
        <time>2018-05-20T14:19:37.000Z</time>
      </trkpt>
      <trkpt lat="45.13123" lon="2.53752">
        <ele>1123</ele>
        <time>2018-05-20T14:19:39.000Z</time>
      </trkpt>
      <trkpt lat="45.13121" lon="2.53754">
        <ele>1122.6</ele>
        <time>2018-05-20T14:19:41.000Z</time>
      </trkpt>
      <trkpt lat="45.13118" lon="2.53755">
        <ele>1121.6</ele>
        <time>2018-05-20T14:19:44.000Z</time>
      </trkpt>
      <trkpt lat="45.13116" lon="2.53757">
        <ele>1120.6</ele>
        <time>2018-05-20T14:19:47.000Z</time>
      </trkpt>
      <trkpt lat="45.13115" lon="2.53758">
        <ele>1120.4</ele>
        <time>2018-05-20T14:19:48.000Z</time>
      </trkpt>
      <trkpt lat="45.13114" lon="2.53759">
        <ele>1120</ele>
        <time>2018-05-20T14:19:49.000Z</time>
      </trkpt>
      <trkpt lat="45.13112" lon="2.53762">
        <ele>1119.6</ele>
        <time>2018-05-20T14:19:53.000Z</time>
      </trkpt>
      <trkpt lat="45.1311" lon="2.53762">
        <ele>1119.4</ele>
        <time>2018-05-20T14:19:54.000Z</time>
      </trkpt>
      <trkpt lat="45.13105" lon="2.53767">
        <ele>1118</ele>
        <time>2018-05-20T14:19:59.000Z</time>
      </trkpt>
      <trkpt lat="45.13103" lon="2.53768">
        <ele>1117.6</ele>
        <time>2018-05-20T14:20:00.000Z</time>
      </trkpt>
      <trkpt lat="45.131" lon="2.5377">
        <ele>1116.6</ele>
        <time>2018-05-20T14:20:02.000Z</time>
      </trkpt>
      <trkpt lat="45.13097" lon="2.53768">
        <ele>1116</ele>
        <time>2018-05-20T14:20:04.000Z</time>
      </trkpt>
      <trkpt lat="45.13096" lon="2.53767">
        <ele>1115.6</ele>
        <time>2018-05-20T14:20:05.000Z</time>
      </trkpt>
      <trkpt lat="45.13094" lon="2.53765">
        <ele>1114.8</ele>
        <time>2018-05-20T14:20:08.000Z</time>
      </trkpt>
      <trkpt lat="45.13094" lon="2.53764">
        <ele>1114.6</ele>
        <time>2018-05-20T14:20:09.000Z</time>
      </trkpt>
      <trkpt lat="45.13093" lon="2.53763">
        <ele>1114.4</ele>
        <time>2018-05-20T14:20:10.000Z</time>
      </trkpt>
      <trkpt lat="45.13093" lon="2.53763">
        <ele>1114.2</ele>
        <time>2018-05-20T14:20:11.000Z</time>
      </trkpt>
      <trkpt lat="45.13093" lon="2.53763">
        <ele>1114</ele>
        <time>2018-05-20T14:20:12.000Z</time>
      </trkpt>
      <trkpt lat="45.1309" lon="2.53763">
        <ele>1113.4</ele>
        <time>2018-05-20T14:20:15.000Z</time>
      </trkpt>
      <trkpt lat="45.13087" lon="2.53764">
        <ele>1112.4</ele>
        <time>2018-05-20T14:20:18.000Z</time>
      </trkpt>
      <trkpt lat="45.13087" lon="2.53765">
        <ele>1111.8</ele>
        <time>2018-05-20T14:20:19.000Z</time>
      </trkpt>
      <trkpt lat="45.13086" lon="2.53765">
        <ele>1111.2</ele>
        <time>2018-05-20T14:20:20.000Z</time>
      </trkpt>
      <trkpt lat="45.13084" lon="2.53765">
        <ele>1110.4</ele>
        <time>2018-05-20T14:20:22.000Z</time>
      </trkpt>
      <trkpt lat="45.13083" lon="2.53765">
        <ele>1110</ele>
        <time>2018-05-20T14:20:23.000Z</time>
      </trkpt>
      <trkpt lat="45.13082" lon="2.53766">
        <ele>1109.8</ele>
        <time>2018-05-20T14:20:24.000Z</time>
      </trkpt>
      <trkpt lat="45.13081" lon="2.53767">
        <ele>1109.4</ele>
        <time>2018-05-20T14:20:26.000Z</time>
      </trkpt>
      <trkpt lat="45.1308" lon="2.53768">
        <ele>1109</ele>
        <time>2018-05-20T14:20:28.000Z</time>
      </trkpt>
      <trkpt lat="45.13079" lon="2.53769">
        <ele>1108.8</ele>
        <time>2018-05-20T14:20:29.000Z</time>
      </trkpt>
      <trkpt lat="45.13078" lon="2.53769">
        <ele>1108.6</ele>
        <time>2018-05-20T14:20:31.000Z</time>
      </trkpt>
      <trkpt lat="45.13073" lon="2.53768">
        <ele>1107.8</ele>
        <time>2018-05-20T14:20:38.000Z</time>
      </trkpt>
      <trkpt lat="45.1307" lon="2.53769">
        <ele>1106.4</ele>
        <time>2018-05-20T14:20:42.000Z</time>
      </trkpt>
      <trkpt lat="45.13066" lon="2.53769">
        <ele>1105</ele>
        <time>2018-05-20T14:20:45.000Z</time>
      </trkpt>
      <trkpt lat="45.13064" lon="2.53767">
        <ele>1103.6</ele>
        <time>2018-05-20T14:20:48.000Z</time>
      </trkpt>
      <trkpt lat="45.13063" lon="2.53767">
        <ele>1103.4</ele>
        <time>2018-05-20T14:20:49.000Z</time>
      </trkpt>
      <trkpt lat="45.13054" lon="2.5376">
        <ele>1100.8</ele>
        <time>2018-05-20T14:20:58.000Z</time>
      </trkpt>
      <trkpt lat="45.13043" lon="2.53757">
        <ele>1099.6</ele>
        <time>2018-05-20T14:21:02.000Z</time>
      </trkpt>
      <trkpt lat="45.13042" lon="2.53756">
        <ele>1098.8</ele>
        <time>2018-05-20T14:21:04.000Z</time>
      </trkpt>
      <trkpt lat="45.13041" lon="2.53751">
        <ele>1098</ele>
        <time>2018-05-20T14:21:08.000Z</time>
      </trkpt>
      <trkpt lat="45.13038" lon="2.5374">
        <ele>1096.2</ele>
        <time>2018-05-20T14:21:16.000Z</time>
      </trkpt>
      <trkpt lat="45.13039" lon="2.53738">
        <ele>1095.8</ele>
        <time>2018-05-20T14:21:18.000Z</time>
      </trkpt>
      <trkpt lat="45.13039" lon="2.53737">
        <ele>1094.6</ele>
        <time>2018-05-20T14:21:20.000Z</time>
      </trkpt>
      <trkpt lat="45.13038" lon="2.53735">
        <ele>1093.4</ele>
        <time>2018-05-20T14:21:23.000Z</time>
      </trkpt>
      <trkpt lat="45.13033" lon="2.53731">
        <ele>1092</ele>
        <time>2018-05-20T14:21:28.000Z</time>
      </trkpt>
      <trkpt lat="45.13023" lon="2.53728">
        <ele>1088.4</ele>
        <time>2018-05-20T14:21:35.000Z</time>
      </trkpt>
      <trkpt lat="45.1302" lon="2.53726">
        <ele>1087.2</ele>
        <time>2018-05-20T14:21:37.000Z</time>
      </trkpt>
      <trkpt lat="45.13017" lon="2.53723">
        <ele>1085.6</ele>
        <time>2018-05-20T14:21:39.000Z</time>
      </trkpt>
      <trkpt lat="45.13016" lon="2.53719">
        <ele>1084.4</ele>
        <time>2018-05-20T14:21:41.000Z</time>
      </trkpt>
      <trkpt lat="45.13016" lon="2.53717">
        <ele>1083.8</ele>
        <time>2018-05-20T14:21:42.000Z</time>
      </trkpt>
      <trkpt lat="45.13016" lon="2.53716">
        <ele>1083.2</ele>
        <time>2018-05-20T14:21:43.000Z</time>
      </trkpt>
      <trkpt lat="45.13016" lon="2.53715">
        <ele>1082.4</ele>
        <time>2018-05-20T14:21:44.000Z</time>
      </trkpt>
      <trkpt lat="45.13015" lon="2.53714">
        <ele>1082</ele>
        <time>2018-05-20T14:21:45.000Z</time>
      </trkpt>
      <trkpt lat="45.13015" lon="2.53711">
        <ele>1081</ele>
        <time>2018-05-20T14:21:47.000Z</time>
      </trkpt>
      <trkpt lat="45.13015" lon="2.53706">
        <ele>1080</ele>
        <time>2018-05-20T14:21:49.000Z</time>
      </trkpt>
      <trkpt lat="45.13014" lon="2.53705">
        <ele>1079</ele>
        <time>2018-05-20T14:21:51.000Z</time>
      </trkpt>
      <trkpt lat="45.13014" lon="2.53705">
        <ele>1078.6</ele>
        <time>2018-05-20T14:21:52.000Z</time>
      </trkpt>
      <trkpt lat="45.13012" lon="2.53697">
        <ele>1077.6</ele>
        <time>2018-05-20T14:21:57.000Z</time>
      </trkpt>
      <trkpt lat="45.1301" lon="2.53678">
        <ele>1077.2</ele>
        <time>2018-05-20T14:22:07.000Z</time>
      </trkpt>
      <trkpt lat="45.13008" lon="2.53672">
        <ele>1077</ele>
        <time>2018-05-20T14:22:11.000Z</time>
      </trkpt>
      <trkpt lat="45.13009" lon="2.53671">
        <ele>1077</ele>
        <time>2018-05-20T14:22:14.000Z</time>
      </trkpt>
      <trkpt lat="45.1301" lon="2.53672">
        <ele>1077</ele>
        <time>2018-05-20T14:22:18.000Z</time>
      </trkpt>
      <trkpt lat="45.13017" lon="2.53684">
        <ele>1076.6</ele>
        <time>2018-05-20T14:22:34.000Z</time>
      </trkpt>
      <trkpt lat="45.13022" lon="2.53683">
        <ele>1076.6</ele>
        <time>2018-05-20T14:22:38.000Z</time>
      </trkpt>
      <trkpt lat="45.13026" lon="2.5368">
        <ele>1076.6</ele>
        <time>2018-05-20T14:22:41.000Z</time>
      </trkpt>
      <trkpt lat="45.1302" lon="2.53683">
        <ele>1076.6</ele>
        <time>2018-05-20T14:22:45.000Z</time>
      </trkpt>
      <trkpt lat="45.13017" lon="2.53684">
        <ele>1076.4</ele>
        <time>2018-05-20T14:22:49.000Z</time>
      </trkpt>
      <trkpt lat="45.13015" lon="2.53679">
        <ele>1076.2</ele>
        <time>2018-05-20T14:22:56.000Z</time>
      </trkpt>
      <trkpt lat="45.13011" lon="2.53686">
        <ele>1076.4</ele>
        <time>2018-05-20T14:23:01.000Z</time>
      </trkpt>
      <trkpt lat="45.13015" lon="2.53687">
        <ele>1076.2</ele>
        <time>2018-05-20T14:23:11.000Z</time>
      </trkpt>
      <trkpt lat="45.13017" lon="2.53686">
        <ele>1076</ele>
        <time>2018-05-20T14:23:17.000Z</time>
      </trkpt>
      <trkpt lat="45.13018" lon="2.53687">
        <ele>1076</ele>
        <time>2018-05-20T14:23:20.000Z</time>
      </trkpt>
      <trkpt lat="45.13019" lon="2.53687">
        <ele>1075.8</ele>
        <time>2018-05-20T14:23:26.000Z</time>
      </trkpt>
      <trkpt lat="45.13011" lon="2.53678">
        <ele>1076.8</ele>
        <time>2018-05-20T14:23:45.000Z</time>
      </trkpt>
      <trkpt lat="45.13008" lon="2.53677">
        <ele>1077</ele>
        <time>2018-05-20T14:23:49.000Z</time>
      </trkpt>
      <trkpt lat="45.13006" lon="2.53674">
        <ele>1077.2</ele>
        <time>2018-05-20T14:23:51.000Z</time>
      </trkpt>
      <trkpt lat="45.13004" lon="2.5367">
        <ele>1077.4</ele>
        <time>2018-05-20T14:23:54.000Z</time>
      </trkpt>
      <trkpt lat="45.13001" lon="2.53667">
        <ele>1078.2</ele>
        <time>2018-05-20T14:23:59.000Z</time>
      </trkpt>
      <trkpt lat="45.13001" lon="2.53666">
        <ele>1078.4</ele>
        <time>2018-05-20T14:24:00.000Z</time>
      </trkpt>
      <trkpt lat="45.12995" lon="2.5366">
        <ele>1080.2</ele>
        <time>2018-05-20T14:24:08.000Z</time>
      </trkpt>
      <trkpt lat="45.12995" lon="2.53659">
        <ele>1080.4</ele>
        <time>2018-05-20T14:24:09.000Z</time>
      </trkpt>
      <trkpt lat="45.12995" lon="2.53658">
        <ele>1080.8</ele>
        <time>2018-05-20T14:24:10.000Z</time>
      </trkpt>
      <trkpt lat="45.12995" lon="2.53658">
        <ele>1081</ele>
        <time>2018-05-20T14:24:11.000Z</time>
      </trkpt>
      <trkpt lat="45.12995" lon="2.53657">
        <ele>1081.4</ele>
        <time>2018-05-20T14:24:14.000Z</time>
      </trkpt>
      <trkpt lat="45.12994" lon="2.53656">
        <ele>1081.8</ele>
        <time>2018-05-20T14:24:16.000Z</time>
      </trkpt>
      <trkpt lat="45.12994" lon="2.53655">
        <ele>1082.2</ele>
        <time>2018-05-20T14:24:18.000Z</time>
      </trkpt>
      <trkpt lat="45.12994" lon="2.53654">
        <ele>1082.4</ele>
        <time>2018-05-20T14:24:19.000Z</time>
      </trkpt>
      <trkpt lat="45.12995" lon="2.53652">
        <ele>1082.8</ele>
        <time>2018-05-20T14:24:20.000Z</time>
      </trkpt>
      <trkpt lat="45.12995" lon="2.53651">
        <ele>1083</ele>
        <time>2018-05-20T14:24:21.000Z</time>
      </trkpt>
      <trkpt lat="45.12995" lon="2.53651">
        <ele>1083.2</ele>
        <time>2018-05-20T14:24:22.000Z</time>
      </trkpt>
      <trkpt lat="45.12995" lon="2.53651">
        <ele>1083.2</ele>
        <time>2018-05-20T14:24:23.000Z</time>
      </trkpt>
      <trkpt lat="45.12995" lon="2.53651">
        <ele>1083.2</ele>
        <time>2018-05-20T14:24:24.000Z</time>
      </trkpt>
      <trkpt lat="45.12996" lon="2.5365">
        <ele>1083.4</ele>
        <time>2018-05-20T14:24:25.000Z</time>
      </trkpt>
      <trkpt lat="45.12995" lon="2.53649">
        <ele>1083.4</ele>
        <time>2018-05-20T14:24:27.000Z</time>
      </trkpt>
      <trkpt lat="45.12995" lon="2.53649">
        <ele>1083.6</ele>
        <time>2018-05-20T14:24:28.000Z</time>
      </trkpt>
      <trkpt lat="45.12995" lon="2.53649">
        <ele>1084</ele>
        <time>2018-05-20T14:24:29.000Z</time>
      </trkpt>
      <trkpt lat="45.12995" lon="2.53649">
        <ele>1084.6</ele>
        <time>2018-05-20T14:24:31.000Z</time>
      </trkpt>
      <trkpt lat="45.12994" lon="2.53648">
        <ele>1085.2</ele>
        <time>2018-05-20T14:24:34.000Z</time>
      </trkpt>
      <trkpt lat="45.12994" lon="2.53647">
        <ele>1085.4</ele>
        <time>2018-05-20T14:24:35.000Z</time>
      </trkpt>
      <trkpt lat="45.12992" lon="2.53643">
        <ele>1086.8</ele>
        <time>2018-05-20T14:24:41.000Z</time>
      </trkpt>
      <trkpt lat="45.12992" lon="2.53642">
        <ele>1087</ele>
        <time>2018-05-20T14:24:42.000Z</time>
      </trkpt>
      <trkpt lat="45.1299" lon="2.53636">
        <ele>1087.6</ele>
        <time>2018-05-20T14:24:45.000Z</time>
      </trkpt>
      <trkpt lat="45.12989" lon="2.53634">
        <ele>1088</ele>
        <time>2018-05-20T14:24:47.000Z</time>
      </trkpt>
      <trkpt lat="45.12987" lon="2.53625">
        <ele>1088.6</ele>
        <time>2018-05-20T14:24:52.000Z</time>
      </trkpt>
      <trkpt lat="45.12987" lon="2.53619">
        <ele>1089.2</ele>
        <time>2018-05-20T14:24:55.000Z</time>
      </trkpt>
      <trkpt lat="45.1299" lon="2.53611">
        <ele>1088.6</ele>
        <time>2018-05-20T14:25:00.000Z</time>
      </trkpt>
      <trkpt lat="45.12993" lon="2.53599">
        <ele>1087.2</ele>
        <time>2018-05-20T14:25:05.000Z</time>
      </trkpt>
      <trkpt lat="45.12994" lon="2.53598">
        <ele>1086.8</ele>
        <time>2018-05-20T14:25:06.000Z</time>
      </trkpt>
      <trkpt lat="45.12994" lon="2.53595">
        <ele>1086.2</ele>
        <time>2018-05-20T14:25:07.000Z</time>
      </trkpt>
      <trkpt lat="45.12997" lon="2.53589">
        <ele>1085.2</ele>
        <time>2018-05-20T14:25:09.000Z</time>
      </trkpt>
      <trkpt lat="45.12999" lon="2.53576">
        <ele>1083.2</ele>
        <time>2018-05-20T14:25:14.000Z</time>
      </trkpt>
      <trkpt lat="45.13" lon="2.53574">
        <ele>1082.6</ele>
        <time>2018-05-20T14:25:15.000Z</time>
      </trkpt>
      <trkpt lat="45.13001" lon="2.53566">
        <ele>1081.4</ele>
        <time>2018-05-20T14:25:18.000Z</time>
      </trkpt>
      <trkpt lat="45.13004" lon="2.53557">
        <ele>1080.4</ele>
        <time>2018-05-20T14:25:21.000Z</time>
      </trkpt>
      <trkpt lat="45.13003" lon="2.53544">
        <ele>1078.6</ele>
        <time>2018-05-20T14:25:24.000Z</time>
      </trkpt>
      <trkpt lat="45.13003" lon="2.53541">
        <ele>1078</ele>
        <time>2018-05-20T14:25:25.000Z</time>
      </trkpt>
      <trkpt lat="45.13003" lon="2.53538">
        <ele>1077.4</ele>
        <time>2018-05-20T14:25:26.000Z</time>
      </trkpt>
      <trkpt lat="45.13005" lon="2.53519">
        <ele>1075.4</ele>
        <time>2018-05-20T14:25:32.000Z</time>
      </trkpt>
      <trkpt lat="45.13002" lon="2.53493">
        <ele>1074.6</ele>
        <time>2018-05-20T14:25:39.000Z</time>
      </trkpt>
      <trkpt lat="45.12998" lon="2.53485">
        <ele>1074.6</ele>
        <time>2018-05-20T14:25:43.000Z</time>
      </trkpt>
      <trkpt lat="45.12996" lon="2.53478">
        <ele>1074.4</ele>
        <time>2018-05-20T14:25:46.000Z</time>
      </trkpt>
      <trkpt lat="45.12996" lon="2.53477">
        <ele>1074.4</ele>
        <time>2018-05-20T14:25:47.000Z</time>
      </trkpt>
      <trkpt lat="45.12987" lon="2.5342">
        <ele>1074.6</ele>
        <time>2018-05-20T14:26:07.000Z</time>
      </trkpt>
      <trkpt lat="45.1298" lon="2.53393">
        <ele>1075.6</ele>
        <time>2018-05-20T14:26:17.000Z</time>
      </trkpt>
      <trkpt lat="45.12978" lon="2.53387">
        <ele>1075.8</ele>
        <time>2018-05-20T14:26:19.000Z</time>
      </trkpt>
      <trkpt lat="45.12976" lon="2.5338">
        <ele>1076.2</ele>
        <time>2018-05-20T14:26:22.000Z</time>
      </trkpt>
      <trkpt lat="45.12976" lon="2.53375">
        <ele>1076.2</ele>
        <time>2018-05-20T14:26:25.000Z</time>
      </trkpt>
      <trkpt lat="45.12974" lon="2.53362">
        <ele>1076.4</ele>
        <time>2018-05-20T14:26:33.000Z</time>
      </trkpt>
      <trkpt lat="45.12974" lon="2.5336">
        <ele>1076.4</ele>
        <time>2018-05-20T14:26:34.000Z</time>
      </trkpt>
      <trkpt lat="45.1297" lon="2.53343">
        <ele>1076.8</ele>
        <time>2018-05-20T14:26:40.000Z</time>
      </trkpt>
      <trkpt lat="45.12969" lon="2.53324">
        <ele>1076.2</ele>
        <time>2018-05-20T14:26:48.000Z</time>
      </trkpt>
      <trkpt lat="45.12966" lon="2.53311">
        <ele>1076</ele>
        <time>2018-05-20T14:26:53.000Z</time>
      </trkpt>
      <trkpt lat="45.1297" lon="2.53299">
        <ele>1075.2</ele>
        <time>2018-05-20T14:26:57.000Z</time>
      </trkpt>
      <trkpt lat="45.12974" lon="2.53294">
        <ele>1073.8</ele>
        <time>2018-05-20T14:27:00.000Z</time>
      </trkpt>
      <trkpt lat="45.12975" lon="2.53289">
        <ele>1072.6</ele>
        <time>2018-05-20T14:27:02.000Z</time>
      </trkpt>
      <trkpt lat="45.12977" lon="2.53265">
        <ele>1070.2</ele>
        <time>2018-05-20T14:27:13.000Z</time>
      </trkpt>
      <trkpt lat="45.12978" lon="2.53262">
        <ele>1069.4</ele>
        <time>2018-05-20T14:27:15.000Z</time>
      </trkpt>
      <trkpt lat="45.12978" lon="2.53259">
        <ele>1069</ele>
        <time>2018-05-20T14:27:16.000Z</time>
      </trkpt>
      <trkpt lat="45.12978" lon="2.53248">
        <ele>1068</ele>
        <time>2018-05-20T14:27:20.000Z</time>
      </trkpt>
      <trkpt lat="45.1298" lon="2.53242">
        <ele>1067.6</ele>
        <time>2018-05-20T14:27:23.000Z</time>
      </trkpt>
      <trkpt lat="45.12987" lon="2.53203">
        <ele>1063</ele>
        <time>2018-05-20T14:27:41.000Z</time>
      </trkpt>
      <trkpt lat="45.12988" lon="2.5319">
        <ele>1061</ele>
        <time>2018-05-20T14:27:48.000Z</time>
      </trkpt>
      <trkpt lat="45.12989" lon="2.53188">
        <ele>1060.8</ele>
        <time>2018-05-20T14:27:49.000Z</time>
      </trkpt>
      <trkpt lat="45.1299" lon="2.53176">
        <ele>1059.8</ele>
        <time>2018-05-20T14:27:53.000Z</time>
      </trkpt>
      <trkpt lat="45.12991" lon="2.53174">
        <ele>1059.6</ele>
        <time>2018-05-20T14:27:54.000Z</time>
      </trkpt>
      <trkpt lat="45.12992" lon="2.53168">
        <ele>1058.6</ele>
        <time>2018-05-20T14:27:56.000Z</time>
      </trkpt>
      <trkpt lat="45.12996" lon="2.53162">
        <ele>1057.2</ele>
        <time>2018-05-20T14:27:59.000Z</time>
      </trkpt>
      <trkpt lat="45.12997" lon="2.53159">
        <ele>1056.8</ele>
        <time>2018-05-20T14:28:00.000Z</time>
      </trkpt>
      <trkpt lat="45.12998" lon="2.53155">
        <ele>1056.4</ele>
        <time>2018-05-20T14:28:01.000Z</time>
      </trkpt>
      <trkpt lat="45.12997" lon="2.53145">
        <ele>1055.2</ele>
        <time>2018-05-20T14:28:04.000Z</time>
      </trkpt>
      <trkpt lat="45.12995" lon="2.53136">
        <ele>1055</ele>
        <time>2018-05-20T14:28:08.000Z</time>
      </trkpt>
      <trkpt lat="45.12993" lon="2.53131">
        <ele>1055</ele>
        <time>2018-05-20T14:28:10.000Z</time>
      </trkpt>
      <trkpt lat="45.1299" lon="2.53121">
        <ele>1054.4</ele>
        <time>2018-05-20T14:28:14.000Z</time>
      </trkpt>
      <trkpt lat="45.1299" lon="2.53118">
        <ele>1054.4</ele>
        <time>2018-05-20T14:28:15.000Z</time>
      </trkpt>
      <trkpt lat="45.12989" lon="2.53115">
        <ele>1054.2</ele>
        <time>2018-05-20T14:28:17.000Z</time>
      </trkpt>
      <trkpt lat="45.12989" lon="2.53112">
        <ele>1054.4</ele>
        <time>2018-05-20T14:28:20.000Z</time>
      </trkpt>
      <trkpt lat="45.12988" lon="2.53109">
        <ele>1054.4</ele>
        <time>2018-05-20T14:28:21.000Z</time>
      </trkpt>
      <trkpt lat="45.12988" lon="2.53106">
        <ele>1054.4</ele>
        <time>2018-05-20T14:28:23.000Z</time>
      </trkpt>
      <trkpt lat="45.12988" lon="2.53104">
        <ele>1054.2</ele>
        <time>2018-05-20T14:28:25.000Z</time>
      </trkpt>
      <trkpt lat="45.12989" lon="2.531">
        <ele>1054</ele>
        <time>2018-05-20T14:28:27.000Z</time>
      </trkpt>
      <trkpt lat="45.12989" lon="2.53099">
        <ele>1053.8</ele>
        <time>2018-05-20T14:28:28.000Z</time>
      </trkpt>
      <trkpt lat="45.12983" lon="2.53081">
        <ele>1053.8</ele>
        <time>2018-05-20T14:28:37.000Z</time>
      </trkpt>
      <trkpt lat="45.12982" lon="2.5307">
        <ele>1054.2</ele>
        <time>2018-05-20T14:28:41.000Z</time>
      </trkpt>
      <trkpt lat="45.12978" lon="2.53062">
        <ele>1054.8</ele>
        <time>2018-05-20T14:28:44.000Z</time>
      </trkpt>
      <trkpt lat="45.12978" lon="2.53046">
        <ele>1055.2</ele>
        <time>2018-05-20T14:28:48.000Z</time>
      </trkpt>
      <trkpt lat="45.12977" lon="2.53039">
        <ele>1055.2</ele>
        <time>2018-05-20T14:28:50.000Z</time>
      </trkpt>
      <trkpt lat="45.12976" lon="2.53037">
        <ele>1055.2</ele>
        <time>2018-05-20T14:28:51.000Z</time>
      </trkpt>
      <trkpt lat="45.12972" lon="2.53029">
        <ele>1055.6</ele>
        <time>2018-05-20T14:28:54.000Z</time>
      </trkpt>
      <trkpt lat="45.12968" lon="2.52936">
        <ele>1053.4</ele>
        <time>2018-05-20T14:29:27.000Z</time>
      </trkpt>
      <trkpt lat="45.12967" lon="2.52932">
        <ele>1053</ele>
        <time>2018-05-20T14:29:29.000Z</time>
      </trkpt>
      <trkpt lat="45.12963" lon="2.5292">
        <ele>1052.8</ele>
        <time>2018-05-20T14:29:32.000Z</time>
      </trkpt>
      <trkpt lat="45.12964" lon="2.52908">
        <ele>1052</ele>
        <time>2018-05-20T14:29:36.000Z</time>
      </trkpt>
      <trkpt lat="45.12967" lon="2.52894">
        <ele>1050.8</ele>
        <time>2018-05-20T14:29:42.000Z</time>
      </trkpt>
      <trkpt lat="45.12969" lon="2.52869">
        <ele>1048.4</ele>
        <time>2018-05-20T14:29:49.000Z</time>
      </trkpt>
      <trkpt lat="45.12968" lon="2.52845">
        <ele>1047.4</ele>
        <time>2018-05-20T14:29:56.000Z</time>
      </trkpt>
      <trkpt lat="45.12964" lon="2.52826">
        <ele>1047.6</ele>
        <time>2018-05-20T14:30:03.000Z</time>
      </trkpt>
      <trkpt lat="45.12964" lon="2.528">
        <ele>1047.4</ele>
        <time>2018-05-20T14:30:10.000Z</time>
      </trkpt>
      <trkpt lat="45.12967" lon="2.52789">
        <ele>1046.8</ele>
        <time>2018-05-20T14:30:15.000Z</time>
      </trkpt>
      <trkpt lat="45.12965" lon="2.52781">
        <ele>1046.8</ele>
        <time>2018-05-20T14:30:18.000Z</time>
      </trkpt>
      <trkpt lat="45.12965" lon="2.52775">
        <ele>1047</ele>
        <time>2018-05-20T14:30:21.000Z</time>
      </trkpt>
      <trkpt lat="45.12967" lon="2.52769">
        <ele>1046.6</ele>
        <time>2018-05-20T14:30:25.000Z</time>
      </trkpt>
      <trkpt lat="45.12974" lon="2.52755">
        <ele>1044</ele>
        <time>2018-05-20T14:30:34.000Z</time>
      </trkpt>
      <trkpt lat="45.1298" lon="2.52737">
        <ele>1041.6</ele>
        <time>2018-05-20T14:30:42.000Z</time>
      </trkpt>
      <trkpt lat="45.12983" lon="2.52733">
        <ele>1040.2</ele>
        <time>2018-05-20T14:30:45.000Z</time>
      </trkpt>
      <trkpt lat="45.12989" lon="2.52719">
        <ele>1036.4</ele>
        <time>2018-05-20T14:30:53.000Z</time>
      </trkpt>
      <trkpt lat="45.12991" lon="2.52717">
        <ele>1035.2</ele>
        <time>2018-05-20T14:30:55.000Z</time>
      </trkpt>
      <trkpt lat="45.12996" lon="2.52708">
        <ele>1032.4</ele>
        <time>2018-05-20T14:31:00.000Z</time>
      </trkpt>
      <trkpt lat="45.12997" lon="2.52704">
        <ele>1031.2</ele>
        <time>2018-05-20T14:31:02.000Z</time>
      </trkpt>
      <trkpt lat="45.12999" lon="2.52696">
        <ele>1029.2</ele>
        <time>2018-05-20T14:31:05.000Z</time>
      </trkpt>
      <trkpt lat="45.13" lon="2.52695">
        <ele>1028.6</ele>
        <time>2018-05-20T14:31:06.000Z</time>
      </trkpt>
      <trkpt lat="45.13001" lon="2.52695">
        <ele>1027.8</ele>
        <time>2018-05-20T14:31:08.000Z</time>
      </trkpt>
      <trkpt lat="45.12999" lon="2.52694">
        <ele>1027.4</ele>
        <time>2018-05-20T14:31:10.000Z</time>
      </trkpt>
      <trkpt lat="45.12999" lon="2.52694">
        <ele>1027.4</ele>
        <time>2018-05-20T14:31:11.000Z</time>
      </trkpt>
      <trkpt lat="45.12999" lon="2.52694">
        <ele>1027</ele>
        <time>2018-05-20T14:31:17.000Z</time>
      </trkpt>
      <trkpt lat="45.13" lon="2.52695">
        <ele>1026.8</ele>
        <time>2018-05-20T14:31:28.000Z</time>
      </trkpt>
      <trkpt lat="45.12996" lon="2.52684">
        <ele>1026.8</ele>
        <time>2018-05-20T14:31:41.000Z</time>
      </trkpt>
      <trkpt lat="45.12997" lon="2.52687">
        <ele>1026.4</ele>
        <time>2018-05-20T14:31:44.000Z</time>
      </trkpt>
      <trkpt lat="45.12997" lon="2.52692">
        <ele>1026.2</ele>
        <time>2018-05-20T14:31:48.000Z</time>
      </trkpt>
      <trkpt lat="45.13" lon="2.52692">
        <ele>1026</ele>
        <time>2018-05-20T14:31:56.000Z</time>
      </trkpt>
      <trkpt lat="45.13002" lon="2.52692">
        <ele>1025.8</ele>
        <time>2018-05-20T14:31:59.000Z</time>
      </trkpt>
      <trkpt lat="45.13003" lon="2.52693">
        <ele>1025.8</ele>
        <time>2018-05-20T14:32:01.000Z</time>
      </trkpt>
      <trkpt lat="45.13005" lon="2.52693">
        <ele>1025.6</ele>
        <time>2018-05-20T14:32:04.000Z</time>
      </trkpt>
      <trkpt lat="45.13005" lon="2.52691">
        <ele>1025.2</ele>
        <time>2018-05-20T14:32:07.000Z</time>
      </trkpt>
      <trkpt lat="45.13007" lon="2.52689">
        <ele>1024.2</ele>
        <time>2018-05-20T14:32:12.000Z</time>
      </trkpt>
      <trkpt lat="45.13007" lon="2.52686">
        <ele>1023.2</ele>
        <time>2018-05-20T14:32:15.000Z</time>
      </trkpt>
      <trkpt lat="45.13009" lon="2.52681">
        <ele>1021.8</ele>
        <time>2018-05-20T14:32:18.000Z</time>
      </trkpt>
      <trkpt lat="45.1301" lon="2.52678">
        <ele>1021.2</ele>
        <time>2018-05-20T14:32:21.000Z</time>
      </trkpt>
      <trkpt lat="45.1301" lon="2.52678">
        <ele>1020.6</ele>
        <time>2018-05-20T14:32:23.000Z</time>
      </trkpt>
      <trkpt lat="45.13013" lon="2.52676">
        <ele>1019.6</ele>
        <time>2018-05-20T14:32:27.000Z</time>
      </trkpt>
      <trkpt lat="45.13015" lon="2.52676">
        <ele>1018.6</ele>
        <time>2018-05-20T14:32:33.000Z</time>
      </trkpt>
      <trkpt lat="45.13019" lon="2.52671">
        <ele>1017</ele>
        <time>2018-05-20T14:32:37.000Z</time>
      </trkpt>
      <trkpt lat="45.1302" lon="2.52666">
        <ele>1016.2</ele>
        <time>2018-05-20T14:32:39.000Z</time>
      </trkpt>
      <trkpt lat="45.13021" lon="2.52665">
        <ele>1015.8</ele>
        <time>2018-05-20T14:32:40.000Z</time>
      </trkpt>
      <trkpt lat="45.13021" lon="2.52661">
        <ele>1015.4</ele>
        <time>2018-05-20T14:32:41.000Z</time>
      </trkpt>
      <trkpt lat="45.13021" lon="2.52656">
        <ele>1014.6</ele>
        <time>2018-05-20T14:32:43.000Z</time>
      </trkpt>
      <trkpt lat="45.13024" lon="2.52651">
        <ele>1013.8</ele>
        <time>2018-05-20T14:32:46.000Z</time>
      </trkpt>
      <trkpt lat="45.13025" lon="2.52649">
        <ele>1012.6</ele>
        <time>2018-05-20T14:32:49.000Z</time>
      </trkpt>
      <trkpt lat="45.13028" lon="2.52644">
        <ele>1011.4</ele>
        <time>2018-05-20T14:32:53.000Z</time>
      </trkpt>
      <trkpt lat="45.1303" lon="2.52642">
        <ele>1010.8</ele>
        <time>2018-05-20T14:32:55.000Z</time>
      </trkpt>
      <trkpt lat="45.13031" lon="2.52642">
        <ele>1010.6</ele>
        <time>2018-05-20T14:32:57.000Z</time>
      </trkpt>
      <trkpt lat="45.13036" lon="2.52644">
        <ele>1010.2</ele>
        <time>2018-05-20T14:33:02.000Z</time>
      </trkpt>
      <trkpt lat="45.13038" lon="2.52645">
        <ele>1010.2</ele>
        <time>2018-05-20T14:33:04.000Z</time>
      </trkpt>
      <trkpt lat="45.13034" lon="2.52653">
        <ele>1011.2</ele>
        <time>2018-05-20T14:33:09.000Z</time>
      </trkpt>
      <trkpt lat="45.13033" lon="2.52654">
        <ele>1011.4</ele>
        <time>2018-05-20T14:33:10.000Z</time>
      </trkpt>
      <trkpt lat="45.13033" lon="2.52655">
        <ele>1011.6</ele>
        <time>2018-05-20T14:33:11.000Z</time>
      </trkpt>
      <trkpt lat="45.13032" lon="2.52658">
        <ele>1012.4</ele>
        <time>2018-05-20T14:33:14.000Z</time>
      </trkpt>
      <trkpt lat="45.13029" lon="2.52657">
        <ele>1012</ele>
        <time>2018-05-20T14:33:35.000Z</time>
      </trkpt>
      <trkpt lat="45.13031" lon="2.52657">
        <ele>1012.2</ele>
        <time>2018-05-20T14:33:42.000Z</time>
      </trkpt>
      <trkpt lat="45.13031" lon="2.52657">
        <ele>1012.4</ele>
        <time>2018-05-20T14:33:43.000Z</time>
      </trkpt>
      <trkpt lat="45.13028" lon="2.52656">
        <ele>1012.2</ele>
        <time>2018-05-20T14:33:52.000Z</time>
      </trkpt>
      <trkpt lat="45.13029" lon="2.52654">
        <ele>1012</ele>
        <time>2018-05-20T14:33:59.000Z</time>
      </trkpt>
      <trkpt lat="45.13027" lon="2.52654">
        <ele>1012.2</ele>
        <time>2018-05-20T14:34:07.000Z</time>
      </trkpt>
      <trkpt lat="45.13027" lon="2.52651">
        <ele>1012</ele>
        <time>2018-05-20T14:34:13.000Z</time>
      </trkpt>
      <trkpt lat="45.13029" lon="2.52654">
        <ele>1012.2</ele>
        <time>2018-05-20T14:34:22.000Z</time>
      </trkpt>
      <trkpt lat="45.13026" lon="2.52653">
        <ele>1012.2</ele>
        <time>2018-05-20T14:34:27.000Z</time>
      </trkpt>
      <trkpt lat="45.13029" lon="2.52652">
        <ele>1011.8</ele>
        <time>2018-05-20T14:34:31.000Z</time>
      </trkpt>
      <trkpt lat="45.13031" lon="2.52652">
        <ele>1011.8</ele>
        <time>2018-05-20T14:34:32.000Z</time>
      </trkpt>
      <trkpt lat="45.13037" lon="2.52644">
        <ele>1009.8</ele>
        <time>2018-05-20T14:34:36.000Z</time>
      </trkpt>
      <trkpt lat="45.13038" lon="2.5264">
        <ele>1008.6</ele>
        <time>2018-05-20T14:34:38.000Z</time>
      </trkpt>
      <trkpt lat="45.13037" lon="2.52629">
        <ele>1007.4</ele>
        <time>2018-05-20T14:34:41.000Z</time>
      </trkpt>
      <trkpt lat="45.13036" lon="2.52624">
        <ele>1006.8</ele>
        <time>2018-05-20T14:34:42.000Z</time>
      </trkpt>
      <trkpt lat="45.13032" lon="2.52615">
        <ele>1006</ele>
        <time>2018-05-20T14:34:44.000Z</time>
      </trkpt>
      <trkpt lat="45.13005" lon="2.52574">
        <ele>1003.8</ele>
        <time>2018-05-20T14:34:56.000Z</time>
      </trkpt>
      <trkpt lat="45.12998" lon="2.52562">
        <ele>1003.8</ele>
        <time>2018-05-20T14:35:00.000Z</time>
      </trkpt>
      <trkpt lat="45.12993" lon="2.52552">
        <ele>1004.6</ele>
        <time>2018-05-20T14:35:05.000Z</time>
      </trkpt>
      <trkpt lat="45.12992" lon="2.52551">
        <ele>1004.6</ele>
        <time>2018-05-20T14:35:06.000Z</time>
      </trkpt>
      <trkpt lat="45.12991" lon="2.52549">
        <ele>1004.6</ele>
        <time>2018-05-20T14:35:07.000Z</time>
      </trkpt>
      <trkpt lat="45.12991" lon="2.52541">
        <ele>1004.4</ele>
        <time>2018-05-20T14:35:10.000Z</time>
      </trkpt>
      <trkpt lat="45.12994" lon="2.52513">
        <ele>1000.2</ele>
        <time>2018-05-20T14:35:18.000Z</time>
      </trkpt>
      <trkpt lat="45.12996" lon="2.52475">
        <ele>994.6</ele>
        <time>2018-05-20T14:35:28.000Z</time>
      </trkpt>
      <trkpt lat="45.12991" lon="2.52455">
        <ele>992.2</ele>
        <time>2018-05-20T14:35:33.000Z</time>
      </trkpt>
      <trkpt lat="45.12983" lon="2.52401">
        <ele>985.8</ele>
        <time>2018-05-20T14:35:45.000Z</time>
      </trkpt>
      <trkpt lat="45.12982" lon="2.52385">
        <ele>984.6</ele>
        <time>2018-05-20T14:35:48.000Z</time>
      </trkpt>
      <trkpt lat="45.12977" lon="2.52348">
        <ele>982.2</ele>
        <time>2018-05-20T14:35:56.000Z</time>
      </trkpt>
      <trkpt lat="45.12978" lon="2.5228">
        <ele>974.2</ele>
        <time>2018-05-20T14:36:10.000Z</time>
      </trkpt>
      <trkpt lat="45.12972" lon="2.52234">
        <ele>969</ele>
        <time>2018-05-20T14:36:21.000Z</time>
      </trkpt>
      <trkpt lat="45.12968" lon="2.52213">
        <ele>966.4</ele>
        <time>2018-05-20T14:36:26.000Z</time>
      </trkpt>
      <trkpt lat="45.12965" lon="2.52172">
        <ele>962.6</ele>
        <time>2018-05-20T14:36:35.000Z</time>
      </trkpt>
      <trkpt lat="45.12939" lon="2.52079">
        <ele>957.2</ele>
        <time>2018-05-20T14:36:56.000Z</time>
      </trkpt>
      <trkpt lat="45.12935" lon="2.52057">
        <ele>956.2</ele>
        <time>2018-05-20T14:37:01.000Z</time>
      </trkpt>
      <trkpt lat="45.12934" lon="2.52039">
        <ele>955</ele>
        <time>2018-05-20T14:37:06.000Z</time>
      </trkpt>
      <trkpt lat="45.12943" lon="2.52014">
        <ele>951.6</ele>
        <time>2018-05-20T14:37:12.000Z</time>
      </trkpt>
      <trkpt lat="45.12945" lon="2.52005">
        <ele>950.4</ele>
        <time>2018-05-20T14:37:14.000Z</time>
      </trkpt>
      <trkpt lat="45.12944" lon="2.51979">
        <ele>946.8</ele>
        <time>2018-05-20T14:37:20.000Z</time>
      </trkpt>
      <trkpt lat="45.12945" lon="2.5197">
        <ele>945.6</ele>
        <time>2018-05-20T14:37:22.000Z</time>
      </trkpt>
      <trkpt lat="45.1295" lon="2.51965">
        <ele>944.4</ele>
        <time>2018-05-20T14:37:24.000Z</time>
      </trkpt>
      <trkpt lat="45.12966" lon="2.51967">
        <ele>940.8</ele>
        <time>2018-05-20T14:37:30.000Z</time>
      </trkpt>
      <trkpt lat="45.12968" lon="2.51968">
        <ele>940.4</ele>
        <time>2018-05-20T14:37:31.000Z</time>
      </trkpt>
      <trkpt lat="45.12972" lon="2.5197">
        <ele>939.4</ele>
        <time>2018-05-20T14:37:33.000Z</time>
      </trkpt>
      <trkpt lat="45.12978" lon="2.51971">
        <ele>937.8</ele>
        <time>2018-05-20T14:37:36.000Z</time>
      </trkpt>
      <trkpt lat="45.12982" lon="2.51969">
        <ele>936.8</ele>
        <time>2018-05-20T14:37:38.000Z</time>
      </trkpt>
      <trkpt lat="45.12985" lon="2.51966">
        <ele>935.6</ele>
        <time>2018-05-20T14:37:40.000Z</time>
      </trkpt>
      <trkpt lat="45.12986" lon="2.51962">
        <ele>934.6</ele>
        <time>2018-05-20T14:37:42.000Z</time>
      </trkpt>
      <trkpt lat="45.12986" lon="2.51956">
        <ele>933.4</ele>
        <time>2018-05-20T14:37:44.000Z</time>
      </trkpt>
      <trkpt lat="45.12984" lon="2.51947">
        <ele>932.2</ele>
        <time>2018-05-20T14:37:47.000Z</time>
      </trkpt>
      <trkpt lat="45.12985" lon="2.51937">
        <ele>930</ele>
        <time>2018-05-20T14:37:52.000Z</time>
      </trkpt>
      <trkpt lat="45.12982" lon="2.51927">
        <ele>929.2</ele>
        <time>2018-05-20T14:38:24.000Z</time>
      </trkpt>
      <trkpt lat="45.12982" lon="2.51927">
        <ele>929</ele>
        <time>2018-05-20T14:38:28.000Z</time>
      </trkpt>
      <trkpt lat="45.12983" lon="2.51928">
        <ele>929.2</ele>
        <time>2018-05-20T14:38:34.000Z</time>
      </trkpt>
      <trkpt lat="45.12981" lon="2.51933">
        <ele>929.2</ele>
        <time>2018-05-20T14:38:40.000Z</time>
      </trkpt>
      <trkpt lat="45.1298" lon="2.51932">
        <ele>929</ele>
        <time>2018-05-20T14:38:48.000Z</time>
      </trkpt>
      <trkpt lat="45.1298" lon="2.51934">
        <ele>929.2</ele>
        <time>2018-05-20T14:38:56.000Z</time>
      </trkpt>
      <trkpt lat="45.12982" lon="2.51935">
        <ele>929</ele>
        <time>2018-05-20T14:39:04.000Z</time>
      </trkpt>
      <trkpt lat="45.12982" lon="2.51935">
        <ele>929.2</ele>
        <time>2018-05-20T14:39:12.000Z</time>
      </trkpt>
      <trkpt lat="45.12983" lon="2.51935">
        <ele>929</ele>
        <time>2018-05-20T14:39:16.000Z</time>
      </trkpt>
      <trkpt lat="45.12983" lon="2.51933">
        <ele>929</ele>
        <time>2018-05-20T14:39:20.000Z</time>
      </trkpt>
      <trkpt lat="45.12983" lon="2.51932">
        <ele>928.8</ele>
        <time>2018-05-20T14:39:22.000Z</time>
      </trkpt>
      <trkpt lat="45.12983" lon="2.51931">
        <ele>928.6</ele>
        <time>2018-05-20T14:39:27.000Z</time>
      </trkpt>
      <trkpt lat="45.12983" lon="2.51929">
        <ele>928.8</ele>
        <time>2018-05-20T14:39:34.000Z</time>
      </trkpt>
      <trkpt lat="45.12984" lon="2.51924">
        <ele>929</ele>
        <time>2018-05-20T14:39:42.000Z</time>
      </trkpt>
      <trkpt lat="45.12991" lon="2.51928">
        <ele>928.4</ele>
        <time>2018-05-20T14:39:49.000Z</time>
      </trkpt>
      <trkpt lat="45.12998" lon="2.51931">
        <ele>928.2</ele>
        <time>2018-05-20T14:39:52.000Z</time>
      </trkpt>
      <trkpt lat="45.13001" lon="2.51931">
        <ele>928.2</ele>
        <time>2018-05-20T14:39:53.000Z</time>
      </trkpt>
      <trkpt lat="45.13008" lon="2.51929">
        <ele>928.4</ele>
        <time>2018-05-20T14:39:56.000Z</time>
      </trkpt>
      <trkpt lat="45.1301" lon="2.51928">
        <ele>928.4</ele>
        <time>2018-05-20T14:39:57.000Z</time>
      </trkpt>
      <trkpt lat="45.13013" lon="2.5192">
        <ele>928.8</ele>
        <time>2018-05-20T14:40:00.000Z</time>
      </trkpt>
      <trkpt lat="45.13014" lon="2.51909">
        <ele>928.8</ele>
        <time>2018-05-20T14:40:03.000Z</time>
      </trkpt>
      <trkpt lat="45.13014" lon="2.51882">
        <ele>929.6</ele>
        <time>2018-05-20T14:40:11.000Z</time>
      </trkpt>
      <trkpt lat="45.13014" lon="2.5188">
        <ele>930</ele>
        <time>2018-05-20T14:40:12.000Z</time>
      </trkpt>
      <trkpt lat="45.1301" lon="2.5186">
        <ele>930</ele>
        <time>2018-05-20T14:40:19.000Z</time>
      </trkpt>
      <trkpt lat="45.13009" lon="2.51845">
        <ele>930.2</ele>
        <time>2018-05-20T14:40:23.000Z</time>
      </trkpt>
      <trkpt lat="45.13019" lon="2.51805">
        <ele>931</ele>
        <time>2018-05-20T14:40:33.000Z</time>
      </trkpt>
      <trkpt lat="45.13022" lon="2.51799">
        <ele>931</ele>
        <time>2018-05-20T14:40:35.000Z</time>
      </trkpt>
      <trkpt lat="45.13024" lon="2.51784">
        <ele>932</ele>
        <time>2018-05-20T14:40:39.000Z</time>
      </trkpt>
      <trkpt lat="45.1302" lon="2.51766">
        <ele>932.6</ele>
        <time>2018-05-20T14:40:43.000Z</time>
      </trkpt>
      <trkpt lat="45.13016" lon="2.51759">
        <ele>932.6</ele>
        <time>2018-05-20T14:40:45.000Z</time>
      </trkpt>
      <trkpt lat="45.1301" lon="2.51751">
        <ele>932.8</ele>
        <time>2018-05-20T14:40:48.000Z</time>
      </trkpt>
      <trkpt lat="45.13003" lon="2.51745">
        <ele>933</ele>
        <time>2018-05-20T14:40:51.000Z</time>
      </trkpt>
      <trkpt lat="45.12999" lon="2.51739">
        <ele>933.2</ele>
        <time>2018-05-20T14:40:53.000Z</time>
      </trkpt>
      <trkpt lat="45.12988" lon="2.51718">
        <ele>933.2</ele>
        <time>2018-05-20T14:41:00.000Z</time>
      </trkpt>
      <trkpt lat="45.12992" lon="2.51692">
        <ele>933.6</ele>
        <time>2018-05-20T14:41:07.000Z</time>
      </trkpt>
      <trkpt lat="45.13007" lon="2.51654">
        <ele>934.8</ele>
        <time>2018-05-20T14:41:19.000Z</time>
      </trkpt>
      <trkpt lat="45.13013" lon="2.51628">
        <ele>934.4</ele>
        <time>2018-05-20T14:41:26.000Z</time>
      </trkpt>
      <trkpt lat="45.13007" lon="2.51604">
        <ele>934</ele>
        <time>2018-05-20T14:41:32.000Z</time>
      </trkpt>
      <trkpt lat="45.12997" lon="2.51581">
        <ele>934</ele>
        <time>2018-05-20T14:41:38.000Z</time>
      </trkpt>
      <trkpt lat="45.13" lon="2.51554">
        <ele>934.4</ele>
        <time>2018-05-20T14:41:45.000Z</time>
      </trkpt>
      <trkpt lat="45.13006" lon="2.51528">
        <ele>933.8</ele>
        <time>2018-05-20T14:41:52.000Z</time>
      </trkpt>
      <trkpt lat="45.13025" lon="2.51481">
        <ele>933.4</ele>
        <time>2018-05-20T14:42:07.000Z</time>
      </trkpt>
      <trkpt lat="45.13033" lon="2.51465">
        <ele>933</ele>
        <time>2018-05-20T14:42:13.000Z</time>
      </trkpt>
      <trkpt lat="45.13039" lon="2.51441">
        <ele>932.6</ele>
        <time>2018-05-20T14:42:20.000Z</time>
      </trkpt>
      <trkpt lat="45.13047" lon="2.51417">
        <ele>932.2</ele>
        <time>2018-05-20T14:42:27.000Z</time>
      </trkpt>
      <trkpt lat="45.13061" lon="2.51399">
        <ele>932.4</ele>
        <time>2018-05-20T14:42:34.000Z</time>
      </trkpt>
      <trkpt lat="45.13072" lon="2.51399">
        <ele>932.8</ele>
        <time>2018-05-20T14:42:38.000Z</time>
      </trkpt>
      <trkpt lat="45.13083" lon="2.51402">
        <ele>934</ele>
        <time>2018-05-20T14:42:43.000Z</time>
      </trkpt>
      <trkpt lat="45.13085" lon="2.51402">
        <ele>934.2</ele>
        <time>2018-05-20T14:42:44.000Z</time>
      </trkpt>
      <trkpt lat="45.13102" lon="2.51408">
        <ele>935.2</ele>
        <time>2018-05-20T14:42:51.000Z</time>
      </trkpt>
      <trkpt lat="45.13109" lon="2.51411">
        <ele>936.2</ele>
        <time>2018-05-20T14:42:54.000Z</time>
      </trkpt>
      <trkpt lat="45.13115" lon="2.51415">
        <ele>937</ele>
        <time>2018-05-20T14:42:58.000Z</time>
      </trkpt>
      <trkpt lat="45.13115" lon="2.51415">
        <ele>937.4</ele>
        <time>2018-05-20T14:43:00.000Z</time>
      </trkpt>
      <trkpt lat="45.13119" lon="2.51419">
        <ele>937.4</ele>
        <time>2018-05-20T14:43:07.000Z</time>
      </trkpt>
      <trkpt lat="45.13125" lon="2.51425">
        <ele>938.6</ele>
        <time>2018-05-20T14:43:14.000Z</time>
      </trkpt>
      <trkpt lat="45.13128" lon="2.51434">
        <ele>939.6</ele>
        <time>2018-05-20T14:43:20.000Z</time>
      </trkpt>
      <trkpt lat="45.13128" lon="2.51445">
        <ele>940.8</ele>
        <time>2018-05-20T14:43:26.000Z</time>
      </trkpt>
      <trkpt lat="45.13127" lon="2.51454">
        <ele>941.6</ele>
        <time>2018-05-20T14:43:30.000Z</time>
      </trkpt>
      <trkpt lat="45.13123" lon="2.5147">
        <ele>943</ele>
        <time>2018-05-20T14:43:39.000Z</time>
      </trkpt>
      <trkpt lat="45.13115" lon="2.51498">
        <ele>944.4</ele>
        <time>2018-05-20T14:43:55.000Z</time>
      </trkpt>
      <trkpt lat="45.13111" lon="2.51508">
        <ele>945</ele>
        <time>2018-05-20T14:44:01.000Z</time>
      </trkpt>
      <trkpt lat="45.13109" lon="2.51518">
        <ele>946.2</ele>
        <time>2018-05-20T14:44:07.000Z</time>
      </trkpt>
      <trkpt lat="45.1311" lon="2.51519">
        <ele>946.4</ele>
        <time>2018-05-20T14:44:08.000Z</time>
      </trkpt>
      <trkpt lat="45.13113" lon="2.51522">
        <ele>946.8</ele>
        <time>2018-05-20T14:44:11.000Z</time>
      </trkpt>
      <trkpt lat="45.13115" lon="2.51522">
        <ele>946.8</ele>
        <time>2018-05-20T14:44:14.000Z</time>
      </trkpt>
      <trkpt lat="45.13118" lon="2.51516">
        <ele>947</ele>
        <time>2018-05-20T14:44:20.000Z</time>
      </trkpt>
      <trkpt lat="45.13119" lon="2.51514">
        <ele>947.2</ele>
        <time>2018-05-20T14:44:21.000Z</time>
      </trkpt>
      <trkpt lat="45.13123" lon="2.51509">
        <ele>947.4</ele>
        <time>2018-05-20T14:44:27.000Z</time>
      </trkpt>
      <trkpt lat="45.13127" lon="2.51505">
        <ele>947.8</ele>
        <time>2018-05-20T14:44:33.000Z</time>
      </trkpt>
      <trkpt lat="45.13129" lon="2.51497">
        <ele>948.4</ele>
        <time>2018-05-20T14:44:37.000Z</time>
      </trkpt>
      <trkpt lat="45.13135" lon="2.51492">
        <ele>949</ele>
        <time>2018-05-20T14:44:43.000Z</time>
      </trkpt>
      <trkpt lat="45.13138" lon="2.5149">
        <ele>949.4</ele>
        <time>2018-05-20T14:44:46.000Z</time>
      </trkpt>
      <trkpt lat="45.13147" lon="2.51479">
        <ele>950.4</ele>
        <time>2018-05-20T14:44:55.000Z</time>
      </trkpt>
      <trkpt lat="45.13149" lon="2.51479">
        <ele>950.6</ele>
        <time>2018-05-20T14:44:56.000Z</time>
      </trkpt>
      <trkpt lat="45.13153" lon="2.51476">
        <ele>951.2</ele>
        <time>2018-05-20T14:45:01.000Z</time>
      </trkpt>
      <trkpt lat="45.13155" lon="2.51476">
        <ele>951.4</ele>
        <time>2018-05-20T14:45:03.000Z</time>
      </trkpt>
      <trkpt lat="45.13158" lon="2.51476">
        <ele>951.6</ele>
        <time>2018-05-20T14:45:05.000Z</time>
      </trkpt>
      <trkpt lat="45.1316" lon="2.51475">
        <ele>952</ele>
        <time>2018-05-20T14:45:08.000Z</time>
      </trkpt>
      <trkpt lat="45.13161" lon="2.51468">
        <ele>952.6</ele>
        <time>2018-05-20T14:45:14.000Z</time>
      </trkpt>
      <trkpt lat="45.13165" lon="2.51465">
        <ele>953.2</ele>
        <time>2018-05-20T14:45:19.000Z</time>
      </trkpt>
      <trkpt lat="45.13171" lon="2.51464">
        <ele>953.4</ele>
        <time>2018-05-20T14:45:26.000Z</time>
      </trkpt>
      <trkpt lat="45.13172" lon="2.51464">
        <ele>953.6</ele>
        <time>2018-05-20T14:45:27.000Z</time>
      </trkpt>
      <trkpt lat="45.13175" lon="2.51464">
        <ele>953.8</ele>
        <time>2018-05-20T14:45:29.000Z</time>
      </trkpt>
      <trkpt lat="45.13181" lon="2.51462">
        <ele>954.6</ele>
        <time>2018-05-20T14:45:34.000Z</time>
      </trkpt>
      <trkpt lat="45.13182" lon="2.51462">
        <ele>954.6</ele>
        <time>2018-05-20T14:45:35.000Z</time>
      </trkpt>
      <trkpt lat="45.13184" lon="2.51462">
        <ele>955</ele>
        <time>2018-05-20T14:45:37.000Z</time>
      </trkpt>
      <trkpt lat="45.13186" lon="2.51462">
        <ele>955.6</ele>
        <time>2018-05-20T14:45:40.000Z</time>
      </trkpt>
      <trkpt lat="45.13188" lon="2.51462">
        <ele>955.8</ele>
        <time>2018-05-20T14:45:42.000Z</time>
      </trkpt>
      <trkpt lat="45.13192" lon="2.51461">
        <ele>956</ele>
        <time>2018-05-20T14:45:46.000Z</time>
      </trkpt>
      <trkpt lat="45.13198" lon="2.51462">
        <ele>956.8</ele>
        <time>2018-05-20T14:45:50.000Z</time>
      </trkpt>
      <trkpt lat="45.13201" lon="2.51463">
        <ele>957.2</ele>
        <time>2018-05-20T14:45:52.000Z</time>
      </trkpt>
      <trkpt lat="45.13203" lon="2.51464">
        <ele>957.4</ele>
        <time>2018-05-20T14:45:54.000Z</time>
      </trkpt>
      <trkpt lat="45.13206" lon="2.51466">
        <ele>958</ele>
        <time>2018-05-20T14:45:57.000Z</time>
      </trkpt>
      <trkpt lat="45.13207" lon="2.51467">
        <ele>958</ele>
        <time>2018-05-20T14:45:58.000Z</time>
      </trkpt>
      <trkpt lat="45.13213" lon="2.5147">
        <ele>959</ele>
        <time>2018-05-20T14:46:04.000Z</time>
      </trkpt>
      <trkpt lat="45.13222" lon="2.51479">
        <ele>960</ele>
        <time>2018-05-20T14:46:12.000Z</time>
      </trkpt>
      <trkpt lat="45.13231" lon="2.51484">
        <ele>961</ele>
        <time>2018-05-20T14:46:20.000Z</time>
      </trkpt>
      <trkpt lat="45.13236" lon="2.51484">
        <ele>962</ele>
        <time>2018-05-20T14:46:25.000Z</time>
      </trkpt>
      <trkpt lat="45.13237" lon="2.51483">
        <ele>962.2</ele>
        <time>2018-05-20T14:46:26.000Z</time>
      </trkpt>
      <trkpt lat="45.1324" lon="2.51484">
        <ele>962.4</ele>
        <time>2018-05-20T14:46:29.000Z</time>
      </trkpt>
      <trkpt lat="45.13242" lon="2.51485">
        <ele>962.6</ele>
        <time>2018-05-20T14:46:31.000Z</time>
      </trkpt>
      <trkpt lat="45.13244" lon="2.51486">
        <ele>962.8</ele>
        <time>2018-05-20T14:46:33.000Z</time>
      </trkpt>
      <trkpt lat="45.13252" lon="2.51491">
        <ele>964</ele>
        <time>2018-05-20T14:46:42.000Z</time>
      </trkpt>
      <trkpt lat="45.13264" lon="2.515">
        <ele>966.2</ele>
        <time>2018-05-20T14:46:53.000Z</time>
      </trkpt>
      <trkpt lat="45.13265" lon="2.515">
        <ele>966.4</ele>
        <time>2018-05-20T14:46:54.000Z</time>
      </trkpt>
      <trkpt lat="45.13266" lon="2.515">
        <ele>966.6</ele>
        <time>2018-05-20T14:46:55.000Z</time>
      </trkpt>
      <trkpt lat="45.13268" lon="2.51502">
        <ele>967</ele>
        <time>2018-05-20T14:46:57.000Z</time>
      </trkpt>
      <trkpt lat="45.1327" lon="2.51502">
        <ele>967.2</ele>
        <time>2018-05-20T14:46:59.000Z</time>
      </trkpt>
      <trkpt lat="45.13274" lon="2.51501">
        <ele>967.6</ele>
        <time>2018-05-20T14:47:02.000Z</time>
      </trkpt>
      <trkpt lat="45.13275" lon="2.515">
        <ele>967.8</ele>
        <time>2018-05-20T14:47:03.000Z</time>
      </trkpt>
      <trkpt lat="45.13286" lon="2.51483">
        <ele>969.2</ele>
        <time>2018-05-20T14:47:16.000Z</time>
      </trkpt>
      <trkpt lat="45.13282" lon="2.51472">
        <ele>969</ele>
        <time>2018-05-20T14:47:22.000Z</time>
      </trkpt>
      <trkpt lat="45.13285" lon="2.51447">
        <ele>967.8</ele>
        <time>2018-05-20T14:47:30.000Z</time>
      </trkpt>
      <trkpt lat="45.133" lon="2.51384">
        <ele>967</ele>
        <time>2018-05-20T14:47:48.000Z</time>
      </trkpt>
      <trkpt lat="45.13306" lon="2.5137">
        <ele>966.6</ele>
        <time>2018-05-20T14:47:53.000Z</time>
      </trkpt>
      <trkpt lat="45.13322" lon="2.51343">
        <ele>967.6</ele>
        <time>2018-05-20T14:48:03.000Z</time>
      </trkpt>
      <trkpt lat="45.13335" lon="2.51327">
        <ele>968.4</ele>
        <time>2018-05-20T14:48:11.000Z</time>
      </trkpt>
      <trkpt lat="45.13343" lon="2.51322">
        <ele>968.4</ele>
        <time>2018-05-20T14:48:17.000Z</time>
      </trkpt>
      <trkpt lat="45.13343" lon="2.51321">
        <ele>968.4</ele>
        <time>2018-05-20T14:48:18.000Z</time>
      </trkpt>
      <trkpt lat="45.13344" lon="2.51321">
        <ele>968.6</ele>
        <time>2018-05-20T14:48:19.000Z</time>
      </trkpt>
      <trkpt lat="45.13346" lon="2.51319">
        <ele>969</ele>
        <time>2018-05-20T14:48:21.000Z</time>
      </trkpt>
      <trkpt lat="45.13347" lon="2.51319">
        <ele>969.2</ele>
        <time>2018-05-20T14:48:22.000Z</time>
      </trkpt>
      <trkpt lat="45.13348" lon="2.5132">
        <ele>969.4</ele>
        <time>2018-05-20T14:48:23.000Z</time>
      </trkpt>
      <trkpt lat="45.13349" lon="2.5132">
        <ele>969.6</ele>
        <time>2018-05-20T14:48:24.000Z</time>
      </trkpt>
      <trkpt lat="45.1335" lon="2.51321">
        <ele>969.6</ele>
        <time>2018-05-20T14:48:25.000Z</time>
      </trkpt>
      <trkpt lat="45.13352" lon="2.51321">
        <ele>969.8</ele>
        <time>2018-05-20T14:48:27.000Z</time>
      </trkpt>
      <trkpt lat="45.13355" lon="2.51323">
        <ele>969.8</ele>
        <time>2018-05-20T14:48:29.000Z</time>
      </trkpt>
      <trkpt lat="45.13356" lon="2.51324">
        <ele>970</ele>
        <time>2018-05-20T14:48:30.000Z</time>
      </trkpt>
      <trkpt lat="45.13358" lon="2.51326">
        <ele>970.2</ele>
        <time>2018-05-20T14:48:32.000Z</time>
      </trkpt>
      <trkpt lat="45.13363" lon="2.51329">
        <ele>970.6</ele>
        <time>2018-05-20T14:48:35.000Z</time>
      </trkpt>
      <trkpt lat="45.13364" lon="2.5133">
        <ele>970.6</ele>
        <time>2018-05-20T14:48:36.000Z</time>
      </trkpt>
      <trkpt lat="45.13366" lon="2.51332">
        <ele>970.8</ele>
        <time>2018-05-20T14:48:38.000Z</time>
      </trkpt>
      <trkpt lat="45.13386" lon="2.51349">
        <ele>972.8</ele>
        <time>2018-05-20T14:48:54.000Z</time>
      </trkpt>
      <trkpt lat="45.13389" lon="2.51351">
        <ele>973</ele>
        <time>2018-05-20T14:48:56.000Z</time>
      </trkpt>
      <trkpt lat="45.13396" lon="2.51357">
        <ele>973</ele>
        <time>2018-05-20T14:49:01.000Z</time>
      </trkpt>
      <trkpt lat="45.13421" lon="2.51391">
        <ele>971.8</ele>
        <time>2018-05-20T14:49:17.000Z</time>
      </trkpt>
      <trkpt lat="45.13422" lon="2.51394">
        <ele>971.6</ele>
        <time>2018-05-20T14:49:18.000Z</time>
      </trkpt>
      <trkpt lat="45.13439" lon="2.51421">
        <ele>971.2</ele>
        <time>2018-05-20T14:49:28.000Z</time>
      </trkpt>
      <trkpt lat="45.13441" lon="2.51426">
        <ele>971</ele>
        <time>2018-05-20T14:49:30.000Z</time>
      </trkpt>
      <trkpt lat="45.13442" lon="2.51429">
        <ele>971</ele>
        <time>2018-05-20T14:49:31.000Z</time>
      </trkpt>
      <trkpt lat="45.13442" lon="2.51438">
        <ele>970.6</ele>
        <time>2018-05-20T14:49:34.000Z</time>
      </trkpt>
      <trkpt lat="45.13444" lon="2.51444">
        <ele>970.2</ele>
        <time>2018-05-20T14:49:36.000Z</time>
      </trkpt>
      <trkpt lat="45.13454" lon="2.51452">
        <ele>969.4</ele>
        <time>2018-05-20T14:49:39.000Z</time>
      </trkpt>
      <trkpt lat="45.13461" lon="2.5146">
        <ele>968.4</ele>
        <time>2018-05-20T14:49:42.000Z</time>
      </trkpt>
      <trkpt lat="45.13464" lon="2.51466">
        <ele>967.8</ele>
        <time>2018-05-20T14:49:44.000Z</time>
      </trkpt>
      <trkpt lat="45.1349" lon="2.51499">
        <ele>965.8</ele>
        <time>2018-05-20T14:49:55.000Z</time>
      </trkpt>
      <trkpt lat="45.13492" lon="2.51514">
        <ele>965.4</ele>
        <time>2018-05-20T14:50:00.000Z</time>
      </trkpt>
      <trkpt lat="45.13501" lon="2.51537">
        <ele>965.2</ele>
        <time>2018-05-20T14:50:09.000Z</time>
      </trkpt>
      <trkpt lat="45.13506" lon="2.51541">
        <ele>965.2</ele>
        <time>2018-05-20T14:50:11.000Z</time>
      </trkpt>
      <trkpt lat="45.13511" lon="2.51552">
        <ele>964.8</ele>
        <time>2018-05-20T14:50:15.000Z</time>
      </trkpt>
      <trkpt lat="45.13531" lon="2.51581">
        <ele>962.8</ele>
        <time>2018-05-20T14:50:27.000Z</time>
      </trkpt>
      <trkpt lat="45.13537" lon="2.51588">
        <ele>962.2</ele>
        <time>2018-05-20T14:50:30.000Z</time>
      </trkpt>
      <trkpt lat="45.1354" lon="2.51594">
        <ele>962</ele>
        <time>2018-05-20T14:50:33.000Z</time>
      </trkpt>
      <trkpt lat="45.13541" lon="2.51597">
        <ele>961.4</ele>
        <time>2018-05-20T14:50:38.000Z</time>
      </trkpt>
      <trkpt lat="45.13541" lon="2.516">
        <ele>960.8</ele>
        <time>2018-05-20T14:50:41.000Z</time>
      </trkpt>
      <trkpt lat="45.13543" lon="2.51603">
        <ele>961</ele>
        <time>2018-05-20T14:50:43.000Z</time>
      </trkpt>
      <trkpt lat="45.13545" lon="2.51605">
        <ele>960.8</ele>
        <time>2018-05-20T14:50:44.000Z</time>
      </trkpt>
      <trkpt lat="45.13547" lon="2.51605">
        <ele>960.8</ele>
        <time>2018-05-20T14:50:45.000Z</time>
      </trkpt>
      <trkpt lat="45.13562" lon="2.51613">
        <ele>960</ele>
        <time>2018-05-20T14:50:56.000Z</time>
      </trkpt>
      <trkpt lat="45.13565" lon="2.51613">
        <ele>959.8</ele>
        <time>2018-05-20T14:50:58.000Z</time>
      </trkpt>
      <trkpt lat="45.13575" lon="2.51614">
        <ele>958.4</ele>
        <time>2018-05-20T14:51:05.000Z</time>
      </trkpt>
      <trkpt lat="45.13574" lon="2.51615">
        <ele>957.4</ele>
        <time>2018-05-20T14:51:16.000Z</time>
      </trkpt>
      <trkpt lat="45.13575" lon="2.51615">
        <ele>957.2</ele>
        <time>2018-05-20T14:51:28.000Z</time>
      </trkpt>
      <trkpt lat="45.13571" lon="2.51613">
        <ele>957.2</ele>
        <time>2018-05-20T14:51:31.000Z</time>
      </trkpt>
      <trkpt lat="45.1357" lon="2.51611">
        <ele>957</ele>
        <time>2018-05-20T14:51:37.000Z</time>
      </trkpt>
      <trkpt lat="45.1357" lon="2.5161">
        <ele>956.8</ele>
        <time>2018-05-20T14:51:41.000Z</time>
      </trkpt>
      <trkpt lat="45.13577" lon="2.51608">
        <ele>956.2</ele>
        <time>2018-05-20T14:51:46.000Z</time>
      </trkpt>
      <trkpt lat="45.1358" lon="2.51606">
        <ele>955.4</ele>
        <time>2018-05-20T14:51:48.000Z</time>
      </trkpt>
      <trkpt lat="45.1358" lon="2.51603">
        <ele>955.2</ele>
        <time>2018-05-20T14:51:49.000Z</time>
      </trkpt>
      <trkpt lat="45.1358" lon="2.51601">
        <ele>953.6</ele>
        <time>2018-05-20T14:51:52.000Z</time>
      </trkpt>
      <trkpt lat="45.1358" lon="2.516">
        <ele>953.4</ele>
        <time>2018-05-20T14:51:53.000Z</time>
      </trkpt>
      <trkpt lat="45.13581" lon="2.51599">
        <ele>953.2</ele>
        <time>2018-05-20T14:51:54.000Z</time>
      </trkpt>
      <trkpt lat="45.13585" lon="2.51593">
        <ele>951.6</ele>
        <time>2018-05-20T14:51:58.000Z</time>
      </trkpt>
      <trkpt lat="45.13585" lon="2.51593">
        <ele>951.2</ele>
        <time>2018-05-20T14:51:59.000Z</time>
      </trkpt>
      <trkpt lat="45.13586" lon="2.51592">
        <ele>950.8</ele>
        <time>2018-05-20T14:52:00.000Z</time>
      </trkpt>
      <trkpt lat="45.13586" lon="2.51592">
        <ele>950.4</ele>
        <time>2018-05-20T14:52:01.000Z</time>
      </trkpt>
      <trkpt lat="45.13588" lon="2.51592">
        <ele>950.2</ele>
        <time>2018-05-20T14:52:02.000Z</time>
      </trkpt>
      <trkpt lat="45.13589" lon="2.51592">
        <ele>950.2</ele>
        <time>2018-05-20T14:52:03.000Z</time>
      </trkpt>
      <trkpt lat="45.13589" lon="2.51592">
        <ele>950</ele>
        <time>2018-05-20T14:52:04.000Z</time>
      </trkpt>
      <trkpt lat="45.13588" lon="2.51592">
        <ele>950</ele>
        <time>2018-05-20T14:52:06.000Z</time>
      </trkpt>
      <trkpt lat="45.13588" lon="2.51591">
        <ele>950</ele>
        <time>2018-05-20T14:52:08.000Z</time>
      </trkpt>
      <trkpt lat="45.13586" lon="2.51591">
        <ele>949.6</ele>
        <time>2018-05-20T14:52:12.000Z</time>
      </trkpt>
      <trkpt lat="45.13584" lon="2.51592">
        <ele>949.6</ele>
        <time>2018-05-20T14:52:14.000Z</time>
      </trkpt>
      <trkpt lat="45.13583" lon="2.51592">
        <ele>949.6</ele>
        <time>2018-05-20T14:52:15.000Z</time>
      </trkpt>
      <trkpt lat="45.13582" lon="2.51594">
        <ele>949.6</ele>
        <time>2018-05-20T14:52:23.000Z</time>
      </trkpt>
      <trkpt lat="45.13582" lon="2.51595">
        <ele>949.4</ele>
        <time>2018-05-20T14:52:24.000Z</time>
      </trkpt>
      <trkpt lat="45.13584" lon="2.51599">
        <ele>949</ele>
        <time>2018-05-20T14:52:36.000Z</time>
      </trkpt>
      <trkpt lat="45.13583" lon="2.51599">
        <ele>949</ele>
        <time>2018-05-20T14:52:40.000Z</time>
      </trkpt>
      <trkpt lat="45.13583" lon="2.51596">
        <ele>949</ele>
        <time>2018-05-20T14:52:43.000Z</time>
      </trkpt>
      <trkpt lat="45.13584" lon="2.5159">
        <ele>948.8</ele>
        <time>2018-05-20T14:52:49.000Z</time>
      </trkpt>
      <trkpt lat="45.13584" lon="2.51588">
        <ele>948.6</ele>
        <time>2018-05-20T14:52:51.000Z</time>
      </trkpt>
      <trkpt lat="45.13586" lon="2.51586">
        <ele>948.2</ele>
        <time>2018-05-20T14:52:55.000Z</time>
      </trkpt>
      <trkpt lat="45.13585" lon="2.51585">
        <ele>948</ele>
        <time>2018-05-20T14:52:59.000Z</time>
      </trkpt>
      <trkpt lat="45.13587" lon="2.51583">
        <ele>948.4</ele>
        <time>2018-05-20T14:53:05.000Z</time>
      </trkpt>
      <trkpt lat="45.13588" lon="2.51582">
        <ele>948.4</ele>
        <time>2018-05-20T14:53:08.000Z</time>
      </trkpt>
      <trkpt lat="45.13589" lon="2.51583">
        <ele>948.4</ele>
        <time>2018-05-20T14:53:10.000Z</time>
      </trkpt>
      <trkpt lat="45.13589" lon="2.51583">
        <ele>948.4</ele>
        <time>2018-05-20T14:53:13.000Z</time>
      </trkpt>
      <trkpt lat="45.13588" lon="2.51583">
        <ele>948</ele>
        <time>2018-05-20T14:53:18.000Z</time>
      </trkpt>
      <trkpt lat="45.13589" lon="2.51581">
        <ele>947.2</ele>
        <time>2018-05-20T14:53:27.000Z</time>
      </trkpt>
      <trkpt lat="45.13593" lon="2.51583">
        <ele>946.6</ele>
        <time>2018-05-20T14:53:32.000Z</time>
      </trkpt>
      <trkpt lat="45.13594" lon="2.51582">
        <ele>946.4</ele>
        <time>2018-05-20T14:53:34.000Z</time>
      </trkpt>
      <trkpt lat="45.13596" lon="2.51582">
        <ele>946</ele>
        <time>2018-05-20T14:53:36.000Z</time>
      </trkpt>
      <trkpt lat="45.13598" lon="2.5158">
        <ele>945.8</ele>
        <time>2018-05-20T14:53:38.000Z</time>
      </trkpt>
      <trkpt lat="45.13598" lon="2.5158">
        <ele>945.8</ele>
        <time>2018-05-20T14:53:39.000Z</time>
      </trkpt>
      <trkpt lat="45.13609" lon="2.51582">
        <ele>944.8</ele>
        <time>2018-05-20T14:53:53.000Z</time>
      </trkpt>
      <trkpt lat="45.13612" lon="2.51586">
        <ele>944.6</ele>
        <time>2018-05-20T14:53:58.000Z</time>
      </trkpt>
      <trkpt lat="45.13617" lon="2.51587">
        <ele>943.6</ele>
        <time>2018-05-20T14:54:06.000Z</time>
      </trkpt>
      <trkpt lat="45.13619" lon="2.51588">
        <ele>942.6</ele>
        <time>2018-05-20T14:54:12.000Z</time>
      </trkpt>
      <trkpt lat="45.13622" lon="2.51596">
        <ele>941.8</ele>
        <time>2018-05-20T14:54:18.000Z</time>
      </trkpt>
      <trkpt lat="45.13623" lon="2.51596">
        <ele>941.6</ele>
        <time>2018-05-20T14:54:19.000Z</time>
      </trkpt>
      <trkpt lat="45.13624" lon="2.51597">
        <ele>941.4</ele>
        <time>2018-05-20T14:54:20.000Z</time>
      </trkpt>
      <trkpt lat="45.13626" lon="2.516">
        <ele>941</ele>
        <time>2018-05-20T14:54:23.000Z</time>
      </trkpt>
      <trkpt lat="45.13627" lon="2.51601">
        <ele>940.6</ele>
        <time>2018-05-20T14:54:26.000Z</time>
      </trkpt>
      <trkpt lat="45.13629" lon="2.51602">
        <ele>940.2</ele>
        <time>2018-05-20T14:54:29.000Z</time>
      </trkpt>
      <trkpt lat="45.1363" lon="2.51604">
        <ele>939.8</ele>
        <time>2018-05-20T14:54:31.000Z</time>
      </trkpt>
      <trkpt lat="45.13635" lon="2.51609">
        <ele>937.8</ele>
        <time>2018-05-20T14:54:36.000Z</time>
      </trkpt>
      <trkpt lat="45.13637" lon="2.51611">
        <ele>937.4</ele>
        <time>2018-05-20T14:54:38.000Z</time>
      </trkpt>
      <trkpt lat="45.13638" lon="2.51614">
        <ele>937</ele>
        <time>2018-05-20T14:54:40.000Z</time>
      </trkpt>
      <trkpt lat="45.13642" lon="2.51614">
        <ele>935.8</ele>
        <time>2018-05-20T14:54:44.000Z</time>
      </trkpt>
      <trkpt lat="45.13643" lon="2.51613">
        <ele>935.6</ele>
        <time>2018-05-20T14:54:45.000Z</time>
      </trkpt>
      <trkpt lat="45.13642" lon="2.51612">
        <ele>934.8</ele>
        <time>2018-05-20T14:54:49.000Z</time>
      </trkpt>
      <trkpt lat="45.13641" lon="2.51612">
        <ele>934.6</ele>
        <time>2018-05-20T14:54:50.000Z</time>
      </trkpt>
      <trkpt lat="45.13642" lon="2.51606">
        <ele>933.6</ele>
        <time>2018-05-20T14:54:54.000Z</time>
      </trkpt>
      <trkpt lat="45.13642" lon="2.51604">
        <ele>933</ele>
        <time>2018-05-20T14:54:55.000Z</time>
      </trkpt>
      <trkpt lat="45.13642" lon="2.51602">
        <ele>932.6</ele>
        <time>2018-05-20T14:54:56.000Z</time>
      </trkpt>
      <trkpt lat="45.13642" lon="2.516">
        <ele>932</ele>
        <time>2018-05-20T14:54:57.000Z</time>
      </trkpt>
      <trkpt lat="45.13639" lon="2.51584">
        <ele>928</ele>
        <time>2018-05-20T14:55:05.000Z</time>
      </trkpt>
      <trkpt lat="45.13639" lon="2.51584">
        <ele>927.4</ele>
        <time>2018-05-20T14:55:06.000Z</time>
      </trkpt>
      <trkpt lat="45.13639" lon="2.51582">
        <ele>926.6</ele>
        <time>2018-05-20T14:55:09.000Z</time>
      </trkpt>
      <trkpt lat="45.13635" lon="2.51582">
        <ele>926.2</ele>
        <time>2018-05-20T14:55:18.000Z</time>
      </trkpt>
      <trkpt lat="45.13635" lon="2.51584">
        <ele>926.2</ele>
        <time>2018-05-20T14:55:21.000Z</time>
      </trkpt>
      <trkpt lat="45.13635" lon="2.51584">
        <ele>926.2</ele>
        <time>2018-05-20T14:55:22.000Z</time>
      </trkpt>
      <trkpt lat="45.13635" lon="2.51584">
        <ele>926.2</ele>
        <time>2018-05-20T14:55:23.000Z</time>
      </trkpt>
      <trkpt lat="45.13635" lon="2.51585">
        <ele>926</ele>
        <time>2018-05-20T14:55:24.000Z</time>
      </trkpt>
      <trkpt lat="45.13633" lon="2.51586">
        <ele>926</ele>
        <time>2018-05-20T14:55:27.000Z</time>
      </trkpt>
      <trkpt lat="45.13632" lon="2.51587">
        <ele>926</ele>
        <time>2018-05-20T14:55:29.000Z</time>
      </trkpt>
      <trkpt lat="45.13631" lon="2.51587">
        <ele>926</ele>
        <time>2018-05-20T14:55:30.000Z</time>
      </trkpt>
      <trkpt lat="45.13629" lon="2.51587">
        <ele>926</ele>
        <time>2018-05-20T14:55:31.000Z</time>
      </trkpt>
      <trkpt lat="45.13628" lon="2.51588">
        <ele>926</ele>
        <time>2018-05-20T14:55:32.000Z</time>
      </trkpt>
      <trkpt lat="45.13628" lon="2.51589">
        <ele>926</ele>
        <time>2018-05-20T14:55:33.000Z</time>
      </trkpt>
      <trkpt lat="45.13629" lon="2.51589">
        <ele>926</ele>
        <time>2018-05-20T14:55:34.000Z</time>
      </trkpt>
      <trkpt lat="45.13628" lon="2.51589">
        <ele>926</ele>
        <time>2018-05-20T14:55:35.000Z</time>
      </trkpt>
      <trkpt lat="45.13626" lon="2.51584">
        <ele>925</ele>
        <time>2018-05-20T14:55:44.000Z</time>
      </trkpt>
      <trkpt lat="45.13626" lon="2.51582">
        <ele>924.8</ele>
        <time>2018-05-20T14:55:45.000Z</time>
      </trkpt>
      <trkpt lat="45.13628" lon="2.51584">
        <ele>924.8</ele>
        <time>2018-05-20T14:55:52.000Z</time>
      </trkpt>
      <trkpt lat="45.13628" lon="2.51577">
        <ele>924.2</ele>
        <time>2018-05-20T14:55:59.000Z</time>
      </trkpt>
      <trkpt lat="45.13629" lon="2.5157">
        <ele>923.6</ele>
        <time>2018-05-20T14:56:01.000Z</time>
      </trkpt>
      <trkpt lat="45.13637" lon="2.51555">
        <ele>920.4</ele>
        <time>2018-05-20T14:56:08.000Z</time>
      </trkpt>
      <trkpt lat="45.13638" lon="2.51554">
        <ele>919.6</ele>
        <time>2018-05-20T14:56:09.000Z</time>
      </trkpt>
      <trkpt lat="45.13643" lon="2.5155">
        <ele>918</ele>
        <time>2018-05-20T14:56:12.000Z</time>
      </trkpt>
      <trkpt lat="45.13644" lon="2.5155">
        <ele>917.4</ele>
        <time>2018-05-20T14:56:13.000Z</time>
      </trkpt>
      <trkpt lat="45.13644" lon="2.51549">
        <ele>917</ele>
        <time>2018-05-20T14:56:14.000Z</time>
      </trkpt>
      <trkpt lat="45.13645" lon="2.51549">
        <ele>916.6</ele>
        <time>2018-05-20T14:56:15.000Z</time>
      </trkpt>
      <trkpt lat="45.13647" lon="2.51553">
        <ele>915.4</ele>
        <time>2018-05-20T14:56:18.000Z</time>
      </trkpt>
      <trkpt lat="45.1365" lon="2.51556">
        <ele>914.2</ele>
        <time>2018-05-20T14:56:21.000Z</time>
      </trkpt>
      <trkpt lat="45.13653" lon="2.5156">
        <ele>912.8</ele>
        <time>2018-05-20T14:56:24.000Z</time>
      </trkpt>
      <trkpt lat="45.13653" lon="2.51561">
        <ele>912.2</ele>
        <time>2018-05-20T14:56:25.000Z</time>
      </trkpt>
      <trkpt lat="45.13654" lon="2.51564">
        <ele>911.6</ele>
        <time>2018-05-20T14:56:27.000Z</time>
      </trkpt>
      <trkpt lat="45.13665" lon="2.51577">
        <ele>907.8</ele>
        <time>2018-05-20T14:56:36.000Z</time>
      </trkpt>
      <trkpt lat="45.13666" lon="2.51579">
        <ele>907.2</ele>
        <time>2018-05-20T14:56:37.000Z</time>
      </trkpt>
      <trkpt lat="45.13668" lon="2.51579">
        <ele>906.4</ele>
        <time>2018-05-20T14:56:38.000Z</time>
      </trkpt>
      <trkpt lat="45.13672" lon="2.5158">
        <ele>905</ele>
        <time>2018-05-20T14:56:41.000Z</time>
      </trkpt>
      <trkpt lat="45.13676" lon="2.51582">
        <ele>904.2</ele>
        <time>2018-05-20T14:56:43.000Z</time>
      </trkpt>
      <trkpt lat="45.1368" lon="2.51586">
        <ele>902.8</ele>
        <time>2018-05-20T14:56:45.000Z</time>
      </trkpt>
      <trkpt lat="45.13681" lon="2.51589">
        <ele>902.2</ele>
        <time>2018-05-20T14:56:46.000Z</time>
      </trkpt>
      <trkpt lat="45.13681" lon="2.51591">
        <ele>901.6</ele>
        <time>2018-05-20T14:56:47.000Z</time>
      </trkpt>
      <trkpt lat="45.13681" lon="2.51611">
        <ele>898.6</ele>
        <time>2018-05-20T14:56:54.000Z</time>
      </trkpt>
      <trkpt lat="45.13682" lon="2.51617">
        <ele>897.8</ele>
        <time>2018-05-20T14:56:56.000Z</time>
      </trkpt>
      <trkpt lat="45.13681" lon="2.51625">
        <ele>896.6</ele>
        <time>2018-05-20T14:56:59.000Z</time>
      </trkpt>
      <trkpt lat="45.13683" lon="2.51629">
        <ele>896.4</ele>
        <time>2018-05-20T14:57:01.000Z</time>
      </trkpt>
      <trkpt lat="45.13685" lon="2.51631">
        <ele>896.2</ele>
        <time>2018-05-20T14:57:03.000Z</time>
      </trkpt>
      <trkpt lat="45.13686" lon="2.51631">
        <ele>896.4</ele>
        <time>2018-05-20T14:57:04.000Z</time>
      </trkpt>
      <trkpt lat="45.13688" lon="2.51631">
        <ele>896.2</ele>
        <time>2018-05-20T14:57:05.000Z</time>
      </trkpt>
      <trkpt lat="45.13688" lon="2.51629">
        <ele>896.2</ele>
        <time>2018-05-20T14:57:06.000Z</time>
      </trkpt>
      <trkpt lat="45.13692" lon="2.5163">
        <ele>896</ele>
        <time>2018-05-20T14:57:09.000Z</time>
      </trkpt>
      <trkpt lat="45.13694" lon="2.51631">
        <ele>896</ele>
        <time>2018-05-20T14:57:11.000Z</time>
      </trkpt>
      <trkpt lat="45.13697" lon="2.5163">
        <ele>895.8</ele>
        <time>2018-05-20T14:57:13.000Z</time>
      </trkpt>
      <trkpt lat="45.13698" lon="2.51629">
        <ele>896</ele>
        <time>2018-05-20T14:57:15.000Z</time>
      </trkpt>
      <trkpt lat="45.137" lon="2.51626">
        <ele>895.8</ele>
        <time>2018-05-20T14:57:20.000Z</time>
      </trkpt>
      <trkpt lat="45.13702" lon="2.51621">
        <ele>895.2</ele>
        <time>2018-05-20T14:57:44.000Z</time>
      </trkpt>
      <trkpt lat="45.13701" lon="2.51621">
        <ele>895.2</ele>
        <time>2018-05-20T14:57:46.000Z</time>
      </trkpt>
      <trkpt lat="45.13699" lon="2.51622">
        <ele>895</ele>
        <time>2018-05-20T14:57:49.000Z</time>
      </trkpt>
      <trkpt lat="45.13698" lon="2.51622">
        <ele>895</ele>
        <time>2018-05-20T14:57:50.000Z</time>
      </trkpt>
      <trkpt lat="45.13691" lon="2.51627">
        <ele>895</ele>
        <time>2018-05-20T14:57:56.000Z</time>
      </trkpt>
      <trkpt lat="45.1369" lon="2.51628">
        <ele>894.8</ele>
        <time>2018-05-20T14:57:57.000Z</time>
      </trkpt>
      <trkpt lat="45.13695" lon="2.51637">
        <ele>894.8</ele>
        <time>2018-05-20T14:58:02.000Z</time>
      </trkpt>
      <trkpt lat="45.13698" lon="2.51642">
        <ele>895</ele>
        <time>2018-05-20T14:58:06.000Z</time>
      </trkpt>
      <trkpt lat="45.13699" lon="2.51647">
        <ele>894.8</ele>
        <time>2018-05-20T14:58:09.000Z</time>
      </trkpt>
      <trkpt lat="45.13695" lon="2.51654">
        <ele>893.8</ele>
        <time>2018-05-20T14:58:12.000Z</time>
      </trkpt>
      <trkpt lat="45.13695" lon="2.51656">
        <ele>893.6</ele>
        <time>2018-05-20T14:58:13.000Z</time>
      </trkpt>
      <trkpt lat="45.13695" lon="2.51658">
        <ele>893.4</ele>
        <time>2018-05-20T14:58:14.000Z</time>
      </trkpt>
      <trkpt lat="45.13694" lon="2.5166">
        <ele>893.2</ele>
        <time>2018-05-20T14:58:15.000Z</time>
      </trkpt>
      <trkpt lat="45.13693" lon="2.51661">
        <ele>892.6</ele>
        <time>2018-05-20T14:58:16.000Z</time>
      </trkpt>
      <trkpt lat="45.13693" lon="2.51663">
        <ele>891.6</ele>
        <time>2018-05-20T14:58:19.000Z</time>
      </trkpt>
      <trkpt lat="45.13694" lon="2.51663">
        <ele>891.4</ele>
        <time>2018-05-20T14:58:20.000Z</time>
      </trkpt>
      <trkpt lat="45.13697" lon="2.51664">
        <ele>891</ele>
        <time>2018-05-20T14:58:23.000Z</time>
      </trkpt>
      <trkpt lat="45.13709" lon="2.51665">
        <ele>889.8</ele>
        <time>2018-05-20T14:58:26.000Z</time>
      </trkpt>
      <trkpt lat="45.13713" lon="2.51663">
        <ele>889</ele>
        <time>2018-05-20T14:58:28.000Z</time>
      </trkpt>
      <trkpt lat="45.13714" lon="2.51663">
        <ele>888.6</ele>
        <time>2018-05-20T14:58:29.000Z</time>
      </trkpt>
      <trkpt lat="45.13715" lon="2.51662">
        <ele>888.2</ele>
        <time>2018-05-20T14:58:31.000Z</time>
      </trkpt>
      <trkpt lat="45.13716" lon="2.51663">
        <ele>888</ele>
        <time>2018-05-20T14:58:32.000Z</time>
      </trkpt>
      <trkpt lat="45.13717" lon="2.51663">
        <ele>887.8</ele>
        <time>2018-05-20T14:58:33.000Z</time>
      </trkpt>
      <trkpt lat="45.13717" lon="2.51663">
        <ele>887.6</ele>
        <time>2018-05-20T14:58:34.000Z</time>
      </trkpt>
      <trkpt lat="45.13718" lon="2.51665">
        <ele>887</ele>
        <time>2018-05-20T14:58:36.000Z</time>
      </trkpt>
      <trkpt lat="45.13719" lon="2.51666">
        <ele>886.8</ele>
        <time>2018-05-20T14:58:37.000Z</time>
      </trkpt>
      <trkpt lat="45.1372" lon="2.51667">
        <ele>886.6</ele>
        <time>2018-05-20T14:58:38.000Z</time>
      </trkpt>
      <trkpt lat="45.1372" lon="2.51668">
        <ele>886.2</ele>
        <time>2018-05-20T14:58:39.000Z</time>
      </trkpt>
      <trkpt lat="45.13723" lon="2.51669">
        <ele>885.8</ele>
        <time>2018-05-20T14:58:41.000Z</time>
      </trkpt>
      <trkpt lat="45.13723" lon="2.5167">
        <ele>885.4</ele>
        <time>2018-05-20T14:58:42.000Z</time>
      </trkpt>
      <trkpt lat="45.13727" lon="2.51672">
        <ele>885</ele>
        <time>2018-05-20T14:58:44.000Z</time>
      </trkpt>
      <trkpt lat="45.1373" lon="2.51673">
        <ele>884.2</ele>
        <time>2018-05-20T14:58:46.000Z</time>
      </trkpt>
      <trkpt lat="45.13738" lon="2.51673">
        <ele>883.2</ele>
        <time>2018-05-20T14:58:49.000Z</time>
      </trkpt>
      <trkpt lat="45.13745" lon="2.51673">
        <ele>882.4</ele>
        <time>2018-05-20T14:58:53.000Z</time>
      </trkpt>
      <trkpt lat="45.1375" lon="2.51673">
        <ele>881.6</ele>
        <time>2018-05-20T14:58:57.000Z</time>
      </trkpt>
      <trkpt lat="45.1375" lon="2.51675">
        <ele>881</ele>
        <time>2018-05-20T14:59:00.000Z</time>
      </trkpt>
      <trkpt lat="45.13749" lon="2.51674">
        <ele>880.8</ele>
        <time>2018-05-20T14:59:01.000Z</time>
      </trkpt>
      <trkpt lat="45.1375" lon="2.51674">
        <ele>880.6</ele>
        <time>2018-05-20T14:59:02.000Z</time>
      </trkpt>
      <trkpt lat="45.13752" lon="2.51677">
        <ele>880.4</ele>
        <time>2018-05-20T14:59:04.000Z</time>
      </trkpt>
      <trkpt lat="45.13753" lon="2.5168">
        <ele>880</ele>
        <time>2018-05-20T14:59:06.000Z</time>
      </trkpt>
      <trkpt lat="45.13756" lon="2.51685">
        <ele>879.2</ele>
        <time>2018-05-20T14:59:10.000Z</time>
      </trkpt>
      <trkpt lat="45.13757" lon="2.51688">
        <ele>878.8</ele>
        <time>2018-05-20T14:59:12.000Z</time>
      </trkpt>
      <trkpt lat="45.13756" lon="2.51694">
        <ele>878.6</ele>
        <time>2018-05-20T14:59:15.000Z</time>
      </trkpt>
      <trkpt lat="45.13755" lon="2.51699">
        <ele>878</ele>
        <time>2018-05-20T14:59:18.000Z</time>
      </trkpt>
      <trkpt lat="45.13754" lon="2.51703">
        <ele>877.8</ele>
        <time>2018-05-20T14:59:21.000Z</time>
      </trkpt>
      <trkpt lat="45.13754" lon="2.51704">
        <ele>877.8</ele>
        <time>2018-05-20T14:59:22.000Z</time>
      </trkpt>
      <trkpt lat="45.13754" lon="2.51708">
        <ele>877.6</ele>
        <time>2018-05-20T14:59:24.000Z</time>
      </trkpt>
      <trkpt lat="45.13757" lon="2.51715">
        <ele>877</ele>
        <time>2018-05-20T14:59:28.000Z</time>
      </trkpt>
      <trkpt lat="45.13763" lon="2.51727">
        <ele>876</ele>
        <time>2018-05-20T14:59:35.000Z</time>
      </trkpt>
      <trkpt lat="45.13764" lon="2.51728">
        <ele>875.6</ele>
        <time>2018-05-20T14:59:36.000Z</time>
      </trkpt>
      <trkpt lat="45.13764" lon="2.51731">
        <ele>875</ele>
        <time>2018-05-20T14:59:38.000Z</time>
      </trkpt>
      <trkpt lat="45.13764" lon="2.51734">
        <ele>874.8</ele>
        <time>2018-05-20T14:59:41.000Z</time>
      </trkpt>
      <trkpt lat="45.13767" lon="2.51743">
        <ele>873.8</ele>
        <time>2018-05-20T14:59:47.000Z</time>
      </trkpt>
      <trkpt lat="45.13767" lon="2.51745">
        <ele>873.4</ele>
        <time>2018-05-20T14:59:49.000Z</time>
      </trkpt>
      <trkpt lat="45.13767" lon="2.51746">
        <ele>873.2</ele>
        <time>2018-05-20T14:59:50.000Z</time>
      </trkpt>
      <trkpt lat="45.13768" lon="2.5175">
        <ele>872.2</ele>
        <time>2018-05-20T14:59:52.000Z</time>
      </trkpt>
      <trkpt lat="45.13771" lon="2.51756">
        <ele>871.2</ele>
        <time>2018-05-20T14:59:57.000Z</time>
      </trkpt>
      <trkpt lat="45.13779" lon="2.51762">
        <ele>870</ele>
        <time>2018-05-20T15:00:04.000Z</time>
      </trkpt>
      <trkpt lat="45.13783" lon="2.51762">
        <ele>868.8</ele>
        <time>2018-05-20T15:00:07.000Z</time>
      </trkpt>
      <trkpt lat="45.13787" lon="2.51764">
        <ele>867.6</ele>
        <time>2018-05-20T15:00:10.000Z</time>
      </trkpt>
      <trkpt lat="45.13791" lon="2.51767">
        <ele>867</ele>
        <time>2018-05-20T15:00:13.000Z</time>
      </trkpt>
      <trkpt lat="45.13797" lon="2.51769">
        <ele>866.8</ele>
        <time>2018-05-20T15:00:17.000Z</time>
      </trkpt>
      <trkpt lat="45.13798" lon="2.51769">
        <ele>866.6</ele>
        <time>2018-05-20T15:00:18.000Z</time>
      </trkpt>
      <trkpt lat="45.13812" lon="2.51772">
        <ele>864.6</ele>
        <time>2018-05-20T15:00:25.000Z</time>
      </trkpt>
      <trkpt lat="45.13813" lon="2.51772">
        <ele>864.2</ele>
        <time>2018-05-20T15:00:26.000Z</time>
      </trkpt>
      <trkpt lat="45.13816" lon="2.51769">
        <ele>863.6</ele>
        <time>2018-05-20T15:00:28.000Z</time>
      </trkpt>
      <trkpt lat="45.1382" lon="2.51767">
        <ele>862.6</ele>
        <time>2018-05-20T15:00:30.000Z</time>
      </trkpt>
      <trkpt lat="45.13824" lon="2.51766">
        <ele>861.2</ele>
        <time>2018-05-20T15:00:33.000Z</time>
      </trkpt>
      <trkpt lat="45.13825" lon="2.51766">
        <ele>860.8</ele>
        <time>2018-05-20T15:00:34.000Z</time>
      </trkpt>
      <trkpt lat="45.13827" lon="2.51765">
        <ele>860.2</ele>
        <time>2018-05-20T15:00:36.000Z</time>
      </trkpt>
      <trkpt lat="45.13828" lon="2.51764">
        <ele>860</ele>
        <time>2018-05-20T15:00:37.000Z</time>
      </trkpt>
      <trkpt lat="45.13829" lon="2.51763">
        <ele>859.8</ele>
        <time>2018-05-20T15:00:38.000Z</time>
      </trkpt>
      <trkpt lat="45.13829" lon="2.51761">
        <ele>859.6</ele>
        <time>2018-05-20T15:00:39.000Z</time>
      </trkpt>
      <trkpt lat="45.13829" lon="2.5176">
        <ele>859.6</ele>
        <time>2018-05-20T15:00:40.000Z</time>
      </trkpt>
      <trkpt lat="45.13828" lon="2.51758">
        <ele>859.2</ele>
        <time>2018-05-20T15:00:41.000Z</time>
      </trkpt>
      <trkpt lat="45.13828" lon="2.51757">
        <ele>858.6</ele>
        <time>2018-05-20T15:00:42.000Z</time>
      </trkpt>
      <trkpt lat="45.13827" lon="2.51756">
        <ele>858.2</ele>
        <time>2018-05-20T15:00:43.000Z</time>
      </trkpt>
      <trkpt lat="45.13826" lon="2.51755">
        <ele>857.8</ele>
        <time>2018-05-20T15:00:44.000Z</time>
      </trkpt>
      <trkpt lat="45.13826" lon="2.51754">
        <ele>857.6</ele>
        <time>2018-05-20T15:00:45.000Z</time>
      </trkpt>
      <trkpt lat="45.13825" lon="2.51754">
        <ele>857.6</ele>
        <time>2018-05-20T15:00:46.000Z</time>
      </trkpt>
      <trkpt lat="45.13825" lon="2.51753">
        <ele>857.4</ele>
        <time>2018-05-20T15:00:47.000Z</time>
      </trkpt>
      <trkpt lat="45.13824" lon="2.51753">
        <ele>857.2</ele>
        <time>2018-05-20T15:00:48.000Z</time>
      </trkpt>
      <trkpt lat="45.13822" lon="2.51752">
        <ele>856.8</ele>
        <time>2018-05-20T15:00:51.000Z</time>
      </trkpt>
      <trkpt lat="45.1382" lon="2.51753">
        <ele>856.6</ele>
        <time>2018-05-20T15:00:53.000Z</time>
      </trkpt>
      <trkpt lat="45.13819" lon="2.51751">
        <ele>856.4</ele>
        <time>2018-05-20T15:00:54.000Z</time>
      </trkpt>
      <trkpt lat="45.13819" lon="2.51749">
        <ele>855.4</ele>
        <time>2018-05-20T15:00:57.000Z</time>
      </trkpt>
      <trkpt lat="45.1382" lon="2.5175">
        <ele>854.8</ele>
        <time>2018-05-20T15:01:01.000Z</time>
      </trkpt>
      <trkpt lat="45.13821" lon="2.5175">
        <ele>854.6</ele>
        <time>2018-05-20T15:01:03.000Z</time>
      </trkpt>
      <trkpt lat="45.13821" lon="2.51749">
        <ele>854.4</ele>
        <time>2018-05-20T15:01:04.000Z</time>
      </trkpt>
      <trkpt lat="45.13822" lon="2.51747">
        <ele>853.4</ele>
        <time>2018-05-20T15:01:09.000Z</time>
      </trkpt>
      <trkpt lat="45.13826" lon="2.51745">
        <ele>852.4</ele>
        <time>2018-05-20T15:01:14.000Z</time>
      </trkpt>
      <trkpt lat="45.13832" lon="2.51744">
        <ele>851.4</ele>
        <time>2018-05-20T15:01:19.000Z</time>
      </trkpt>
      <trkpt lat="45.13834" lon="2.51742">
        <ele>851.2</ele>
        <time>2018-05-20T15:01:25.000Z</time>
      </trkpt>
      <trkpt lat="45.13835" lon="2.51737">
        <ele>851</ele>
        <time>2018-05-20T15:01:27.000Z</time>
      </trkpt>
      <trkpt lat="45.13833" lon="2.51733">
        <ele>851</ele>
        <time>2018-05-20T15:01:30.000Z</time>
      </trkpt>
      <trkpt lat="45.1383" lon="2.51731">
        <ele>851.4</ele>
        <time>2018-05-20T15:01:37.000Z</time>
      </trkpt>
      <trkpt lat="45.13833" lon="2.51723">
        <ele>850.8</ele>
        <time>2018-05-20T15:01:43.000Z</time>
      </trkpt>
      <trkpt lat="45.13834" lon="2.51718">
        <ele>849.8</ele>
        <time>2018-05-20T15:01:47.000Z</time>
      </trkpt>
      <trkpt lat="45.13834" lon="2.51717">
        <ele>849.2</ele>
        <time>2018-05-20T15:01:49.000Z</time>
      </trkpt>
      <trkpt lat="45.13835" lon="2.51715">
        <ele>848.6</ele>
        <time>2018-05-20T15:01:51.000Z</time>
      </trkpt>
      <trkpt lat="45.13835" lon="2.51715">
        <ele>848.2</ele>
        <time>2018-05-20T15:01:53.000Z</time>
      </trkpt>
      <trkpt lat="45.13836" lon="2.51716">
        <ele>847.4</ele>
        <time>2018-05-20T15:01:56.000Z</time>
      </trkpt>
      <trkpt lat="45.13837" lon="2.51716">
        <ele>847</ele>
        <time>2018-05-20T15:01:57.000Z</time>
      </trkpt>
      <trkpt lat="45.13838" lon="2.51716">
        <ele>846</ele>
        <time>2018-05-20T15:01:59.000Z</time>
      </trkpt>
      <trkpt lat="45.13839" lon="2.51716">
        <ele>845.6</ele>
        <time>2018-05-20T15:02:00.000Z</time>
      </trkpt>
      <trkpt lat="45.13841" lon="2.51717">
        <ele>844.8</ele>
        <time>2018-05-20T15:02:02.000Z</time>
      </trkpt>
      <trkpt lat="45.13845" lon="2.51717">
        <ele>843.6</ele>
        <time>2018-05-20T15:02:05.000Z</time>
      </trkpt>
      <trkpt lat="45.13846" lon="2.51714">
        <ele>842.8</ele>
        <time>2018-05-20T15:02:07.000Z</time>
      </trkpt>
      <trkpt lat="45.13848" lon="2.51713">
        <ele>842.6</ele>
        <time>2018-05-20T15:02:08.000Z</time>
      </trkpt>
      <trkpt lat="45.13849" lon="2.51712">
        <ele>842.2</ele>
        <time>2018-05-20T15:02:09.000Z</time>
      </trkpt>
      <trkpt lat="45.13852" lon="2.5171">
        <ele>841.4</ele>
        <time>2018-05-20T15:02:12.000Z</time>
      </trkpt>
      <trkpt lat="45.13852" lon="2.5171">
        <ele>841.2</ele>
        <time>2018-05-20T15:02:13.000Z</time>
      </trkpt>
      <trkpt lat="45.13852" lon="2.5171">
        <ele>841</ele>
        <time>2018-05-20T15:02:14.000Z</time>
      </trkpt>
      <trkpt lat="45.13855" lon="2.5171">
        <ele>840</ele>
        <time>2018-05-20T15:02:17.000Z</time>
      </trkpt>
      <trkpt lat="45.13856" lon="2.5171">
        <ele>839.8</ele>
        <time>2018-05-20T15:02:18.000Z</time>
      </trkpt>
      <trkpt lat="45.13857" lon="2.51711">
        <ele>839.8</ele>
        <time>2018-05-20T15:02:20.000Z</time>
      </trkpt>
      <trkpt lat="45.13859" lon="2.5171">
        <ele>839.6</ele>
        <time>2018-05-20T15:02:23.000Z</time>
      </trkpt>
      <trkpt lat="45.13862" lon="2.51711">
        <ele>839.2</ele>
        <time>2018-05-20T15:02:25.000Z</time>
      </trkpt>
      <trkpt lat="45.13862" lon="2.5171">
        <ele>838.8</ele>
        <time>2018-05-20T15:02:26.000Z</time>
      </trkpt>
      <trkpt lat="45.13864" lon="2.51709">
        <ele>838.6</ele>
        <time>2018-05-20T15:02:27.000Z</time>
      </trkpt>
      <trkpt lat="45.13865" lon="2.51708">
        <ele>838.4</ele>
        <time>2018-05-20T15:02:28.000Z</time>
      </trkpt>
      <trkpt lat="45.13867" lon="2.51706">
        <ele>838.2</ele>
        <time>2018-05-20T15:02:29.000Z</time>
      </trkpt>
      <trkpt lat="45.13871" lon="2.51706">
        <ele>837</ele>
        <time>2018-05-20T15:02:31.000Z</time>
      </trkpt>
      <trkpt lat="45.13875" lon="2.51706">
        <ele>836</ele>
        <time>2018-05-20T15:02:33.000Z</time>
      </trkpt>
      <trkpt lat="45.13878" lon="2.51704">
        <ele>835</ele>
        <time>2018-05-20T15:02:35.000Z</time>
      </trkpt>
      <trkpt lat="45.13881" lon="2.51704">
        <ele>834.4</ele>
        <time>2018-05-20T15:02:37.000Z</time>
      </trkpt>
      <trkpt lat="45.13882" lon="2.51705">
        <ele>834</ele>
        <time>2018-05-20T15:02:38.000Z</time>
      </trkpt>
      <trkpt lat="45.13882" lon="2.51706">
        <ele>833.8</ele>
        <time>2018-05-20T15:02:39.000Z</time>
      </trkpt>
      <trkpt lat="45.13883" lon="2.51707">
        <ele>833.8</ele>
        <time>2018-05-20T15:02:40.000Z</time>
      </trkpt>
      <trkpt lat="45.13884" lon="2.51709">
        <ele>833.6</ele>
        <time>2018-05-20T15:02:42.000Z</time>
      </trkpt>
      <trkpt lat="45.13884" lon="2.51709">
        <ele>833.6</ele>
        <time>2018-05-20T15:02:43.000Z</time>
      </trkpt>
      <trkpt lat="45.13883" lon="2.51709">
        <ele>833.4</ele>
        <time>2018-05-20T15:02:44.000Z</time>
      </trkpt>
      <trkpt lat="45.13882" lon="2.51709">
        <ele>833.4</ele>
        <time>2018-05-20T15:02:47.000Z</time>
      </trkpt>
      <trkpt lat="45.13882" lon="2.5171">
        <ele>833.4</ele>
        <time>2018-05-20T15:02:48.000Z</time>
      </trkpt>
      <trkpt lat="45.13884" lon="2.51711">
        <ele>833.2</ele>
        <time>2018-05-20T15:02:49.000Z</time>
      </trkpt>
      <trkpt lat="45.13882" lon="2.5171">
        <ele>833</ele>
        <time>2018-05-20T15:02:51.000Z</time>
      </trkpt>
      <trkpt lat="45.13881" lon="2.51707">
        <ele>832.8</ele>
        <time>2018-05-20T15:02:52.000Z</time>
      </trkpt>
      <trkpt lat="45.13881" lon="2.51705">
        <ele>832.8</ele>
        <time>2018-05-20T15:02:54.000Z</time>
      </trkpt>
      <trkpt lat="45.13882" lon="2.51704">
        <ele>832.8</ele>
        <time>2018-05-20T15:02:55.000Z</time>
      </trkpt>
      <trkpt lat="45.13883" lon="2.51704">
        <ele>832.8</ele>
        <time>2018-05-20T15:02:56.000Z</time>
      </trkpt>
      <trkpt lat="45.1389" lon="2.51706">
        <ele>832.4</ele>
        <time>2018-05-20T15:03:00.000Z</time>
      </trkpt>
      <trkpt lat="45.13892" lon="2.51705">
        <ele>832.2</ele>
        <time>2018-05-20T15:03:01.000Z</time>
      </trkpt>
      <trkpt lat="45.13897" lon="2.51705">
        <ele>831.8</ele>
        <time>2018-05-20T15:03:03.000Z</time>
      </trkpt>
      <trkpt lat="45.13902" lon="2.51707">
        <ele>831.4</ele>
        <time>2018-05-20T15:03:05.000Z</time>
      </trkpt>
      <trkpt lat="45.13915" lon="2.51706">
        <ele>830.8</ele>
        <time>2018-05-20T15:03:10.000Z</time>
      </trkpt>
      <trkpt lat="45.13918" lon="2.51705">
        <ele>830.6</ele>
        <time>2018-05-20T15:03:11.000Z</time>
      </trkpt>
      <trkpt lat="45.13926" lon="2.51704">
        <ele>830.2</ele>
        <time>2018-05-20T15:03:14.000Z</time>
      </trkpt>
      <trkpt lat="45.13934" lon="2.51704">
        <ele>829.6</ele>
        <time>2018-05-20T15:03:17.000Z</time>
      </trkpt>
      <trkpt lat="45.13946" lon="2.51703">
        <ele>828.6</ele>
        <time>2018-05-20T15:03:22.000Z</time>
      </trkpt>
      <trkpt lat="45.13956" lon="2.51705">
        <ele>827.4</ele>
        <time>2018-05-20T15:03:27.000Z</time>
      </trkpt>
      <trkpt lat="45.13974" lon="2.51713">
        <ele>825</ele>
        <time>2018-05-20T15:03:35.000Z</time>
      </trkpt>
      <trkpt lat="45.13985" lon="2.5172">
        <ele>823.8</ele>
        <time>2018-05-20T15:03:40.000Z</time>
      </trkpt>
      <trkpt lat="45.13993" lon="2.51728">
        <ele>822.6</ele>
        <time>2018-05-20T15:03:43.000Z</time>
      </trkpt>
      <trkpt lat="45.14001" lon="2.51734">
        <ele>821.6</ele>
        <time>2018-05-20T15:03:47.000Z</time>
      </trkpt>
      <trkpt lat="45.14011" lon="2.51731">
        <ele>820.4</ele>
        <time>2018-05-20T15:03:52.000Z</time>
      </trkpt>
      <trkpt lat="45.14016" lon="2.51722">
        <ele>819.2</ele>
        <time>2018-05-20T15:03:57.000Z</time>
      </trkpt>
      <trkpt lat="45.14015" lon="2.51716">
        <ele>818.6</ele>
        <time>2018-05-20T15:03:59.000Z</time>
      </trkpt>
      <trkpt lat="45.14006" lon="2.51704">
        <ele>818.2</ele>
        <time>2018-05-20T15:04:04.000Z</time>
      </trkpt>
      <trkpt lat="45.14004" lon="2.51701">
        <ele>818</ele>
        <time>2018-05-20T15:04:06.000Z</time>
      </trkpt>
      <trkpt lat="45.14001" lon="2.51692">
        <ele>817.2</ele>
        <time>2018-05-20T15:04:12.000Z</time>
      </trkpt>
      <trkpt lat="45.14002" lon="2.51682">
        <ele>816</ele>
        <time>2018-05-20T15:04:17.000Z</time>
      </trkpt>
      <trkpt lat="45.14002" lon="2.51678">
        <ele>815.8</ele>
        <time>2018-05-20T15:04:19.000Z</time>
      </trkpt>
      <trkpt lat="45.14003" lon="2.51677">
        <ele>815.8</ele>
        <time>2018-05-20T15:04:21.000Z</time>
      </trkpt>
      <trkpt lat="45.14004" lon="2.51675">
        <ele>815.6</ele>
        <time>2018-05-20T15:04:26.000Z</time>
      </trkpt>
      <trkpt lat="45.14001" lon="2.51668">
        <ele>814.8</ele>
        <time>2018-05-20T15:04:34.000Z</time>
      </trkpt>
      <trkpt lat="45.13999" lon="2.51672">
        <ele>814.6</ele>
        <time>2018-05-20T15:04:38.000Z</time>
      </trkpt>
      <trkpt lat="45.13998" lon="2.51672">
        <ele>814.6</ele>
        <time>2018-05-20T15:04:40.000Z</time>
      </trkpt>
      <trkpt lat="45.13999" lon="2.51672">
        <ele>814.4</ele>
        <time>2018-05-20T15:04:42.000Z</time>
      </trkpt>
      <trkpt lat="45.14" lon="2.51672">
        <ele>814</ele>
        <time>2018-05-20T15:04:45.000Z</time>
      </trkpt>
      <trkpt lat="45.14" lon="2.51671">
        <ele>814</ele>
        <time>2018-05-20T15:04:49.000Z</time>
      </trkpt>
      <trkpt lat="45.14" lon="2.51671">
        <ele>814</ele>
        <time>2018-05-20T15:04:50.000Z</time>
      </trkpt>
      <trkpt lat="45.14" lon="2.51672">
        <ele>814</ele>
        <time>2018-05-20T15:04:51.000Z</time>
      </trkpt>
      <trkpt lat="45.14001" lon="2.51673">
        <ele>813.8</ele>
        <time>2018-05-20T15:04:56.000Z</time>
      </trkpt>
      <trkpt lat="45.13998" lon="2.51672">
        <ele>813.8</ele>
        <time>2018-05-20T15:05:04.000Z</time>
      </trkpt>
      <trkpt lat="45.13999" lon="2.51675">
        <ele>814</ele>
        <time>2018-05-20T15:05:09.000Z</time>
      </trkpt>
      <trkpt lat="45.13999" lon="2.51675">
        <ele>814</ele>
        <time>2018-05-20T15:05:11.000Z</time>
      </trkpt>
      <trkpt lat="45.13999" lon="2.51674">
        <ele>814</ele>
        <time>2018-05-20T15:05:12.000Z</time>
      </trkpt>
      <trkpt lat="45.13999" lon="2.51673">
        <ele>814</ele>
        <time>2018-05-20T15:05:15.000Z</time>
      </trkpt>
      <trkpt lat="45.13999" lon="2.51671">
        <ele>814.6</ele>
        <time>2018-05-20T15:05:28.000Z</time>
      </trkpt>
      <trkpt lat="45.14" lon="2.51672">
        <ele>813.8</ele>
        <time>2018-05-20T15:05:44.000Z</time>
      </trkpt>
      <trkpt lat="45.14" lon="2.5167">
        <ele>813.8</ele>
        <time>2018-05-20T15:05:50.000Z</time>
      </trkpt>
      <trkpt lat="45.14" lon="2.51671">
        <ele>814.2</ele>
        <time>2018-05-20T15:05:55.000Z</time>
      </trkpt>
      <trkpt lat="45.14" lon="2.51671">
        <ele>814.2</ele>
        <time>2018-05-20T15:05:56.000Z</time>
      </trkpt>
      <trkpt lat="45.13995" lon="2.51656">
        <ele>813.6</ele>
        <time>2018-05-20T15:06:09.000Z</time>
      </trkpt>
      <trkpt lat="45.13997" lon="2.51633">
        <ele>812.6</ele>
        <time>2018-05-20T15:06:17.000Z</time>
      </trkpt>
      <trkpt lat="45.13997" lon="2.5163">
        <ele>812.2</ele>
        <time>2018-05-20T15:06:18.000Z</time>
      </trkpt>
      <trkpt lat="45.13998" lon="2.51627">
        <ele>812</ele>
        <time>2018-05-20T15:06:19.000Z</time>
      </trkpt>
      <trkpt lat="45.13997" lon="2.51621">
        <ele>811.8</ele>
        <time>2018-05-20T15:06:21.000Z</time>
      </trkpt>
      <trkpt lat="45.13995" lon="2.51613">
        <ele>811.4</ele>
        <time>2018-05-20T15:06:23.000Z</time>
      </trkpt>
      <trkpt lat="45.13988" lon="2.51601">
        <ele>810.6</ele>
        <time>2018-05-20T15:06:26.000Z</time>
      </trkpt>
      <trkpt lat="45.13972" lon="2.51589">
        <ele>809.6</ele>
        <time>2018-05-20T15:06:33.000Z</time>
      </trkpt>
      <trkpt lat="45.13946" lon="2.51581">
        <ele>808.6</ele>
        <time>2018-05-20T15:06:42.000Z</time>
      </trkpt>
      <trkpt lat="45.13941" lon="2.51578">
        <ele>808.6</ele>
        <time>2018-05-20T15:06:44.000Z</time>
      </trkpt>
      <trkpt lat="45.13927" lon="2.51566">
        <ele>808.4</ele>
        <time>2018-05-20T15:06:50.000Z</time>
      </trkpt>
      <trkpt lat="45.13918" lon="2.51554">
        <ele>807.8</ele>
        <time>2018-05-20T15:06:55.000Z</time>
      </trkpt>
      <trkpt lat="45.13916" lon="2.51551">
        <ele>807.8</ele>
        <time>2018-05-20T15:06:56.000Z</time>
      </trkpt>
      <trkpt lat="45.13907" lon="2.51541">
        <ele>807.4</ele>
        <time>2018-05-20T15:07:01.000Z</time>
      </trkpt>
      <trkpt lat="45.13904" lon="2.5154">
        <ele>807.4</ele>
        <time>2018-05-20T15:07:02.000Z</time>
      </trkpt>
      <trkpt lat="45.13878" lon="2.51531">
        <ele>805.6</ele>
        <time>2018-05-20T15:07:13.000Z</time>
      </trkpt>
      <trkpt lat="45.13871" lon="2.51531">
        <ele>805.4</ele>
        <time>2018-05-20T15:07:15.000Z</time>
      </trkpt>
      <trkpt lat="45.13865" lon="2.51529">
        <ele>805.4</ele>
        <time>2018-05-20T15:07:17.000Z</time>
      </trkpt>
      <trkpt lat="45.1386" lon="2.51525">
        <ele>804.8</ele>
        <time>2018-05-20T15:07:19.000Z</time>
      </trkpt>
      <trkpt lat="45.13856" lon="2.51515">
        <ele>804.2</ele>
        <time>2018-05-20T15:07:22.000Z</time>
      </trkpt>
      <trkpt lat="45.13854" lon="2.51506">
        <ele>803.6</ele>
        <time>2018-05-20T15:07:24.000Z</time>
      </trkpt>
      <trkpt lat="45.13854" lon="2.5149">
        <ele>803.2</ele>
        <time>2018-05-20T15:07:27.000Z</time>
      </trkpt>
      <trkpt lat="45.13852" lon="2.51485">
        <ele>803</ele>
        <time>2018-05-20T15:07:28.000Z</time>
      </trkpt>
      <trkpt lat="45.13834" lon="2.51476">
        <ele>802.6</ele>
        <time>2018-05-20T15:07:36.000Z</time>
      </trkpt>
      <trkpt lat="45.13822" lon="2.51472">
        <ele>804.2</ele>
        <time>2018-05-20T15:07:42.000Z</time>
      </trkpt>
      <trkpt lat="45.13815" lon="2.51468">
        <ele>805.2</ele>
        <time>2018-05-20T15:07:47.000Z</time>
      </trkpt>
      <trkpt lat="45.13815" lon="2.51467">
        <ele>805.6</ele>
        <time>2018-05-20T15:07:49.000Z</time>
      </trkpt>
      <trkpt lat="45.13813" lon="2.51464">
        <ele>805.8</ele>
        <time>2018-05-20T15:07:51.000Z</time>
      </trkpt>
      <trkpt lat="45.13805" lon="2.51457">
        <ele>806.2</ele>
        <time>2018-05-20T15:07:54.000Z</time>
      </trkpt>
      <trkpt lat="45.13798" lon="2.51434">
        <ele>807.4</ele>
        <time>2018-05-20T15:08:03.000Z</time>
      </trkpt>
      <trkpt lat="45.138" lon="2.51389">
        <ele>809.6</ele>
        <time>2018-05-20T15:08:19.000Z</time>
      </trkpt>
      <trkpt lat="45.13796" lon="2.51358">
        <ele>813</ele>
        <time>2018-05-20T15:08:30.000Z</time>
      </trkpt>
      <trkpt lat="45.13782" lon="2.513">
        <ele>814.2</ele>
        <time>2018-05-20T15:09:01.000Z</time>
      </trkpt>
      <trkpt lat="45.13769" lon="2.51276">
        <ele>815.4</ele>
        <time>2018-05-20T15:09:12.000Z</time>
      </trkpt>
      <trkpt lat="45.13766" lon="2.51267">
        <ele>815.8</ele>
        <time>2018-05-20T15:09:15.000Z</time>
      </trkpt>
      <trkpt lat="45.13753" lon="2.51243">
        <ele>817.2</ele>
        <time>2018-05-20T15:09:24.000Z</time>
      </trkpt>
      <trkpt lat="45.13746" lon="2.51235">
        <ele>818.2</ele>
        <time>2018-05-20T15:09:28.000Z</time>
      </trkpt>
      <trkpt lat="45.13742" lon="2.51232">
        <ele>818.4</ele>
        <time>2018-05-20T15:09:30.000Z</time>
      </trkpt>
      <trkpt lat="45.13736" lon="2.51229">
        <ele>818.6</ele>
        <time>2018-05-20T15:09:33.000Z</time>
      </trkpt>
      <trkpt lat="45.13732" lon="2.51226">
        <ele>818.8</ele>
        <time>2018-05-20T15:09:35.000Z</time>
      </trkpt>
      <trkpt lat="45.13727" lon="2.5122">
        <ele>819.6</ele>
        <time>2018-05-20T15:09:38.000Z</time>
      </trkpt>
      <trkpt lat="45.13717" lon="2.51213">
        <ele>820.2</ele>
        <time>2018-05-20T15:09:43.000Z</time>
      </trkpt>
      <trkpt lat="45.13711" lon="2.51207">
        <ele>820.4</ele>
        <time>2018-05-20T15:09:46.000Z</time>
      </trkpt>
      <trkpt lat="45.13696" lon="2.51184">
        <ele>822.2</ele>
        <time>2018-05-20T15:09:57.000Z</time>
      </trkpt>
      <trkpt lat="45.13686" lon="2.5115">
        <ele>823.2</ele>
        <time>2018-05-20T15:10:12.000Z</time>
      </trkpt>
      <trkpt lat="45.13685" lon="2.51148">
        <ele>823.2</ele>
        <time>2018-05-20T15:10:13.000Z</time>
      </trkpt>
      <trkpt lat="45.13683" lon="2.51145">
        <ele>823.2</ele>
        <time>2018-05-20T15:10:15.000Z</time>
      </trkpt>
      <trkpt lat="45.13682" lon="2.51135">
        <ele>823</ele>
        <time>2018-05-20T15:10:19.000Z</time>
      </trkpt>
      <trkpt lat="45.13678" lon="2.51113">
        <ele>822</ele>
        <time>2018-05-20T15:10:26.000Z</time>
      </trkpt>
      <trkpt lat="45.13676" lon="2.51111">
        <ele>821.8</ele>
        <time>2018-05-20T15:10:27.000Z</time>
      </trkpt>
      <trkpt lat="45.13676" lon="2.51104">
        <ele>820.8</ele>
        <time>2018-05-20T15:10:30.000Z</time>
      </trkpt>
      <trkpt lat="45.13677" lon="2.51102">
        <ele>820.6</ele>
        <time>2018-05-20T15:10:31.000Z</time>
      </trkpt>
      <trkpt lat="45.13675" lon="2.51093">
        <ele>819.8</ele>
        <time>2018-05-20T15:10:35.000Z</time>
      </trkpt>
      <trkpt lat="45.13674" lon="2.51089">
        <ele>819.6</ele>
        <time>2018-05-20T15:10:37.000Z</time>
      </trkpt>
      <trkpt lat="45.13674" lon="2.51087">
        <ele>819.2</ele>
        <time>2018-05-20T15:10:38.000Z</time>
      </trkpt>
      <trkpt lat="45.13675" lon="2.51081">
        <ele>818.6</ele>
        <time>2018-05-20T15:10:41.000Z</time>
      </trkpt>
      <trkpt lat="45.13674" lon="2.51077">
        <ele>818.4</ele>
        <time>2018-05-20T15:10:43.000Z</time>
      </trkpt>
      <trkpt lat="45.13674" lon="2.51073">
        <ele>818</ele>
        <time>2018-05-20T15:10:45.000Z</time>
      </trkpt>
      <trkpt lat="45.13674" lon="2.5107">
        <ele>817.2</ele>
        <time>2018-05-20T15:10:47.000Z</time>
      </trkpt>
      <trkpt lat="45.13674" lon="2.51066">
        <ele>816.6</ele>
        <time>2018-05-20T15:10:49.000Z</time>
      </trkpt>
      <trkpt lat="45.13676" lon="2.51059">
        <ele>816</ele>
        <time>2018-05-20T15:10:52.000Z</time>
      </trkpt>
      <trkpt lat="45.13677" lon="2.51052">
        <ele>815.2</ele>
        <time>2018-05-20T15:10:55.000Z</time>
      </trkpt>
      <trkpt lat="45.13684" lon="2.51043">
        <ele>813.8</ele>
        <time>2018-05-20T15:10:59.000Z</time>
      </trkpt>
      <trkpt lat="45.13686" lon="2.51036">
        <ele>812.4</ele>
        <time>2018-05-20T15:11:02.000Z</time>
      </trkpt>
      <trkpt lat="45.13684" lon="2.51027">
        <ele>811.2</ele>
        <time>2018-05-20T15:11:05.000Z</time>
      </trkpt>
      <trkpt lat="45.13682" lon="2.51025">
        <ele>810.6</ele>
        <time>2018-05-20T15:11:07.000Z</time>
      </trkpt>
      <trkpt lat="45.13681" lon="2.51024">
        <ele>810.6</ele>
        <time>2018-05-20T15:11:08.000Z</time>
      </trkpt>
      <trkpt lat="45.13679" lon="2.51019">
        <ele>810.4</ele>
        <time>2018-05-20T15:11:11.000Z</time>
      </trkpt>
      <trkpt lat="45.13675" lon="2.51015">
        <ele>810.4</ele>
        <time>2018-05-20T15:11:14.000Z</time>
      </trkpt>
      <trkpt lat="45.13672" lon="2.51017">
        <ele>810.2</ele>
        <time>2018-05-20T15:11:17.000Z</time>
      </trkpt>
      <trkpt lat="45.13671" lon="2.51017">
        <ele>810.2</ele>
        <time>2018-05-20T15:11:18.000Z</time>
      </trkpt>
      <trkpt lat="45.13671" lon="2.51025">
        <ele>810</ele>
        <time>2018-05-20T15:11:23.000Z</time>
      </trkpt>
      <trkpt lat="45.13676" lon="2.51029">
        <ele>810.2</ele>
        <time>2018-05-20T15:11:26.000Z</time>
      </trkpt>
      <trkpt lat="45.13682" lon="2.51031">
        <ele>810.4</ele>
        <time>2018-05-20T15:11:28.000Z</time>
      </trkpt>
      <trkpt lat="45.13683" lon="2.51027">
        <ele>810.4</ele>
        <time>2018-05-20T15:11:32.000Z</time>
      </trkpt>
      <trkpt lat="45.13684" lon="2.51026">
        <ele>810.4</ele>
        <time>2018-05-20T15:11:33.000Z</time>
      </trkpt>
      <trkpt lat="45.13682" lon="2.51019">
        <ele>810.4</ele>
        <time>2018-05-20T15:11:38.000Z</time>
      </trkpt>
      <trkpt lat="45.13681" lon="2.51009">
        <ele>810</ele>
        <time>2018-05-20T15:11:41.000Z</time>
      </trkpt>
      <trkpt lat="45.13681" lon="2.51003">
        <ele>809.6</ele>
        <time>2018-05-20T15:11:43.000Z</time>
      </trkpt>
      <trkpt lat="45.1368" lon="2.50999">
        <ele>809.2</ele>
        <time>2018-05-20T15:11:44.000Z</time>
      </trkpt>
      <trkpt lat="45.13683" lon="2.50977">
        <ele>807</ele>
        <time>2018-05-20T15:11:51.000Z</time>
      </trkpt>
      <trkpt lat="45.13685" lon="2.50967">
        <ele>805.6</ele>
        <time>2018-05-20T15:11:54.000Z</time>
      </trkpt>
      <trkpt lat="45.13683" lon="2.50957">
        <ele>805</ele>
        <time>2018-05-20T15:11:57.000Z</time>
      </trkpt>
      <trkpt lat="45.13681" lon="2.50951">
        <ele>804.6</ele>
        <time>2018-05-20T15:11:59.000Z</time>
      </trkpt>
      <trkpt lat="45.13681" lon="2.50948">
        <ele>804.4</ele>
        <time>2018-05-20T15:12:00.000Z</time>
      </trkpt>
      <trkpt lat="45.1368" lon="2.50944">
        <ele>804.2</ele>
        <time>2018-05-20T15:12:02.000Z</time>
      </trkpt>
      <trkpt lat="45.13678" lon="2.50942">
        <ele>803.8</ele>
        <time>2018-05-20T15:12:03.000Z</time>
      </trkpt>
      <trkpt lat="45.13676" lon="2.50941">
        <ele>803.4</ele>
        <time>2018-05-20T15:12:04.000Z</time>
      </trkpt>
      <trkpt lat="45.13674" lon="2.50939">
        <ele>803.2</ele>
        <time>2018-05-20T15:12:05.000Z</time>
      </trkpt>
      <trkpt lat="45.13671" lon="2.50935">
        <ele>803.2</ele>
        <time>2018-05-20T15:12:08.000Z</time>
      </trkpt>
      <trkpt lat="45.13668" lon="2.50932">
        <ele>802.8</ele>
        <time>2018-05-20T15:12:11.000Z</time>
      </trkpt>
      <trkpt lat="45.13666" lon="2.5093">
        <ele>802.6</ele>
        <time>2018-05-20T15:12:14.000Z</time>
      </trkpt>
      <trkpt lat="45.13665" lon="2.50926">
        <ele>802.6</ele>
        <time>2018-05-20T15:12:17.000Z</time>
      </trkpt>
      <trkpt lat="45.13665" lon="2.50926">
        <ele>802.6</ele>
        <time>2018-05-20T15:12:19.000Z</time>
      </trkpt>
      <trkpt lat="45.13659" lon="2.50924">
        <ele>802.6</ele>
        <time>2018-05-20T15:12:23.000Z</time>
      </trkpt>
      <trkpt lat="45.13655" lon="2.50919">
        <ele>803</ele>
        <time>2018-05-20T15:12:26.000Z</time>
      </trkpt>
      <trkpt lat="45.13647" lon="2.50916">
        <ele>803</ele>
        <time>2018-05-20T15:12:28.000Z</time>
      </trkpt>
      <trkpt lat="45.13639" lon="2.50909">
        <ele>802.8</ele>
        <time>2018-05-20T15:12:32.000Z</time>
      </trkpt>
      <trkpt lat="45.13627" lon="2.50888">
        <ele>803.2</ele>
        <time>2018-05-20T15:12:38.000Z</time>
      </trkpt>
      <trkpt lat="45.1362" lon="2.50884">
        <ele>803.6</ele>
        <time>2018-05-20T15:12:44.000Z</time>
      </trkpt>
      <trkpt lat="45.13621" lon="2.50883">
        <ele>804</ele>
        <time>2018-05-20T15:12:46.000Z</time>
      </trkpt>
      <trkpt lat="45.13623" lon="2.50875">
        <ele>804.2</ele>
        <time>2018-05-20T15:12:51.000Z</time>
      </trkpt>
      <trkpt lat="45.13623" lon="2.50868">
        <ele>804</ele>
        <time>2018-05-20T15:12:53.000Z</time>
      </trkpt>
      <trkpt lat="45.13625" lon="2.50866">
        <ele>803.6</ele>
        <time>2018-05-20T15:12:55.000Z</time>
      </trkpt>
      <trkpt lat="45.13625" lon="2.50864">
        <ele>803.2</ele>
        <time>2018-05-20T15:12:56.000Z</time>
      </trkpt>
      <trkpt lat="45.13625" lon="2.50864">
        <ele>803</ele>
        <time>2018-05-20T15:12:57.000Z</time>
      </trkpt>
      <trkpt lat="45.13626" lon="2.50863">
        <ele>803</ele>
        <time>2018-05-20T15:12:58.000Z</time>
      </trkpt>
      <trkpt lat="45.13627" lon="2.50864">
        <ele>802.8</ele>
        <time>2018-05-20T15:12:59.000Z</time>
      </trkpt>
      <trkpt lat="45.13626" lon="2.50865">
        <ele>802.8</ele>
        <time>2018-05-20T15:13:00.000Z</time>
      </trkpt>
      <trkpt lat="45.13624" lon="2.50862">
        <ele>802.6</ele>
        <time>2018-05-20T15:13:04.000Z</time>
      </trkpt>
      <trkpt lat="45.13622" lon="2.50854">
        <ele>802.4</ele>
        <time>2018-05-20T15:13:07.000Z</time>
      </trkpt>
      <trkpt lat="45.13622" lon="2.50852">
        <ele>802.4</ele>
        <time>2018-05-20T15:13:08.000Z</time>
      </trkpt>
      <trkpt lat="45.13611" lon="2.50818">
        <ele>801.8</ele>
        <time>2018-05-20T15:13:16.000Z</time>
      </trkpt>
      <trkpt lat="45.13608" lon="2.5081">
        <ele>801.4</ele>
        <time>2018-05-20T15:13:19.000Z</time>
      </trkpt>
      <trkpt lat="45.13609" lon="2.508">
        <ele>800.8</ele>
        <time>2018-05-20T15:13:26.000Z</time>
      </trkpt>
      <trkpt lat="45.1361" lon="2.50795">
        <ele>800</ele>
        <time>2018-05-20T15:13:29.000Z</time>
      </trkpt>
      <trkpt lat="45.13612" lon="2.50792">
        <ele>799</ele>
        <time>2018-05-20T15:13:31.000Z</time>
      </trkpt>
      <trkpt lat="45.13612" lon="2.50769">
        <ele>794.2</ele>
        <time>2018-05-20T15:13:42.000Z</time>
      </trkpt>
      <trkpt lat="45.13614" lon="2.50763">
        <ele>792.8</ele>
        <time>2018-05-20T15:13:46.000Z</time>
      </trkpt>
      <trkpt lat="45.13615" lon="2.5076">
        <ele>792</ele>
        <time>2018-05-20T15:13:48.000Z</time>
      </trkpt>
      <trkpt lat="45.13616" lon="2.50758">
        <ele>791.4</ele>
        <time>2018-05-20T15:13:50.000Z</time>
      </trkpt>
      <trkpt lat="45.13616" lon="2.50757">
        <ele>791.2</ele>
        <time>2018-05-20T15:13:51.000Z</time>
      </trkpt>
      <trkpt lat="45.13616" lon="2.50757">
        <ele>790.8</ele>
        <time>2018-05-20T15:13:52.000Z</time>
      </trkpt>
      <trkpt lat="45.13616" lon="2.50758">
        <ele>790.6</ele>
        <time>2018-05-20T15:13:53.000Z</time>
      </trkpt>
      <trkpt lat="45.13617" lon="2.50757">
        <ele>790.4</ele>
        <time>2018-05-20T15:13:54.000Z</time>
      </trkpt>
      <trkpt lat="45.1362" lon="2.50757">
        <ele>789.8</ele>
        <time>2018-05-20T15:14:13.000Z</time>
      </trkpt>
      <trkpt lat="45.13619" lon="2.50758">
        <ele>790.4</ele>
        <time>2018-05-20T15:14:19.000Z</time>
      </trkpt>
      <trkpt lat="45.13623" lon="2.50756">
        <ele>790.4</ele>
        <time>2018-05-20T15:14:27.000Z</time>
      </trkpt>
      <trkpt lat="45.13621" lon="2.5075">
        <ele>789.4</ele>
        <time>2018-05-20T15:14:31.000Z</time>
      </trkpt>
      <trkpt lat="45.13621" lon="2.50743">
        <ele>788.2</ele>
        <time>2018-05-20T15:14:34.000Z</time>
      </trkpt>
      <trkpt lat="45.13623" lon="2.50736">
        <ele>786.6</ele>
        <time>2018-05-20T15:14:37.000Z</time>
      </trkpt>
      <trkpt lat="45.13623" lon="2.50731">
        <ele>785.4</ele>
        <time>2018-05-20T15:14:39.000Z</time>
      </trkpt>
      <trkpt lat="45.1363" lon="2.50696">
        <ele>778.4</ele>
        <time>2018-05-20T15:14:49.000Z</time>
      </trkpt>
      <trkpt lat="45.13631" lon="2.50693">
        <ele>778</ele>
        <time>2018-05-20T15:14:50.000Z</time>
      </trkpt>
      <trkpt lat="45.1363" lon="2.50687">
        <ele>777.2</ele>
        <time>2018-05-20T15:14:52.000Z</time>
      </trkpt>
      <trkpt lat="45.13629" lon="2.50684">
        <ele>776.6</ele>
        <time>2018-05-20T15:14:54.000Z</time>
      </trkpt>
      <trkpt lat="45.13629" lon="2.5068">
        <ele>776</ele>
        <time>2018-05-20T15:14:56.000Z</time>
      </trkpt>
      <trkpt lat="45.1363" lon="2.50676">
        <ele>775.6</ele>
        <time>2018-05-20T15:14:57.000Z</time>
      </trkpt>
      <trkpt lat="45.13638" lon="2.50656">
        <ele>773.4</ele>
        <time>2018-05-20T15:15:04.000Z</time>
      </trkpt>
      <trkpt lat="45.13632" lon="2.50662">
        <ele>773.2</ele>
        <time>2018-05-20T15:15:08.000Z</time>
      </trkpt>
      <trkpt lat="45.13631" lon="2.5066">
        <ele>773</ele>
        <time>2018-05-20T15:15:09.000Z</time>
      </trkpt>
      <trkpt lat="45.13631" lon="2.50657">
        <ele>772.8</ele>
        <time>2018-05-20T15:15:11.000Z</time>
      </trkpt>
      <trkpt lat="45.13631" lon="2.50657">
        <ele>772.6</ele>
        <time>2018-05-20T15:15:12.000Z</time>
      </trkpt>
      <trkpt lat="45.13632" lon="2.50657">
        <ele>772.2</ele>
        <time>2018-05-20T15:15:13.000Z</time>
      </trkpt>
      <trkpt lat="45.13632" lon="2.50654">
        <ele>771.6</ele>
        <time>2018-05-20T15:15:17.000Z</time>
      </trkpt>
      <trkpt lat="45.13631" lon="2.50653">
        <ele>771.4</ele>
        <time>2018-05-20T15:15:19.000Z</time>
      </trkpt>
      <trkpt lat="45.1363" lon="2.50654">
        <ele>771.2</ele>
        <time>2018-05-20T15:15:22.000Z</time>
      </trkpt>
      <trkpt lat="45.1363" lon="2.50659">
        <ele>771.4</ele>
        <time>2018-05-20T15:15:25.000Z</time>
      </trkpt>
      <trkpt lat="45.13631" lon="2.50659">
        <ele>771.6</ele>
        <time>2018-05-20T15:15:26.000Z</time>
      </trkpt>
      <trkpt lat="45.13633" lon="2.50659">
        <ele>772</ele>
        <time>2018-05-20T15:15:27.000Z</time>
      </trkpt>
      <trkpt lat="45.13634" lon="2.50658">
        <ele>772.4</ele>
        <time>2018-05-20T15:15:28.000Z</time>
      </trkpt>
      <trkpt lat="45.13637" lon="2.50652">
        <ele>773.4</ele>
        <time>2018-05-20T15:15:31.000Z</time>
      </trkpt>
      <trkpt lat="45.13637" lon="2.50646">
        <ele>773.2</ele>
        <time>2018-05-20T15:15:33.000Z</time>
      </trkpt>
      <trkpt lat="45.13629" lon="2.50641">
        <ele>773.4</ele>
        <time>2018-05-20T15:15:39.000Z</time>
      </trkpt>
      <trkpt lat="45.13628" lon="2.5064">
        <ele>773.4</ele>
        <time>2018-05-20T15:15:40.000Z</time>
      </trkpt>
      <trkpt lat="45.13626" lon="2.50636">
        <ele>773.6</ele>
        <time>2018-05-20T15:15:43.000Z</time>
      </trkpt>
      <trkpt lat="45.13624" lon="2.5063">
        <ele>774</ele>
        <time>2018-05-20T15:15:46.000Z</time>
      </trkpt>
      <trkpt lat="45.13622" lon="2.50621">
        <ele>774.6</ele>
        <time>2018-05-20T15:15:51.000Z</time>
      </trkpt>
      <trkpt lat="45.13623" lon="2.50611">
        <ele>775.2</ele>
        <time>2018-05-20T15:15:57.000Z</time>
      </trkpt>
      <trkpt lat="45.13626" lon="2.50604">
        <ele>776</ele>
        <time>2018-05-20T15:16:01.000Z</time>
      </trkpt>
      <trkpt lat="45.13627" lon="2.50602">
        <ele>776.2</ele>
        <time>2018-05-20T15:16:03.000Z</time>
      </trkpt>
      <trkpt lat="45.13634" lon="2.5058">
        <ele>778</ele>
        <time>2018-05-20T15:16:17.000Z</time>
      </trkpt>
      <trkpt lat="45.13636" lon="2.50576">
        <ele>778.8</ele>
        <time>2018-05-20T15:16:20.000Z</time>
      </trkpt>
      <trkpt lat="45.13639" lon="2.50569">
        <ele>779.2</ele>
        <time>2018-05-20T15:16:24.000Z</time>
      </trkpt>
      <trkpt lat="45.13649" lon="2.50556">
        <ele>780.8</ele>
        <time>2018-05-20T15:16:37.000Z</time>
      </trkpt>
      <trkpt lat="45.13657" lon="2.50544">
        <ele>781.8</ele>
        <time>2018-05-20T15:16:47.000Z</time>
      </trkpt>
      <trkpt lat="45.13657" lon="2.50541">
        <ele>782</ele>
        <time>2018-05-20T15:16:49.000Z</time>
      </trkpt>
      <trkpt lat="45.13666" lon="2.50524">
        <ele>783</ele>
        <time>2018-05-20T15:17:01.000Z</time>
      </trkpt>
      <trkpt lat="45.13667" lon="2.50522">
        <ele>783.2</ele>
        <time>2018-05-20T15:17:02.000Z</time>
      </trkpt>
      <trkpt lat="45.1367" lon="2.50513">
        <ele>784.4</ele>
        <time>2018-05-20T15:17:09.000Z</time>
      </trkpt>
      <trkpt lat="45.13671" lon="2.5051">
        <ele>784.6</ele>
        <time>2018-05-20T15:17:11.000Z</time>
      </trkpt>
      <trkpt lat="45.13674" lon="2.50503">
        <ele>785.2</ele>
        <time>2018-05-20T15:17:16.000Z</time>
      </trkpt>
      <trkpt lat="45.13676" lon="2.50492">
        <ele>786</ele>
        <time>2018-05-20T15:17:22.000Z</time>
      </trkpt>
      <trkpt lat="45.13682" lon="2.5048">
        <ele>788</ele>
        <time>2018-05-20T15:17:29.000Z</time>
      </trkpt>
      <trkpt lat="45.13696" lon="2.50461">
        <ele>790.4</ele>
        <time>2018-05-20T15:17:42.000Z</time>
      </trkpt>
      <trkpt lat="45.13697" lon="2.50459">
        <ele>790.6</ele>
        <time>2018-05-20T15:17:43.000Z</time>
      </trkpt>
      <trkpt lat="45.13703" lon="2.50447">
        <ele>791.6</ele>
        <time>2018-05-20T15:17:51.000Z</time>
      </trkpt>
      <trkpt lat="45.13705" lon="2.50444">
        <ele>792.4</ele>
        <time>2018-05-20T15:17:54.000Z</time>
      </trkpt>
      <trkpt lat="45.13705" lon="2.50443">
        <ele>792.6</ele>
        <time>2018-05-20T15:17:55.000Z</time>
      </trkpt>
      <trkpt lat="45.13711" lon="2.50433">
        <ele>793.8</ele>
        <time>2018-05-20T15:18:01.000Z</time>
      </trkpt>
      <trkpt lat="45.13714" lon="2.50427">
        <ele>794.6</ele>
        <time>2018-05-20T15:18:06.000Z</time>
      </trkpt>
      <trkpt lat="45.13716" lon="2.50425">
        <ele>795</ele>
        <time>2018-05-20T15:18:08.000Z</time>
      </trkpt>
      <trkpt lat="45.13721" lon="2.50418">
        <ele>796</ele>
        <time>2018-05-20T15:18:13.000Z</time>
      </trkpt>
      <trkpt lat="45.13725" lon="2.50413">
        <ele>797</ele>
        <time>2018-05-20T15:18:17.000Z</time>
      </trkpt>
      <trkpt lat="45.13728" lon="2.50408">
        <ele>798</ele>
        <time>2018-05-20T15:18:21.000Z</time>
      </trkpt>
      <trkpt lat="45.13729" lon="2.50408">
        <ele>798.4</ele>
        <time>2018-05-20T15:18:22.000Z</time>
      </trkpt>
      <trkpt lat="45.13729" lon="2.50407">
        <ele>798.6</ele>
        <time>2018-05-20T15:18:23.000Z</time>
      </trkpt>
      <trkpt lat="45.13732" lon="2.504">
        <ele>799.4</ele>
        <time>2018-05-20T15:18:27.000Z</time>
      </trkpt>
      <trkpt lat="45.13737" lon="2.50395">
        <ele>800.6</ele>
        <time>2018-05-20T15:18:34.000Z</time>
      </trkpt>
      <trkpt lat="45.13738" lon="2.50395">
        <ele>801</ele>
        <time>2018-05-20T15:18:35.000Z</time>
      </trkpt>
      <trkpt lat="45.13738" lon="2.50396">
        <ele>801.2</ele>
        <time>2018-05-20T15:18:36.000Z</time>
      </trkpt>
      <trkpt lat="45.13739" lon="2.50396">
        <ele>801.6</ele>
        <time>2018-05-20T15:18:37.000Z</time>
      </trkpt>
      <trkpt lat="45.13739" lon="2.50396">
        <ele>801.8</ele>
        <time>2018-05-20T15:18:38.000Z</time>
      </trkpt>
      <trkpt lat="45.13743" lon="2.504">
        <ele>802.8</ele>
        <time>2018-05-20T15:18:42.000Z</time>
      </trkpt>
      <trkpt lat="45.13744" lon="2.50401">
        <ele>803</ele>
        <time>2018-05-20T15:18:43.000Z</time>
      </trkpt>
      <trkpt lat="45.13747" lon="2.50403">
        <ele>803.4</ele>
        <time>2018-05-20T15:18:46.000Z</time>
      </trkpt>
      <trkpt lat="45.13749" lon="2.50406">
        <ele>804</ele>
        <time>2018-05-20T15:18:49.000Z</time>
      </trkpt>
      <trkpt lat="45.13752" lon="2.50407">
        <ele>804.4</ele>
        <time>2018-05-20T15:18:52.000Z</time>
      </trkpt>
      <trkpt lat="45.13754" lon="2.50411">
        <ele>805</ele>
        <time>2018-05-20T15:18:57.000Z</time>
      </trkpt>
      <trkpt lat="45.13755" lon="2.50411">
        <ele>805.2</ele>
        <time>2018-05-20T15:18:58.000Z</time>
      </trkpt>
      <trkpt lat="45.13758" lon="2.50412">
        <ele>805.4</ele>
        <time>2018-05-20T15:19:00.000Z</time>
      </trkpt>
      <trkpt lat="45.13759" lon="2.50414">
        <ele>806.2</ele>
        <time>2018-05-20T15:19:05.000Z</time>
      </trkpt>
      <trkpt lat="45.13763" lon="2.50416">
        <ele>806.8</ele>
        <time>2018-05-20T15:19:10.000Z</time>
      </trkpt>
      <trkpt lat="45.13784" lon="2.50424">
        <ele>808.4</ele>
        <time>2018-05-20T15:19:20.000Z</time>
      </trkpt>
      <trkpt lat="45.13791" lon="2.50428">
        <ele>809</ele>
        <time>2018-05-20T15:19:23.000Z</time>
      </trkpt>
      <trkpt lat="45.13795" lon="2.50428">
        <ele>809.4</ele>
        <time>2018-05-20T15:19:25.000Z</time>
      </trkpt>
      <trkpt lat="45.13796" lon="2.5043">
        <ele>809.6</ele>
        <time>2018-05-20T15:19:28.000Z</time>
      </trkpt>
      <trkpt lat="45.13796" lon="2.50433">
        <ele>809.2</ele>
        <time>2018-05-20T15:19:48.000Z</time>
      </trkpt>
      <trkpt lat="45.13797" lon="2.50432">
        <ele>809.2</ele>
        <time>2018-05-20T15:19:49.000Z</time>
      </trkpt>
      <trkpt lat="45.13797" lon="2.50432">
        <ele>809.2</ele>
        <time>2018-05-20T15:19:50.000Z</time>
      </trkpt>
      <trkpt lat="45.13796" lon="2.50425">
        <ele>809.6</ele>
        <time>2018-05-20T15:19:54.000Z</time>
      </trkpt>
      <trkpt lat="45.13795" lon="2.50424">
        <ele>809.8</ele>
        <time>2018-05-20T15:19:55.000Z</time>
      </trkpt>
      <trkpt lat="45.13789" lon="2.50413">
        <ele>810.6</ele>
        <time>2018-05-20T15:20:03.000Z</time>
      </trkpt>
      <trkpt lat="45.13787" lon="2.5041">
        <ele>811.2</ele>
        <time>2018-05-20T15:20:05.000Z</time>
      </trkpt>
      <trkpt lat="45.13785" lon="2.50407">
        <ele>811.8</ele>
        <time>2018-05-20T15:20:07.000Z</time>
      </trkpt>
      <trkpt lat="45.13781" lon="2.50403">
        <ele>812.4</ele>
        <time>2018-05-20T15:20:12.000Z</time>
      </trkpt>
      <trkpt lat="45.13779" lon="2.50397">
        <ele>813</ele>
        <time>2018-05-20T15:20:15.000Z</time>
      </trkpt>
      <trkpt lat="45.13777" lon="2.50392">
        <ele>813.6</ele>
        <time>2018-05-20T15:20:18.000Z</time>
      </trkpt>
      <trkpt lat="45.13777" lon="2.50386">
        <ele>814</ele>
        <time>2018-05-20T15:20:21.000Z</time>
      </trkpt>
      <trkpt lat="45.13774" lon="2.50377">
        <ele>815</ele>
        <time>2018-05-20T15:20:29.000Z</time>
      </trkpt>
      <trkpt lat="45.13774" lon="2.50377">
        <ele>815.2</ele>
        <time>2018-05-20T15:20:30.000Z</time>
      </trkpt>
      <trkpt lat="45.13773" lon="2.50376">
        <ele>815.4</ele>
        <time>2018-05-20T15:20:31.000Z</time>
      </trkpt>
      <trkpt lat="45.13774" lon="2.50373">
        <ele>815.8</ele>
        <time>2018-05-20T15:20:38.000Z</time>
      </trkpt>
      <trkpt lat="45.13772" lon="2.50368">
        <ele>816</ele>
        <time>2018-05-20T15:20:51.000Z</time>
      </trkpt>
      <trkpt lat="45.13772" lon="2.5037">
        <ele>817</ele>
        <time>2018-05-20T15:21:14.000Z</time>
      </trkpt>
      <trkpt lat="45.13774" lon="2.50369">
        <ele>817.2</ele>
        <time>2018-05-20T15:21:20.000Z</time>
      </trkpt>
      <trkpt lat="45.1378" lon="2.50369">
        <ele>817.6</ele>
        <time>2018-05-20T15:21:26.000Z</time>
      </trkpt>
      <trkpt lat="45.13784" lon="2.50368">
        <ele>817.8</ele>
        <time>2018-05-20T15:21:29.000Z</time>
      </trkpt>
      <trkpt lat="45.13786" lon="2.50371">
        <ele>818</ele>
        <time>2018-05-20T15:21:33.000Z</time>
      </trkpt>
      <trkpt lat="45.13787" lon="2.50372">
        <ele>818</ele>
        <time>2018-05-20T15:21:34.000Z</time>
      </trkpt>
      <trkpt lat="45.1379" lon="2.50374">
        <ele>818.2</ele>
        <time>2018-05-20T15:21:38.000Z</time>
      </trkpt>
      <trkpt lat="45.13791" lon="2.50375">
        <ele>818.4</ele>
        <time>2018-05-20T15:21:40.000Z</time>
      </trkpt>
      <trkpt lat="45.13792" lon="2.50375">
        <ele>818.6</ele>
        <time>2018-05-20T15:21:42.000Z</time>
      </trkpt>
      <trkpt lat="45.13791" lon="2.5037">
        <ele>818.8</ele>
        <time>2018-05-20T15:21:48.000Z</time>
      </trkpt>
      <trkpt lat="45.13791" lon="2.50368">
        <ele>819.2</ele>
        <time>2018-05-20T15:21:50.000Z</time>
      </trkpt>
      <trkpt lat="45.13789" lon="2.50363">
        <ele>820.4</ele>
        <time>2018-05-20T15:21:56.000Z</time>
      </trkpt>
      <trkpt lat="45.13787" lon="2.50358">
        <ele>821.4</ele>
        <time>2018-05-20T15:22:01.000Z</time>
      </trkpt>
      <trkpt lat="45.13787" lon="2.50357">
        <ele>821.6</ele>
        <time>2018-05-20T15:22:02.000Z</time>
      </trkpt>
      <trkpt lat="45.13787" lon="2.50353">
        <ele>822.6</ele>
        <time>2018-05-20T15:22:06.000Z</time>
      </trkpt>
      <trkpt lat="45.13788" lon="2.50342">
        <ele>824.8</ele>
        <time>2018-05-20T15:22:19.000Z</time>
      </trkpt>
      <trkpt lat="45.13787" lon="2.50335">
        <ele>825.8</ele>
        <time>2018-05-20T15:22:25.000Z</time>
      </trkpt>
      <trkpt lat="45.13785" lon="2.50333">
        <ele>826.8</ele>
        <time>2018-05-20T15:22:29.000Z</time>
      </trkpt>
      <trkpt lat="45.13787" lon="2.5033">
        <ele>827.6</ele>
        <time>2018-05-20T15:22:33.000Z</time>
      </trkpt>
      <trkpt lat="45.13788" lon="2.50328">
        <ele>828</ele>
        <time>2018-05-20T15:22:35.000Z</time>
      </trkpt>
      <trkpt lat="45.13788" lon="2.50327">
        <ele>828.8</ele>
        <time>2018-05-20T15:22:39.000Z</time>
      </trkpt>
      <trkpt lat="45.13788" lon="2.50326">
        <ele>828.8</ele>
        <time>2018-05-20T15:22:40.000Z</time>
      </trkpt>
      <trkpt lat="45.13787" lon="2.50324">
        <ele>829</ele>
        <time>2018-05-20T15:22:42.000Z</time>
      </trkpt>
      <trkpt lat="45.13785" lon="2.50319">
        <ele>831</ele>
        <time>2018-05-20T15:22:54.000Z</time>
      </trkpt>
      <trkpt lat="45.13788" lon="2.50314">
        <ele>831.6</ele>
        <time>2018-05-20T15:22:59.000Z</time>
      </trkpt>
      <trkpt lat="45.1379" lon="2.50312">
        <ele>831.8</ele>
        <time>2018-05-20T15:23:02.000Z</time>
      </trkpt>
      <trkpt lat="45.13791" lon="2.5031">
        <ele>832.2</ele>
        <time>2018-05-20T15:23:04.000Z</time>
      </trkpt>
      <trkpt lat="45.13797" lon="2.50299">
        <ele>834.2</ele>
        <time>2018-05-20T15:23:18.000Z</time>
      </trkpt>
      <trkpt lat="45.13797" lon="2.50299">
        <ele>834.4</ele>
        <time>2018-05-20T15:23:19.000Z</time>
      </trkpt>
      <trkpt lat="45.13797" lon="2.50299">
        <ele>834.8</ele>
        <time>2018-05-20T15:23:20.000Z</time>
      </trkpt>
      <trkpt lat="45.13797" lon="2.50298">
        <ele>835.4</ele>
        <time>2018-05-20T15:23:22.000Z</time>
      </trkpt>
      <trkpt lat="45.138" lon="2.50284">
        <ele>837.6</ele>
        <time>2018-05-20T15:23:35.000Z</time>
      </trkpt>
      <trkpt lat="45.138" lon="2.5028">
        <ele>838.8</ele>
        <time>2018-05-20T15:23:42.000Z</time>
      </trkpt>
      <trkpt lat="45.13801" lon="2.50276">
        <ele>839.6</ele>
        <time>2018-05-20T15:23:48.000Z</time>
      </trkpt>
      <trkpt lat="45.13803" lon="2.50272">
        <ele>839.8</ele>
        <time>2018-05-20T15:23:53.000Z</time>
      </trkpt>
      <trkpt lat="45.13806" lon="2.50268">
        <ele>840.8</ele>
        <time>2018-05-20T15:24:00.000Z</time>
      </trkpt>
      <trkpt lat="45.13808" lon="2.50266">
        <ele>841.8</ele>
        <time>2018-05-20T15:24:05.000Z</time>
      </trkpt>
      <trkpt lat="45.13811" lon="2.50266">
        <ele>843</ele>
        <time>2018-05-20T15:24:11.000Z</time>
      </trkpt>
      <trkpt lat="45.13811" lon="2.50267">
        <ele>843</ele>
        <time>2018-05-20T15:24:13.000Z</time>
      </trkpt>
      <trkpt lat="45.13811" lon="2.50268">
        <ele>843.2</ele>
        <time>2018-05-20T15:24:14.000Z</time>
      </trkpt>
      <trkpt lat="45.13809" lon="2.50271">
        <ele>843.4</ele>
        <time>2018-05-20T15:24:15.000Z</time>
      </trkpt>
      <trkpt lat="45.13812" lon="2.50271">
        <ele>845</ele>
        <time>2018-05-20T15:24:24.000Z</time>
      </trkpt>
      <trkpt lat="45.1381" lon="2.50274">
        <ele>845.8</ele>
        <time>2018-05-20T15:24:30.000Z</time>
      </trkpt>
      <trkpt lat="45.13815" lon="2.50272">
        <ele>846.2</ele>
        <time>2018-05-20T15:24:35.000Z</time>
      </trkpt>
      <trkpt lat="45.13815" lon="2.5027">
        <ele>847.4</ele>
        <time>2018-05-20T15:24:38.000Z</time>
      </trkpt>
      <trkpt lat="45.13813" lon="2.50264">
        <ele>848.4</ele>
        <time>2018-05-20T15:24:43.000Z</time>
      </trkpt>
      <trkpt lat="45.13811" lon="2.50261">
        <ele>849</ele>
        <time>2018-05-20T15:24:45.000Z</time>
      </trkpt>
      <trkpt lat="45.1381" lon="2.50257">
        <ele>849.4</ele>
        <time>2018-05-20T15:24:48.000Z</time>
      </trkpt>
      <trkpt lat="45.13808" lon="2.50253">
        <ele>850.4</ele>
        <time>2018-05-20T15:24:51.000Z</time>
      </trkpt>
      <trkpt lat="45.13808" lon="2.50251">
        <ele>850.8</ele>
        <time>2018-05-20T15:24:52.000Z</time>
      </trkpt>
      <trkpt lat="45.13804" lon="2.50245">
        <ele>852.2</ele>
        <time>2018-05-20T15:24:55.000Z</time>
      </trkpt>
      <trkpt lat="45.13802" lon="2.5024">
        <ele>853</ele>
        <time>2018-05-20T15:24:58.000Z</time>
      </trkpt>
      <trkpt lat="45.13799" lon="2.50221">
        <ele>854.8</ele>
        <time>2018-05-20T15:25:06.000Z</time>
      </trkpt>
      <trkpt lat="45.13801" lon="2.50217">
        <ele>855.2</ele>
        <time>2018-05-20T15:25:09.000Z</time>
      </trkpt>
      <trkpt lat="45.13805" lon="2.50217">
        <ele>855.4</ele>
        <time>2018-05-20T15:25:14.000Z</time>
      </trkpt>
      <trkpt lat="45.13807" lon="2.50217">
        <ele>855.4</ele>
        <time>2018-05-20T15:25:17.000Z</time>
      </trkpt>
      <trkpt lat="45.13805" lon="2.50216">
        <ele>855.8</ele>
        <time>2018-05-20T15:25:23.000Z</time>
      </trkpt>
      <trkpt lat="45.13801" lon="2.50213">
        <ele>856.4</ele>
        <time>2018-05-20T15:25:27.000Z</time>
      </trkpt>
      <trkpt lat="45.13799" lon="2.5021">
        <ele>856.6</ele>
        <time>2018-05-20T15:25:29.000Z</time>
      </trkpt>
      <trkpt lat="45.13797" lon="2.50205">
        <ele>856.8</ele>
        <time>2018-05-20T15:25:31.000Z</time>
      </trkpt>
      <trkpt lat="45.13796" lon="2.50201">
        <ele>857.2</ele>
        <time>2018-05-20T15:25:33.000Z</time>
      </trkpt>
      <trkpt lat="45.13794" lon="2.50197">
        <ele>857.4</ele>
        <time>2018-05-20T15:25:34.000Z</time>
      </trkpt>
      <trkpt lat="45.13791" lon="2.5019">
        <ele>858.4</ele>
        <time>2018-05-20T15:25:38.000Z</time>
      </trkpt>
      <trkpt lat="45.13791" lon="2.50188">
        <ele>858.6</ele>
        <time>2018-05-20T15:25:39.000Z</time>
      </trkpt>
      <trkpt lat="45.13787" lon="2.50182">
        <ele>859.4</ele>
        <time>2018-05-20T15:25:42.000Z</time>
      </trkpt>
      <trkpt lat="45.13786" lon="2.50181">
        <ele>859.8</ele>
        <time>2018-05-20T15:25:43.000Z</time>
      </trkpt>
      <trkpt lat="45.13783" lon="2.50179">
        <ele>860.6</ele>
        <time>2018-05-20T15:25:46.000Z</time>
      </trkpt>
      <trkpt lat="45.1378" lon="2.50176">
        <ele>861.8</ele>
        <time>2018-05-20T15:25:51.000Z</time>
      </trkpt>
      <trkpt lat="45.13774" lon="2.50152">
        <ele>865.2</ele>
        <time>2018-05-20T15:26:12.000Z</time>
      </trkpt>
      <trkpt lat="45.13774" lon="2.50148">
        <ele>866.2</ele>
        <time>2018-05-20T15:26:17.000Z</time>
      </trkpt>
      <trkpt lat="45.13778" lon="2.50143">
        <ele>867.4</ele>
        <time>2018-05-20T15:26:21.000Z</time>
      </trkpt>
      <trkpt lat="45.13778" lon="2.5014">
        <ele>867.8</ele>
        <time>2018-05-20T15:26:23.000Z</time>
      </trkpt>
      <trkpt lat="45.13779" lon="2.50137">
        <ele>868.4</ele>
        <time>2018-05-20T15:26:26.000Z</time>
      </trkpt>
      <trkpt lat="45.13782" lon="2.50133">
        <ele>869.6</ele>
        <time>2018-05-20T15:26:31.000Z</time>
      </trkpt>
      <trkpt lat="45.13784" lon="2.5013">
        <ele>870</ele>
        <time>2018-05-20T15:26:33.000Z</time>
      </trkpt>
      <trkpt lat="45.13784" lon="2.50128">
        <ele>870.4</ele>
        <time>2018-05-20T15:26:35.000Z</time>
      </trkpt>
      <trkpt lat="45.13785" lon="2.50122">
        <ele>871.8</ele>
        <time>2018-05-20T15:26:43.000Z</time>
      </trkpt>
      <trkpt lat="45.13784" lon="2.50121">
        <ele>872.2</ele>
        <time>2018-05-20T15:26:44.000Z</time>
      </trkpt>
      <trkpt lat="45.13784" lon="2.5012">
        <ele>872.6</ele>
        <time>2018-05-20T15:26:46.000Z</time>
      </trkpt>
      <trkpt lat="45.13783" lon="2.50118">
        <ele>873.2</ele>
        <time>2018-05-20T15:26:48.000Z</time>
      </trkpt>
      <trkpt lat="45.13783" lon="2.50114">
        <ele>874.2</ele>
        <time>2018-05-20T15:26:53.000Z</time>
      </trkpt>
      <trkpt lat="45.13783" lon="2.50113">
        <ele>874.2</ele>
        <time>2018-05-20T15:26:54.000Z</time>
      </trkpt>
      <trkpt lat="45.13782" lon="2.5011">
        <ele>874.8</ele>
        <time>2018-05-20T15:26:57.000Z</time>
      </trkpt>
      <trkpt lat="45.13784" lon="2.50106">
        <ele>875.4</ele>
        <time>2018-05-20T15:27:00.000Z</time>
      </trkpt>
      <trkpt lat="45.13783" lon="2.50104">
        <ele>875.6</ele>
        <time>2018-05-20T15:27:03.000Z</time>
      </trkpt>
      <trkpt lat="45.13783" lon="2.501">
        <ele>876.2</ele>
        <time>2018-05-20T15:27:06.000Z</time>
      </trkpt>
      <trkpt lat="45.13782" lon="2.50099">
        <ele>876.4</ele>
        <time>2018-05-20T15:27:07.000Z</time>
      </trkpt>
      <trkpt lat="45.13779" lon="2.50094">
        <ele>876.8</ele>
        <time>2018-05-20T15:27:11.000Z</time>
      </trkpt>
      <trkpt lat="45.13777" lon="2.50089">
        <ele>877.4</ele>
        <time>2018-05-20T15:27:14.000Z</time>
      </trkpt>
      <trkpt lat="45.13777" lon="2.50088">
        <ele>877.4</ele>
        <time>2018-05-20T15:27:15.000Z</time>
      </trkpt>
      <trkpt lat="45.13771" lon="2.50082">
        <ele>878</ele>
        <time>2018-05-20T15:27:18.000Z</time>
      </trkpt>
      <trkpt lat="45.13771" lon="2.50081">
        <ele>878.2</ele>
        <time>2018-05-20T15:27:19.000Z</time>
      </trkpt>
      <trkpt lat="45.13771" lon="2.50073">
        <ele>879</ele>
        <time>2018-05-20T15:27:26.000Z</time>
      </trkpt>
      <trkpt lat="45.13771" lon="2.50072">
        <ele>879.4</ele>
        <time>2018-05-20T15:27:28.000Z</time>
      </trkpt>
      <trkpt lat="45.13772" lon="2.50057">
        <ele>880.6</ele>
        <time>2018-05-20T15:27:40.000Z</time>
      </trkpt>
      <trkpt lat="45.13772" lon="2.50056">
        <ele>881</ele>
        <time>2018-05-20T15:27:41.000Z</time>
      </trkpt>
      <trkpt lat="45.13771" lon="2.50054">
        <ele>881</ele>
        <time>2018-05-20T15:27:42.000Z</time>
      </trkpt>
      <trkpt lat="45.13768" lon="2.50045">
        <ele>881.8</ele>
        <time>2018-05-20T15:27:52.000Z</time>
      </trkpt>
      <trkpt lat="45.13769" lon="2.50044">
        <ele>882</ele>
        <time>2018-05-20T15:27:55.000Z</time>
      </trkpt>
      <trkpt lat="45.13769" lon="2.5004">
        <ele>882.4</ele>
        <time>2018-05-20T15:27:58.000Z</time>
      </trkpt>
      <trkpt lat="45.13769" lon="2.50039">
        <ele>882.6</ele>
        <time>2018-05-20T15:27:59.000Z</time>
      </trkpt>
      <trkpt lat="45.13769" lon="2.50036">
        <ele>883</ele>
        <time>2018-05-20T15:28:01.000Z</time>
      </trkpt>
      <trkpt lat="45.13768" lon="2.50035">
        <ele>883.2</ele>
        <time>2018-05-20T15:28:02.000Z</time>
      </trkpt>
      <trkpt lat="45.13767" lon="2.50033">
        <ele>883.6</ele>
        <time>2018-05-20T15:28:03.000Z</time>
      </trkpt>
      <trkpt lat="45.13766" lon="2.50029">
        <ele>884.2</ele>
        <time>2018-05-20T15:28:06.000Z</time>
      </trkpt>
      <trkpt lat="45.13765" lon="2.50029">
        <ele>884.4</ele>
        <time>2018-05-20T15:28:07.000Z</time>
      </trkpt>
      <trkpt lat="45.13761" lon="2.50026">
        <ele>884.8</ele>
        <time>2018-05-20T15:28:10.000Z</time>
      </trkpt>
      <trkpt lat="45.13759" lon="2.50024">
        <ele>885.2</ele>
        <time>2018-05-20T15:28:12.000Z</time>
      </trkpt>
      <trkpt lat="45.13759" lon="2.50024">
        <ele>885.4</ele>
        <time>2018-05-20T15:28:13.000Z</time>
      </trkpt>
      <trkpt lat="45.13759" lon="2.50022">
        <ele>885.6</ele>
        <time>2018-05-20T15:28:14.000Z</time>
      </trkpt>
      <trkpt lat="45.13755" lon="2.50012">
        <ele>886.4</ele>
        <time>2018-05-20T15:28:22.000Z</time>
      </trkpt>
      <trkpt lat="45.13753" lon="2.50008">
        <ele>886.8</ele>
        <time>2018-05-20T15:28:25.000Z</time>
      </trkpt>
      <trkpt lat="45.13752" lon="2.50004">
        <ele>887.4</ele>
        <time>2018-05-20T15:28:29.000Z</time>
      </trkpt>
      <trkpt lat="45.13747" lon="2.5">
        <ele>888.2</ele>
        <time>2018-05-20T15:28:37.000Z</time>
      </trkpt>
      <trkpt lat="45.13745" lon="2.5">
        <ele>888.4</ele>
        <time>2018-05-20T15:28:39.000Z</time>
      </trkpt>
      <trkpt lat="45.13744" lon="2.49995">
        <ele>889.4</ele>
        <time>2018-05-20T15:28:46.000Z</time>
      </trkpt>
      <trkpt lat="45.13741" lon="2.49994">
        <ele>890.4</ele>
        <time>2018-05-20T15:28:51.000Z</time>
      </trkpt>
      <trkpt lat="45.1374" lon="2.49984">
        <ele>891.8</ele>
        <time>2018-05-20T15:28:59.000Z</time>
      </trkpt>
      <trkpt lat="45.13738" lon="2.49982">
        <ele>893</ele>
        <time>2018-05-20T15:29:02.000Z</time>
      </trkpt>
      <trkpt lat="45.13737" lon="2.49977">
        <ele>894</ele>
        <time>2018-05-20T15:29:07.000Z</time>
      </trkpt>
      <trkpt lat="45.13734" lon="2.49967">
        <ele>895</ele>
        <time>2018-05-20T15:29:16.000Z</time>
      </trkpt>
      <trkpt lat="45.13734" lon="2.49961">
        <ele>896.2</ele>
        <time>2018-05-20T15:29:21.000Z</time>
      </trkpt>
      <trkpt lat="45.13734" lon="2.49958">
        <ele>896.8</ele>
        <time>2018-05-20T15:29:24.000Z</time>
      </trkpt>
      <trkpt lat="45.13732" lon="2.49957">
        <ele>897.2</ele>
        <time>2018-05-20T15:29:26.000Z</time>
      </trkpt>
      <trkpt lat="45.13731" lon="2.49957">
        <ele>897.4</ele>
        <time>2018-05-20T15:29:27.000Z</time>
      </trkpt>
      <trkpt lat="45.1373" lon="2.49957">
        <ele>897.6</ele>
        <time>2018-05-20T15:29:28.000Z</time>
      </trkpt>
      <trkpt lat="45.13728" lon="2.49956">
        <ele>897.8</ele>
        <time>2018-05-20T15:29:30.000Z</time>
      </trkpt>
      <trkpt lat="45.13724" lon="2.49953">
        <ele>898.4</ele>
        <time>2018-05-20T15:29:37.000Z</time>
      </trkpt>
      <trkpt lat="45.13721" lon="2.4995">
        <ele>899.6</ele>
        <time>2018-05-20T15:29:43.000Z</time>
      </trkpt>
      <trkpt lat="45.1372" lon="2.49947">
        <ele>900.4</ele>
        <time>2018-05-20T15:29:48.000Z</time>
      </trkpt>
      <trkpt lat="45.13719" lon="2.49946">
        <ele>900.6</ele>
        <time>2018-05-20T15:29:51.000Z</time>
      </trkpt>
      <trkpt lat="45.13712" lon="2.49935">
        <ele>902.4</ele>
        <time>2018-05-20T15:30:03.000Z</time>
      </trkpt>
      <trkpt lat="45.13711" lon="2.49933">
        <ele>902.8</ele>
        <time>2018-05-20T15:30:05.000Z</time>
      </trkpt>
      <trkpt lat="45.13708" lon="2.49928">
        <ele>903.6</ele>
        <time>2018-05-20T15:30:10.000Z</time>
      </trkpt>
      <trkpt lat="45.13708" lon="2.49927">
        <ele>903.8</ele>
        <time>2018-05-20T15:30:11.000Z</time>
      </trkpt>
      <trkpt lat="45.13702" lon="2.49923">
        <ele>905</ele>
        <time>2018-05-20T15:30:18.000Z</time>
      </trkpt>
      <trkpt lat="45.13699" lon="2.49919">
        <ele>906</ele>
        <time>2018-05-20T15:30:24.000Z</time>
      </trkpt>
      <trkpt lat="45.13697" lon="2.49918">
        <ele>906.4</ele>
        <time>2018-05-20T15:30:27.000Z</time>
      </trkpt>
      <trkpt lat="45.13698" lon="2.49917">
        <ele>906.6</ele>
        <time>2018-05-20T15:30:30.000Z</time>
      </trkpt>
      <trkpt lat="45.13694" lon="2.49909">
        <ele>908.2</ele>
        <time>2018-05-20T15:30:39.000Z</time>
      </trkpt>
      <trkpt lat="45.1369" lon="2.49904">
        <ele>909.4</ele>
        <time>2018-05-20T15:30:44.000Z</time>
      </trkpt>
      <trkpt lat="45.1369" lon="2.49901">
        <ele>910.8</ele>
        <time>2018-05-20T15:30:49.000Z</time>
      </trkpt>
      <trkpt lat="45.13684" lon="2.49897">
        <ele>911.8</ele>
        <time>2018-05-20T15:30:56.000Z</time>
      </trkpt>
      <trkpt lat="45.13683" lon="2.49894">
        <ele>912.8</ele>
        <time>2018-05-20T15:31:01.000Z</time>
      </trkpt>
      <trkpt lat="45.13683" lon="2.49891">
        <ele>914</ele>
        <time>2018-05-20T15:31:04.000Z</time>
      </trkpt>
      <trkpt lat="45.1367" lon="2.4988">
        <ele>916.6</ele>
        <time>2018-05-20T15:31:16.000Z</time>
      </trkpt>
      <trkpt lat="45.13671" lon="2.49877">
        <ele>917</ele>
        <time>2018-05-20T15:31:19.000Z</time>
      </trkpt>
      <trkpt lat="45.13669" lon="2.49866">
        <ele>918.2</ele>
        <time>2018-05-20T15:31:28.000Z</time>
      </trkpt>
      <trkpt lat="45.13669" lon="2.49863">
        <ele>918.4</ele>
        <time>2018-05-20T15:31:30.000Z</time>
      </trkpt>
      <trkpt lat="45.13666" lon="2.49848">
        <ele>919</ele>
        <time>2018-05-20T15:31:38.000Z</time>
      </trkpt>
      <trkpt lat="45.13663" lon="2.49844">
        <ele>919.4</ele>
        <time>2018-05-20T15:31:40.000Z</time>
      </trkpt>
      <trkpt lat="45.13652" lon="2.49823">
        <ele>919.8</ele>
        <time>2018-05-20T15:31:54.000Z</time>
      </trkpt>
      <trkpt lat="45.13652" lon="2.49816">
        <ele>920.4</ele>
        <time>2018-05-20T15:31:58.000Z</time>
      </trkpt>
      <trkpt lat="45.13652" lon="2.49816">
        <ele>920.4</ele>
        <time>2018-05-20T15:31:59.000Z</time>
      </trkpt>
      <trkpt lat="45.13652" lon="2.49814">
        <ele>920.6</ele>
        <time>2018-05-20T15:32:01.000Z</time>
      </trkpt>
      <trkpt lat="45.13648" lon="2.49805">
        <ele>920.8</ele>
        <time>2018-05-20T15:32:06.000Z</time>
      </trkpt>
      <trkpt lat="45.13646" lon="2.49799">
        <ele>921.2</ele>
        <time>2018-05-20T15:32:11.000Z</time>
      </trkpt>
      <trkpt lat="45.13645" lon="2.49798">
        <ele>921.4</ele>
        <time>2018-05-20T15:32:12.000Z</time>
      </trkpt>
      <trkpt lat="45.13644" lon="2.49793">
        <ele>922.2</ele>
        <time>2018-05-20T15:32:18.000Z</time>
      </trkpt>
      <trkpt lat="45.13642" lon="2.49786">
        <ele>922.6</ele>
        <time>2018-05-20T15:32:25.000Z</time>
      </trkpt>
      <trkpt lat="45.1364" lon="2.49779">
        <ele>923.6</ele>
        <time>2018-05-20T15:32:31.000Z</time>
      </trkpt>
      <trkpt lat="45.13639" lon="2.49769">
        <ele>924.8</ele>
        <time>2018-05-20T15:32:39.000Z</time>
      </trkpt>
      <trkpt lat="45.13639" lon="2.49768">
        <ele>925</ele>
        <time>2018-05-20T15:32:40.000Z</time>
      </trkpt>
      <trkpt lat="45.13635" lon="2.49758">
        <ele>925.6</ele>
        <time>2018-05-20T15:32:47.000Z</time>
      </trkpt>
      <trkpt lat="45.13635" lon="2.49754">
        <ele>925.8</ele>
        <time>2018-05-20T15:32:50.000Z</time>
      </trkpt>
      <trkpt lat="45.13635" lon="2.49752">
        <ele>926</ele>
        <time>2018-05-20T15:32:52.000Z</time>
      </trkpt>
      <trkpt lat="45.13634" lon="2.49748">
        <ele>926.8</ele>
        <time>2018-05-20T15:32:55.000Z</time>
      </trkpt>
      <trkpt lat="45.13633" lon="2.49742">
        <ele>928</ele>
        <time>2018-05-20T15:33:00.000Z</time>
      </trkpt>
      <trkpt lat="45.13632" lon="2.49741">
        <ele>928.2</ele>
        <time>2018-05-20T15:33:01.000Z</time>
      </trkpt>
      <trkpt lat="45.1363" lon="2.49737">
        <ele>928.6</ele>
        <time>2018-05-20T15:33:04.000Z</time>
      </trkpt>
      <trkpt lat="45.13625" lon="2.49724">
        <ele>929.6</ele>
        <time>2018-05-20T15:33:12.000Z</time>
      </trkpt>
      <trkpt lat="45.13624" lon="2.49722">
        <ele>929.6</ele>
        <time>2018-05-20T15:33:13.000Z</time>
      </trkpt>
      <trkpt lat="45.13624" lon="2.4972">
        <ele>929.6</ele>
        <time>2018-05-20T15:33:14.000Z</time>
      </trkpt>
      <trkpt lat="45.13624" lon="2.49719">
        <ele>929.6</ele>
        <time>2018-05-20T15:33:15.000Z</time>
      </trkpt>
      <trkpt lat="45.13623" lon="2.49717">
        <ele>929.6</ele>
        <time>2018-05-20T15:33:16.000Z</time>
      </trkpt>
      <trkpt lat="45.13623" lon="2.49716">
        <ele>929.8</ele>
        <time>2018-05-20T15:33:17.000Z</time>
      </trkpt>
      <trkpt lat="45.13621" lon="2.49714">
        <ele>930</ele>
        <time>2018-05-20T15:33:19.000Z</time>
      </trkpt>
      <trkpt lat="45.13621" lon="2.49712">
        <ele>930</ele>
        <time>2018-05-20T15:33:20.000Z</time>
      </trkpt>
      <trkpt lat="45.13616" lon="2.49705">
        <ele>930</ele>
        <time>2018-05-20T15:33:26.000Z</time>
      </trkpt>
      <trkpt lat="45.13612" lon="2.49701">
        <ele>929.6</ele>
        <time>2018-05-20T15:33:29.000Z</time>
      </trkpt>
      <trkpt lat="45.13611" lon="2.49698">
        <ele>929.4</ele>
        <time>2018-05-20T15:33:31.000Z</time>
      </trkpt>
      <trkpt lat="45.1361" lon="2.49697">
        <ele>929.4</ele>
        <time>2018-05-20T15:33:32.000Z</time>
      </trkpt>
      <trkpt lat="45.13611" lon="2.49696">
        <ele>929.2</ele>
        <time>2018-05-20T15:33:33.000Z</time>
      </trkpt>
      <trkpt lat="45.13611" lon="2.49695">
        <ele>929.2</ele>
        <time>2018-05-20T15:33:34.000Z</time>
      </trkpt>
      <trkpt lat="45.13613" lon="2.49696">
        <ele>929</ele>
        <time>2018-05-20T15:33:40.000Z</time>
      </trkpt>
      <trkpt lat="45.13613" lon="2.49696">
        <ele>928.6</ele>
        <time>2018-05-20T15:33:42.000Z</time>
      </trkpt>
      <trkpt lat="45.13614" lon="2.49697">
        <ele>928.6</ele>
        <time>2018-05-20T15:33:46.000Z</time>
      </trkpt>
      <trkpt lat="45.13614" lon="2.49697">
        <ele>928.8</ele>
        <time>2018-05-20T15:33:48.000Z</time>
      </trkpt>
      <trkpt lat="45.1361" lon="2.49693">
        <ele>929</ele>
        <time>2018-05-20T15:33:53.000Z</time>
      </trkpt>
      <trkpt lat="45.13608" lon="2.49684">
        <ele>929.8</ele>
        <time>2018-05-20T15:33:59.000Z</time>
      </trkpt>
      <trkpt lat="45.13609" lon="2.49676">
        <ele>930</ele>
        <time>2018-05-20T15:34:04.000Z</time>
      </trkpt>
      <trkpt lat="45.13611" lon="2.49669">
        <ele>931.2</ele>
        <time>2018-05-20T15:34:08.000Z</time>
      </trkpt>
      <trkpt lat="45.13611" lon="2.49662">
        <ele>932.2</ele>
        <time>2018-05-20T15:34:11.000Z</time>
      </trkpt>
      <trkpt lat="45.13613" lon="2.49657">
        <ele>933.6</ele>
        <time>2018-05-20T15:34:14.000Z</time>
      </trkpt>
      <trkpt lat="45.1361" lon="2.49647">
        <ele>934.6</ele>
        <time>2018-05-20T15:34:19.000Z</time>
      </trkpt>
      <trkpt lat="45.13606" lon="2.49638">
        <ele>935.4</ele>
        <time>2018-05-20T15:34:24.000Z</time>
      </trkpt>
      <trkpt lat="45.13604" lon="2.49635">
        <ele>935.6</ele>
        <time>2018-05-20T15:34:25.000Z</time>
      </trkpt>
      <trkpt lat="45.13604" lon="2.49634">
        <ele>935.8</ele>
        <time>2018-05-20T15:34:26.000Z</time>
      </trkpt>
      <trkpt lat="45.13605" lon="2.49634">
        <ele>935.8</ele>
        <time>2018-05-20T15:34:30.000Z</time>
      </trkpt>
      <trkpt lat="45.13604" lon="2.49631">
        <ele>935.8</ele>
        <time>2018-05-20T15:34:34.000Z</time>
      </trkpt>
      <trkpt lat="45.13603" lon="2.49628">
        <ele>936.4</ele>
        <time>2018-05-20T15:34:37.000Z</time>
      </trkpt>
      <trkpt lat="45.13603" lon="2.49627">
        <ele>936.8</ele>
        <time>2018-05-20T15:34:38.000Z</time>
      </trkpt>
      <trkpt lat="45.13603" lon="2.49621">
        <ele>937.6</ele>
        <time>2018-05-20T15:34:44.000Z</time>
      </trkpt>
      <trkpt lat="45.13602" lon="2.49614">
        <ele>938.6</ele>
        <time>2018-05-20T15:34:50.000Z</time>
      </trkpt>
      <trkpt lat="45.13599" lon="2.49609">
        <ele>939.6</ele>
        <time>2018-05-20T15:34:53.000Z</time>
      </trkpt>
      <trkpt lat="45.13599" lon="2.49606">
        <ele>939.8</ele>
        <time>2018-05-20T15:34:55.000Z</time>
      </trkpt>
      <trkpt lat="45.13599" lon="2.49603">
        <ele>940</ele>
        <time>2018-05-20T15:34:56.000Z</time>
      </trkpt>
      <trkpt lat="45.13598" lon="2.49602">
        <ele>940.2</ele>
        <time>2018-05-20T15:34:57.000Z</time>
      </trkpt>
      <trkpt lat="45.13597" lon="2.496">
        <ele>940.8</ele>
        <time>2018-05-20T15:34:59.000Z</time>
      </trkpt>
      <trkpt lat="45.13597" lon="2.49596">
        <ele>941</ele>
        <time>2018-05-20T15:35:01.000Z</time>
      </trkpt>
      <trkpt lat="45.13596" lon="2.49587">
        <ele>942</ele>
        <time>2018-05-20T15:35:05.000Z</time>
      </trkpt>
      <trkpt lat="45.13595" lon="2.49585">
        <ele>942</ele>
        <time>2018-05-20T15:35:06.000Z</time>
      </trkpt>
      <trkpt lat="45.13595" lon="2.49583">
        <ele>942.2</ele>
        <time>2018-05-20T15:35:07.000Z</time>
      </trkpt>
      <trkpt lat="45.13594" lon="2.49581">
        <ele>942.4</ele>
        <time>2018-05-20T15:35:09.000Z</time>
      </trkpt>
      <trkpt lat="45.13594" lon="2.4958">
        <ele>942.6</ele>
        <time>2018-05-20T15:35:10.000Z</time>
      </trkpt>
      <trkpt lat="45.13594" lon="2.49579">
        <ele>942.6</ele>
        <time>2018-05-20T15:35:11.000Z</time>
      </trkpt>
      <trkpt lat="45.13593" lon="2.49578">
        <ele>942.8</ele>
        <time>2018-05-20T15:35:13.000Z</time>
      </trkpt>
      <trkpt lat="45.13595" lon="2.49578">
        <ele>942.8</ele>
        <time>2018-05-20T15:35:15.000Z</time>
      </trkpt>
      <trkpt lat="45.13596" lon="2.49572">
        <ele>943.4</ele>
        <time>2018-05-20T15:35:20.000Z</time>
      </trkpt>
      <trkpt lat="45.13594" lon="2.49567">
        <ele>944.6</ele>
        <time>2018-05-20T15:35:24.000Z</time>
      </trkpt>
      <trkpt lat="45.13594" lon="2.49565">
        <ele>945.2</ele>
        <time>2018-05-20T15:35:26.000Z</time>
      </trkpt>
      <trkpt lat="45.13593" lon="2.49562">
        <ele>945.8</ele>
        <time>2018-05-20T15:35:28.000Z</time>
      </trkpt>
      <trkpt lat="45.13592" lon="2.49561">
        <ele>946.6</ele>
        <time>2018-05-20T15:35:31.000Z</time>
      </trkpt>
      <trkpt lat="45.13591" lon="2.4956">
        <ele>946.8</ele>
        <time>2018-05-20T15:35:32.000Z</time>
      </trkpt>
      <trkpt lat="45.1359" lon="2.49558">
        <ele>947.4</ele>
        <time>2018-05-20T15:35:36.000Z</time>
      </trkpt>
      <trkpt lat="45.1359" lon="2.49555">
        <ele>947.8</ele>
        <time>2018-05-20T15:35:38.000Z</time>
      </trkpt>
      <trkpt lat="45.1359" lon="2.49554">
        <ele>947.8</ele>
        <time>2018-05-20T15:35:39.000Z</time>
      </trkpt>
      <trkpt lat="45.13589" lon="2.49551">
        <ele>948.2</ele>
        <time>2018-05-20T15:35:42.000Z</time>
      </trkpt>
      <trkpt lat="45.13588" lon="2.4955">
        <ele>948.6</ele>
        <time>2018-05-20T15:35:44.000Z</time>
      </trkpt>
      <trkpt lat="45.13587" lon="2.49548">
        <ele>948.8</ele>
        <time>2018-05-20T15:35:46.000Z</time>
      </trkpt>
      <trkpt lat="45.13587" lon="2.49548">
        <ele>949</ele>
        <time>2018-05-20T15:35:47.000Z</time>
      </trkpt>
      <trkpt lat="45.13587" lon="2.49547">
        <ele>949.2</ele>
        <time>2018-05-20T15:35:50.000Z</time>
      </trkpt>
      <trkpt lat="45.13586" lon="2.49546">
        <ele>949.6</ele>
        <time>2018-05-20T15:35:53.000Z</time>
      </trkpt>
      <trkpt lat="45.13586" lon="2.49544">
        <ele>950</ele>
        <time>2018-05-20T15:35:55.000Z</time>
      </trkpt>
      <trkpt lat="45.13586" lon="2.49543">
        <ele>950.2</ele>
        <time>2018-05-20T15:35:56.000Z</time>
      </trkpt>
      <trkpt lat="45.13585" lon="2.49538">
        <ele>951</ele>
        <time>2018-05-20T15:36:02.000Z</time>
      </trkpt>
      <trkpt lat="45.13579" lon="2.49526">
        <ele>952</ele>
        <time>2018-05-20T15:36:11.000Z</time>
      </trkpt>
      <trkpt lat="45.13577" lon="2.49525">
        <ele>952</ele>
        <time>2018-05-20T15:36:13.000Z</time>
      </trkpt>
      <trkpt lat="45.13576" lon="2.49524">
        <ele>952.4</ele>
        <time>2018-05-20T15:36:15.000Z</time>
      </trkpt>
      <trkpt lat="45.13571" lon="2.4952">
        <ele>953.2</ele>
        <time>2018-05-20T15:36:19.000Z</time>
      </trkpt>
      <trkpt lat="45.13569" lon="2.49515">
        <ele>954.4</ele>
        <time>2018-05-20T15:36:26.000Z</time>
      </trkpt>
      <trkpt lat="45.13569" lon="2.49505">
        <ele>955</ele>
        <time>2018-05-20T15:36:33.000Z</time>
      </trkpt>
      <trkpt lat="45.13569" lon="2.49504">
        <ele>955</ele>
        <time>2018-05-20T15:36:35.000Z</time>
      </trkpt>
      <trkpt lat="45.13566" lon="2.49501">
        <ele>955</ele>
        <time>2018-05-20T15:36:38.000Z</time>
      </trkpt>
      <trkpt lat="45.13561" lon="2.49493">
        <ele>955</ele>
        <time>2018-05-20T15:36:43.000Z</time>
      </trkpt>
      <trkpt lat="45.13558" lon="2.4949">
        <ele>954.8</ele>
        <time>2018-05-20T15:36:46.000Z</time>
      </trkpt>
      <trkpt lat="45.13556" lon="2.49488">
        <ele>954.8</ele>
        <time>2018-05-20T15:36:48.000Z</time>
      </trkpt>
      <trkpt lat="45.13554" lon="2.49484">
        <ele>954.4</ele>
        <time>2018-05-20T15:36:50.000Z</time>
      </trkpt>
      <trkpt lat="45.1355" lon="2.49481">
        <ele>953.8</ele>
        <time>2018-05-20T15:36:54.000Z</time>
      </trkpt>
      <trkpt lat="45.1355" lon="2.49479">
        <ele>954</ele>
        <time>2018-05-20T15:36:56.000Z</time>
      </trkpt>
      <trkpt lat="45.1355" lon="2.49478">
        <ele>954</ele>
        <time>2018-05-20T15:36:57.000Z</time>
      </trkpt>
      <trkpt lat="45.13548" lon="2.49465">
        <ele>954.8</ele>
        <time>2018-05-20T15:37:08.000Z</time>
      </trkpt>
      <trkpt lat="45.1355" lon="2.49459">
        <ele>955</ele>
        <time>2018-05-20T15:37:11.000Z</time>
      </trkpt>
      <trkpt lat="45.13549" lon="2.49452">
        <ele>955.2</ele>
        <time>2018-05-20T15:37:15.000Z</time>
      </trkpt>
      <trkpt lat="45.13549" lon="2.49448">
        <ele>955.4</ele>
        <time>2018-05-20T15:37:19.000Z</time>
      </trkpt>
      <trkpt lat="45.13537" lon="2.49423">
        <ele>955.4</ele>
        <time>2018-05-20T15:37:29.000Z</time>
      </trkpt>
      <trkpt lat="45.1354" lon="2.49415">
        <ele>955.6</ele>
        <time>2018-05-20T15:37:34.000Z</time>
      </trkpt>
      <trkpt lat="45.13557" lon="2.49404">
        <ele>958.6</ele>
        <time>2018-05-20T15:37:50.000Z</time>
      </trkpt>
      <trkpt lat="45.13557" lon="2.49404">
        <ele>958.8</ele>
        <time>2018-05-20T15:37:51.000Z</time>
      </trkpt>
      <trkpt lat="45.13561" lon="2.49402">
        <ele>959.8</ele>
        <time>2018-05-20T15:37:58.000Z</time>
      </trkpt>
      <trkpt lat="45.13564" lon="2.49398">
        <ele>960.4</ele>
        <time>2018-05-20T15:38:02.000Z</time>
      </trkpt>
      <trkpt lat="45.13562" lon="2.49393">
        <ele>960.6</ele>
        <time>2018-05-20T15:38:04.000Z</time>
      </trkpt>
      <trkpt lat="45.13562" lon="2.49392">
        <ele>960.8</ele>
        <time>2018-05-20T15:38:05.000Z</time>
      </trkpt>
      <trkpt lat="45.13563" lon="2.49388">
        <ele>961.2</ele>
        <time>2018-05-20T15:38:09.000Z</time>
      </trkpt>
      <trkpt lat="45.13567" lon="2.49387">
        <ele>961.6</ele>
        <time>2018-05-20T15:38:12.000Z</time>
      </trkpt>
      <trkpt lat="45.13575" lon="2.49384">
        <ele>963</ele>
        <time>2018-05-20T15:38:19.000Z</time>
      </trkpt>
      <trkpt lat="45.13577" lon="2.49382">
        <ele>963.6</ele>
        <time>2018-05-20T15:38:22.000Z</time>
      </trkpt>
      <trkpt lat="45.13578" lon="2.49382">
        <ele>963.8</ele>
        <time>2018-05-20T15:38:23.000Z</time>
      </trkpt>
      <trkpt lat="45.1358" lon="2.49383">
        <ele>964</ele>
        <time>2018-05-20T15:38:24.000Z</time>
      </trkpt>
      <trkpt lat="45.13582" lon="2.49383">
        <ele>964.2</ele>
        <time>2018-05-20T15:38:25.000Z</time>
      </trkpt>
      <trkpt lat="45.13588" lon="2.49384">
        <ele>965.4</ele>
        <time>2018-05-20T15:38:31.000Z</time>
      </trkpt>
      <trkpt lat="45.13593" lon="2.49383">
        <ele>966</ele>
        <time>2018-05-20T15:38:34.000Z</time>
      </trkpt>
      <trkpt lat="45.13598" lon="2.49381">
        <ele>966.4</ele>
        <time>2018-05-20T15:38:38.000Z</time>
      </trkpt>
      <trkpt lat="45.13607" lon="2.49379">
        <ele>967</ele>
        <time>2018-05-20T15:38:45.000Z</time>
      </trkpt>
      <trkpt lat="45.13608" lon="2.49376">
        <ele>967.4</ele>
        <time>2018-05-20T15:38:48.000Z</time>
      </trkpt>
      <trkpt lat="45.13609" lon="2.49377">
        <ele>967.6</ele>
        <time>2018-05-20T15:38:49.000Z</time>
      </trkpt>
      <trkpt lat="45.13617" lon="2.49376">
        <ele>968.2</ele>
        <time>2018-05-20T15:38:54.000Z</time>
      </trkpt>
      <trkpt lat="45.13622" lon="2.49374">
        <ele>968.6</ele>
        <time>2018-05-20T15:38:57.000Z</time>
      </trkpt>
      <trkpt lat="45.13624" lon="2.49365">
        <ele>969</ele>
        <time>2018-05-20T15:39:01.000Z</time>
      </trkpt>
      <trkpt lat="45.13628" lon="2.4936">
        <ele>969.4</ele>
        <time>2018-05-20T15:39:05.000Z</time>
      </trkpt>
      <trkpt lat="45.1363" lon="2.49359">
        <ele>969.8</ele>
        <time>2018-05-20T15:39:07.000Z</time>
      </trkpt>
      <trkpt lat="45.13644" lon="2.49357">
        <ele>970.2</ele>
        <time>2018-05-20T15:39:15.000Z</time>
      </trkpt>
      <trkpt lat="45.13645" lon="2.49355">
        <ele>970.2</ele>
        <time>2018-05-20T15:39:16.000Z</time>
      </trkpt>
      <trkpt lat="45.13646" lon="2.49354">
        <ele>970.2</ele>
        <time>2018-05-20T15:39:17.000Z</time>
      </trkpt>
      <trkpt lat="45.13647" lon="2.49354">
        <ele>970.2</ele>
        <time>2018-05-20T15:39:19.000Z</time>
      </trkpt>
      <trkpt lat="45.13647" lon="2.49356">
        <ele>970</ele>
        <time>2018-05-20T15:39:22.000Z</time>
      </trkpt>
      <trkpt lat="45.1365" lon="2.49355">
        <ele>970</ele>
        <time>2018-05-20T15:39:26.000Z</time>
      </trkpt>
      <trkpt lat="45.13645" lon="2.4934">
        <ele>970.2</ele>
        <time>2018-05-20T15:39:28.000Z</time>
      </trkpt>
      <trkpt lat="45.13645" lon="2.49338">
        <ele>970.2</ele>
        <time>2018-05-20T15:39:29.000Z</time>
      </trkpt>
      <trkpt lat="45.13645" lon="2.49337">
        <ele>970.2</ele>
        <time>2018-05-20T15:39:30.000Z</time>
      </trkpt>
      <trkpt lat="45.1365" lon="2.49331">
        <ele>970.2</ele>
        <time>2018-05-20T15:39:35.000Z</time>
      </trkpt>
      <trkpt lat="45.13659" lon="2.49326">
        <ele>970.8</ele>
        <time>2018-05-20T15:39:40.000Z</time>
      </trkpt>
      <trkpt lat="45.13664" lon="2.49323">
        <ele>971</ele>
        <time>2018-05-20T15:39:43.000Z</time>
      </trkpt>
      <trkpt lat="45.13665" lon="2.49322">
        <ele>971</ele>
        <time>2018-05-20T15:39:44.000Z</time>
      </trkpt>
      <trkpt lat="45.13669" lon="2.49321">
        <ele>971.2</ele>
        <time>2018-05-20T15:39:46.000Z</time>
      </trkpt>
      <trkpt lat="45.13673" lon="2.49318">
        <ele>971.6</ele>
        <time>2018-05-20T15:39:48.000Z</time>
      </trkpt>
      <trkpt lat="45.13675" lon="2.49318">
        <ele>971.8</ele>
        <time>2018-05-20T15:39:49.000Z</time>
      </trkpt>
      <trkpt lat="45.1368" lon="2.49315">
        <ele>972.2</ele>
        <time>2018-05-20T15:39:51.000Z</time>
      </trkpt>
      <trkpt lat="45.13685" lon="2.49313">
        <ele>972.6</ele>
        <time>2018-05-20T15:39:53.000Z</time>
      </trkpt>
      <trkpt lat="45.13687" lon="2.49309">
        <ele>973</ele>
        <time>2018-05-20T15:39:55.000Z</time>
      </trkpt>
      <trkpt lat="45.13695" lon="2.49304">
        <ele>973.8</ele>
        <time>2018-05-20T15:40:01.000Z</time>
      </trkpt>
      <trkpt lat="45.13703" lon="2.49296">
        <ele>973.6</ele>
        <time>2018-05-20T15:40:06.000Z</time>
      </trkpt>
      <trkpt lat="45.13708" lon="2.49291">
        <ele>973.2</ele>
        <time>2018-05-20T15:40:09.000Z</time>
      </trkpt>
      <trkpt lat="45.1371" lon="2.49284">
        <ele>972.8</ele>
        <time>2018-05-20T15:40:12.000Z</time>
      </trkpt>
      <trkpt lat="45.13712" lon="2.4928">
        <ele>972.4</ele>
        <time>2018-05-20T15:40:14.000Z</time>
      </trkpt>
      <trkpt lat="45.13714" lon="2.49279">
        <ele>972.4</ele>
        <time>2018-05-20T15:40:15.000Z</time>
      </trkpt>
      <trkpt lat="45.13715" lon="2.49274">
        <ele>972</ele>
        <time>2018-05-20T15:40:17.000Z</time>
      </trkpt>
      <trkpt lat="45.13717" lon="2.49273">
        <ele>972</ele>
        <time>2018-05-20T15:40:18.000Z</time>
      </trkpt>
      <trkpt lat="45.13723" lon="2.4926">
        <ele>971</ele>
        <time>2018-05-20T15:40:24.000Z</time>
      </trkpt>
      <trkpt lat="45.13724" lon="2.49259">
        <ele>970.8</ele>
        <time>2018-05-20T15:40:25.000Z</time>
      </trkpt>
      <trkpt lat="45.13726" lon="2.49257">
        <ele>970.6</ele>
        <time>2018-05-20T15:40:26.000Z</time>
      </trkpt>
      <trkpt lat="45.13728" lon="2.49252">
        <ele>970.2</ele>
        <time>2018-05-20T15:40:29.000Z</time>
      </trkpt>
      <trkpt lat="45.13728" lon="2.49251">
        <ele>970</ele>
        <time>2018-05-20T15:40:30.000Z</time>
      </trkpt>
      <trkpt lat="45.13729" lon="2.49252">
        <ele>969.8</ele>
        <time>2018-05-20T15:40:31.000Z</time>
      </trkpt>
      <trkpt lat="45.13732" lon="2.49252">
        <ele>969.6</ele>
        <time>2018-05-20T15:40:33.000Z</time>
      </trkpt>
      <trkpt lat="45.13735" lon="2.49251">
        <ele>969.6</ele>
        <time>2018-05-20T15:40:36.000Z</time>
      </trkpt>
      <trkpt lat="45.13738" lon="2.49252">
        <ele>969.8</ele>
        <time>2018-05-20T15:40:38.000Z</time>
      </trkpt>
      <trkpt lat="45.13739" lon="2.49252">
        <ele>970</ele>
        <time>2018-05-20T15:40:39.000Z</time>
      </trkpt>
      <trkpt lat="45.13747" lon="2.4925">
        <ele>971</ele>
        <time>2018-05-20T15:40:45.000Z</time>
      </trkpt>
      <trkpt lat="45.13748" lon="2.49249">
        <ele>971.2</ele>
        <time>2018-05-20T15:40:46.000Z</time>
      </trkpt>
      <trkpt lat="45.13753" lon="2.49249">
        <ele>972</ele>
        <time>2018-05-20T15:40:51.000Z</time>
      </trkpt>
      <trkpt lat="45.1376" lon="2.49253">
        <ele>973.2</ele>
        <time>2018-05-20T15:40:57.000Z</time>
      </trkpt>
      <trkpt lat="45.13766" lon="2.49255">
        <ele>974.4</ele>
        <time>2018-05-20T15:41:02.000Z</time>
      </trkpt>
      <trkpt lat="45.1377" lon="2.49257">
        <ele>975</ele>
        <time>2018-05-20T15:41:07.000Z</time>
      </trkpt>
      <trkpt lat="45.13771" lon="2.49258">
        <ele>975.6</ele>
        <time>2018-05-20T15:41:09.000Z</time>
      </trkpt>
      <trkpt lat="45.13771" lon="2.49257">
        <ele>975.8</ele>
        <time>2018-05-20T15:41:10.000Z</time>
      </trkpt>
      <trkpt lat="45.13776" lon="2.4926">
        <ele>976.6</ele>
        <time>2018-05-20T15:41:15.000Z</time>
      </trkpt>
      <trkpt lat="45.13779" lon="2.4926">
        <ele>977.2</ele>
        <time>2018-05-20T15:41:17.000Z</time>
      </trkpt>
      <trkpt lat="45.13781" lon="2.49261">
        <ele>977.8</ele>
        <time>2018-05-20T15:41:19.000Z</time>
      </trkpt>
      <trkpt lat="45.13782" lon="2.49263">
        <ele>978</ele>
        <time>2018-05-20T15:41:21.000Z</time>
      </trkpt>
      <trkpt lat="45.13781" lon="2.49263">
        <ele>978.4</ele>
        <time>2018-05-20T15:41:22.000Z</time>
      </trkpt>
      <trkpt lat="45.13782" lon="2.49266">
        <ele>979</ele>
        <time>2018-05-20T15:41:24.000Z</time>
      </trkpt>
      <trkpt lat="45.13784" lon="2.49272">
        <ele>979.4</ele>
        <time>2018-05-20T15:41:27.000Z</time>
      </trkpt>
      <trkpt lat="45.13781" lon="2.49275">
        <ele>980</ele>
        <time>2018-05-20T15:41:30.000Z</time>
      </trkpt>
      <trkpt lat="45.13776" lon="2.49279">
        <ele>980.4</ele>
        <time>2018-05-20T15:41:34.000Z</time>
      </trkpt>
      <trkpt lat="45.13772" lon="2.49278">
        <ele>981</ele>
        <time>2018-05-20T15:41:38.000Z</time>
      </trkpt>
      <trkpt lat="45.13771" lon="2.49278">
        <ele>981.2</ele>
        <time>2018-05-20T15:41:39.000Z</time>
      </trkpt>
      <trkpt lat="45.13766" lon="2.49285">
        <ele>982</ele>
        <time>2018-05-20T15:41:43.000Z</time>
      </trkpt>
      <trkpt lat="45.13764" lon="2.49291">
        <ele>982.6</ele>
        <time>2018-05-20T15:41:46.000Z</time>
      </trkpt>
      <trkpt lat="45.13762" lon="2.49294">
        <ele>983</ele>
        <time>2018-05-20T15:41:48.000Z</time>
      </trkpt>
      <trkpt lat="45.13754" lon="2.49303">
        <ele>984</ele>
        <time>2018-05-20T15:41:52.000Z</time>
      </trkpt>
      <trkpt lat="45.1375" lon="2.49306">
        <ele>984.2</ele>
        <time>2018-05-20T15:41:54.000Z</time>
      </trkpt>
      <trkpt lat="45.13736" lon="2.49327">
        <ele>985.8</ele>
        <time>2018-05-20T15:42:08.000Z</time>
      </trkpt>
      <trkpt lat="45.1373" lon="2.49331">
        <ele>986.2</ele>
        <time>2018-05-20T15:42:13.000Z</time>
      </trkpt>
      <trkpt lat="45.13723" lon="2.49335">
        <ele>986.4</ele>
        <time>2018-05-20T15:42:16.000Z</time>
      </trkpt>
      <trkpt lat="45.13682" lon="2.49381">
        <ele>986.6</ele>
        <time>2018-05-20T15:42:40.000Z</time>
      </trkpt>
    </trkseg>
  </trk>
</gpx>